<?xml version='1.0' encoding='UTF-8'?><gpx version="1.1" creator="JPX - https://github.com/jenetics/jpx" xmlns="http://www.topografix.com/GPX/1/1"><trk><trkseg><trkpt lat="45.665843629326375" lon="9.679261775256315"><ele>228.99999999999997</ele><time>2026-04-06T13:19:28Z</time></trkpt><trkpt lat="45.66593562705563" lon="9.67929444946018"><ele>229.0</ele><time>2026-04-06T13:19:30Z</time></trkpt><trkpt lat="45.666037867329756" lon="9.679293599483385"><ele>229.0</ele><time>2026-04-06T13:19:31Z</time></trkpt><trkpt lat="45.666118686593386" lon="9.679312384697905"><ele>229.0</ele><time>2026-04-06T13:19:32Z</time></trkpt><trkpt lat="45.66619409460779" lon="9.679299105602844"><ele>228.99999999999997</ele><time>2026-04-06T13:19:33Z</time></trkpt><trkpt lat="45.66625898040366" lon="9.679254640857177"><ele>229.0</ele><time>2026-04-06T13:19:34Z</time></trkpt><trkpt lat="45.66628292163963" lon="9.67916339312483"><ele>229.0</ele><time>2026-04-06T13:19:35Z</time></trkpt><trkpt lat="45.66624736828282" lon="9.678997207188818"><ele>228.99999999999997</ele><time>2026-04-06T13:19:37Z</time></trkpt><trkpt lat="45.66620415779923" lon="9.678931668261425"><ele>228.99999999999997</ele><time>2026-04-06T13:19:38Z</time></trkpt><trkpt lat="45.666132060598095" lon="9.678781628618973"><ele>229.0</ele><time>2026-04-06T13:19:40.001Z</time></trkpt><trkpt lat="45.66608708794385" lon="9.678671883989141"><ele>229.0</ele><time>2026-04-06T13:19:41.001Z</time></trkpt><trkpt lat="45.666031634355036" lon="9.678546606588007"><ele>229.2</ele><time>2026-04-06T13:19:42.001Z</time></trkpt><trkpt lat="45.66597048257213" lon="9.67841723754698"><ele>229.39999999999998</ele><time>2026-04-06T13:19:43.001Z</time></trkpt><trkpt lat="45.665906380589966" lon="9.678285796109877"><ele>229.6</ele><time>2026-04-06T13:19:44.001Z</time></trkpt><trkpt lat="45.66584831940412" lon="9.678151972639569"><ele>229.8</ele><time>2026-04-06T13:19:45.001Z</time></trkpt><trkpt lat="45.66579905967554" lon="9.678026282479467"><ele>230.0</ele><time>2026-04-06T13:19:46.001Z</time></trkpt><trkpt lat="45.66575909796492" lon="9.67791619406601"><ele>230.0</ele><time>2026-04-06T13:19:47.001Z</time></trkpt><trkpt lat="45.66571476608388" lon="9.677817845563458"><ele>230.0</ele><time>2026-04-06T13:19:48.001Z</time></trkpt><trkpt lat="45.66566635818603" lon="9.677687850105567"><ele>230.0</ele><time>2026-04-06T13:19:49.001Z</time></trkpt><trkpt lat="45.66564012218704" lon="9.677587502348802"><ele>230.0</ele><time>2026-04-06T13:19:50.001Z</time></trkpt><trkpt lat="45.66561133691808" lon="9.677500063382858"><ele>230.0</ele><time>2026-04-06T13:19:52.001Z</time></trkpt><trkpt lat="45.6656370875055" lon="9.677307645091194"><ele>229.75</ele><time>2026-04-06T13:19:54.001Z</time></trkpt><trkpt lat="45.665681363110096" lon="9.67712894319805"><ele>229.5</ele><time>2026-04-06T13:19:55.001Z</time></trkpt><trkpt lat="45.665730266906856" lon="9.676945506211142"><ele>229.25</ele><time>2026-04-06T13:19:56.001Z</time></trkpt><trkpt lat="45.665811640589794" lon="9.676794138545088"><ele>229.0</ele><time>2026-04-06T13:19:57.001Z</time></trkpt><trkpt lat="45.66592723952033" lon="9.676688737956853"><ele>228.66666666666666</ele><time>2026-04-06T13:19:58.001Z</time></trkpt><trkpt lat="45.66608497194654" lon="9.676607891315538"><ele>228.33333333333331</ele><time>2026-04-06T13:19:59.001Z</time></trkpt><trkpt lat="45.666288435727374" lon="9.676540613366665"><ele>228.0</ele><time>2026-04-06T13:20:00.001Z</time></trkpt><trkpt lat="45.666482472630356" lon="9.67645140931445"><ele>229.0</ele><time>2026-04-06T13:20:01.001Z</time></trkpt><trkpt lat="45.66670579953599" lon="9.676353442131907"><ele>230.0</ele><time>2026-04-06T13:20:02.001Z</time></trkpt><trkpt lat="45.666940853397286" lon="9.676259355274297"><ele>230.0</ele><time>2026-04-06T13:20:03.001Z</time></trkpt><trkpt lat="45.667166039781705" lon="9.676171106463949"><ele>230.0</ele><time>2026-04-06T13:20:04.001Z</time></trkpt><trkpt lat="45.66738799711552" lon="9.67607207933318"><ele>229.5</ele><time>2026-04-06T13:20:05.001Z</time></trkpt><trkpt lat="45.66761599437405" lon="9.675976571407515"><ele>229.0</ele><time>2026-04-06T13:20:06.001Z</time></trkpt><trkpt lat="45.667847897980835" lon="9.675882257630697"><ele>230.0</ele><time>2026-04-06T13:20:07.001Z</time></trkpt><trkpt lat="45.668081290273264" lon="9.67579750130262"><ele>231.0</ele><time>2026-04-06T13:20:08.001Z</time></trkpt><trkpt lat="45.66831146736351" lon="9.67572198469131"><ele>231.0</ele><time>2026-04-06T13:20:09.001Z</time></trkpt><trkpt lat="45.668541054598755" lon="9.675644948231257"><ele>231.0</ele><time>2026-04-06T13:20:10.001Z</time></trkpt><trkpt lat="45.66877454360728" lon="9.675591431518194"><ele>232.5</ele><time>2026-04-06T13:20:11.001Z</time></trkpt><trkpt lat="45.66899854526813" lon="9.67548304846821"><ele>234.0</ele><time>2026-04-06T13:20:12.001Z</time></trkpt><trkpt lat="45.66922750349487" lon="9.675394269321767"><ele>234.0</ele><time>2026-04-06T13:20:13.001Z</time></trkpt><trkpt lat="45.66945804526466" lon="9.675303860957134"><ele>234.0</ele><time>2026-04-06T13:20:14.001Z</time></trkpt><trkpt lat="45.669688327910386" lon="9.675209144483668"><ele>232.5</ele><time>2026-04-06T13:20:15.001Z</time></trkpt><trkpt lat="45.669916197415034" lon="9.675109357078602"><ele>231.0</ele><time>2026-04-06T13:20:16.001Z</time></trkpt><trkpt lat="45.67014966736391" lon="9.675034696587986"><ele>231.5</ele><time>2026-04-06T13:20:17.001Z</time></trkpt><trkpt lat="45.670380639595756" lon="9.674940928833855"><ele>232.0</ele><time>2026-04-06T13:20:18.001Z</time></trkpt><trkpt lat="45.67060965919429" lon="9.674848259589215"><ele>232.0</ele><time>2026-04-06T13:20:19.001Z</time></trkpt><trkpt lat="45.67084018775445" lon="9.674757665606814"><ele>232.0</ele><time>2026-04-06T13:20:20.001Z</time></trkpt><trkpt lat="45.67107269950171" lon="9.674666293431741"><ele>231.0</ele><time>2026-04-06T13:20:21.001Z</time></trkpt><trkpt lat="45.671294451955575" lon="9.674556768339052"><ele>230.0</ele><time>2026-04-06T13:20:22.001Z</time></trkpt><trkpt lat="45.67153119645591" lon="9.674486113791023"><ele>231.5</ele><time>2026-04-06T13:20:23.001Z</time></trkpt><trkpt lat="45.67176601614227" lon="9.67439437500547"><ele>233.0</ele><time>2026-04-06T13:20:24.001Z</time></trkpt><trkpt lat="45.672001064527876" lon="9.674281879953888"><ele>233.0</ele><time>2026-04-06T13:20:25.001Z</time></trkpt><trkpt lat="45.67224180428119" lon="9.674185599166986"><ele>233.0</ele><time>2026-04-06T13:20:26.001Z</time></trkpt><trkpt lat="45.67248728813022" lon="9.674115040494787"><ele>233.0</ele><time>2026-04-06T13:20:27.001Z</time></trkpt><trkpt lat="45.67273463787324" lon="9.674019248745191"><ele>233.0</ele><time>2026-04-06T13:20:28.001Z</time></trkpt><trkpt lat="45.67298066570781" lon="9.673922773403143"><ele>234.0</ele><time>2026-04-06T13:20:29.001Z</time></trkpt><trkpt lat="45.673228028931234" lon="9.673820820532612"><ele>235.0</ele><time>2026-04-06T13:20:30.001Z</time></trkpt><trkpt lat="45.673474354071374" lon="9.673718577728636"><ele>235.0</ele><time>2026-04-06T13:20:31.001Z</time></trkpt><trkpt lat="45.67371640037775" lon="9.673594464008685"><ele>235.0</ele><time>2026-04-06T13:20:32.001Z</time></trkpt><trkpt lat="45.67396579293427" lon="9.673501256224421"><ele>235.0</ele><time>2026-04-06T13:20:33.001Z</time></trkpt><trkpt lat="45.67421814773803" lon="9.673413170444706"><ele>235.0</ele><time>2026-04-06T13:20:34.001Z</time></trkpt><trkpt lat="45.67446631293292" lon="9.673370519999837"><ele>236.0</ele><time>2026-04-06T13:20:35.001Z</time></trkpt><trkpt lat="45.67472143006686" lon="9.673324761840503"><ele>237.0</ele><time>2026-04-06T13:20:36.001Z</time></trkpt><trkpt lat="45.674976183214376" lon="9.673281727541731"><ele>237.0</ele><time>2026-04-06T13:20:37.001Z</time></trkpt><trkpt lat="45.67522226044745" lon="9.67320364666035"><ele>237.0</ele><time>2026-04-06T13:20:38.001Z</time></trkpt><trkpt lat="45.675455041615926" lon="9.673101173085652"><ele>237.0</ele><time>2026-04-06T13:20:39.001Z</time></trkpt><trkpt lat="45.67568291741157" lon="9.673006278374285"><ele>237.0</ele><time>2026-04-06T13:20:40.001Z</time></trkpt><trkpt lat="45.67590547094812" lon="9.672922291077462"><ele>237.0</ele><time>2026-04-06T13:20:41.001Z</time></trkpt><trkpt lat="45.6761379229238" lon="9.672880360830707"><ele>237.0</ele><time>2026-04-06T13:20:42.001Z</time></trkpt><trkpt lat="45.67634723357808" lon="9.672768187366113"><ele>237.0</ele><time>2026-04-06T13:20:43.001Z</time></trkpt><trkpt lat="45.67654746180598" lon="9.67267964938845"><ele>237.0</ele><time>2026-04-06T13:20:44.001Z</time></trkpt><trkpt lat="45.67674322068479" lon="9.672603013200389"><ele>237.0</ele><time>2026-04-06T13:20:45.001Z</time></trkpt><trkpt lat="45.6769329251686" lon="9.67255353206624"><ele>237.33333333333331</ele><time>2026-04-06T13:20:46.001Z</time></trkpt><trkpt lat="45.67711774710723" lon="9.67255728121259"><ele>237.66666666666666</ele><time>2026-04-06T13:20:47.001Z</time></trkpt><trkpt lat="45.67729634633039" lon="9.672574158211976"><ele>238.0</ele><time>2026-04-06T13:20:48.001Z</time></trkpt><trkpt lat="45.677477065382604" lon="9.672596077190788"><ele>238.0</ele><time>2026-04-06T13:20:49.001Z</time></trkpt><trkpt lat="45.677659578140485" lon="9.672607802041599"><ele>238.0</ele><time>2026-04-06T13:20:50.001Z</time></trkpt><trkpt lat="45.67784212906663" lon="9.67261507421172"><ele>238.0</ele><time>2026-04-06T13:20:51.001Z</time></trkpt><trkpt lat="45.678006369375936" lon="9.67262557131089"><ele>238.0</ele><time>2026-04-06T13:20:52.001Z</time></trkpt><trkpt lat="45.67816344589717" lon="9.672637025669768"><ele>238.0</ele><time>2026-04-06T13:20:53.001Z</time></trkpt><trkpt lat="45.67831968962285" lon="9.672640232500072"><ele>238.0</ele><time>2026-04-06T13:20:54.001Z</time></trkpt><trkpt lat="45.678477059177354" lon="9.672640370639058"><ele>238.25</ele><time>2026-04-06T13:20:55.001Z</time></trkpt><trkpt lat="45.678625834202315" lon="9.672646642046411"><ele>238.5</ele><time>2026-04-06T13:20:56.001Z</time></trkpt><trkpt lat="45.67876977838413" lon="9.67264931738928"><ele>238.75</ele><time>2026-04-06T13:20:57.001Z</time></trkpt><trkpt lat="45.67891664483186" lon="9.672650178317141"><ele>239.0</ele><time>2026-04-06T13:20:58.001Z</time></trkpt><trkpt lat="45.67906776218377" lon="9.672649809523689"><ele>239.0</ele><time>2026-04-06T13:20:59.001Z</time></trkpt><trkpt lat="45.67923794543728" lon="9.672671532266978"><ele>239.0</ele><time>2026-04-06T13:21:00.001Z</time></trkpt><trkpt lat="45.679406602921915" lon="9.672693052426775"><ele>239.0</ele><time>2026-04-06T13:21:01.001Z</time></trkpt><trkpt lat="45.67957049178726" lon="9.67270381154557"><ele>238.5</ele><time>2026-04-06T13:21:02.001Z</time></trkpt><trkpt lat="45.67971277434671" lon="9.672706379925001"><ele>238.0</ele><time>2026-04-06T13:21:03.001Z</time></trkpt><trkpt lat="45.6798376840309" lon="9.672712210500237"><ele>237.5</ele><time>2026-04-06T13:21:04.001Z</time></trkpt><trkpt lat="45.67996395398278" lon="9.672720882506379"><ele>237.0</ele><time>2026-04-06T13:21:05.001Z</time></trkpt><trkpt lat="45.68008295815088" lon="9.672725981213953"><ele>237.0</ele><time>2026-04-06T13:21:06.001Z</time></trkpt><trkpt lat="45.68019260308646" lon="9.67273500304258"><ele>237.0</ele><time>2026-04-06T13:21:07.001Z</time></trkpt><trkpt lat="45.68029799448797" lon="9.672735319062616"><ele>237.0</ele><time>2026-04-06T13:21:08.001Z</time></trkpt><trkpt lat="45.68040780933755" lon="9.672742118166035"><ele>237.0</ele><time>2026-04-06T13:21:09.001Z</time></trkpt><trkpt lat="45.68052082365813" lon="9.67274343265014"><ele>237.0</ele><time>2026-04-06T13:21:10.001Z</time></trkpt><trkpt lat="45.68062917802972" lon="9.672752864403874"><ele>237.2</ele><time>2026-04-06T13:21:11.001Z</time></trkpt><trkpt lat="45.68073441172743" lon="9.67277221196524"><ele>237.39999999999998</ele><time>2026-04-06T13:21:12.001Z</time></trkpt><trkpt lat="45.68084236944431" lon="9.672791012204657"><ele>237.60000000000002</ele><time>2026-04-06T13:21:13.001Z</time></trkpt><trkpt lat="45.68094207475308" lon="9.672792443329202"><ele>237.8</ele><time>2026-04-06T13:21:14.001Z</time></trkpt><trkpt lat="45.681042725230206" lon="9.672792990776168"><ele>238.0</ele><time>2026-04-06T13:21:15.001Z</time></trkpt><trkpt lat="45.68114069159736" lon="9.672799513952771"><ele>237.99999999999997</ele><time>2026-04-06T13:21:16.001Z</time></trkpt><trkpt lat="45.681238192849065" lon="9.672796953422196"><ele>238.0</ele><time>2026-04-06T13:21:17.001Z</time></trkpt><trkpt lat="45.681323027848265" lon="9.67279644657749"><ele>238.0</ele><time>2026-04-06T13:21:18.001Z</time></trkpt><trkpt lat="45.68140455828856" lon="9.67279138298089"><ele>238.0</ele><time>2026-04-06T13:21:19.001Z</time></trkpt><trkpt lat="45.68147754706204" lon="9.672788746468681"><ele>237.99999999999997</ele><time>2026-04-06T13:21:20.001Z</time></trkpt><trkpt lat="45.681580327399885" lon="9.672796546767762"><ele>238.0</ele><time>2026-04-06T13:21:22.001Z</time></trkpt><trkpt lat="45.68164768545069" lon="9.672799237954912"><ele>237.99999999999997</ele><time>2026-04-06T13:21:23.001Z</time></trkpt><trkpt lat="45.68171993752896" lon="9.672810837483771"><ele>238.0</ele><time>2026-04-06T13:21:24.001Z</time></trkpt><trkpt lat="45.68180079179153" lon="9.67281798760956"><ele>238.0</ele><time>2026-04-06T13:21:25.001Z</time></trkpt><trkpt lat="45.681888709830204" lon="9.672824251917929"><ele>238.0</ele><time>2026-04-06T13:21:26.001Z</time></trkpt><trkpt lat="45.68198524234396" lon="9.672837296873364"><ele>237.99999999999997</ele><time>2026-04-06T13:21:27.001Z</time></trkpt><trkpt lat="45.68209421061897" lon="9.672844550499484"><ele>238.0</ele><time>2026-04-06T13:21:28.001Z</time></trkpt><trkpt lat="45.68221247314338" lon="9.672847871809163"><ele>238.5</ele><time>2026-04-06T13:21:29.001Z</time></trkpt><trkpt lat="45.68232860626575" lon="9.67286390129542"><ele>239.0</ele><time>2026-04-06T13:21:30.001Z</time></trkpt><trkpt lat="45.68244038955204" lon="9.672868608544729"><ele>239.5</ele><time>2026-04-06T13:21:31.001Z</time></trkpt><trkpt lat="45.682555582632176" lon="9.67286855063292"><ele>240.0</ele><time>2026-04-06T13:21:32.001Z</time></trkpt><trkpt lat="45.68266787510287" lon="9.67288469746384"><ele>240.2</ele><time>2026-04-06T13:21:33.001Z</time></trkpt><trkpt lat="45.68278054750765" lon="9.672891105531022"><ele>240.4</ele><time>2026-04-06T13:21:34.001Z</time></trkpt><trkpt lat="45.68288376217859" lon="9.672891145989885"><ele>240.60000000000002</ele><time>2026-04-06T13:21:35.001Z</time></trkpt><trkpt lat="45.6829861056175" lon="9.672895202367712"><ele>240.8</ele><time>2026-04-06T13:21:36.001Z</time></trkpt><trkpt lat="45.683081338660145" lon="9.67289228458052"><ele>241.0</ele><time>2026-04-06T13:21:37.001Z</time></trkpt><trkpt lat="45.68316579660743" lon="9.672906746225122"><ele>240.99999999999997</ele><time>2026-04-06T13:21:38.001Z</time></trkpt><trkpt lat="45.683249218996274" lon="9.672909045708455"><ele>241.0</ele><time>2026-04-06T13:21:39.001Z</time></trkpt><trkpt lat="45.683324953634525" lon="9.672914280234332"><ele>241.0</ele><time>2026-04-06T13:21:40.001Z</time></trkpt><trkpt lat="45.68340111474659" lon="9.67291755646453"><ele>241.0</ele><time>2026-04-06T13:21:41.001Z</time></trkpt><trkpt lat="45.68349330820361" lon="9.67292121901533"><ele>240.99999999999997</ele><time>2026-04-06T13:21:42.001Z</time></trkpt><trkpt lat="45.6835867748683" lon="9.67292695101345"><ele>241.0</ele><time>2026-04-06T13:21:43.001Z</time></trkpt><trkpt lat="45.68368580637631" lon="9.672934494008727"><ele>241.0</ele><time>2026-04-06T13:21:44.001Z</time></trkpt><trkpt lat="45.683792617969765" lon="9.67293257513487"><ele>241.0</ele><time>2026-04-06T13:21:45.001Z</time></trkpt><trkpt lat="45.68391352423121" lon="9.672940265737095"><ele>241.0</ele><time>2026-04-06T13:21:46.001Z</time></trkpt><trkpt lat="45.68403352132995" lon="9.672950729959336"><ele>241.0</ele><time>2026-04-06T13:21:47.001Z</time></trkpt><trkpt lat="45.6841525048532" lon="9.672950321717334"><ele>241.0</ele><time>2026-04-06T13:21:48.001Z</time></trkpt><trkpt lat="45.68427679268242" lon="9.672965537901424"><ele>241.0</ele><time>2026-04-06T13:21:49.001Z</time></trkpt><trkpt lat="45.68440968284239" lon="9.672977998426834"><ele>241.0</ele><time>2026-04-06T13:21:50.001Z</time></trkpt><trkpt lat="45.684540248764456" lon="9.672984596365218"><ele>241.0</ele><time>2026-04-06T13:21:51.001Z</time></trkpt><trkpt lat="45.684663119001534" lon="9.673019205206394"><ele>241.5</ele><time>2026-04-06T13:21:52.001Z</time></trkpt><trkpt lat="45.68477158273541" lon="9.673031991435224"><ele>242.0</ele><time>2026-04-06T13:21:53.001Z</time></trkpt><trkpt lat="45.684963034236965" lon="9.673030584043431"><ele>242.5</ele><time>2026-04-06T13:21:55.001Z</time></trkpt><trkpt lat="45.68504142131955" lon="9.673052546528693"><ele>243.0</ele><time>2026-04-06T13:21:56.001Z</time></trkpt><trkpt lat="45.685116719732676" lon="9.673076041812047"><ele>243.0</ele><time>2026-04-06T13:21:57.001Z</time></trkpt><trkpt lat="45.68519980621965" lon="9.673095884194021"><ele>243.0</ele><time>2026-04-06T13:21:58.001Z</time></trkpt><trkpt lat="45.685292401028214" lon="9.673112793079554"><ele>243.0</ele><time>2026-04-06T13:21:59.001Z</time></trkpt><trkpt lat="45.685381857516546" lon="9.673144544286377"><ele>243.0</ele><time>2026-04-06T13:22:00.001Z</time></trkpt><trkpt lat="45.685474064325845" lon="9.673171556477028"><ele>243.0</ele><time>2026-04-06T13:22:01.001Z</time></trkpt><trkpt lat="45.68558078594253" lon="9.67317804873456"><ele>243.4</ele><time>2026-04-06T13:22:02.001Z</time></trkpt><trkpt lat="45.68568707820015" lon="9.673206450060038"><ele>243.8</ele><time>2026-04-06T13:22:03.001Z</time></trkpt><trkpt lat="45.68578922608549" lon="9.673230096210007"><ele>244.2</ele><time>2026-04-06T13:22:04.001Z</time></trkpt><trkpt lat="45.685880920059915" lon="9.673249703268809"><ele>244.6</ele><time>2026-04-06T13:22:05.001Z</time></trkpt><trkpt lat="45.68596499748651" lon="9.67326808496581"><ele>245.0</ele><time>2026-04-06T13:22:06.001Z</time></trkpt><trkpt lat="45.68604217428808" lon="9.673279696719995"><ele>244.6</ele><time>2026-04-06T13:22:07.001Z</time></trkpt><trkpt lat="45.68612500002507" lon="9.673312971869917"><ele>244.2</ele><time>2026-04-06T13:22:08.001Z</time></trkpt><trkpt lat="45.68622329534957" lon="9.673296055358746"><ele>243.8</ele><time>2026-04-06T13:22:09.001Z</time></trkpt><trkpt lat="45.68631217182981" lon="9.673281431311612"><ele>243.4</ele><time>2026-04-06T13:22:10.001Z</time></trkpt><trkpt lat="45.68639752103783" lon="9.673262607149836"><ele>243.0</ele><time>2026-04-06T13:22:11.001Z</time></trkpt><trkpt lat="45.6864995199876" lon="9.673235563065385"><ele>243.0</ele><time>2026-04-06T13:22:12.001Z</time></trkpt><trkpt lat="45.68660965650644" lon="9.673181135550376"><ele>243.0</ele><time>2026-04-06T13:22:13.001Z</time></trkpt><trkpt lat="45.686719215889" lon="9.673086587641066"><ele>243.0</ele><time>2026-04-06T13:22:14.001Z</time></trkpt><trkpt lat="45.686826380218896" lon="9.67297575622965"><ele>243.0</ele><time>2026-04-06T13:22:15.001Z</time></trkpt><trkpt lat="45.68693864664312" lon="9.6728666438016"><ele>243.75</ele><time>2026-04-06T13:22:16.001Z</time></trkpt><trkpt lat="45.687051050489" lon="9.672756289426754"><ele>244.5</ele><time>2026-04-06T13:22:17.001Z</time></trkpt><trkpt lat="45.687158634012945" lon="9.672659959904387"><ele>245.25</ele><time>2026-04-06T13:22:18.001Z</time></trkpt><trkpt lat="45.68725205668008" lon="9.672575950468461"><ele>246.0</ele><time>2026-04-06T13:22:19.001Z</time></trkpt><trkpt lat="45.687319751877496" lon="9.672515335254099"><ele>246.0</ele><time>2026-04-06T13:22:20.001Z</time></trkpt><trkpt lat="45.687376152849204" lon="9.672451491831177"><ele>246.0</ele><time>2026-04-06T13:22:21.001Z</time></trkpt><trkpt lat="45.68741934499254" lon="9.672378453188264"><ele>246.0</ele><time>2026-04-06T13:22:22.001Z</time></trkpt><trkpt lat="45.68749588509675" lon="9.672250594020776"><ele>246.0</ele><time>2026-04-06T13:22:24.001Z</time></trkpt><trkpt lat="45.68756630047776" lon="9.672173966151412"><ele>246.0</ele><time>2026-04-06T13:22:26.001Z</time></trkpt><trkpt lat="45.68766217231014" lon="9.67217086145318"><ele>246.0</ele><time>2026-04-06T13:22:28.002Z</time></trkpt><trkpt lat="45.68774690406828" lon="9.672277539042707"><ele>246.0</ele><time>2026-04-06T13:22:30.002Z</time></trkpt><trkpt lat="45.687758168907585" lon="9.672410186142073"><ele>246.0</ele><time>2026-04-06T13:22:31.002Z</time></trkpt><trkpt lat="45.687765049422865" lon="9.672565295490433"><ele>246.0</ele><time>2026-04-06T13:22:32.002Z</time></trkpt><trkpt lat="45.687762082111774" lon="9.672695215430537"><ele>246.0</ele><time>2026-04-06T13:22:33.002Z</time></trkpt><trkpt lat="45.687764872095755" lon="9.672801515975467"><ele>246.0</ele><time>2026-04-06T13:22:34.002Z</time></trkpt><trkpt lat="45.68776340006268" lon="9.672901545847717"><ele>246.0</ele><time>2026-04-06T13:22:36.002Z</time></trkpt><trkpt lat="45.68776133880701" lon="9.673027221557726"><ele>246.0</ele><time>2026-04-06T13:24:38.002Z</time></trkpt><trkpt lat="45.687764990462895" lon="9.673134640114196"><ele>246.0</ele><time>2026-04-06T13:24:39.002Z</time></trkpt><trkpt lat="45.68777776317842" lon="9.673284360927049"><ele>246.0</ele><time>2026-04-06T13:24:40.002Z</time></trkpt><trkpt lat="45.68778071842004" lon="9.673449090699377"><ele>246.0</ele><time>2026-04-06T13:24:41.002Z</time></trkpt><trkpt lat="45.68778107184619" lon="9.673686902901135"><ele>246.0</ele><time>2026-04-06T13:24:42.002Z</time></trkpt><trkpt lat="45.687790365703805" lon="9.673946246601258"><ele>246.0</ele><time>2026-04-06T13:24:43.002Z</time></trkpt><trkpt lat="45.687792478960525" lon="9.674281276793016"><ele>246.0</ele><time>2026-04-06T13:24:44.002Z</time></trkpt><trkpt lat="45.687800987274194" lon="9.67468277983521"><ele>246.0</ele><time>2026-04-06T13:24:45.002Z</time></trkpt><trkpt lat="45.687803962889795" lon="9.67506941870957"><ele>246.0</ele><time>2026-04-06T13:24:46.002Z</time></trkpt><trkpt lat="45.68780870386536" lon="9.675395827383678"><ele>246.0</ele><time>2026-04-06T13:24:47.002Z</time></trkpt><trkpt lat="45.68780994251985" lon="9.675687878069134"><ele>246.0</ele><time>2026-04-06T13:24:48.002Z</time></trkpt><trkpt lat="45.68783425930039" lon="9.67595967377058"><ele>246.0</ele><time>2026-04-06T13:24:49.002Z</time></trkpt><trkpt lat="45.68789690143485" lon="9.676215315086456"><ele>246.0</ele><time>2026-04-06T13:24:50.002Z</time></trkpt><trkpt lat="45.68796330461458" lon="9.676457115761051"><ele>246.0</ele><time>2026-04-06T13:24:51.002Z</time></trkpt><trkpt lat="45.688070986344286" lon="9.676721965854561"><ele>246.0</ele><time>2026-04-06T13:24:52.002Z</time></trkpt><trkpt lat="45.68818294199506" lon="9.676982630766036"><ele>246.0</ele><time>2026-04-06T13:24:53.002Z</time></trkpt><trkpt lat="45.68829788792382" lon="9.677230812929102"><ele>246.0</ele><time>2026-04-06T13:24:54.002Z</time></trkpt><trkpt lat="45.688409553298165" lon="9.677454861718656"><ele>246.0</ele><time>2026-04-06T13:24:55.002Z</time></trkpt><trkpt lat="45.68850851474647" lon="9.677709999813205"><ele>246.0</ele><time>2026-04-06T13:24:56.002Z</time></trkpt><trkpt lat="45.68863123247779" lon="9.677988957623874"><ele>246.0</ele><time>2026-04-06T13:24:57.002Z</time></trkpt><trkpt lat="45.6887682022961" lon="9.678279949432742"><ele>246.0</ele><time>2026-04-06T13:24:58.002Z</time></trkpt><trkpt lat="45.68889151751647" lon="9.678589301552341"><ele>246.0</ele><time>2026-04-06T13:24:59.002Z</time></trkpt><trkpt lat="45.689041219463654" lon="9.678876738255695"><ele>246.33333333333331</ele><time>2026-04-06T13:25:00.002Z</time></trkpt><trkpt lat="45.68919520581895" lon="9.67913386349484"><ele>246.66666666666666</ele><time>2026-04-06T13:25:01.002Z</time></trkpt><trkpt lat="45.68932734751972" lon="9.679349197327392"><ele>247.0</ele><time>2026-04-06T13:25:02.002Z</time></trkpt><trkpt lat="45.68944013136393" lon="9.679531159178511"><ele>247.0</ele><time>2026-04-06T13:25:03.002Z</time></trkpt><trkpt lat="45.689525139993236" lon="9.679671471423811"><ele>247.0</ele><time>2026-04-06T13:25:04.002Z</time></trkpt><trkpt lat="45.68957249515129" lon="9.679758429623178"><ele>247.0</ele><time>2026-04-06T13:25:05.002Z</time></trkpt><trkpt lat="45.689606594904525" lon="9.679843050548557"><ele>247.0</ele><time>2026-04-06T13:25:09.002Z</time></trkpt><trkpt lat="45.689671951652144" lon="9.679974544426242"><ele>247.0</ele><time>2026-04-06T13:25:25.002Z</time></trkpt><trkpt lat="45.68973705328638" lon="9.68006966525259"><ele>247.0</ele><time>2026-04-06T13:25:26.002Z</time></trkpt><trkpt lat="45.68980825226883" lon="9.680189031907513"><ele>247.0</ele><time>2026-04-06T13:25:27.002Z</time></trkpt><trkpt lat="45.68990205711651" lon="9.680332986767404"><ele>247.0</ele><time>2026-04-06T13:25:28.002Z</time></trkpt><trkpt lat="45.6899988811543" lon="9.680485443171525"><ele>247.0</ele><time>2026-04-06T13:25:29.002Z</time></trkpt><trkpt lat="45.69010438491374" lon="9.680655728751109"><ele>247.0</ele><time>2026-04-06T13:25:30.002Z</time></trkpt><trkpt lat="45.69020432600015" lon="9.680831575022191"><ele>247.0</ele><time>2026-04-06T13:25:31.002Z</time></trkpt><trkpt lat="45.690299977138224" lon="9.68102120755019"><ele>247.0</ele><time>2026-04-06T13:25:32.002Z</time></trkpt><trkpt lat="45.69038914148945" lon="9.681239616882632"><ele>247.0</ele><time>2026-04-06T13:25:33.002Z</time></trkpt><trkpt lat="45.69046122270325" lon="9.68146120306233"><ele>247.0</ele><time>2026-04-06T13:25:34.002Z</time></trkpt><trkpt lat="45.69050822581153" lon="9.681649198744106"><ele>247.0</ele><time>2026-04-06T13:25:35.002Z</time></trkpt><trkpt lat="45.69054943449521" lon="9.681829121118415"><ele>247.0</ele><time>2026-04-06T13:25:36.002Z</time></trkpt><trkpt lat="45.69059142509117" lon="9.682050639402329"><ele>247.33333333333331</ele><time>2026-04-06T13:25:37.002Z</time></trkpt><trkpt lat="45.69062560612374" lon="9.68230324823074"><ele>247.66666666666669</ele><time>2026-04-06T13:25:38.002Z</time></trkpt><trkpt lat="45.690644788888875" lon="9.682564729519413"><ele>248.0</ele><time>2026-04-06T13:25:39.002Z</time></trkpt><trkpt lat="45.69066146772299" lon="9.682862381074484"><ele>248.66666666666669</ele><time>2026-04-06T13:25:40.002Z</time></trkpt><trkpt lat="45.69067615510348" lon="9.683161316786041"><ele>249.33333333333331</ele><time>2026-04-06T13:25:41.002Z</time></trkpt><trkpt lat="45.690696314572605" lon="9.683466389282213"><ele>250.0</ele><time>2026-04-06T13:25:42.002Z</time></trkpt><trkpt lat="45.690720703702524" lon="9.6837801535354"><ele>250.0</ele><time>2026-04-06T13:25:43.003Z</time></trkpt><trkpt lat="45.690741846076335" lon="9.684102528463237"><ele>250.0</ele><time>2026-04-06T13:25:44.003Z</time></trkpt><trkpt lat="45.69076429802458" lon="9.684424750278747"><ele>250.5</ele><time>2026-04-06T13:25:45.003Z</time></trkpt><trkpt lat="45.690791191480166" lon="9.684753713662865"><ele>251.0</ele><time>2026-04-06T13:25:46.003Z</time></trkpt><trkpt lat="45.6908169566005" lon="9.685066501878604"><ele>251.66666666666669</ele><time>2026-04-06T13:25:47.003Z</time></trkpt><trkpt lat="45.69083727535497" lon="9.685361705931292"><ele>252.33333333333331</ele><time>2026-04-06T13:25:48.003Z</time></trkpt><trkpt lat="45.690855433140044" lon="9.685659416516305"><ele>253.0</ele><time>2026-04-06T13:25:49.003Z</time></trkpt><trkpt lat="45.69087156480255" lon="9.68595032418773"><ele>253.0</ele><time>2026-04-06T13:25:50.003Z</time></trkpt><trkpt lat="45.690875631358686" lon="9.686208238726758"><ele>253.0</ele><time>2026-04-06T13:25:51.003Z</time></trkpt><trkpt lat="45.69086944831613" lon="9.686452697791648"><ele>253.0</ele><time>2026-04-06T13:25:52.003Z</time></trkpt><trkpt lat="45.69086518717403" lon="9.68667081658762"><ele>253.0</ele><time>2026-04-06T13:25:53.003Z</time></trkpt><trkpt lat="45.69086054441717" lon="9.686878303751866"><ele>253.0</ele><time>2026-04-06T13:25:54.003Z</time></trkpt><trkpt lat="45.69085072293752" lon="9.687091414126474"><ele>253.0</ele><time>2026-04-06T13:25:55.003Z</time></trkpt><trkpt lat="45.690830357729304" lon="9.687296290704651"><ele>253.0</ele><time>2026-04-06T13:25:56.003Z</time></trkpt><trkpt lat="45.690815403171236" lon="9.687477010295575"><ele>253.25</ele><time>2026-04-06T13:25:57.003Z</time></trkpt><trkpt lat="45.690793236687334" lon="9.68762438263872"><ele>253.5</ele><time>2026-04-06T13:25:58.003Z</time></trkpt><trkpt lat="45.690772320304895" lon="9.687747937108155"><ele>253.75</ele><time>2026-04-06T13:25:59.003Z</time></trkpt><trkpt lat="45.690737710311204" lon="9.687831989575427"><ele>254.0</ele><time>2026-04-06T13:26:00.003Z</time></trkpt><trkpt lat="45.69065310134289" lon="9.688103045074298"><ele>254.2</ele><time>2026-04-06T13:35:56.006Z</time></trkpt><trkpt lat="45.69062245445535" lon="9.688210796894005"><ele>254.39999999999998</ele><time>2026-04-06T13:35:57.006Z</time></trkpt><trkpt lat="45.690584711884995" lon="9.688338509933985"><ele>254.6</ele><time>2026-04-06T13:35:58.006Z</time></trkpt><trkpt lat="45.6905375281348" lon="9.688515791025937"><ele>254.8</ele><time>2026-04-06T13:35:59.006Z</time></trkpt><trkpt lat="45.690485533198874" lon="9.688699387146766"><ele>255.0</ele><time>2026-04-06T13:36:00.006Z</time></trkpt><trkpt lat="45.690425289053145" lon="9.688881435471039"><ele>255.2</ele><time>2026-04-06T13:36:01.006Z</time></trkpt><trkpt lat="45.69032735552662" lon="9.689023145878092"><ele>255.4</ele><time>2026-04-06T13:36:02.006Z</time></trkpt><trkpt lat="45.690271902725975" lon="9.68918314811798"><ele>255.60000000000002</ele><time>2026-04-06T13:36:03.006Z</time></trkpt><trkpt lat="45.69023035231365" lon="9.689319546619206"><ele>255.8</ele><time>2026-04-06T13:36:04.006Z</time></trkpt><trkpt lat="45.690203086037926" lon="9.68942167117358"><ele>256.0</ele><time>2026-04-06T13:36:05.006Z</time></trkpt><trkpt lat="45.6901275482006" lon="9.689444977337534"><ele>255.4</ele><time>2026-04-06T13:36:07.006Z</time></trkpt><trkpt lat="45.69005566233507" lon="9.689415035655893"><ele>254.8</ele><time>2026-04-06T13:36:08.006Z</time></trkpt><trkpt lat="45.6899773965047" lon="9.689310981458513"><ele>254.20000000000002</ele><time>2026-04-06T13:36:09.006Z</time></trkpt><trkpt lat="45.689866239600164" lon="9.689279355022933"><ele>253.60000000000002</ele><time>2026-04-06T13:36:10.006Z</time></trkpt><trkpt lat="45.68974449124793" lon="9.689198109298701"><ele>253.0</ele><time>2026-04-06T13:36:11.006Z</time></trkpt><trkpt lat="45.68962553731703" lon="9.689069656961287"><ele>253.0</ele><time>2026-04-06T13:36:12.006Z</time></trkpt><trkpt lat="45.68949172912103" lon="9.688933992593856"><ele>253.0</ele><time>2026-04-06T13:36:13.006Z</time></trkpt><trkpt lat="45.689389594580604" lon="9.688789585090163"><ele>253.0</ele><time>2026-04-06T13:36:14.006Z</time></trkpt><trkpt lat="45.68928011857932" lon="9.688691693514862"><ele>253.0</ele><time>2026-04-06T13:36:15.006Z</time></trkpt><trkpt lat="45.689171015417514" lon="9.688687352893515"><ele>253.33333333333331</ele><time>2026-04-06T13:36:16.006Z</time></trkpt><trkpt lat="45.689082872760196" lon="9.688664352751601"><ele>253.66666666666669</ele><time>2026-04-06T13:36:17.006Z</time></trkpt><trkpt lat="45.68897980225096" lon="9.688926323601626"><ele>254.0</ele><time>2026-04-06T13:36:19.006Z</time></trkpt><trkpt lat="45.68881075249053" lon="9.689116765172695"><ele>254.0</ele><time>2026-04-06T13:36:20.006Z</time></trkpt><trkpt lat="45.68872764036303" lon="9.689342392203413"><ele>254.0</ele><time>2026-04-06T13:36:21.006Z</time></trkpt><trkpt lat="45.68871770662275" lon="9.689562672190908"><ele>254.0</ele><time>2026-04-06T13:36:22.006Z</time></trkpt><trkpt lat="45.68870224094305" lon="9.689718817756928"><ele>254.0</ele><time>2026-04-06T13:36:23.006Z</time></trkpt><trkpt lat="45.68868695640984" lon="9.689852391830152"><ele>253.75</ele><time>2026-04-06T13:36:24.006Z</time></trkpt><trkpt lat="45.68864051275447" lon="9.690019647388267"><ele>253.5</ele><time>2026-04-06T13:36:25.006Z</time></trkpt><trkpt lat="45.68862630910181" lon="9.69020532601895"><ele>253.25</ele><time>2026-04-06T13:36:26.006Z</time></trkpt><trkpt lat="45.688612488421846" lon="9.69035259351922"><ele>253.0</ele><time>2026-04-06T13:36:27.006Z</time></trkpt><trkpt lat="45.68858993774194" lon="9.690488908574068"><ele>252.75</ele><time>2026-04-06T13:36:28.006Z</time></trkpt><trkpt lat="45.688564010134726" lon="9.690623622544901"><ele>252.5</ele><time>2026-04-06T13:36:29.006Z</time></trkpt><trkpt lat="45.6885353896582" lon="9.690760679836039"><ele>252.25</ele><time>2026-04-06T13:36:30.006Z</time></trkpt><trkpt lat="45.68851318244965" lon="9.690867024963268"><ele>252.0</ele><time>2026-04-06T13:36:31.006Z</time></trkpt><trkpt lat="45.6885737170521" lon="9.691117776602757"><ele>252.0</ele><time>2026-04-06T13:36:33.006Z</time></trkpt><trkpt lat="45.6887166486552" lon="9.691142253265408"><ele>252.0</ele><time>2026-04-06T13:36:34.006Z</time></trkpt><trkpt lat="45.688814248257685" lon="9.691268420004034"><ele>252.0</ele><time>2026-04-06T13:36:35.006Z</time></trkpt><trkpt lat="45.688900103678755" lon="9.691329890369852"><ele>252.0</ele><time>2026-04-06T13:36:36.006Z</time></trkpt><trkpt lat="45.68896361932328" lon="9.691382427616373"><ele>252.0</ele><time>2026-04-06T13:36:37.006Z</time></trkpt><trkpt lat="45.68905589084413" lon="9.691337859187653"><ele>252.0</ele><time>2026-04-06T13:36:41.006Z</time></trkpt><trkpt lat="45.68912578967553" lon="9.691246561224531"><ele>252.0</ele><time>2026-04-06T13:36:43.006Z</time></trkpt><trkpt lat="45.68914071318136" lon="9.691154491798756"><ele>252.0</ele><time>2026-04-06T13:36:45.006Z</time></trkpt><trkpt lat="45.68908224839903" lon="9.691228548327596"><ele>252.0</ele><time>2026-04-06T13:36:49.006Z</time></trkpt><trkpt lat="45.68916098699391" lon="9.691387157446071"><ele>252.0</ele><time>2026-04-06T13:36:51.006Z</time></trkpt><trkpt lat="45.68923739377885" lon="9.691491863632722"><ele>252.0</ele><time>2026-04-06T13:36:52.006Z</time></trkpt><trkpt lat="45.68932489972638" lon="9.691616168247187"><ele>252.0</ele><time>2026-04-06T13:36:53.006Z</time></trkpt><trkpt lat="45.68940520607868" lon="9.691743046495137"><ele>252.0</ele><time>2026-04-06T13:36:54.006Z</time></trkpt><trkpt lat="45.68948616071387" lon="9.69186449628624"><ele>252.0</ele><time>2026-04-06T13:36:55.006Z</time></trkpt><trkpt lat="45.689540499635285" lon="9.691990135592395"><ele>252.6</ele><time>2026-04-06T13:36:56.006Z</time></trkpt><trkpt lat="45.68957928832057" lon="9.692061335069216"><ele>253.2</ele><time>2026-04-06T13:36:57.006Z</time></trkpt><trkpt lat="45.689566355772996" lon="9.69217060932969"><ele>253.8</ele><time>2026-04-06T13:36:59.006Z</time></trkpt><trkpt lat="45.68950490408805" lon="9.692274626394115"><ele>254.4</ele><time>2026-04-06T13:37:00.006Z</time></trkpt><trkpt lat="45.68944589154225" lon="9.692470603878805"><ele>255.0</ele><time>2026-04-06T13:37:01.006Z</time></trkpt><trkpt lat="45.689417425642446" lon="9.69268245439331"><ele>255.33333333333331</ele><time>2026-04-06T13:37:02.006Z</time></trkpt><trkpt lat="45.68935319870022" lon="9.69288373760996"><ele>255.66666666666666</ele><time>2026-04-06T13:37:03.006Z</time></trkpt><trkpt lat="45.68928537067016" lon="9.693070318131635"><ele>256.0</ele><time>2026-04-06T13:37:04.006Z</time></trkpt><trkpt lat="45.689178523292725" lon="9.693247293274684"><ele>256.0</ele><time>2026-04-06T13:37:05.006Z</time></trkpt><trkpt lat="45.68910243802709" lon="9.693481834310836"><ele>256.0</ele><time>2026-04-06T13:37:06.006Z</time></trkpt><trkpt lat="45.68903216599968" lon="9.69369374303089"><ele>256.0</ele><time>2026-04-06T13:37:07.006Z</time></trkpt><trkpt lat="45.688982314673005" lon="9.69389070629706"><ele>255.60000000000002</ele><time>2026-04-06T13:37:08.006Z</time></trkpt><trkpt lat="45.68893145300894" lon="9.694050473491234"><ele>255.20000000000002</ele><time>2026-04-06T13:37:09.006Z</time></trkpt><trkpt lat="45.68889348626272" lon="9.694158196576828"><ele>254.79999999999998</ele><time>2026-04-06T13:37:10.006Z</time></trkpt><trkpt lat="45.68882391729108" lon="9.694255513508876"><ele>254.39999999999998</ele><time>2026-04-06T13:37:12.006Z</time></trkpt><trkpt lat="45.688761285719394" lon="9.69423258987957"><ele>254.0</ele><time>2026-04-06T13:37:13.006Z</time></trkpt><trkpt lat="45.68868792170265" lon="9.694157972505081"><ele>254.0</ele><time>2026-04-06T13:37:14.006Z</time></trkpt><trkpt lat="45.688600835920376" lon="9.69409682576816"><ele>253.99999999999997</ele><time>2026-04-06T13:37:15.006Z</time></trkpt><trkpt lat="45.688520818047905" lon="9.694058564488492"><ele>253.99999999999997</ele><time>2026-04-06T13:37:16.006Z</time></trkpt><trkpt lat="45.68840121678348" lon="9.694112135886035"><ele>254.0</ele><time>2026-04-06T13:37:17.006Z</time></trkpt><trkpt lat="45.688291888983365" lon="9.694189929398394"><ele>254.0</ele><time>2026-04-06T13:37:18.006Z</time></trkpt><trkpt lat="45.68821607106508" lon="9.694271753894114"><ele>253.75</ele><time>2026-04-06T13:37:19.006Z</time></trkpt><trkpt lat="45.68816635037219" lon="9.694346282627853"><ele>253.5</ele><time>2026-04-06T13:37:21.006Z</time></trkpt><trkpt lat="45.68820587326447" lon="9.694647917441582"><ele>253.25</ele><time>2026-04-06T13:37:25.006Z</time></trkpt><trkpt lat="45.688247536826864" lon="9.694850013020321"><ele>253.0</ele><time>2026-04-06T13:37:26.006Z</time></trkpt><trkpt lat="45.688304745209464" lon="9.695123057790981"><ele>253.33333333333331</ele><time>2026-04-06T13:37:27.006Z</time></trkpt><trkpt lat="45.68838850295539" lon="9.695412835275745"><ele>253.66666666666669</ele><time>2026-04-06T13:37:28.006Z</time></trkpt><trkpt lat="45.68844700501834" lon="9.695667757497944"><ele>254.0</ele><time>2026-04-06T13:37:29.006Z</time></trkpt><trkpt lat="45.68854032600484" lon="9.695848071949337"><ele>254.33333333333334</ele><time>2026-04-06T13:37:30.006Z</time></trkpt><trkpt lat="45.68863776263982" lon="9.696019490624261"><ele>254.66666666666669</ele><time>2026-04-06T13:37:31.006Z</time></trkpt><trkpt lat="45.6887273700754" lon="9.696206412915412"><ele>255.0</ele><time>2026-04-06T13:37:32.006Z</time></trkpt><trkpt lat="45.68881211727966" lon="9.696406668496712"><ele>255.0</ele><time>2026-04-06T13:37:33.006Z</time></trkpt><trkpt lat="45.68888805639207" lon="9.696621554871"><ele>255.0</ele><time>2026-04-06T13:37:34.006Z</time></trkpt><trkpt lat="45.688994815449774" lon="9.696830278545187"><ele>255.0</ele><time>2026-04-06T13:37:35.006Z</time></trkpt><trkpt lat="45.689119118486175" lon="9.697024048185751"><ele>255.0</ele><time>2026-04-06T13:37:36.006Z</time></trkpt><trkpt lat="45.689220150613" lon="9.697220157223015"><ele>255.0</ele><time>2026-04-06T13:37:37.006Z</time></trkpt><trkpt lat="45.68933791423498" lon="9.697433713056723"><ele>255.0</ele><time>2026-04-06T13:37:38.006Z</time></trkpt><trkpt lat="45.68945813808019" lon="9.697665408756018"><ele>254.66666666666669</ele><time>2026-04-06T13:37:39.006Z</time></trkpt><trkpt lat="45.68957513690471" lon="9.697903601406441"><ele>254.33333333333334</ele><time>2026-04-06T13:37:40.006Z</time></trkpt><trkpt lat="45.68970428161535" lon="9.698162159301726"><ele>254.0</ele><time>2026-04-06T13:37:41.006Z</time></trkpt><trkpt lat="45.68979925269698" lon="9.698453007991969"><ele>254.5</ele><time>2026-04-06T13:37:42.006Z</time></trkpt><trkpt lat="45.68990266632324" lon="9.698742238162941"><ele>255.0</ele><time>2026-04-06T13:37:43.006Z</time></trkpt><trkpt lat="45.69001084029321" lon="9.699039514533073"><ele>255.0</ele><time>2026-04-06T13:37:44.006Z</time></trkpt><trkpt lat="45.69011434420916" lon="9.699323957010384"><ele>255.0</ele><time>2026-04-06T13:37:45.006Z</time></trkpt><trkpt lat="45.69020246882461" lon="9.699562424299645"><ele>255.0</ele><time>2026-04-06T13:37:46.006Z</time></trkpt><trkpt lat="45.69029698560705" lon="9.699801896345553"><ele>255.66666666666669</ele><time>2026-04-06T13:37:47.006Z</time></trkpt><trkpt lat="45.69038986253469" lon="9.700026565647574"><ele>256.33333333333337</ele><time>2026-04-06T13:37:48.006Z</time></trkpt><trkpt lat="45.690482519612466" lon="9.700240789778535"><ele>257.0</ele><time>2026-04-06T13:37:49.006Z</time></trkpt><trkpt lat="45.69057705711548" lon="9.700431482260349"><ele>257.0</ele><time>2026-04-06T13:37:50.006Z</time></trkpt><trkpt lat="45.690688121117255" lon="9.70057239469196"><ele>257.0</ele><time>2026-04-06T13:37:51.006Z</time></trkpt><trkpt lat="45.69080011780971" lon="9.70068780460951"><ele>257.0</ele><time>2026-04-06T13:37:52.006Z</time></trkpt><trkpt lat="45.69087732747745" lon="9.700795302371796"><ele>257.0</ele><time>2026-04-06T13:37:53.006Z</time></trkpt><trkpt lat="45.69092408779771" lon="9.700861115019814"><ele>257.0</ele><time>2026-04-06T13:37:54.006Z</time></trkpt><trkpt lat="45.690978853160395" lon="9.700913191693392"><ele>257.0</ele><time>2026-04-06T13:37:57.006Z</time></trkpt><trkpt lat="45.69107385646589" lon="9.701051688785876"><ele>257.0</ele><time>2026-04-06T13:37:59.006Z</time></trkpt><trkpt lat="45.69102525692324" lon="9.701236049375684"><ele>257.0</ele><time>2026-04-06T13:38:01.006Z</time></trkpt><trkpt lat="45.69098087838258" lon="9.701399398784202"><ele>256.6666666666667</ele><time>2026-04-06T13:38:02.006Z</time></trkpt><trkpt lat="45.69092839042011" lon="9.701593686127206"><ele>256.3333333333333</ele><time>2026-04-06T13:38:03.006Z</time></trkpt><trkpt lat="45.6908580710228" lon="9.70182709432958"><ele>256.0</ele><time>2026-04-06T13:38:04.006Z</time></trkpt><trkpt lat="45.69079603146333" lon="9.70208445254887"><ele>257.0</ele><time>2026-04-06T13:38:05.006Z</time></trkpt><trkpt lat="45.690728526826526" lon="9.702348476523039"><ele>258.0</ele><time>2026-04-06T13:38:06.006Z</time></trkpt><trkpt lat="45.69065687581589" lon="9.702615588540958"><ele>259.0</ele><time>2026-04-06T13:38:07.006Z</time></trkpt><trkpt lat="45.690577668552265" lon="9.70289378412536"><ele>259.3333333333333</ele><time>2026-04-06T13:38:08.001Z</time></trkpt><trkpt lat="45.6905015635752" lon="9.703170073555842"><ele>259.6666666666667</ele><time>2026-04-06T13:38:09.001Z</time></trkpt><trkpt lat="45.690424750040066" lon="9.70344117841473"><ele>260.0</ele><time>2026-04-06T13:38:10.001Z</time></trkpt><trkpt lat="45.69035956921282" lon="9.703709568150032"><ele>259.33333333333337</ele><time>2026-04-06T13:38:11.001Z</time></trkpt><trkpt lat="45.69029273937749" lon="9.703971242074832"><ele>258.6666666666667</ele><time>2026-04-06T13:38:12.001Z</time></trkpt><trkpt lat="45.69022565066567" lon="9.704200896268196"><ele>258.0</ele><time>2026-04-06T13:38:13.001Z</time></trkpt><trkpt lat="45.69015527704785" lon="9.704394661990666"><ele>258.0</ele><time>2026-04-06T13:38:14.001Z</time></trkpt><trkpt lat="45.69012909650236" lon="9.704515984569056"><ele>258.0</ele><time>2026-04-06T13:38:15.001Z</time></trkpt><trkpt lat="45.690165332550755" lon="9.70442755537177"><ele>258.0</ele><time>2026-04-06T13:38:25.001Z</time></trkpt><trkpt lat="45.690240327008034" lon="9.704328579704628"><ele>258.0</ele><time>2026-04-06T13:38:26.001Z</time></trkpt><trkpt lat="45.69028752131055" lon="9.704147329119477"><ele>258.0</ele><time>2026-04-06T13:38:27.001Z</time></trkpt><trkpt lat="45.69034123833076" lon="9.703945336822274"><ele>257.6666666666667</ele><time>2026-04-06T13:38:28.001Z</time></trkpt><trkpt lat="45.69040001814067" lon="9.70373939675553"><ele>257.33333333333337</ele><time>2026-04-06T13:38:29.001Z</time></trkpt><trkpt lat="45.690459033362174" lon="9.70351518752982"><ele>257.0</ele><time>2026-04-06T13:38:30.001Z</time></trkpt><trkpt lat="45.69052974203422" lon="9.703267824538946"><ele>257.6666666666667</ele><time>2026-04-06T13:38:31.001Z</time></trkpt><trkpt lat="45.690602791780876" lon="9.70299465122937"><ele>258.3333333333333</ele><time>2026-04-06T13:38:32.001Z</time></trkpt><trkpt lat="45.69068221746958" lon="9.702687519611784"><ele>259.0</ele><time>2026-04-06T13:38:33.001Z</time></trkpt><trkpt lat="45.69076370608696" lon="9.70238846132612"><ele>259.0</ele><time>2026-04-06T13:38:34.001Z</time></trkpt><trkpt lat="45.69083678233791" lon="9.702118229488281"><ele>259.0</ele><time>2026-04-06T13:38:35.001Z</time></trkpt><trkpt lat="45.690882632012915" lon="9.701920290388353"><ele>259.0</ele><time>2026-04-06T13:38:36.001Z</time></trkpt><trkpt lat="45.69090446107819" lon="9.70179709496123"><ele>259.0</ele><time>2026-04-06T13:38:37.001Z</time></trkpt><trkpt lat="45.690936487811996" lon="9.70166781541309"><ele>259.0</ele><time>2026-04-06T13:38:38.001Z</time></trkpt><trkpt lat="45.690976701456776" lon="9.701535382895685"><ele>259.0</ele><time>2026-04-06T13:38:39.001Z</time></trkpt><trkpt lat="45.69102207001347" lon="9.701388213977452"><ele>259.0</ele><time>2026-04-06T13:38:40.001Z</time></trkpt><trkpt lat="45.691067073660804" lon="9.701228827738191"><ele>259.0</ele><time>2026-04-06T13:38:41.001Z</time></trkpt><trkpt lat="45.691114496246065" lon="9.701044100426426"><ele>259.0</ele><time>2026-04-06T13:38:42.001Z</time></trkpt><trkpt lat="45.69116777337651" lon="9.700845543206155"><ele>259.0</ele><time>2026-04-06T13:38:43.001Z</time></trkpt><trkpt lat="45.691222463932895" lon="9.700629199628521"><ele>259.0</ele><time>2026-04-06T13:38:44.001Z</time></trkpt><trkpt lat="45.691281120780374" lon="9.700398759316226"><ele>258.66666666666663</ele><time>2026-04-06T13:38:45.001Z</time></trkpt><trkpt lat="45.691341838815255" lon="9.700174148472238"><ele>258.3333333333333</ele><time>2026-04-06T13:38:46.001Z</time></trkpt><trkpt lat="45.6913940357506" lon="9.699959643570354"><ele>258.0</ele><time>2026-04-06T13:38:47.001Z</time></trkpt><trkpt lat="45.69146763694775" lon="9.699752796325134"><ele>258.0</ele><time>2026-04-06T13:38:48.001Z</time></trkpt><trkpt lat="45.69152974907534" lon="9.699526496449035"><ele>258.0</ele><time>2026-04-06T13:38:49.001Z</time></trkpt><trkpt lat="45.69159333873618" lon="9.699294398184438"><ele>258.0</ele><time>2026-04-06T13:38:50.001Z</time></trkpt><trkpt lat="45.69163754334809" lon="9.699072085168435"><ele>257.6666666666667</ele><time>2026-04-06T13:38:51.001Z</time></trkpt><trkpt lat="45.69169042520932" lon="9.698862736571849"><ele>257.33333333333337</ele><time>2026-04-06T13:38:52.001Z</time></trkpt><trkpt lat="45.69173856370962" lon="9.698654992189057"><ele>257.0</ele><time>2026-04-06T13:38:52.999Z</time></trkpt><trkpt lat="45.69179229763245" lon="9.698445198749482"><ele>257.0</ele><time>2026-04-06T13:38:53.999Z</time></trkpt><trkpt lat="45.69184813255188" lon="9.698217899193066"><ele>257.0</ele><time>2026-04-06T13:38:54.999Z</time></trkpt><trkpt lat="45.691905977644055" lon="9.697979041476081"><ele>257.0</ele><time>2026-04-06T13:38:55.999Z</time></trkpt><trkpt lat="45.69201400085766" lon="9.69775200502129"><ele>256.6666666666667</ele><time>2026-04-06T13:38:56.999Z</time></trkpt><trkpt lat="45.69208157893419" lon="9.697501262812935"><ele>256.3333333333333</ele><time>2026-04-06T13:38:57.999Z</time></trkpt><trkpt lat="45.69215281840628" lon="9.69724063782647"><ele>256.0</ele><time>2026-04-06T13:38:58.999Z</time></trkpt><trkpt lat="45.69222515649376" lon="9.696969784126876"><ele>256.3333333333333</ele><time>2026-04-06T13:38:59.999Z</time></trkpt><trkpt lat="45.692299107214176" lon="9.696697868671148"><ele>256.6666666666667</ele><time>2026-04-06T13:39:00.999Z</time></trkpt><trkpt lat="45.692332259032526" lon="9.696407086257583"><ele>257.0</ele><time>2026-04-06T13:39:01.999Z</time></trkpt><trkpt lat="45.69240691094002" lon="9.69611515521277"><ele>257.33333333333337</ele><time>2026-04-06T13:39:02.999Z</time></trkpt><trkpt lat="45.69247700701109" lon="9.695836036835383"><ele>257.6666666666667</ele><time>2026-04-06T13:39:03.999Z</time></trkpt><trkpt lat="45.69255082019295" lon="9.695561880109548"><ele>258.0</ele><time>2026-04-06T13:39:04.999Z</time></trkpt><trkpt lat="45.692674679568974" lon="9.69531039994921"><ele>258.3333333333333</ele><time>2026-04-06T13:39:05.999Z</time></trkpt><trkpt lat="45.692749722532525" lon="9.69503127625895"><ele>258.66666666666663</ele><time>2026-04-06T13:39:06.999Z</time></trkpt><trkpt lat="45.69282464152653" lon="9.694752613647834"><ele>259.0</ele><time>2026-04-06T13:39:07.999Z</time></trkpt><trkpt lat="45.692899142008926" lon="9.694480033109983"><ele>259.0</ele><time>2026-04-06T13:39:08.999Z</time></trkpt><trkpt lat="45.69297439814643" lon="9.69420944389168"><ele>259.0</ele><time>2026-04-06T13:39:09.999Z</time></trkpt><trkpt lat="45.69304782375456" lon="9.693959420285614"><ele>259.0</ele><time>2026-04-06T13:39:10.999Z</time></trkpt><trkpt lat="45.693118174056444" lon="9.693733661874814"><ele>259.25</ele><time>2026-04-06T13:39:11.999Z</time></trkpt><trkpt lat="45.69318867081584" lon="9.693529294813477"><ele>259.5</ele><time>2026-04-06T13:39:12.999Z</time></trkpt><trkpt lat="45.693235198700556" lon="9.6933668639444"><ele>259.75</ele><time>2026-04-06T13:39:13.999Z</time></trkpt><trkpt lat="45.69327158710693" lon="9.693212653690145"><ele>260.0</ele><time>2026-04-06T13:39:14.999Z</time></trkpt><trkpt lat="45.69332809877497" lon="9.693078294038818"><ele>260.0</ele><time>2026-04-06T13:39:16Z</time></trkpt><trkpt lat="45.69335369455882" lon="9.692966294145041"><ele>260.0</ele><time>2026-04-06T13:39:17Z</time></trkpt><trkpt lat="45.693390850519016" lon="9.692877404533496"><ele>260.0</ele><time>2026-04-06T13:39:19Z</time></trkpt><trkpt lat="45.69342459780373" lon="9.692781541022963"><ele>260.0</ele><time>2026-04-06T13:39:28Z</time></trkpt><trkpt lat="45.69344676086558" lon="9.692678958882412"><ele>260.0</ele><time>2026-04-06T13:39:29Z</time></trkpt><trkpt lat="45.693484978825616" lon="9.692550721631624"><ele>260.0</ele><time>2026-04-06T13:39:30Z</time></trkpt><trkpt lat="45.6935348096662" lon="9.692415384942498"><ele>259.33333333333337</ele><time>2026-04-06T13:39:31Z</time></trkpt><trkpt lat="45.69360268986042" lon="9.692193964143643"><ele>258.6666666666667</ele><time>2026-04-06T13:39:32Z</time></trkpt><trkpt lat="45.693677380493405" lon="9.69194390114525"><ele>258.0</ele><time>2026-04-06T13:39:33Z</time></trkpt><trkpt lat="45.69376066194816" lon="9.69165749156604"><ele>258.0</ele><time>2026-04-06T13:39:34Z</time></trkpt><trkpt lat="45.693838449381566" lon="9.691377016950904"><ele>258.0</ele><time>2026-04-06T13:39:35Z</time></trkpt><trkpt lat="45.69390974299464" lon="9.691111106947947"><ele>258.0</ele><time>2026-04-06T13:39:36Z</time></trkpt><trkpt lat="45.69397753659206" lon="9.690855020572943"><ele>258.6666666666667</ele><time>2026-04-06T13:39:37Z</time></trkpt><trkpt lat="45.69403343959177" lon="9.690627729917832"><ele>259.33333333333337</ele><time>2026-04-06T13:39:38Z</time></trkpt><trkpt lat="45.69408214513383" lon="9.690379738818704"><ele>260.0</ele><time>2026-04-06T13:39:39Z</time></trkpt><trkpt lat="45.69415617185099" lon="9.69015039305359"><ele>260.25</ele><time>2026-04-06T13:39:40Z</time></trkpt><trkpt lat="45.694226284920276" lon="9.68994387747145"><ele>260.5</ele><time>2026-04-06T13:39:41Z</time></trkpt><trkpt lat="45.69427512124493" lon="9.6897581463551"><ele>260.75</ele><time>2026-04-06T13:39:42Z</time></trkpt><trkpt lat="45.69431595621882" lon="9.689598032109089"><ele>261.0</ele><time>2026-04-06T13:39:43Z</time></trkpt><trkpt lat="45.69435788132398" lon="9.689445012478924"><ele>260.3333333333333</ele><time>2026-04-06T13:39:44Z</time></trkpt><trkpt lat="45.69440353880225" lon="9.689259053769955"><ele>259.66666666666663</ele><time>2026-04-06T13:39:45Z</time></trkpt><trkpt lat="45.69445051786346" lon="9.689040595937982"><ele>259.0</ele><time>2026-04-06T13:39:46Z</time></trkpt><trkpt lat="45.69452670663519" lon="9.688814515847428"><ele>258.66666666666663</ele><time>2026-04-06T13:39:47Z</time></trkpt><trkpt lat="45.694592899250146" lon="9.688567666412247"><ele>258.3333333333333</ele><time>2026-04-06T13:39:48Z</time></trkpt><trkpt lat="45.69465799435525" lon="9.68832809795176"><ele>258.0</ele><time>2026-04-06T13:39:49Z</time></trkpt><trkpt lat="45.694727106748246" lon="9.688073369490352"><ele>258.0</ele><time>2026-04-06T13:39:50Z</time></trkpt><trkpt lat="45.694794606980466" lon="9.687824582884083"><ele>258.0</ele><time>2026-04-06T13:39:51Z</time></trkpt><trkpt lat="45.69486010927881" lon="9.687583160087696"><ele>258.0</ele><time>2026-04-06T13:39:52Z</time></trkpt><trkpt lat="45.69493092951232" lon="9.6873560788664"><ele>258.25</ele><time>2026-04-06T13:39:53Z</time></trkpt><trkpt lat="45.69497260091376" lon="9.68715164667917"><ele>258.5</ele><time>2026-04-06T13:39:54Z</time></trkpt><trkpt lat="45.6950163365452" lon="9.686963942790472"><ele>258.75</ele><time>2026-04-06T13:39:55Z</time></trkpt><trkpt lat="45.69507130835841" lon="9.686797777045374"><ele>259.0</ele><time>2026-04-06T13:39:56Z</time></trkpt><trkpt lat="45.69511589841814" lon="9.68663117981458"><ele>259.0</ele><time>2026-04-06T13:39:57Z</time></trkpt><trkpt lat="45.69517398443114" lon="9.686466102287476"><ele>259.0</ele><time>2026-04-06T13:39:58Z</time></trkpt><trkpt lat="45.695215042323994" lon="9.686284855013149"><ele>259.0</ele><time>2026-04-06T13:39:59Z</time></trkpt><trkpt lat="45.69526552831781" lon="9.686090664540885"><ele>259.0</ele><time>2026-04-06T13:40:00Z</time></trkpt><trkpt lat="45.69532609786222" lon="9.685928103773929"><ele>259.0</ele><time>2026-04-06T13:40:01Z</time></trkpt><trkpt lat="45.69537722902262" lon="9.685825155813836"><ele>259.0</ele><time>2026-04-06T13:40:02Z</time></trkpt><trkpt lat="45.69542493890057" lon="9.685758190401463"><ele>259.0</ele><time>2026-04-06T13:40:05Z</time></trkpt><trkpt lat="45.69564562617041" lon="9.68591009813752"><ele>259.0</ele><time>2026-04-06T13:40:06Z</time></trkpt><trkpt lat="45.69584891942944" lon="9.68601333894785"><ele>259.0</ele><time>2026-04-06T13:40:07Z</time></trkpt><trkpt lat="45.696040238513966" lon="9.686087235918219"><ele>259.0</ele><time>2026-04-06T13:40:08Z</time></trkpt><trkpt lat="45.69623163902343" lon="9.686214770310992"><ele>259.0</ele><time>2026-04-06T13:40:09Z</time></trkpt><trkpt lat="45.696418872140875" lon="9.68629240291338"><ele>258.3333333333333</ele><time>2026-04-06T13:40:10Z</time></trkpt><trkpt lat="45.69662100493792" lon="9.686378967793742"><ele>257.6666666666667</ele><time>2026-04-06T13:40:11Z</time></trkpt><trkpt lat="45.696835183159045" lon="9.686467332004314"><ele>257.0</ele><time>2026-04-06T13:40:12Z</time></trkpt><trkpt lat="45.69704630786168" lon="9.68655705928583"><ele>256.6666666666667</ele><time>2026-04-06T13:40:13Z</time></trkpt><trkpt lat="45.697249596081974" lon="9.686652327071911"><ele>256.3333333333333</ele><time>2026-04-06T13:40:14Z</time></trkpt><trkpt lat="45.69742520833424" lon="9.686745845362719"><ele>256.0</ele><time>2026-04-06T13:40:15Z</time></trkpt><trkpt lat="45.697588327555216" lon="9.68683876110318"><ele>256.3333333333333</ele><time>2026-04-06T13:40:16Z</time></trkpt><trkpt lat="45.69774690775031" lon="9.686954279176602"><ele>256.6666666666667</ele><time>2026-04-06T13:40:17Z</time></trkpt><trkpt lat="45.6979021452451" lon="9.687036545703807"><ele>257.0</ele><time>2026-04-06T13:40:18Z</time></trkpt><trkpt lat="45.698056837634645" lon="9.687125485979763"><ele>257.33333333333337</ele><time>2026-04-06T13:40:19Z</time></trkpt><trkpt lat="45.69819549071541" lon="9.687240630429182"><ele>257.6666666666667</ele><time>2026-04-06T13:40:20Z</time></trkpt><trkpt lat="45.698338602737806" lon="9.687304519680646"><ele>258.0</ele><time>2026-04-06T13:40:21Z</time></trkpt><trkpt lat="45.69847977641539" lon="9.687372487855262"><ele>258.25</ele><time>2026-04-06T13:40:22Z</time></trkpt><trkpt lat="45.69861261101104" lon="9.68743623906581"><ele>258.5</ele><time>2026-04-06T13:40:23Z</time></trkpt><trkpt lat="45.69872845860392" lon="9.687486725146671"><ele>258.75</ele><time>2026-04-06T13:40:24Z</time></trkpt><trkpt lat="45.698832314402246" lon="9.687526524173972"><ele>259.0</ele><time>2026-04-06T13:40:25Z</time></trkpt><trkpt lat="45.69891337051304" lon="9.687552630085047"><ele>259.0</ele><time>2026-04-06T13:40:26Z</time></trkpt><trkpt lat="45.69898942101366" lon="9.68760868803043"><ele>259.0</ele><time>2026-04-06T13:40:27.999Z</time></trkpt><trkpt lat="45.69904975350071" lon="9.687638227486143"><ele>259.0</ele><time>2026-04-06T13:40:28.999Z</time></trkpt><trkpt lat="45.699137413868485" lon="9.687689827278518"><ele>259.0</ele><time>2026-04-06T13:40:29.999Z</time></trkpt><trkpt lat="45.699268091079574" lon="9.687757549868268"><ele>259.0</ele><time>2026-04-06T13:40:30.999Z</time></trkpt><trkpt lat="45.699425602199824" lon="9.68786231741066"><ele>259.66666666666663</ele><time>2026-04-06T13:40:31.999Z</time></trkpt><trkpt lat="45.699595969929284" lon="9.68794846859011"><ele>260.3333333333333</ele><time>2026-04-06T13:40:32.999Z</time></trkpt><trkpt lat="45.699767302828654" lon="9.688047473894128"><ele>261.0</ele><time>2026-04-06T13:40:33.999Z</time></trkpt><trkpt lat="45.69994562941526" lon="9.688157365231444"><ele>261.0</ele><time>2026-04-06T13:40:34.999Z</time></trkpt><trkpt lat="45.70011374722749" lon="9.68824234857426"><ele>261.0</ele><time>2026-04-06T13:40:35.999Z</time></trkpt><trkpt lat="45.700250297817746" lon="9.688352126690997"><ele>261.0</ele><time>2026-04-06T13:40:36.999Z</time></trkpt><trkpt lat="45.700371943175384" lon="9.688452863376511"><ele>260.8</ele><time>2026-04-06T13:40:37.999Z</time></trkpt><trkpt lat="45.70048870487492" lon="9.688545358296238"><ele>260.6</ele><time>2026-04-06T13:40:38.999Z</time></trkpt><trkpt lat="45.70058577617618" lon="9.688635323576923"><ele>260.4</ele><time>2026-04-06T13:40:39.999Z</time></trkpt><trkpt lat="45.700679405852185" lon="9.688718667559337"><ele>260.2</ele><time>2026-04-06T13:40:40.999Z</time></trkpt><trkpt lat="45.70076038516293" lon="9.688772824756432"><ele>260.0</ele><time>2026-04-06T13:40:41.999Z</time></trkpt><trkpt lat="45.700855584097475" lon="9.688821802867489"><ele>260.25</ele><time>2026-04-06T13:40:42.999Z</time></trkpt><trkpt lat="45.700973114454776" lon="9.68888898450425"><ele>260.5</ele><time>2026-04-06T13:40:43.999Z</time></trkpt><trkpt lat="45.701105618821686" lon="9.68898155996817"><ele>260.75</ele><time>2026-04-06T13:40:44.999Z</time></trkpt><trkpt lat="45.70124727812934" lon="9.689089903707078"><ele>261.0</ele><time>2026-04-06T13:40:45.999Z</time></trkpt><trkpt lat="45.701394147417744" lon="9.689207294448574"><ele>261.0</ele><time>2026-04-06T13:40:46.999Z</time></trkpt><trkpt lat="45.70154950352585" lon="9.689318766443641"><ele>261.0</ele><time>2026-04-06T13:40:47.999Z</time></trkpt><trkpt lat="45.701685597101815" lon="9.689428506042901"><ele>261.0</ele><time>2026-04-06T13:40:48.999Z</time></trkpt><trkpt lat="45.701809536743944" lon="9.68954957654582"><ele>261.0</ele><time>2026-04-06T13:40:49.999Z</time></trkpt><trkpt lat="45.7019126901785" lon="9.689663421290144"><ele>261.0</ele><time>2026-04-06T13:40:50.999Z</time></trkpt><trkpt lat="45.702015376367456" lon="9.689779679985486"><ele>261.0</ele><time>2026-04-06T13:40:51.999Z</time></trkpt><trkpt lat="45.70211036803292" lon="9.68988222796758"><ele>261.0</ele><time>2026-04-06T13:40:52.999Z</time></trkpt><trkpt lat="45.702201227240934" lon="9.689981324078607"><ele>260.75</ele><time>2026-04-06T13:40:53.999Z</time></trkpt><trkpt lat="45.70227493516703" lon="9.690088787896011"><ele>260.5</ele><time>2026-04-06T13:40:54.999Z</time></trkpt><trkpt lat="45.70236108035839" lon="9.690189319953607"><ele>260.25</ele><time>2026-04-06T13:40:55.999Z</time></trkpt><trkpt lat="45.70238873790726" lon="9.690384954152979"><ele>260.0</ele><time>2026-04-06T13:40:56.999Z</time></trkpt><trkpt lat="45.70239919401726" lon="9.690574223919068"><ele>260.0</ele><time>2026-04-06T13:40:57.999Z</time></trkpt><trkpt lat="45.70238947541337" lon="9.690787957596422"><ele>260.0</ele><time>2026-04-06T13:40:58.997Z</time></trkpt><trkpt lat="45.702366772727046" lon="9.691026473417176"><ele>260.0</ele><time>2026-04-06T13:40:59.997Z</time></trkpt><trkpt lat="45.7023679949573" lon="9.69129225491118"><ele>260.0</ele><time>2026-04-06T13:41:00.997Z</time></trkpt><trkpt lat="45.702423347467494" lon="9.691592472506873"><ele>260.0</ele><time>2026-04-06T13:41:01.997Z</time></trkpt><trkpt lat="45.702516004060634" lon="9.691945854574453"><ele>260.5</ele><time>2026-04-06T13:41:02.997Z</time></trkpt><trkpt lat="45.702599082885015" lon="9.692332468488793"><ele>261.0</ele><time>2026-04-06T13:41:03.997Z</time></trkpt><trkpt lat="45.702629750280884" lon="9.692732473610153"><ele>261.3333333333333</ele><time>2026-04-06T13:41:04.998Z</time></trkpt><trkpt lat="45.70266887314784" lon="9.69307337533474"><ele>261.66666666666663</ele><time>2026-04-06T13:41:05.997Z</time></trkpt><trkpt lat="45.702674426205164" lon="9.693331465682077"><ele>262.0</ele><time>2026-04-06T13:41:06.997Z</time></trkpt><trkpt lat="45.70265662759437" lon="9.693481111981257"><ele>262.0</ele><time>2026-04-06T13:41:07.997Z</time></trkpt><trkpt lat="45.702812243730676" lon="9.693557029682745"><ele>262.0</ele><time>2026-04-06T13:41:18.996Z</time></trkpt><trkpt lat="45.70291976647599" lon="9.693685027756347"><ele>262.0</ele><time>2026-04-06T13:41:19.996Z</time></trkpt><trkpt lat="45.703063151547035" lon="9.693786379931657"><ele>262.0</ele><time>2026-04-06T13:41:20.996Z</time></trkpt><trkpt lat="45.703237414663256" lon="9.693821233224847"><ele>262.0</ele><time>2026-04-06T13:41:21.996Z</time></trkpt><trkpt lat="45.70342913750635" lon="9.69380669797736"><ele>262.0</ele><time>2026-04-06T13:41:22.996Z</time></trkpt><trkpt lat="45.70361003516211" lon="9.693787356801826"><ele>262.75</ele><time>2026-04-06T13:41:23.996Z</time></trkpt><trkpt lat="45.70375721797679" lon="9.693794412987717"><ele>263.5</ele><time>2026-04-06T13:41:24.996Z</time></trkpt><trkpt lat="45.70388217033009" lon="9.69386005986939"><ele>264.25</ele><time>2026-04-06T13:41:25.996Z</time></trkpt><trkpt lat="45.7039865047683" lon="9.693954033136597"><ele>265.0</ele><time>2026-04-06T13:41:26.996Z</time></trkpt><trkpt lat="45.70405798168328" lon="9.69405201381912"><ele>265.0</ele><time>2026-04-06T13:41:27.996Z</time></trkpt><trkpt lat="45.704089816526846" lon="9.69417840186552"><ele>265.0</ele><time>2026-04-06T13:41:28.996Z</time></trkpt><trkpt lat="45.704132733061" lon="9.69424791723547"><ele>265.0</ele><time>2026-04-06T13:41:29.997Z</time></trkpt><trkpt lat="45.70401473421092" lon="9.694492522343326"><ele>265.0</ele><time>2026-04-06T13:41:30.997Z</time></trkpt><trkpt lat="45.703965789536404" lon="9.694694205003596"><ele>265.0</ele><time>2026-04-06T13:41:31.997Z</time></trkpt><trkpt lat="45.70396584028823" lon="9.694900405074915"><ele>265.0</ele><time>2026-04-06T13:41:32.997Z</time></trkpt><trkpt lat="45.70402739809483" lon="9.695088026158917"><ele>265.0</ele><time>2026-04-06T13:41:33.997Z</time></trkpt><trkpt lat="45.70412061359278" lon="9.695263297933085"><ele>265.0</ele><time>2026-04-06T13:41:34.997Z</time></trkpt><trkpt lat="45.70416762177447" lon="9.695407744644697"><ele>265.25</ele><time>2026-04-06T13:41:35.997Z</time></trkpt><trkpt lat="45.704148832990704" lon="9.695567003170018"><ele>265.5</ele><time>2026-04-06T13:41:36.997Z</time></trkpt><trkpt lat="45.70409099346526" lon="9.69570967427551"><ele>265.75</ele><time>2026-04-06T13:41:37.997Z</time></trkpt><trkpt lat="45.70400972127459" lon="9.695791749016637"><ele>266.0</ele><time>2026-04-06T13:41:38.997Z</time></trkpt><trkpt lat="45.70387577667623" lon="9.695804575564905"><ele>266.0</ele><time>2026-04-06T13:41:39.997Z</time></trkpt><trkpt lat="45.70371647585863" lon="9.695779273932606"><ele>266.0</ele><time>2026-04-06T13:41:40.997Z</time></trkpt><trkpt lat="45.703560351377945" lon="9.695744040224367"><ele>266.0</ele><time>2026-04-06T13:41:41.997Z</time></trkpt><trkpt lat="45.70344121242097" lon="9.695754526764198"><ele>266.0</ele><time>2026-04-06T13:41:42.997Z</time></trkpt><trkpt lat="45.703349601089066" lon="9.695844172311476"><ele>265.6666666666667</ele><time>2026-04-06T13:41:43.997Z</time></trkpt><trkpt lat="45.703266913405045" lon="9.696003840947213"><ele>265.3333333333333</ele><time>2026-04-06T13:41:44.997Z</time></trkpt><trkpt lat="45.703189206453644" lon="9.696220649124095"><ele>265.0</ele><time>2026-04-06T13:41:45.997Z</time></trkpt><trkpt lat="45.703071458257966" lon="9.696496629014497"><ele>265.0</ele><time>2026-04-06T13:41:46.997Z</time></trkpt><trkpt lat="45.70296314683732" lon="9.696795982203692"><ele>265.0</ele><time>2026-04-06T13:41:47.997Z</time></trkpt><trkpt lat="45.702867768121855" lon="9.697059176477074"><ele>265.0</ele><time>2026-04-06T13:41:48.997Z</time></trkpt><trkpt lat="45.702809827676575" lon="9.697324662739817"><ele>265.0</ele><time>2026-04-06T13:41:49.997Z</time></trkpt><trkpt lat="45.702809594699886" lon="9.697601109426415"><ele>265.0</ele><time>2026-04-06T13:41:50.997Z</time></trkpt><trkpt lat="45.702861669014844" lon="9.69790300067553"><ele>265.0</ele><time>2026-04-06T13:41:51.997Z</time></trkpt><trkpt lat="45.70292124099876" lon="9.698267873293624"><ele>265.5</ele><time>2026-04-06T13:41:52.997Z</time></trkpt><trkpt lat="45.702986314952625" lon="9.698656214805906"><ele>266.0</ele><time>2026-04-06T13:41:53.997Z</time></trkpt><trkpt lat="45.70303845563678" lon="9.699072377201547"><ele>266.5</ele><time>2026-04-06T13:41:54.997Z</time></trkpt><trkpt lat="45.70310518436741" lon="9.699541484887778"><ele>267.0</ele><time>2026-04-06T13:41:55.997Z</time></trkpt><trkpt lat="45.703154461529515" lon="9.70003638059207"><ele>267.0</ele><time>2026-04-06T13:41:56.997Z</time></trkpt><trkpt lat="45.70322233600996" lon="9.700525661599993"><ele>267.0</ele><time>2026-04-06T13:41:57.997Z</time></trkpt><trkpt lat="45.70329976472469" lon="9.70097648771834"><ele>266.0</ele><time>2026-04-06T13:41:58.997Z</time></trkpt><trkpt lat="45.703359324915866" lon="9.701384609774584"><ele>265.0</ele><time>2026-04-06T13:41:59.997Z</time></trkpt><trkpt lat="45.70342990416688" lon="9.701783113181982"><ele>264.0</ele><time>2026-04-06T13:42:00.997Z</time></trkpt><trkpt lat="45.703490802270096" lon="9.702179287847269"><ele>263.0</ele><time>2026-04-06T13:42:01.997Z</time></trkpt><trkpt lat="45.70354993326148" lon="9.702574925557942"><ele>265.5</ele><time>2026-04-06T13:42:02.997Z</time></trkpt><trkpt lat="45.703605311732524" lon="9.70298079157814"><ele>268.0</ele><time>2026-04-06T13:42:03.997Z</time></trkpt><trkpt lat="45.7036265051636" lon="9.703396392415035"><ele>267.5</ele><time>2026-04-06T13:42:04.997Z</time></trkpt><trkpt lat="45.70365161854801" lon="9.703812312034367"><ele>267.0</ele><time>2026-04-06T13:42:05.997Z</time></trkpt><trkpt lat="45.70367071322654" lon="9.704207522261278"><ele>268.0</ele><time>2026-04-06T13:42:06.997Z</time></trkpt><trkpt lat="45.70368739920256" lon="9.70456298557413"><ele>269.0</ele><time>2026-04-06T13:42:07.997Z</time></trkpt><trkpt lat="45.703700315170344" lon="9.70490827253667"><ele>268.5</ele><time>2026-04-06T13:42:08.997Z</time></trkpt><trkpt lat="45.70370860437838" lon="9.705256137852269"><ele>268.0</ele><time>2026-04-06T13:42:09.997Z</time></trkpt><trkpt lat="45.70371491437664" lon="9.70561950778352"><ele>268.0</ele><time>2026-04-06T13:42:10.997Z</time></trkpt><trkpt lat="45.70370902453201" lon="9.70599548167556"><ele>268.0</ele><time>2026-04-06T13:42:11.997Z</time></trkpt><trkpt lat="45.70370051292489" lon="9.706369653674026"><ele>268.0</ele><time>2026-04-06T13:42:12.997Z</time></trkpt><trkpt lat="45.703698565696605" lon="9.706749424875223"><ele>268.0</ele><time>2026-04-06T13:42:13.997Z</time></trkpt><trkpt lat="45.70368695997774" lon="9.707112206874868"><ele>268.5</ele><time>2026-04-06T13:42:14.997Z</time></trkpt><trkpt lat="45.70367462760946" lon="9.707448898729492"><ele>269.0</ele><time>2026-04-06T13:42:15.997Z</time></trkpt><trkpt lat="45.70367175539285" lon="9.707786043382109"><ele>269.0</ele><time>2026-04-06T13:42:16.997Z</time></trkpt><trkpt lat="45.70367010807015" lon="9.708129758111934"><ele>269.0</ele><time>2026-04-06T13:42:17.997Z</time></trkpt><trkpt lat="45.7036633463882" lon="9.708456351100846"><ele>268.6666666666667</ele><time>2026-04-06T13:42:18.997Z</time></trkpt><trkpt lat="45.70363912205237" lon="9.708754225500611"><ele>268.3333333333333</ele><time>2026-04-06T13:42:19.997Z</time></trkpt><trkpt lat="45.70362936671632" lon="9.709035870542145"><ele>268.0</ele><time>2026-04-06T13:42:20.997Z</time></trkpt><trkpt lat="45.70361957789961" lon="9.709307977313209"><ele>268.0</ele><time>2026-04-06T13:42:21.997Z</time></trkpt><trkpt lat="45.703611021208225" lon="9.709551766923926"><ele>268.0</ele><time>2026-04-06T13:42:22.997Z</time></trkpt><trkpt lat="45.70361091983422" lon="9.709771950681674"><ele>268.0</ele><time>2026-04-06T13:42:23.997Z</time></trkpt><trkpt lat="45.70362173651474" lon="9.709964714415047"><ele>268.0</ele><time>2026-04-06T13:42:24.997Z</time></trkpt><trkpt lat="45.703654623303535" lon="9.710125639591473"><ele>268.0</ele><time>2026-04-06T13:42:25.997Z</time></trkpt><trkpt lat="45.70366916155066" lon="9.71027276169751"><ele>268.0</ele><time>2026-04-06T13:42:26.997Z</time></trkpt><trkpt lat="45.703672635698126" lon="9.71040745571521"><ele>268.0</ele><time>2026-04-06T13:42:27.997Z</time></trkpt><trkpt lat="45.70368279406619" lon="9.710527146680947"><ele>268.0</ele><time>2026-04-06T13:42:28.997Z</time></trkpt><trkpt lat="45.70369054100966" lon="9.710637332793064"><ele>268.16666666666663</ele><time>2026-04-06T13:42:29.997Z</time></trkpt><trkpt lat="45.703666172968305" lon="9.710742972727099"><ele>268.3333333333333</ele><time>2026-04-06T13:42:30.997Z</time></trkpt><trkpt lat="45.703656210705645" lon="9.710844749300273"><ele>268.5</ele><time>2026-04-06T13:42:31.997Z</time></trkpt><trkpt lat="45.70366951185455" lon="9.710941077930691"><ele>268.6666666666667</ele><time>2026-04-06T13:42:32.997Z</time></trkpt><trkpt lat="45.70372242741015" lon="9.711015159741436"><ele>268.83333333333337</ele><time>2026-04-06T13:42:33.997Z</time></trkpt><trkpt lat="45.703792841161864" lon="9.711067215109724"><ele>269.0</ele><time>2026-04-06T13:42:34.997Z</time></trkpt><trkpt lat="45.70386044860985" lon="9.711133487714788"><ele>269.25</ele><time>2026-04-06T13:42:35.997Z</time></trkpt><trkpt lat="45.70392234100049" lon="9.71123608955252"><ele>269.5</ele><time>2026-04-06T13:42:36.997Z</time></trkpt><trkpt lat="45.70396938491952" lon="9.711417619078274"><ele>269.75</ele><time>2026-04-06T13:42:37.997Z</time></trkpt><trkpt lat="45.70403999627263" lon="9.711653949034623"><ele>270.0</ele><time>2026-04-06T13:42:38.997Z</time></trkpt><trkpt lat="45.70412306586604" lon="9.711906735816576"><ele>270.3333333333333</ele><time>2026-04-06T13:42:39.997Z</time></trkpt><trkpt lat="45.704215075644534" lon="9.71218524769439"><ele>270.66666666666663</ele><time>2026-04-06T13:42:40.997Z</time></trkpt><trkpt lat="45.70429011574817" lon="9.712484388297442"><ele>271.0</ele><time>2026-04-06T13:42:41.997Z</time></trkpt><trkpt lat="45.704357921484906" lon="9.712811578291427"><ele>270.66666666666663</ele><time>2026-04-06T13:42:42.997Z</time></trkpt><trkpt lat="45.70441825299849" lon="9.713096811697705"><ele>270.3333333333333</ele><time>2026-04-06T13:42:43.997Z</time></trkpt><trkpt lat="45.70448616469076" lon="9.713347293119472"><ele>270.0</ele><time>2026-04-06T13:42:44.997Z</time></trkpt><trkpt lat="45.70452137253894" lon="9.713594735007256"><ele>270.5</ele><time>2026-04-06T13:42:45.997Z</time></trkpt><trkpt lat="45.70456814512694" lon="9.713808019920954"><ele>271.0</ele><time>2026-04-06T13:42:46.997Z</time></trkpt><trkpt lat="45.70461669791544" lon="9.713973939343363"><ele>271.5</ele><time>2026-04-06T13:42:47.997Z</time></trkpt><trkpt lat="45.70467463957927" lon="9.714094993182018"><ele>272.0</ele><time>2026-04-06T13:42:48.997Z</time></trkpt><trkpt lat="45.70472080131719" lon="9.714195381552422"><ele>272.0</ele><time>2026-04-06T13:42:49.997Z</time></trkpt><trkpt lat="45.704739002191616" lon="9.714325531275922"><ele>272.0</ele><time>2026-04-06T13:42:50.997Z</time></trkpt><trkpt lat="45.70475360917016" lon="9.714476402112936"><ele>272.0</ele><time>2026-04-06T13:42:51.997Z</time></trkpt><trkpt lat="45.704793511283114" lon="9.714628756642036"><ele>272.0</ele><time>2026-04-06T13:42:52.997Z</time></trkpt><trkpt lat="45.70483083748371" lon="9.714781951775686"><ele>272.0</ele><time>2026-04-06T13:42:53.997Z</time></trkpt><trkpt lat="45.70482534297706" lon="9.7149425570219"><ele>272.0</ele><time>2026-04-06T13:42:54.997Z</time></trkpt><trkpt lat="45.704789370970126" lon="9.715109452446766"><ele>272.0</ele><time>2026-04-06T13:42:55.997Z</time></trkpt><trkpt lat="45.70473325276487" lon="9.71530980161148"><ele>272.0</ele><time>2026-04-06T13:42:56.997Z</time></trkpt><trkpt lat="45.70465758635986" lon="9.715553635205586"><ele>272.0</ele><time>2026-04-06T13:42:57.997Z</time></trkpt><trkpt lat="45.704568498058684" lon="9.715799744624542"><ele>272.0</ele><time>2026-04-06T13:42:58.997Z</time></trkpt><trkpt lat="45.704460821676584" lon="9.716042176652513"><ele>272.0</ele><time>2026-04-06T13:42:59.997Z</time></trkpt><trkpt lat="45.704351442884054" lon="9.716253683278214"><ele>272.0</ele><time>2026-04-06T13:43:00.997Z</time></trkpt><trkpt lat="45.704268410305346" lon="9.71644696494748"><ele>272.0</ele><time>2026-04-06T13:43:01.997Z</time></trkpt><trkpt lat="45.704201524547486" lon="9.716626180967031"><ele>272.0</ele><time>2026-04-06T13:43:02.997Z</time></trkpt><trkpt lat="45.704143050695365" lon="9.716799467793113"><ele>272.0</ele><time>2026-04-06T13:43:03.997Z</time></trkpt><trkpt lat="45.704101702757384" lon="9.716969823415138"><ele>272.0</ele><time>2026-04-06T13:43:04.996Z</time></trkpt><trkpt lat="45.704055198952275" lon="9.717124106054856"><ele>272.0</ele><time>2026-04-06T13:43:05.996Z</time></trkpt><trkpt lat="45.70404677362442" lon="9.717255204916533"><ele>272.0</ele><time>2026-04-06T13:43:06.996Z</time></trkpt><trkpt lat="45.70405779464929" lon="9.717344813079624"><ele>272.0</ele><time>2026-04-06T13:43:07.996Z</time></trkpt><trkpt lat="45.70406215022643" lon="9.717440038756184"><ele>272.0</ele><time>2026-04-06T13:43:08.996Z</time></trkpt><trkpt lat="45.70406582402879" lon="9.71755295524867"><ele>272.0</ele><time>2026-04-06T13:43:09.996Z</time></trkpt><trkpt lat="45.70406061422577" lon="9.717743922475991"><ele>272.0</ele><time>2026-04-06T13:43:10.996Z</time></trkpt><trkpt lat="45.704033928597774" lon="9.71802041805385"><ele>272.0</ele><time>2026-04-06T13:43:11.995Z</time></trkpt><trkpt lat="45.704020415128994" lon="9.718331127002562"><ele>272.0</ele><time>2026-04-06T13:43:12.995Z</time></trkpt><trkpt lat="45.70403556729515" lon="9.718646076209307"><ele>272.33333333333337</ele><time>2026-04-06T13:43:13.996Z</time></trkpt><trkpt lat="45.704041992775394" lon="9.718948760987786"><ele>272.6666666666667</ele><time>2026-04-06T13:43:14.995Z</time></trkpt><trkpt lat="45.704024496169446" lon="9.71921702529081"><ele>273.0</ele><time>2026-04-06T13:43:15.995Z</time></trkpt><trkpt lat="45.704019683334806" lon="9.719463139920196"><ele>272.3333333333333</ele><time>2026-04-06T13:43:16.996Z</time></trkpt><trkpt lat="45.70401608867633" lon="9.719680427350417"><ele>271.66666666666663</ele><time>2026-04-06T13:43:17.996Z</time></trkpt><trkpt lat="45.704010972065525" lon="9.719906015546467"><ele>271.0</ele><time>2026-04-06T13:43:18.996Z</time></trkpt><trkpt lat="45.704049332755496" lon="9.720142917816222"><ele>270.25</ele><time>2026-04-06T13:43:19.996Z</time></trkpt><trkpt lat="45.704097865054" lon="9.720364568538978"><ele>269.5</ele><time>2026-04-06T13:43:20.996Z</time></trkpt><trkpt lat="45.704156202959794" lon="9.72055549327857"><ele>268.75</ele><time>2026-04-06T13:43:21.996Z</time></trkpt><trkpt lat="45.70423819956965" lon="9.720714354637703"><ele>268.0</ele><time>2026-04-06T13:43:22.996Z</time></trkpt><trkpt lat="45.70435261247609" lon="9.720840723557137"><ele>268.0</ele><time>2026-04-06T13:43:23.996Z</time></trkpt><trkpt lat="45.70448066183534" lon="9.72093759254672"><ele>268.0</ele><time>2026-04-06T13:43:24.996Z</time></trkpt><trkpt lat="45.70460782304304" lon="9.721028912068036"><ele>268.0</ele><time>2026-04-06T13:43:25.996Z</time></trkpt><trkpt lat="45.70473567249693" lon="9.721112478283427"><ele>268.0</ele><time>2026-04-06T13:43:26.996Z</time></trkpt><trkpt lat="45.704865623894996" lon="9.721180013532441"><ele>267.0</ele><time>2026-04-06T13:43:27.996Z</time></trkpt><trkpt lat="45.70500540516041" lon="9.72125380538703"><ele>266.0</ele><time>2026-04-06T13:43:28.996Z</time></trkpt><trkpt lat="45.705160737688246" lon="9.721351422210398"><ele>265.0</ele><time>2026-04-06T13:43:29.996Z</time></trkpt><trkpt lat="45.70529404235333" lon="9.721438236672979"><ele>264.8</ele><time>2026-04-06T13:43:30.996Z</time></trkpt><trkpt lat="45.70539763246738" lon="9.721516205927204"><ele>264.6</ele><time>2026-04-06T13:43:31.996Z</time></trkpt><trkpt lat="45.7054803282823" lon="9.721579270139278"><ele>264.4</ele><time>2026-04-06T13:43:32.996Z</time></trkpt><trkpt lat="45.70554801862726" lon="9.721643227285263"><ele>264.2</ele><time>2026-04-06T13:43:33.996Z</time></trkpt><trkpt lat="45.70559563415042" lon="9.721789962500749"><ele>264.0</ele><time>2026-04-06T13:43:35.996Z</time></trkpt><trkpt lat="45.7055998890921" lon="9.721964848726422"><ele>263.59999999999997</ele><time>2026-04-06T13:43:37.996Z</time></trkpt><trkpt lat="45.7056078419682" lon="9.72213625968165"><ele>263.2</ele><time>2026-04-06T13:43:39.996Z</time></trkpt><trkpt lat="45.70561802652632" lon="9.72223707404788"><ele>262.79999999999995</ele><time>2026-04-06T13:43:40.996Z</time></trkpt><trkpt lat="45.7056281791371" lon="9.722351807729288"><ele>262.4</ele><time>2026-04-06T13:43:41.996Z</time></trkpt><trkpt lat="45.70563537978693" lon="9.722482315060782"><ele>262.0</ele><time>2026-04-06T13:43:42.996Z</time></trkpt><trkpt lat="45.70563701924413" lon="9.72261594658614"><ele>262.42857142857144</ele><time>2026-04-06T13:43:43.996Z</time></trkpt><trkpt lat="45.705641147561565" lon="9.722745188746801"><ele>262.8571428571429</ele><time>2026-04-06T13:43:44.996Z</time></trkpt><trkpt lat="45.705646938148085" lon="9.722861559837888"><ele>263.2857142857143</ele><time>2026-04-06T13:43:45.996Z</time></trkpt><trkpt lat="45.705652348968606" lon="9.72296194821223"><ele>263.7142857142857</ele><time>2026-04-06T13:43:46.996Z</time></trkpt><trkpt lat="45.70565543951739" lon="9.72305724136678"><ele>264.1428571428571</ele><time>2026-04-06T13:43:47.996Z</time></trkpt><trkpt lat="45.70565213686309" lon="9.72315773035331"><ele>264.57142857142856</ele><time>2026-04-06T13:43:48.996Z</time></trkpt><trkpt lat="45.705649576722195" lon="9.723248866227495"><ele>265.0</ele><time>2026-04-06T13:43:49.996Z</time></trkpt><trkpt lat="45.7056498221654" lon="9.72334632402552"><ele>265.0</ele><time>2026-04-06T13:43:50.996Z</time></trkpt><trkpt lat="45.705655010983236" lon="9.723469544374403"><ele>265.0</ele><time>2026-04-06T13:43:51.996Z</time></trkpt><trkpt lat="45.70566145812747" lon="9.723592621153637"><ele>265.0</ele><time>2026-04-06T13:43:52.996Z</time></trkpt><trkpt lat="45.70566880149794" lon="9.723707369204499"><ele>265.0</ele><time>2026-04-06T13:43:53.996Z</time></trkpt><trkpt lat="45.705662205380555" lon="9.72383352602054"><ele>265.0</ele><time>2026-04-06T13:43:54.996Z</time></trkpt><trkpt lat="45.70566818484808" lon="9.723981797189557"><ele>265.0</ele><time>2026-04-06T13:43:55.996Z</time></trkpt><trkpt lat="45.70567374912251" lon="9.724124522871453"><ele>265.0</ele><time>2026-04-06T13:43:56.996Z</time></trkpt><trkpt lat="45.70567788379258" lon="9.72425327877644"><ele>265.0</ele><time>2026-04-06T13:43:57.996Z</time></trkpt><trkpt lat="45.70570706517724" lon="9.72436819948111"><ele>265.0</ele><time>2026-04-06T13:43:58.996Z</time></trkpt><trkpt lat="45.70571040130838" lon="9.724475599603304"><ele>265.0</ele><time>2026-04-06T13:43:59.996Z</time></trkpt><trkpt lat="45.70571872390227" lon="9.724568996229122"><ele>265.0</ele><time>2026-04-06T13:44:00.996Z</time></trkpt><trkpt lat="45.70568852292065" lon="9.724667909563209"><ele>265.0</ele><time>2026-04-06T13:44:02.996Z</time></trkpt><trkpt lat="45.705693309089206" lon="9.72481270540981"><ele>265.25</ele><time>2026-04-06T13:44:04.996Z</time></trkpt><trkpt lat="45.705699370964325" lon="9.724971265762063"><ele>265.5</ele><time>2026-04-06T13:44:05.996Z</time></trkpt><trkpt lat="45.70572706600513" lon="9.725182383852095"><ele>265.75</ele><time>2026-04-06T13:44:06.996Z</time></trkpt><trkpt lat="45.70573150065895" lon="9.725397389160234"><ele>266.0</ele><time>2026-04-06T13:44:07.996Z</time></trkpt><trkpt lat="45.705768144116654" lon="9.725651265325178"><ele>266.33333333333337</ele><time>2026-04-06T13:44:08.996Z</time></trkpt><trkpt lat="45.705861078486954" lon="9.72591137829161"><ele>266.6666666666667</ele><time>2026-04-06T13:44:09.996Z</time></trkpt><trkpt lat="45.705965938351625" lon="9.726203524482623"><ele>267.0</ele><time>2026-04-06T13:44:10.996Z</time></trkpt><trkpt lat="45.706071606270456" lon="9.726508180269896"><ele>267.0</ele><time>2026-04-06T13:44:11.996Z</time></trkpt><trkpt lat="45.706182659143515" lon="9.72678660522851"><ele>267.0</ele><time>2026-04-06T13:44:12.996Z</time></trkpt><trkpt lat="45.70628790359463" lon="9.72706327138058"><ele>267.0</ele><time>2026-04-06T13:44:13.996Z</time></trkpt><trkpt lat="45.706405918784604" lon="9.727365551812614"><ele>267.0</ele><time>2026-04-06T13:44:14.996Z</time></trkpt><trkpt lat="45.70649630864218" lon="9.727687735985317"><ele>267.0</ele><time>2026-04-06T13:44:15.996Z</time></trkpt><trkpt lat="45.70661993086596" lon="9.727984635637092"><ele>267.5</ele><time>2026-04-06T13:44:16.996Z</time></trkpt><trkpt lat="45.70670379541602" lon="9.728319255755029"><ele>268.0</ele><time>2026-04-06T13:44:17.996Z</time></trkpt><trkpt lat="45.70682498855195" lon="9.72864834013316"><ele>268.5</ele><time>2026-04-06T13:44:18.996Z</time></trkpt><trkpt lat="45.70694804513205" lon="9.728984373043918"><ele>269.0</ele><time>2026-04-06T13:44:19.996Z</time></trkpt><trkpt lat="45.707067997156784" lon="9.729310452520943"><ele>269.0</ele><time>2026-04-06T13:44:20.996Z</time></trkpt><trkpt lat="45.70718823541829" lon="9.729634104645113"><ele>269.0</ele><time>2026-04-06T13:44:21.996Z</time></trkpt><trkpt lat="45.707302135690256" lon="9.729934786127155"><ele>269.5</ele><time>2026-04-06T13:44:22.996Z</time></trkpt><trkpt lat="45.70741076564788" lon="9.730229865206681"><ele>270.0</ele><time>2026-04-06T13:44:23.996Z</time></trkpt><trkpt lat="45.70751313849649" lon="9.730525793820672"><ele>270.0</ele><time>2026-04-06T13:44:24.996Z</time></trkpt><trkpt lat="45.70761529879276" lon="9.73081695982409"><ele>270.0</ele><time>2026-04-06T13:44:25.996Z</time></trkpt><trkpt lat="45.707712265152644" lon="9.731099487783755"><ele>270.0</ele><time>2026-04-06T13:44:26.996Z</time></trkpt><trkpt lat="45.70781817430501" lon="9.731384798430941"><ele>270.6666666666667</ele><time>2026-04-06T13:44:27.996Z</time></trkpt><trkpt lat="45.70792628626127" lon="9.731662171401913"><ele>271.33333333333337</ele><time>2026-04-06T13:44:28.996Z</time></trkpt><trkpt lat="45.70802231103488" lon="9.731920804769278"><ele>272.0</ele><time>2026-04-06T13:44:29.996Z</time></trkpt><trkpt lat="45.70811564540832" lon="9.732165605847532"><ele>272.0</ele><time>2026-04-06T13:44:30.996Z</time></trkpt><trkpt lat="45.708202545128046" lon="9.732391995990174"><ele>272.0</ele><time>2026-04-06T13:44:31.996Z</time></trkpt><trkpt lat="45.70828460526347" lon="9.73260729263167"><ele>272.0</ele><time>2026-04-06T13:44:32.996Z</time></trkpt><trkpt lat="45.70835352713792" lon="9.7328078302418"><ele>271.75</ele><time>2026-04-06T13:44:33.996Z</time></trkpt><trkpt lat="45.70841898276469" lon="9.732987839933124"><ele>271.5</ele><time>2026-04-06T13:44:34.996Z</time></trkpt><trkpt lat="45.70848984332616" lon="9.733153949680663"><ele>271.25</ele><time>2026-04-06T13:44:35.996Z</time></trkpt><trkpt lat="45.708559532329524" lon="9.733321133135108"><ele>271.0</ele><time>2026-04-06T13:44:36.996Z</time></trkpt><trkpt lat="45.70859584118087" lon="9.733482883139631"><ele>271.75</ele><time>2026-04-06T13:44:37.996Z</time></trkpt><trkpt lat="45.70865116048142" lon="9.733642740772295"><ele>272.5</ele><time>2026-04-06T13:44:38.996Z</time></trkpt><trkpt lat="45.708688215162134" lon="9.733839683286401"><ele>273.25</ele><time>2026-04-06T13:44:39.996Z</time></trkpt><trkpt lat="45.708714036079584" lon="9.734087864713242"><ele>274.0</ele><time>2026-04-06T13:44:40.996Z</time></trkpt><trkpt lat="45.70873339096396" lon="9.734330826891755"><ele>273.3333333333333</ele><time>2026-04-06T13:44:41.996Z</time></trkpt><trkpt lat="45.70875777187965" lon="9.734570971604068"><ele>272.6666666666667</ele><time>2026-04-06T13:44:42.996Z</time></trkpt><trkpt lat="45.708782590406685" lon="9.734826665960592"><ele>272.0</ele><time>2026-04-06T13:44:43.996Z</time></trkpt><trkpt lat="45.708804322358596" lon="9.735093445991751"><ele>272.33333333333337</ele><time>2026-04-06T13:44:44.996Z</time></trkpt><trkpt lat="45.708827394725574" lon="9.735360899830152"><ele>272.6666666666667</ele><time>2026-04-06T13:44:45.996Z</time></trkpt><trkpt lat="45.70884433544197" lon="9.735632752908282"><ele>273.0</ele><time>2026-04-06T13:44:46.996Z</time></trkpt><trkpt lat="45.70886800936236" lon="9.73590521093235"><ele>272.6666666666667</ele><time>2026-04-06T13:44:47.996Z</time></trkpt><trkpt lat="45.70890852396853" lon="9.736193509684622"><ele>272.33333333333337</ele><time>2026-04-06T13:44:48.996Z</time></trkpt><trkpt lat="45.708958334842144" lon="9.73647623755524"><ele>272.0</ele><time>2026-04-06T13:44:49.996Z</time></trkpt><trkpt lat="45.70901837221214" lon="9.736759690898722"><ele>272.33333333333337</ele><time>2026-04-06T13:44:50.996Z</time></trkpt><trkpt lat="45.70908977485077" lon="9.737014780735617"><ele>272.6666666666667</ele><time>2026-04-06T13:44:51.997Z</time></trkpt><trkpt lat="45.70918389170543" lon="9.737254743828835"><ele>273.0</ele><time>2026-04-06T13:44:52.997Z</time></trkpt><trkpt lat="45.70930766480937" lon="9.737473310998451"><ele>273.6666666666667</ele><time>2026-04-06T13:44:53.997Z</time></trkpt><trkpt lat="45.709467967283665" lon="9.737683963026717"><ele>274.33333333333337</ele><time>2026-04-06T13:44:54.997Z</time></trkpt><trkpt lat="45.7096380689113" lon="9.73790463232872"><ele>275.0</ele><time>2026-04-06T13:44:55.997Z</time></trkpt><trkpt lat="45.709769944044936" lon="9.73811643059229"><ele>275.5</ele><time>2026-04-06T13:44:56.997Z</time></trkpt><trkpt lat="45.709882181565185" lon="9.738313642752512"><ele>276.0</ele><time>2026-04-06T13:44:57.997Z</time></trkpt><trkpt lat="45.709961469758646" lon="9.738485177891999"><ele>276.5</ele><time>2026-04-06T13:44:58.997Z</time></trkpt><trkpt lat="45.71000101796378" lon="9.738650214638033"><ele>277.0</ele><time>2026-04-06T13:44:59.997Z</time></trkpt><trkpt lat="45.71000705832308" lon="9.738829283172945"><ele>277.0</ele><time>2026-04-06T13:45:00.997Z</time></trkpt><trkpt lat="45.70999813198395" lon="9.739034364185235"><ele>277.0</ele><time>2026-04-06T13:45:01.997Z</time></trkpt><trkpt lat="45.7100040071891" lon="9.739257042261924"><ele>277.0</ele><time>2026-04-06T13:45:02.997Z</time></trkpt><trkpt lat="45.70997969079566" lon="9.73947102643045"><ele>277.3333333333333</ele><time>2026-04-06T13:45:03.997Z</time></trkpt><trkpt lat="45.70995372729588" lon="9.73967768547463"><ele>277.6666666666667</ele><time>2026-04-06T13:45:04.997Z</time></trkpt><trkpt lat="45.70989272320682" lon="9.73989382800287"><ele>278.0</ele><time>2026-04-06T13:45:05.997Z</time></trkpt><trkpt lat="45.709755673853046" lon="9.740108595285063"><ele>279.0</ele><time>2026-04-06T13:45:06.997Z</time></trkpt><trkpt lat="45.70964429966222" lon="9.740391740977547"><ele>280.0</ele><time>2026-04-06T13:45:07.997Z</time></trkpt><trkpt lat="45.70952268444614" lon="9.740715932458281"><ele>280.0</ele><time>2026-04-06T13:45:08.997Z</time></trkpt><trkpt lat="45.70941235633715" lon="9.7410610447519"><ele>280.0</ele><time>2026-04-06T13:45:09.997Z</time></trkpt><trkpt lat="45.70932753382834" lon="9.741419336938282"><ele>278.0</ele><time>2026-04-06T13:45:10.995Z</time></trkpt><trkpt lat="45.7092402078935" lon="9.741770100371985"><ele>276.0</ele><time>2026-04-06T13:45:11.996Z</time></trkpt><trkpt lat="45.709145880139715" lon="9.742116057173758"><ele>276.0</ele><time>2026-04-06T13:45:12.996Z</time></trkpt><trkpt lat="45.70906890271513" lon="9.742433023516028"><ele>276.0</ele><time>2026-04-06T13:45:13.995Z</time></trkpt><trkpt lat="45.70899418314772" lon="9.742725609798704"><ele>276.0</ele><time>2026-04-06T13:45:14.995Z</time></trkpt><trkpt lat="45.70890225075356" lon="9.743001914064985"><ele>276.0</ele><time>2026-04-06T13:45:15.995Z</time></trkpt><trkpt lat="45.70878324723541" lon="9.743268933288885"><ele>276.0</ele><time>2026-04-06T13:45:16.995Z</time></trkpt><trkpt lat="45.7086435752957" lon="9.743532133392264"><ele>275.0</ele><time>2026-04-06T13:45:17.995Z</time></trkpt><trkpt lat="45.70850478473882" lon="9.743780391099447"><ele>274.0</ele><time>2026-04-06T13:45:18.995Z</time></trkpt><trkpt lat="45.70838566320531" lon="9.74399227179554"><ele>273.0</ele><time>2026-04-06T13:45:19.996Z</time></trkpt><trkpt lat="45.708271772493724" lon="9.744194848498742"><ele>273.6666666666667</ele><time>2026-04-06T13:45:20.996Z</time></trkpt><trkpt lat="45.70816743997373" lon="9.744380696332705"><ele>274.33333333333337</ele><time>2026-04-06T13:45:21.996Z</time></trkpt><trkpt lat="45.70807598529821" lon="9.744546182758322"><ele>275.0</ele><time>2026-04-06T13:45:22.995Z</time></trkpt><trkpt lat="45.70797899941302" lon="9.744690795986285"><ele>275.0</ele><time>2026-04-06T13:45:23.995Z</time></trkpt><trkpt lat="45.707877669878634" lon="9.744867185256062"><ele>275.0</ele><time>2026-04-06T13:45:24.995Z</time></trkpt><trkpt lat="45.70776554375175" lon="9.745093205520252"><ele>275.0</ele><time>2026-04-06T13:45:25.995Z</time></trkpt><trkpt lat="45.7076501393063" lon="9.745363476472551"><ele>274.5</ele><time>2026-04-06T13:45:26.995Z</time></trkpt><trkpt lat="45.70752674996865" lon="9.74564354475134"><ele>274.0</ele><time>2026-04-06T13:45:27.995Z</time></trkpt><trkpt lat="45.70738944127279" lon="9.745927036493711"><ele>274.0</ele><time>2026-04-06T13:45:28.995Z</time></trkpt><trkpt lat="45.70725770572286" lon="9.746214318867121"><ele>274.0</ele><time>2026-04-06T13:45:29.995Z</time></trkpt><trkpt lat="45.70712136705452" lon="9.74650489893325"><ele>274.0</ele><time>2026-04-06T13:45:30.995Z</time></trkpt><trkpt lat="45.706973016562735" lon="9.746794292847015"><ele>274.0</ele><time>2026-04-06T13:45:31.995Z</time></trkpt><trkpt lat="45.70680408690747" lon="9.747066750217854"><ele>274.0</ele><time>2026-04-06T13:45:32.995Z</time></trkpt><trkpt lat="45.70662910279141" lon="9.747341138008869"><ele>274.0</ele><time>2026-04-06T13:45:33.995Z</time></trkpt><trkpt lat="45.706467797854664" lon="9.74763131241797"><ele>273.0</ele><time>2026-04-06T13:45:34.995Z</time></trkpt><trkpt lat="45.70633114896797" lon="9.747942085681643"><ele>272.0</ele><time>2026-04-06T13:45:35.995Z</time></trkpt><trkpt lat="45.70621158372161" lon="9.748273367546624"><ele>271.5</ele><time>2026-04-06T13:45:36.995Z</time></trkpt><trkpt lat="45.70610262638656" lon="9.74860517111082"><ele>271.0</ele><time>2026-04-06T13:45:37.995Z</time></trkpt><trkpt lat="45.70600607240948" lon="9.748921254442815"><ele>270.5</ele><time>2026-04-06T13:45:38.995Z</time></trkpt><trkpt lat="45.70594850062948" lon="9.749238955014343"><ele>270.0</ele><time>2026-04-06T13:45:39.995Z</time></trkpt><trkpt lat="45.70591194306538" lon="9.749573017347537"><ele>270.0</ele><time>2026-04-06T13:45:40.995Z</time></trkpt><trkpt lat="45.70590356149829" lon="9.749926284549357"><ele>270.0</ele><time>2026-04-06T13:45:41.995Z</time></trkpt><trkpt lat="45.70592014023981" lon="9.750252850013954"><ele>270.0</ele><time>2026-04-06T13:45:42.995Z</time></trkpt><trkpt lat="45.70595097090359" lon="9.750563816392537"><ele>270.0</ele><time>2026-04-06T13:45:43.995Z</time></trkpt><trkpt lat="45.706022258651274" lon="9.750872531296839"><ele>270.0</ele><time>2026-04-06T13:45:44.995Z</time></trkpt><trkpt lat="45.706139609506586" lon="9.751176775656484"><ele>271.5</ele><time>2026-04-06T13:45:45.995Z</time></trkpt><trkpt lat="45.7062725652213" lon="9.751474614424184"><ele>273.0</ele><time>2026-04-06T13:45:46.995Z</time></trkpt><trkpt lat="45.70640752366486" lon="9.751783801472374"><ele>272.5</ele><time>2026-04-06T13:45:47.995Z</time></trkpt><trkpt lat="45.70654066256165" lon="9.752098038106743"><ele>272.0</ele><time>2026-04-06T13:45:48.995Z</time></trkpt><trkpt lat="45.706663039646024" lon="9.752424309180247"><ele>272.0</ele><time>2026-04-06T13:45:49.995Z</time></trkpt><trkpt lat="45.70678349965643" lon="9.752754349565292"><ele>272.0</ele><time>2026-04-06T13:45:50.995Z</time></trkpt><trkpt lat="45.70689287299586" lon="9.753088283715188"><ele>276.0</ele><time>2026-04-06T13:45:51.995Z</time></trkpt><trkpt lat="45.70697154063775" lon="9.753424091398784"><ele>280.0</ele><time>2026-04-06T13:45:52.995Z</time></trkpt><trkpt lat="45.707028973780496" lon="9.753775404038766"><ele>280.0</ele><time>2026-04-06T13:45:53.995Z</time></trkpt><trkpt lat="45.707079601570584" lon="9.754127249226663"><ele>280.0</ele><time>2026-04-06T13:45:54.995Z</time></trkpt><trkpt lat="45.70712641042201" lon="9.75446943498502"><ele>278.66666666666663</ele><time>2026-04-06T13:45:55.995Z</time></trkpt><trkpt lat="45.70717124393845" lon="9.754775229579987"><ele>277.3333333333333</ele><time>2026-04-06T13:45:56.995Z</time></trkpt><trkpt lat="45.7072200283709" lon="9.755066400327234"><ele>276.0</ele><time>2026-04-06T13:45:57.995Z</time></trkpt><trkpt lat="45.70726309254361" lon="9.755334149834562"><ele>275.0</ele><time>2026-04-06T13:45:58.995Z</time></trkpt><trkpt lat="45.70730257610716" lon="9.755591418228937"><ele>274.0</ele><time>2026-04-06T13:45:59.995Z</time></trkpt><trkpt lat="45.70734255695166" lon="9.755830320275942"><ele>273.0</ele><time>2026-04-06T13:46:00.995Z</time></trkpt><trkpt lat="45.70735483248015" lon="9.756063602623374"><ele>272.75</ele><time>2026-04-06T13:46:01.995Z</time></trkpt><trkpt lat="45.70739240312968" lon="9.756279482837042"><ele>272.5</ele><time>2026-04-06T13:46:02.995Z</time></trkpt><trkpt lat="45.70742948560194" lon="9.756490394789802"><ele>272.25</ele><time>2026-04-06T13:46:03.995Z</time></trkpt><trkpt lat="45.7074448230081" lon="9.756685762262553"><ele>272.0</ele><time>2026-04-06T13:46:04.995Z</time></trkpt><trkpt lat="45.70743700811829" lon="9.756870768649241"><ele>271.75</ele><time>2026-04-06T13:46:05.995Z</time></trkpt><trkpt lat="45.70740838716545" lon="9.757022163196421"><ele>271.5</ele><time>2026-04-06T13:46:06.995Z</time></trkpt><trkpt lat="45.70740550260611" lon="9.757133169142811"><ele>271.25</ele><time>2026-04-06T13:46:07.995Z</time></trkpt><trkpt lat="45.70752697818568" lon="9.7572630902589"><ele>271.0</ele><time>2026-04-06T13:46:09.995Z</time></trkpt><trkpt lat="45.707631862563765" lon="9.757370809476338"><ele>271.0</ele><time>2026-04-06T13:46:10.995Z</time></trkpt><trkpt lat="45.70771633631258" lon="9.757543823399226"><ele>271.0</ele><time>2026-04-06T13:46:11.995Z</time></trkpt><trkpt lat="45.707766964266035" lon="9.757785641646816"><ele>271.0</ele><time>2026-04-06T13:46:12.995Z</time></trkpt><trkpt lat="45.707815662510164" lon="9.758062994039067"><ele>271.66666666666663</ele><time>2026-04-06T13:46:13.995Z</time></trkpt><trkpt lat="45.707860570483206" lon="9.758354081340874"><ele>272.3333333333333</ele><time>2026-04-06T13:46:14.995Z</time></trkpt><trkpt lat="45.70789667795628" lon="9.758654955908503"><ele>273.0</ele><time>2026-04-06T13:46:15.995Z</time></trkpt><trkpt lat="45.707921314624656" lon="9.75893294606984"><ele>273.0</ele><time>2026-04-06T13:46:16.995Z</time></trkpt><trkpt lat="45.70793907510448" lon="9.759174301822208"><ele>273.0</ele><time>2026-04-06T13:46:17.995Z</time></trkpt><trkpt lat="45.707948030495935" lon="9.759395440007872"><ele>273.0</ele><time>2026-04-06T13:46:18.995Z</time></trkpt><trkpt lat="45.707929102325245" lon="9.759593376407599"><ele>272.75</ele><time>2026-04-06T13:46:19.995Z</time></trkpt><trkpt lat="45.70788897524688" lon="9.759766513511035"><ele>272.5</ele><time>2026-04-06T13:46:20.995Z</time></trkpt><trkpt lat="45.70779887239998" lon="9.759905359942715"><ele>272.25</ele><time>2026-04-06T13:46:21.995Z</time></trkpt><trkpt lat="45.70769979753251" lon="9.760024394637417"><ele>272.0</ele><time>2026-04-06T13:46:22.995Z</time></trkpt><trkpt lat="45.70759079360904" lon="9.760115880595793"><ele>272.0</ele><time>2026-04-06T13:46:23.995Z</time></trkpt><trkpt lat="45.7074667313497" lon="9.760173995527177"><ele>272.0</ele><time>2026-04-06T13:46:24.995Z</time></trkpt><trkpt lat="45.707379582417474" lon="9.760219403339429"><ele>272.0</ele><time>2026-04-06T13:46:25.995Z</time></trkpt><trkpt lat="45.70728459576819" lon="9.760264917523257"><ele>272.0</ele><time>2026-04-06T13:46:27.995Z</time></trkpt><trkpt lat="45.70737722890817" lon="9.760244730437579"><ele>272.0</ele><time>2026-04-06T13:46:31.995Z</time></trkpt><trkpt lat="45.707474071085386" lon="9.760173541713803"><ele>272.0</ele><time>2026-04-06T13:46:32.995Z</time></trkpt><trkpt lat="45.707598147374284" lon="9.760098791322235"><ele>272.0</ele><time>2026-04-06T13:46:33.995Z</time></trkpt><trkpt lat="45.707728525198796" lon="9.760005275431203"><ele>272.0</ele><time>2026-04-06T13:46:34.995Z</time></trkpt><trkpt lat="45.70786030884833" lon="9.75989763434677"><ele>272.0</ele><time>2026-04-06T13:46:35.995Z</time></trkpt><trkpt lat="45.707945123414504" lon="9.75967785217235"><ele>272.33333333333337</ele><time>2026-04-06T13:46:36.995Z</time></trkpt><trkpt lat="45.70798305605182" lon="9.759424703297512"><ele>272.6666666666667</ele><time>2026-04-06T13:46:37.995Z</time></trkpt><trkpt lat="45.70798059038768" lon="9.759172693084508"><ele>273.0</ele><time>2026-04-06T13:46:38.995Z</time></trkpt><trkpt lat="45.70794533117325" lon="9.758950539633828"><ele>273.0</ele><time>2026-04-06T13:46:39.995Z</time></trkpt><trkpt lat="45.70790026409964" lon="9.75879862437325"><ele>273.0</ele><time>2026-04-06T13:46:40.995Z</time></trkpt><trkpt lat="45.70790418184081" lon="9.758706959159406"><ele>273.0</ele><time>2026-04-06T13:46:42.995Z</time></trkpt><trkpt lat="45.70796992406143" lon="9.758812448827642"><ele>273.0</ele><time>2026-04-06T13:46:44.995Z</time></trkpt><trkpt lat="45.70801079490863" lon="9.758972443495567"><ele>273.0</ele><time>2026-04-06T13:46:45.995Z</time></trkpt><trkpt lat="45.708038629731405" lon="9.759196318213343"><ele>272.0</ele><time>2026-04-06T13:46:46.995Z</time></trkpt><trkpt lat="45.70806295692727" lon="9.759422601575867"><ele>271.0</ele><time>2026-04-06T13:46:47.995Z</time></trkpt><trkpt lat="45.708097691924834" lon="9.75965181084131"><ele>270.0</ele><time>2026-04-06T13:46:48.995Z</time></trkpt><trkpt lat="45.70813942927593" lon="9.759885559336674"><ele>270.0</ele><time>2026-04-06T13:46:49.995Z</time></trkpt><trkpt lat="45.70818176144574" lon="9.760105127974557"><ele>270.0</ele><time>2026-04-06T13:46:50.995Z</time></trkpt><trkpt lat="45.70822040898274" lon="9.760303535447644"><ele>270.0</ele><time>2026-04-06T13:46:51.995Z</time></trkpt><trkpt lat="45.70825039080277" lon="9.760503482047831"><ele>270.0</ele><time>2026-04-06T13:46:52.995Z</time></trkpt><trkpt lat="45.7082861880726" lon="9.760722708518395"><ele>270.0</ele><time>2026-04-06T13:46:53.995Z</time></trkpt><trkpt lat="45.708323054176034" lon="9.760947773320368"><ele>270.0</ele><time>2026-04-06T13:46:54.995Z</time></trkpt><trkpt lat="45.70835872590168" lon="9.761153448206226"><ele>270.0</ele><time>2026-04-06T13:46:55.995Z</time></trkpt><trkpt lat="45.70839114981168" lon="9.76133455949029"><ele>270.0</ele><time>2026-04-06T13:46:56.995Z</time></trkpt><trkpt lat="45.70842383939272" lon="9.761511646069604"><ele>270.0</ele><time>2026-04-06T13:46:57.995Z</time></trkpt><trkpt lat="45.70844877974807" lon="9.761681138802654"><ele>270.0</ele><time>2026-04-06T13:46:58.995Z</time></trkpt><trkpt lat="45.70847516445762" lon="9.76184028150438"><ele>270.0</ele><time>2026-04-06T13:46:59.995Z</time></trkpt><trkpt lat="45.70850063257158" lon="9.761986152004571"><ele>270.0</ele><time>2026-04-06T13:47:00.995Z</time></trkpt><trkpt lat="45.70852928676578" lon="9.762127359031144"><ele>270.0</ele><time>2026-04-06T13:47:01.995Z</time></trkpt><trkpt lat="45.70855200366387" lon="9.762255477448022"><ele>269.8</ele><time>2026-04-06T13:47:02.995Z</time></trkpt><trkpt lat="45.70858352734441" lon="9.762373449343965"><ele>269.6</ele><time>2026-04-06T13:47:03.995Z</time></trkpt><trkpt lat="45.708621980018336" lon="9.762500037311995"><ele>269.4</ele><time>2026-04-06T13:47:04.995Z</time></trkpt><trkpt lat="45.708697741453506" lon="9.762627025787975"><ele>269.2</ele><time>2026-04-06T13:47:05.995Z</time></trkpt><trkpt lat="45.708813314454375" lon="9.7627438646479"><ele>269.0</ele><time>2026-04-06T13:47:06.996Z</time></trkpt><trkpt lat="45.708969927602254" lon="9.762840378667413"><ele>270.33333333333337</ele><time>2026-04-06T13:47:07.996Z</time></trkpt><trkpt lat="45.709153726956885" lon="9.762952982692886"><ele>271.6666666666667</ele><time>2026-04-06T13:47:08.996Z</time></trkpt><trkpt lat="45.709372867945746" lon="9.763098094560334"><ele>273.0</ele><time>2026-04-06T13:47:09.996Z</time></trkpt><trkpt lat="45.709594166418384" lon="9.763218413817096"><ele>273.0</ele><time>2026-04-06T13:47:10.996Z</time></trkpt><trkpt lat="45.70979940514878" lon="9.76329472609767"><ele>273.0</ele><time>2026-04-06T13:47:11.996Z</time></trkpt><trkpt lat="45.70997427525104" lon="9.76337744274268"><ele>273.0</ele><time>2026-04-06T13:47:12.996Z</time></trkpt><trkpt lat="45.710121290146766" lon="9.763442079788772"><ele>275.0</ele><time>2026-04-06T13:47:13.996Z</time></trkpt><trkpt lat="45.71022255035739" lon="9.763644415261991"><ele>277.0</ele><time>2026-04-06T13:47:14.996Z</time></trkpt><trkpt lat="45.71033770921411" lon="9.763871164655825"><ele>279.0</ele><time>2026-04-06T13:47:15.996Z</time></trkpt><trkpt lat="45.71046433042025" lon="9.76408176568048"><ele>279.0</ele><time>2026-04-06T13:47:16.995Z</time></trkpt><trkpt lat="45.71056195986736" lon="9.764261047662266"><ele>279.0</ele><time>2026-04-06T13:47:17.995Z</time></trkpt><trkpt lat="45.710640419794316" lon="9.764451962466978"><ele>279.0</ele><time>2026-04-06T13:47:18.995Z</time></trkpt><trkpt lat="45.71069461308023" lon="9.76469933304014"><ele>280.3333333333333</ele><time>2026-04-06T13:47:19.995Z</time></trkpt><trkpt lat="45.7107556440944" lon="9.764973164406415"><ele>281.66666666666663</ele><time>2026-04-06T13:47:20.995Z</time></trkpt><trkpt lat="45.71082300530717" lon="9.765266983292832"><ele>283.0</ele><time>2026-04-06T13:47:21.995Z</time></trkpt><trkpt lat="45.71091510402024" lon="9.765550119120354"><ele>285.0</ele><time>2026-04-06T13:47:22.995Z</time></trkpt><trkpt lat="45.71103292364796" lon="9.765763369723853"><ele>287.0</ele><time>2026-04-06T13:47:23.994Z</time></trkpt><trkpt lat="45.711168125090175" lon="9.76596446827836"><ele>289.0</ele><time>2026-04-06T13:47:24.994Z</time></trkpt><trkpt lat="45.71133428384667" lon="9.766172300197583"><ele>292.3333333333333</ele><time>2026-04-06T13:47:25.995Z</time></trkpt><trkpt lat="45.71151468455847" lon="9.766393545142032"><ele>295.6666666666667</ele><time>2026-04-06T13:47:26.995Z</time></trkpt><trkpt lat="45.711666596975" lon="9.76658510967058"><ele>299.0</ele><time>2026-04-06T13:47:27.995Z</time></trkpt><trkpt lat="45.7118088885626" lon="9.766729221381091"><ele>299.33333333333337</ele><time>2026-04-06T13:47:28.995Z</time></trkpt><trkpt lat="45.711956405076286" lon="9.766839217699705"><ele>299.6666666666667</ele><time>2026-04-06T13:47:29.994Z</time></trkpt><trkpt lat="45.7120996123566" lon="9.76691466310418"><ele>300.0</ele><time>2026-04-06T13:47:30.994Z</time></trkpt><trkpt lat="45.71223350098876" lon="9.7669769107312"><ele>301.5</ele><time>2026-04-06T13:47:31.994Z</time></trkpt><trkpt lat="45.712332068843615" lon="9.76706634960155"><ele>303.0</ele><time>2026-04-06T13:47:32.994Z</time></trkpt><trkpt lat="45.71244033980664" lon="9.767141724096552"><ele>304.5</ele><time>2026-04-06T13:47:33.994Z</time></trkpt><trkpt lat="45.712541681982486" lon="9.76723433109581"><ele>306.0</ele><time>2026-04-06T13:47:34.994Z</time></trkpt><trkpt lat="45.712658125132535" lon="9.767329965862324"><ele>306.0</ele><time>2026-04-06T13:47:35.994Z</time></trkpt><trkpt lat="45.71275822892247" lon="9.767422642560748"><ele>306.0</ele><time>2026-04-06T13:47:36.994Z</time></trkpt><trkpt lat="45.712865563799866" lon="9.767522533607096"><ele>306.0</ele><time>2026-04-06T13:47:37.994Z</time></trkpt><trkpt lat="45.71300765179622" lon="9.767649303530622"><ele>306.0</ele><time>2026-04-06T13:47:38.994Z</time></trkpt><trkpt lat="45.71316210854189" lon="9.767787586463886"><ele>307.3333333333333</ele><time>2026-04-06T13:47:39.994Z</time></trkpt><trkpt lat="45.71330594368941" lon="9.767903859115824"><ele>308.66666666666663</ele><time>2026-04-06T13:47:40.994Z</time></trkpt><trkpt lat="45.71345931213035" lon="9.768010757656102"><ele>310.0</ele><time>2026-04-06T13:47:41.994Z</time></trkpt><trkpt lat="45.71362308135871" lon="9.768119450252742"><ele>312.0</ele><time>2026-04-06T13:47:42.994Z</time></trkpt><trkpt lat="45.71376610795425" lon="9.768258421107296"><ele>314.0</ele><time>2026-04-06T13:47:43.994Z</time></trkpt><trkpt lat="45.713909057384605" lon="9.768389389436987"><ele>316.0</ele><time>2026-04-06T13:47:44.994Z</time></trkpt><trkpt lat="45.71405230540698" lon="9.768557198897089"><ele>316.0</ele><time>2026-04-06T13:47:45.994Z</time></trkpt><trkpt lat="45.714199643393634" lon="9.768764740835763"><ele>316.0</ele><time>2026-04-06T13:47:46.994Z</time></trkpt><trkpt lat="45.7143650257268" lon="9.769041047758412"><ele>318.5</ele><time>2026-04-06T13:47:47.994Z</time></trkpt><trkpt lat="45.71454567733965" lon="9.769336776491912"><ele>321.0</ele><time>2026-04-06T13:47:48.994Z</time></trkpt><trkpt lat="45.71471944719631" lon="9.769606378562916"><ele>321.0</ele><time>2026-04-06T13:47:49.994Z</time></trkpt><trkpt lat="45.714864691617436" lon="9.769867805627085"><ele>321.0</ele><time>2026-04-06T13:47:50.994Z</time></trkpt><trkpt lat="45.71498528481433" lon="9.770119233544419"><ele>321.0</ele><time>2026-04-06T13:47:51.994Z</time></trkpt><trkpt lat="45.715059985038344" lon="9.770378541665966"><ele>320.3333333333333</ele><time>2026-04-06T13:47:52.994Z</time></trkpt><trkpt lat="45.715126479617105" lon="9.77065230804557"><ele>319.66666666666663</ele><time>2026-04-06T13:47:53.994Z</time></trkpt><trkpt lat="45.715163426567486" lon="9.770935714383265"><ele>319.0</ele><time>2026-04-06T13:47:54.994Z</time></trkpt><trkpt lat="45.715167139858636" lon="9.771242329522803"><ele>321.0</ele><time>2026-04-06T13:47:55.994Z</time></trkpt><trkpt lat="45.71515256097058" lon="9.771574579652707"><ele>323.0</ele><time>2026-04-06T13:47:56.994Z</time></trkpt><trkpt lat="45.71513349582745" lon="9.771909337041134"><ele>324.6666666666667</ele><time>2026-04-06T13:47:57.994Z</time></trkpt><trkpt lat="45.71511575523462" lon="9.772191662597827"><ele>326.3333333333333</ele><time>2026-04-06T13:47:58.994Z</time></trkpt><trkpt lat="45.7151053628346" lon="9.77243793760352"><ele>328.0</ele><time>2026-04-06T13:47:59.994Z</time></trkpt><trkpt lat="45.71513018872847" lon="9.772671159765322"><ele>328.4</ele><time>2026-04-06T13:48:00.994Z</time></trkpt><trkpt lat="45.71516583941276" lon="9.772875478713178"><ele>328.79999999999995</ele><time>2026-04-06T13:48:01.994Z</time></trkpt><trkpt lat="45.715210154991276" lon="9.773043962710492"><ele>329.2</ele><time>2026-04-06T13:48:02.994Z</time></trkpt><trkpt lat="45.715238137400085" lon="9.773143882558402"><ele>329.6</ele><time>2026-04-06T13:48:04.994Z</time></trkpt><trkpt lat="45.715226011685964" lon="9.773254491550146"><ele>330.0</ele><time>2026-04-06T13:48:06.994Z</time></trkpt><trkpt lat="45.715193381289545" lon="9.773379573475584"><ele>331.6666666666667</ele><time>2026-04-06T13:48:07.994Z</time></trkpt><trkpt lat="45.715160908807775" lon="9.773557771466058"><ele>333.33333333333337</ele><time>2026-04-06T13:48:08.994Z</time></trkpt><trkpt lat="45.71513676047901" lon="9.77380670892513"><ele>335.0</ele><time>2026-04-06T13:48:09.994Z</time></trkpt><trkpt lat="45.715137854916385" lon="9.774052660245475"><ele>335.0</ele><time>2026-04-06T13:48:10.994Z</time></trkpt><trkpt lat="45.71516660819601" lon="9.774296959966884"><ele>335.0</ele><time>2026-04-06T13:48:11.994Z</time></trkpt><trkpt lat="45.71518692087996" lon="9.77453633591147"><ele>335.0</ele><time>2026-04-06T13:48:12.994Z</time></trkpt><trkpt lat="45.715191439501076" lon="9.77476122607453"><ele>337.33333333333337</ele><time>2026-04-06T13:48:13.994Z</time></trkpt><trkpt lat="45.71517950569198" lon="9.774997147809938"><ele>339.6666666666667</ele><time>2026-04-06T13:48:14.994Z</time></trkpt><trkpt lat="45.715044704630714" lon="9.775190214465045"><ele>342.0</ele><time>2026-04-06T13:48:15.994Z</time></trkpt><trkpt lat="45.71497927342596" lon="9.77535804764639"><ele>342.25</ele><time>2026-04-06T13:48:16.994Z</time></trkpt><trkpt lat="45.71488085906654" lon="9.775482409878189"><ele>342.5</ele><time>2026-04-06T13:48:17.994Z</time></trkpt><trkpt lat="45.714760260647054" lon="9.77559966238508"><ele>342.75</ele><time>2026-04-06T13:48:18.994Z</time></trkpt><trkpt lat="45.71463945181948" lon="9.77576659975221"><ele>343.0</ele><time>2026-04-06T13:48:19.994Z</time></trkpt><trkpt lat="45.71454770628868" lon="9.775961115180415"><ele>343.3333333333333</ele><time>2026-04-06T13:48:20.994Z</time></trkpt><trkpt lat="45.714475837458515" lon="9.776180722307837"><ele>343.6666666666667</ele><time>2026-04-06T13:48:21.994Z</time></trkpt><trkpt lat="45.71444841576514" lon="9.776426794275924"><ele>344.0</ele><time>2026-04-06T13:48:22.994Z</time></trkpt><trkpt lat="45.71444909958913" lon="9.776652162044543"><ele>344.0</ele><time>2026-04-06T13:48:23.994Z</time></trkpt><trkpt lat="45.71448045539216" lon="9.776851840345824"><ele>344.0</ele><time>2026-04-06T13:48:24.994Z</time></trkpt><trkpt lat="45.71453983673307" lon="9.777033817471843"><ele>344.0</ele><time>2026-04-06T13:48:25.994Z</time></trkpt><trkpt lat="45.714645179728414" lon="9.777201928970722"><ele>344.0</ele><time>2026-04-06T13:48:26.994Z</time></trkpt><trkpt lat="45.7147678073197" lon="9.777366291014062"><ele>345.6666666666667</ele><time>2026-04-06T13:48:27.994Z</time></trkpt><trkpt lat="45.714881751470955" lon="9.777535743364881"><ele>347.3333333333333</ele><time>2026-04-06T13:48:28.994Z</time></trkpt><trkpt lat="45.71494827307347" lon="9.777717535839392"><ele>349.0</ele><time>2026-04-06T13:48:29.994Z</time></trkpt><trkpt lat="45.714943806615295" lon="9.77793449919139"><ele>350.3333333333333</ele><time>2026-04-06T13:48:30.994Z</time></trkpt><trkpt lat="45.71495154592046" lon="9.778163113221643"><ele>351.6666666666667</ele><time>2026-04-06T13:48:31.994Z</time></trkpt><trkpt lat="45.71496044207397" lon="9.778415626729677"><ele>353.0</ele><time>2026-04-06T13:48:32.994Z</time></trkpt><trkpt lat="45.7149855130879" lon="9.778685707567535"><ele>353.0</ele><time>2026-04-06T13:48:33.994Z</time></trkpt><trkpt lat="45.71496228361297" lon="9.77896082208024"><ele>353.0</ele><time>2026-04-06T13:48:34.994Z</time></trkpt><trkpt lat="45.714877030263516" lon="9.779168486883279"><ele>353.0</ele><time>2026-04-06T13:48:35.994Z</time></trkpt><trkpt lat="45.71480522425221" lon="9.779348480570972"><ele>351.0</ele><time>2026-04-06T13:48:36.995Z</time></trkpt><trkpt lat="45.714731080845056" lon="9.779501885821933"><ele>349.0</ele><time>2026-04-06T13:48:37.995Z</time></trkpt><trkpt lat="45.714652717655625" lon="9.779628034230539"><ele>347.0</ele><time>2026-04-06T13:48:38.995Z</time></trkpt><trkpt lat="45.714567484371734" lon="9.779730563722946"><ele>345.0</ele><time>2026-04-06T13:48:39.995Z</time></trkpt><trkpt lat="45.714450236941886" lon="9.77986371373744"><ele>348.3333333333333</ele><time>2026-04-06T13:48:40.995Z</time></trkpt><trkpt lat="45.714325215594826" lon="9.780035821898625"><ele>351.66666666666663</ele><time>2026-04-06T13:48:41.995Z</time></trkpt><trkpt lat="45.71422933803045" lon="9.780330697483286"><ele>355.0</ele><time>2026-04-06T13:48:42.995Z</time></trkpt><trkpt lat="45.714163127052025" lon="9.780629574594354"><ele>357.0</ele><time>2026-04-06T13:48:43.995Z</time></trkpt><trkpt lat="45.71412266384292" lon="9.780986495005722"><ele>359.0</ele><time>2026-04-06T13:48:44.995Z</time></trkpt><trkpt lat="45.71410411520939" lon="9.781376980818328"><ele>360.0</ele><time>2026-04-06T13:48:45.995Z</time></trkpt><trkpt lat="45.71409304483152" lon="9.781710658133413"><ele>361.0</ele><time>2026-04-06T13:48:46.995Z</time></trkpt><trkpt lat="45.71404239720768" lon="9.781949772698903"><ele>362.0</ele><time>2026-04-06T13:48:47.995Z</time></trkpt><trkpt lat="45.71397926820032" lon="9.782148706603522"><ele>362.0</ele><time>2026-04-06T13:48:48.995Z</time></trkpt><trkpt lat="45.71390580890419" lon="9.782368788344131"><ele>362.0</ele><time>2026-04-06T13:48:49.995Z</time></trkpt><trkpt lat="45.713847252874295" lon="9.782622053325142"><ele>362.0</ele><time>2026-04-06T13:48:50.995Z</time></trkpt><trkpt lat="45.713818218276764" lon="9.782893201932863"><ele>361.6666666666667</ele><time>2026-04-06T13:48:51.995Z</time></trkpt><trkpt lat="45.71383891800646" lon="9.783198258824216"><ele>361.3333333333333</ele><time>2026-04-06T13:48:52.995Z</time></trkpt><trkpt lat="45.71385426073022" lon="9.783493019641044"><ele>361.0</ele><time>2026-04-06T13:48:53.995Z</time></trkpt><trkpt lat="45.713886803873784" lon="9.783761263466856"><ele>361.75</ele><time>2026-04-06T13:48:54.995Z</time></trkpt><trkpt lat="45.71388783299248" lon="9.783993283177095"><ele>362.5</ele><time>2026-04-06T13:48:55.995Z</time></trkpt><trkpt lat="45.713893787178876" lon="9.78420566915831"><ele>363.25</ele><time>2026-04-06T13:48:56.995Z</time></trkpt><trkpt lat="45.71388631121728" lon="9.784394143272593"><ele>364.0</ele><time>2026-04-06T13:48:57.995Z</time></trkpt><trkpt lat="45.713873634463496" lon="9.784590779000009"><ele>365.5</ele><time>2026-04-06T13:48:58.995Z</time></trkpt><trkpt lat="45.71384492939603" lon="9.784794530864389"><ele>367.0</ele><time>2026-04-06T13:48:59.995Z</time></trkpt><trkpt lat="45.71383209302514" lon="9.78499761815159"><ele>368.5</ele><time>2026-04-06T13:49:00.995Z</time></trkpt><trkpt lat="45.713815599548624" lon="9.785196170960809"><ele>370.0</ele><time>2026-04-06T13:49:01.995Z</time></trkpt><trkpt lat="45.71379677153707" lon="9.785388582125702"><ele>371.0</ele><time>2026-04-06T13:49:02.995Z</time></trkpt><trkpt lat="45.713769194701584" lon="9.78557998967612"><ele>372.0</ele><time>2026-04-06T13:49:03.995Z</time></trkpt><trkpt lat="45.713744588236295" lon="9.785768559701424"><ele>373.0</ele><time>2026-04-06T13:49:04.995Z</time></trkpt><trkpt lat="45.713723378833116" lon="9.785953830511994"><ele>374.0</ele><time>2026-04-06T13:49:05.995Z</time></trkpt><trkpt lat="45.71370288657591" lon="9.786144767044886"><ele>374.5</ele><time>2026-04-06T13:49:06.995Z</time></trkpt><trkpt lat="45.71367912830433" lon="9.786340245855351"><ele>375.0</ele><time>2026-04-06T13:49:07.995Z</time></trkpt><trkpt lat="45.71364956295333" lon="9.78653808521984"><ele>375.5</ele><time>2026-04-06T13:49:08.995Z</time></trkpt><trkpt lat="45.71362521921702" lon="9.786731360338127"><ele>376.0</ele><time>2026-04-06T13:49:09.995Z</time></trkpt><trkpt lat="45.71360992070973" lon="9.786919179991663"><ele>377.0</ele><time>2026-04-06T13:49:10.995Z</time></trkpt><trkpt lat="45.7136288429432" lon="9.787109309483245"><ele>378.0</ele><time>2026-04-06T13:49:11.995Z</time></trkpt><trkpt lat="45.71367893097497" lon="9.787286154060112"><ele>379.0</ele><time>2026-04-06T13:49:12.995Z</time></trkpt><trkpt lat="45.71375305532292" lon="9.787443104022612"><ele>380.0</ele><time>2026-04-06T13:49:13.995Z</time></trkpt><trkpt lat="45.71381122101408" lon="9.787588728677504"><ele>380.6</ele><time>2026-04-06T13:49:14.995Z</time></trkpt><trkpt lat="45.71386135467466" lon="9.787722296418218"><ele>381.2</ele><time>2026-04-06T13:49:15.995Z</time></trkpt><trkpt lat="45.71389966025369" lon="9.787855585715377"><ele>381.79999999999995</ele><time>2026-04-06T13:49:16.995Z</time></trkpt><trkpt lat="45.71391590868383" lon="9.788008720912174"><ele>382.4</ele><time>2026-04-06T13:49:17.995Z</time></trkpt><trkpt lat="45.71389659214311" lon="9.788173947898839"><ele>383.0</ele><time>2026-04-06T13:49:18.995Z</time></trkpt><trkpt lat="45.71386329307391" lon="9.788332101365093"><ele>383.0</ele><time>2026-04-06T13:49:19.995Z</time></trkpt><trkpt lat="45.71381172669269" lon="9.788488536309051"><ele>383.0</ele><time>2026-04-06T13:49:20.995Z</time></trkpt><trkpt lat="45.713748384644916" lon="9.788642323527595"><ele>383.0</ele><time>2026-04-06T13:49:21.995Z</time></trkpt><trkpt lat="45.713691611703624" lon="9.788780839418633"><ele>383.0</ele><time>2026-04-06T13:49:22.995Z</time></trkpt><trkpt lat="45.71364615288735" lon="9.78893209797034"><ele>383.25</ele><time>2026-04-06T13:49:23.995Z</time></trkpt><trkpt lat="45.713561560083185" lon="9.789061136738617"><ele>383.5</ele><time>2026-04-06T13:49:24.995Z</time></trkpt><trkpt lat="45.713490688386244" lon="9.789204232728256"><ele>383.75</ele><time>2026-04-06T13:49:25.995Z</time></trkpt><trkpt lat="45.71341659515675" lon="9.789353617732996"><ele>384.0</ele><time>2026-04-06T13:49:26.994Z</time></trkpt><trkpt lat="45.71330427510407" lon="9.789447845973156"><ele>384.0</ele><time>2026-04-06T13:49:27.994Z</time></trkpt><trkpt lat="45.71317520409365" lon="9.789532946244194"><ele>384.0</ele><time>2026-04-06T13:49:28.995Z</time></trkpt><trkpt lat="45.713029687695524" lon="9.789592333742036"><ele>384.0</ele><time>2026-04-06T13:49:29.995Z</time></trkpt><trkpt lat="45.71286575317307" lon="9.789657170224396"><ele>385.0</ele><time>2026-04-06T13:49:30.995Z</time></trkpt><trkpt lat="45.712717752243954" lon="9.789776442646207"><ele>386.0</ele><time>2026-04-06T13:49:31.995Z</time></trkpt><trkpt lat="45.712566957936346" lon="9.789991922748115"><ele>387.0</ele><time>2026-04-06T13:49:32.994Z</time></trkpt><trkpt lat="45.712378275489414" lon="9.790232190758179"><ele>387.0</ele><time>2026-04-06T13:49:33.994Z</time></trkpt><trkpt lat="45.71216238300714" lon="9.790535138210002"><ele>387.0</ele><time>2026-04-06T13:49:34.995Z</time></trkpt><trkpt lat="45.711986490750874" lon="9.790808449134003"><ele>391.33333333333337</ele><time>2026-04-06T13:49:35.994Z</time></trkpt><trkpt lat="45.711834255108926" lon="9.791013934282063"><ele>395.6666666666667</ele><time>2026-04-06T13:49:36.994Z</time></trkpt><trkpt lat="45.711711894985385" lon="9.791237350808233"><ele>400.0</ele><time>2026-04-06T13:49:37.994Z</time></trkpt><trkpt lat="45.71161959710068" lon="9.791498061654686"><ele>400.0</ele><time>2026-04-06T13:49:38.994Z</time></trkpt><trkpt lat="45.711548140219605" lon="9.791788313989041"><ele>400.0</ele><time>2026-04-06T13:49:39.994Z</time></trkpt><trkpt lat="45.71147328108467" lon="9.792058527999043"><ele>400.0</ele><time>2026-04-06T13:49:40.994Z</time></trkpt><trkpt lat="45.7113903288796" lon="9.792314833164511"><ele>400.0</ele><time>2026-04-06T13:49:41.994Z</time></trkpt><trkpt lat="45.71128087961147" lon="9.792559771434213"><ele>400.0</ele><time>2026-04-06T13:49:42.994Z</time></trkpt><trkpt lat="45.71117864120728" lon="9.792772887705908"><ele>400.0</ele><time>2026-04-06T13:49:43.994Z</time></trkpt><trkpt lat="45.71113198144016" lon="9.793028685109364"><ele>400.0</ele><time>2026-04-06T13:49:44.994Z</time></trkpt><trkpt lat="45.71110754956973" lon="9.793332315513913"><ele>400.0</ele><time>2026-04-06T13:49:45.994Z</time></trkpt><trkpt lat="45.71109426182066" lon="9.793629759914882"><ele>400.0</ele><time>2026-04-06T13:49:46.994Z</time></trkpt><trkpt lat="45.71110701867656" lon="9.793889038306999"><ele>401.33333333333337</ele><time>2026-04-06T13:49:47.994Z</time></trkpt><trkpt lat="45.71114428990517" lon="9.794125221427274"><ele>402.66666666666663</ele><time>2026-04-06T13:49:48.994Z</time></trkpt><trkpt lat="45.71122391079545" lon="9.794307841210792"><ele>404.0</ele><time>2026-04-06T13:49:49.994Z</time></trkpt><trkpt lat="45.71131643767468" lon="9.794504359067016"><ele>408.0</ele><time>2026-04-06T13:49:50.994Z</time></trkpt><trkpt lat="45.71141150757122" lon="9.794700983587365"><ele>412.0</ele><time>2026-04-06T13:49:51.994Z</time></trkpt><trkpt lat="45.71152285113879" lon="9.794841864691731"><ele>416.0</ele><time>2026-04-06T13:49:52.994Z</time></trkpt><trkpt lat="45.71164611052862" lon="9.794947631629533"><ele>416.0</ele><time>2026-04-06T13:49:53.994Z</time></trkpt><trkpt lat="45.71179266495263" lon="9.795014816391223"><ele>416.0</ele><time>2026-04-06T13:49:54.994Z</time></trkpt><trkpt lat="45.71195846368267" lon="9.795053991667764"><ele>416.0</ele><time>2026-04-06T13:49:55.994Z</time></trkpt><trkpt lat="45.71212574571432" lon="9.795089734229398"><ele>416.25</ele><time>2026-04-06T13:49:56.994Z</time></trkpt><trkpt lat="45.712244946652405" lon="9.795170894341465"><ele>416.5</ele><time>2026-04-06T13:49:57.994Z</time></trkpt><trkpt lat="45.71232895458349" lon="9.795298660899636"><ele>416.75</ele><time>2026-04-06T13:49:58.994Z</time></trkpt><trkpt lat="45.71238285173373" lon="9.795444339134916"><ele>417.0</ele><time>2026-04-06T13:49:59.994Z</time></trkpt><trkpt lat="45.71239790717166" lon="9.79560856179593"><ele>417.0</ele><time>2026-04-06T13:50:00.994Z</time></trkpt><trkpt lat="45.71238539022096" lon="9.795780886425428"><ele>417.0</ele><time>2026-04-06T13:50:01.994Z</time></trkpt><trkpt lat="45.71230423777579" lon="9.795971250303754"><ele>417.0</ele><time>2026-04-06T13:50:02.994Z</time></trkpt><trkpt lat="45.71223546264792" lon="9.796218673265026"><ele>416.33333333333337</ele><time>2026-04-06T13:50:03.994Z</time></trkpt><trkpt lat="45.712176328988505" lon="9.796444171444456"><ele>415.6666666666667</ele><time>2026-04-06T13:50:04.994Z</time></trkpt><trkpt lat="45.71207740776511" lon="9.796615163920494"><ele>415.0</ele><time>2026-04-06T13:50:05.994Z</time></trkpt><trkpt lat="45.711960287619675" lon="9.79673768501672"><ele>412.33333333333337</ele><time>2026-04-06T13:50:06.994Z</time></trkpt><trkpt lat="45.71183987304495" lon="9.796864605160158"><ele>409.66666666666663</ele><time>2026-04-06T13:50:07.994Z</time></trkpt><trkpt lat="45.71173429895368" lon="9.797037832930293"><ele>407.0</ele><time>2026-04-06T13:50:08.994Z</time></trkpt><trkpt lat="45.71163006824925" lon="9.797244277714384"><ele>407.0</ele><time>2026-04-06T13:50:09.994Z</time></trkpt><trkpt lat="45.71154290479562" lon="9.797499715481512"><ele>407.0</ele><time>2026-04-06T13:50:10.994Z</time></trkpt><trkpt lat="45.71146439032502" lon="9.797752969784893"><ele>407.0</ele><time>2026-04-06T13:50:11.994Z</time></trkpt><trkpt lat="45.71138304022116" lon="9.79798225194307"><ele>406.3333333333333</ele><time>2026-04-06T13:50:12.994Z</time></trkpt><trkpt lat="45.711267784530165" lon="9.798158846951425"><ele>405.66666666666663</ele><time>2026-04-06T13:50:13.994Z</time></trkpt><trkpt lat="45.71114302893488" lon="9.798340005144016"><ele>405.0</ele><time>2026-04-06T13:50:14.994Z</time></trkpt><trkpt lat="45.71103698281418" lon="9.798532616962797"><ele>405.0</ele><time>2026-04-06T13:50:15.994Z</time></trkpt><trkpt lat="45.71093848352887" lon="9.798700907107964"><ele>405.0</ele><time>2026-04-06T13:50:16.994Z</time></trkpt><trkpt lat="45.71088422373784" lon="9.798895995106838"><ele>405.0</ele><time>2026-04-06T13:50:17.994Z</time></trkpt><trkpt lat="45.71086581826434" lon="9.79912000833051"><ele>403.66666666666663</ele><time>2026-04-06T13:50:18.994Z</time></trkpt><trkpt lat="45.71089735411441" lon="9.79933469302487"><ele>402.3333333333333</ele><time>2026-04-06T13:50:19.994Z</time></trkpt><trkpt lat="45.71095436904918" lon="9.799533395215763"><ele>401.0</ele><time>2026-04-06T13:50:20.994Z</time></trkpt><trkpt lat="45.71100054007758" lon="9.799737670717715"><ele>401.0</ele><time>2026-04-06T13:50:21.994Z</time></trkpt><trkpt lat="45.71100302488822" lon="9.79992998506652"><ele>401.0</ele><time>2026-04-06T13:50:22.995Z</time></trkpt><trkpt lat="45.710948606648294" lon="9.800113547585884"><ele>401.0</ele><time>2026-04-06T13:50:23.995Z</time></trkpt><trkpt lat="45.71091367373658" lon="9.800290059896355"><ele>401.0</ele><time>2026-04-06T13:50:24.995Z</time></trkpt><trkpt lat="45.71087357027053" lon="9.800438228077411"><ele>400.16666666666663</ele><time>2026-04-06T13:50:25.995Z</time></trkpt><trkpt lat="45.710850071323314" lon="9.800553416800446"><ele>399.3333333333333</ele><time>2026-04-06T13:50:26.995Z</time></trkpt><trkpt lat="45.710844730159735" lon="9.800670061700114"><ele>398.5</ele><time>2026-04-06T13:50:27.995Z</time></trkpt><trkpt lat="45.710852871947615" lon="9.800788110427163"><ele>397.66666666666663</ele><time>2026-04-06T13:50:28.995Z</time></trkpt><trkpt lat="45.710877496672474" lon="9.80090375519205"><ele>396.8333333333333</ele><time>2026-04-06T13:50:29.995Z</time></trkpt><trkpt lat="45.71091271998832" lon="9.80102732341575"><ele>396.0</ele><time>2026-04-06T13:50:30.995Z</time></trkpt><trkpt lat="45.71097415542964" lon="9.80117615988529"><ele>391.0</ele><time>2026-04-06T13:50:31.995Z</time></trkpt><trkpt lat="45.71108224759773" lon="9.801347212844847"><ele>386.0</ele><time>2026-04-06T13:50:32.995Z</time></trkpt><trkpt lat="45.71122694063327" lon="9.801511740765795"><ele>381.0</ele><time>2026-04-06T13:50:33.995Z</time></trkpt><trkpt lat="45.71139854840452" lon="9.801648987295007"><ele>381.0</ele><time>2026-04-06T13:50:34.995Z</time></trkpt><trkpt lat="45.7115624372751" lon="9.801770150894392"><ele>381.0</ele><time>2026-04-06T13:50:35.995Z</time></trkpt><trkpt lat="45.711703007308955" lon="9.801905385481277"><ele>381.0</ele><time>2026-04-06T13:50:36.995Z</time></trkpt><trkpt lat="45.71180725680428" lon="9.802089021066566"><ele>383.0</ele><time>2026-04-06T13:50:37.995Z</time></trkpt><trkpt lat="45.71189540359927" lon="9.802279824405906"><ele>385.0</ele><time>2026-04-06T13:50:38.995Z</time></trkpt><trkpt lat="45.711982164950015" lon="9.802492548196868"><ele>387.0</ele><time>2026-04-06T13:50:39.995Z</time></trkpt><trkpt lat="45.712066815698634" lon="9.802702247057498"><ele>381.25</ele><time>2026-04-06T13:50:40.995Z</time></trkpt><trkpt lat="45.71214444905621" lon="9.802891602727637"><ele>375.5</ele><time>2026-04-06T13:50:41.995Z</time></trkpt><trkpt lat="45.7122031643793" lon="9.803069582168341"><ele>369.75</ele><time>2026-04-06T13:50:42.995Z</time></trkpt><trkpt lat="45.712231977446" lon="9.803242586532136"><ele>364.0</ele><time>2026-04-06T13:50:43.995Z</time></trkpt><trkpt lat="45.7122504078173" lon="9.803389418095076"><ele>364.0</ele><time>2026-04-06T13:50:44.995Z</time></trkpt><trkpt lat="45.71230456048311" lon="9.803479867718291"><ele>364.0</ele><time>2026-04-06T13:50:45.995Z</time></trkpt><trkpt lat="45.712369338006134" lon="9.80349793307442"><ele>364.0</ele><time>2026-04-06T13:50:46.995Z</time></trkpt><trkpt lat="45.712452142551115" lon="9.803450666385125"><ele>364.0</ele><time>2026-04-06T13:50:47.995Z</time></trkpt><trkpt lat="45.712522220764455" lon="9.803346866983121"><ele>364.0</ele><time>2026-04-06T13:50:48.995Z</time></trkpt><trkpt lat="45.71250898507276" lon="9.803174244789362"><ele>364.0</ele><time>2026-04-06T13:50:49.995Z</time></trkpt><trkpt lat="45.712445736094736" lon="9.803036080293866"><ele>364.0</ele><time>2026-04-06T13:50:50.995Z</time></trkpt><trkpt lat="45.71235969476798" lon="9.802937103627665"><ele>364.0</ele><time>2026-04-06T13:50:51.995Z</time></trkpt><trkpt lat="45.71232564622675" lon="9.802847473786938"><ele>364.0</ele><time>2026-04-06T13:50:52.995Z</time></trkpt><trkpt lat="45.712372235513946" lon="9.802766601111859"><ele>364.0</ele><time>2026-04-06T13:50:53.995Z</time></trkpt><trkpt lat="45.71245914116167" lon="9.802750966200342"><ele>364.0</ele><time>2026-04-06T13:50:54.995Z</time></trkpt><trkpt lat="45.71256687531986" lon="9.80282245985724"><ele>364.0</ele><time>2026-04-06T13:50:55.995Z</time></trkpt><trkpt lat="45.71263394998241" lon="9.803004471465774"><ele>364.0</ele><time>2026-04-06T13:50:56.995Z</time></trkpt><trkpt lat="45.71269769757117" lon="9.803180341887806"><ele>364.0</ele><time>2026-04-06T13:50:57.995Z</time></trkpt><trkpt lat="45.71272763547165" lon="9.803405498550276"><ele>357.3333333333333</ele><time>2026-04-06T13:50:58.995Z</time></trkpt><trkpt lat="45.712751223708054" lon="9.803676211044225"><ele>350.6666666666667</ele><time>2026-04-06T13:50:59.995Z</time></trkpt><trkpt lat="45.712776606409975" lon="9.803965248264634"><ele>344.0</ele><time>2026-04-06T13:51:00.995Z</time></trkpt><trkpt lat="45.71280346387571" lon="9.804300037516475"><ele>342.0</ele><time>2026-04-06T13:51:01.995Z</time></trkpt><trkpt lat="45.71283406900741" lon="9.8047175286349"><ele>340.0</ele><time>2026-04-06T13:51:02.995Z</time></trkpt><trkpt lat="45.712851778750625" lon="9.805174267732637"><ele>338.5</ele><time>2026-04-06T13:51:03.995Z</time></trkpt><trkpt lat="45.71285873599989" lon="9.805690209258332"><ele>337.0</ele><time>2026-04-06T13:51:04.995Z</time></trkpt><trkpt lat="45.712889077311424" lon="9.806261951616019"><ele>337.0</ele><time>2026-04-06T13:51:05.995Z</time></trkpt><trkpt lat="45.71292255780546" lon="9.806803236037664"><ele>337.0</ele><time>2026-04-06T13:51:06.995Z</time></trkpt><trkpt lat="45.71295373983902" lon="9.807285807080598"><ele>336.0</ele><time>2026-04-06T13:51:07.995Z</time></trkpt><trkpt lat="45.71299409698714" lon="9.807708476600071"><ele>335.0</ele><time>2026-04-06T13:51:08.995Z</time></trkpt><trkpt lat="45.71301467579358" lon="9.808109942731672"><ele>335.0</ele><time>2026-04-06T13:51:09.995Z</time></trkpt><trkpt lat="45.71303068822907" lon="9.808492884110148"><ele>335.0</ele><time>2026-04-06T13:51:10.995Z</time></trkpt><trkpt lat="45.71305307657776" lon="9.808852574891432"><ele>333.6666666666667</ele><time>2026-04-06T13:51:11.995Z</time></trkpt><trkpt lat="45.7130711955223" lon="9.809187393768367"><ele>332.3333333333333</ele><time>2026-04-06T13:51:12.995Z</time></trkpt><trkpt lat="45.71307575556313" lon="9.809487417088151"><ele>331.0</ele><time>2026-04-06T13:51:13.995Z</time></trkpt><trkpt lat="45.71303674466965" lon="9.809749809288093"><ele>330.66666666666663</ele><time>2026-04-06T13:51:14.995Z</time></trkpt><trkpt lat="45.712962123637055" lon="9.809964538735318"><ele>330.3333333333333</ele><time>2026-04-06T13:51:15.995Z</time></trkpt><trkpt lat="45.71285376355011" lon="9.81015517685606"><ele>330.0</ele><time>2026-04-06T13:51:16.995Z</time></trkpt><trkpt lat="45.71270739676169" lon="9.810367784850094"><ele>328.5</ele><time>2026-04-06T13:51:17.995Z</time></trkpt><trkpt lat="45.71252665605052" lon="9.810627932586963"><ele>327.0</ele><time>2026-04-06T13:51:18.995Z</time></trkpt><trkpt lat="45.71234012678512" lon="9.810930857246404"><ele>327.0</ele><time>2026-04-06T13:51:19.995Z</time></trkpt><trkpt lat="45.712124701329664" lon="9.81121437745066"><ele>327.0</ele><time>2026-04-06T13:51:20.995Z</time></trkpt><trkpt lat="45.71192179040038" lon="9.81151053678677"><ele>326.5</ele><time>2026-04-06T13:51:21.995Z</time></trkpt><trkpt lat="45.71173194946173" lon="9.811796292637709"><ele>326.0</ele><time>2026-04-06T13:51:22.995Z</time></trkpt><trkpt lat="45.711562562462284" lon="9.81210606707925"><ele>325.0</ele><time>2026-04-06T13:51:23.995Z</time></trkpt><trkpt lat="45.711391984229806" lon="9.812429578957683"><ele>324.0</ele><time>2026-04-06T13:51:24.995Z</time></trkpt><trkpt lat="45.71124366511618" lon="9.812773764073643"><ele>324.0</ele><time>2026-04-06T13:51:25.995Z</time></trkpt><trkpt lat="45.71109028040086" lon="9.813105653692693"><ele>324.0</ele><time>2026-04-06T13:51:26.995Z</time></trkpt><trkpt lat="45.71094970690772" lon="9.813430890780793"><ele>322.0</ele><time>2026-04-06T13:51:27.995Z</time></trkpt><trkpt lat="45.710828686387494" lon="9.813711724961777"><ele>320.0</ele><time>2026-04-06T13:51:28.994Z</time></trkpt><trkpt lat="45.710738588155884" lon="9.813965079280623"><ele>318.0</ele><time>2026-04-06T13:51:29.995Z</time></trkpt><trkpt lat="45.71063472014936" lon="9.814196471917857"><ele>318.0</ele><time>2026-04-06T13:51:30.995Z</time></trkpt><trkpt lat="45.710534385255684" lon="9.814419219610588"><ele>318.0</ele><time>2026-04-06T13:51:31.995Z</time></trkpt><trkpt lat="45.710452471124626" lon="9.814641299551885"><ele>318.0</ele><time>2026-04-06T13:51:32.994Z</time></trkpt><trkpt lat="45.71037944810654" lon="9.81487301915894"><ele>318.0</ele><time>2026-04-06T13:51:33.994Z</time></trkpt><trkpt lat="45.71032570438533" lon="9.815125415836834"><ele>318.0</ele><time>2026-04-06T13:51:34.995Z</time></trkpt><trkpt lat="45.710283277114335" lon="9.815402093360536"><ele>318.0</ele><time>2026-04-06T13:51:35.994Z</time></trkpt><trkpt lat="45.710235211864685" lon="9.815705910932051"><ele>316.3333333333333</ele><time>2026-04-06T13:51:36.994Z</time></trkpt><trkpt lat="45.71019370305008" lon="9.816012329909855"><ele>314.66666666666663</ele><time>2026-04-06T13:51:37.995Z</time></trkpt><trkpt lat="45.71015057353312" lon="9.816308945507558"><ele>313.0</ele><time>2026-04-06T13:51:38.994Z</time></trkpt><trkpt lat="45.71011092688648" lon="9.816594538550659"><ele>313.0</ele><time>2026-04-06T13:51:39.994Z</time></trkpt><trkpt lat="45.71011311184841" lon="9.816872195764878"><ele>313.0</ele><time>2026-04-06T13:51:40.995Z</time></trkpt><trkpt lat="45.71013354582752" lon="9.81717361558946"><ele>313.0</ele><time>2026-04-06T13:51:41.994Z</time></trkpt><trkpt lat="45.71015310088097" lon="9.817483348705188"><ele>313.0</ele><time>2026-04-06T13:51:42.994Z</time></trkpt><trkpt lat="45.71016015649759" lon="9.81780562279842"><ele>313.0</ele><time>2026-04-06T13:51:43.994Z</time></trkpt><trkpt lat="45.71016264258189" lon="9.818112775420891"><ele>313.0</ele><time>2026-04-06T13:51:44.994Z</time></trkpt><trkpt lat="45.71016844369413" lon="9.818393103995817"><ele>313.0</ele><time>2026-04-06T13:51:45.994Z</time></trkpt><trkpt lat="45.71018144029592" lon="9.818657471608985"><ele>313.0</ele><time>2026-04-06T13:51:46.994Z</time></trkpt><trkpt lat="45.71018745988238" lon="9.818901430338773"><ele>313.0</ele><time>2026-04-06T13:51:47.994Z</time></trkpt><trkpt lat="45.710198834482014" lon="9.819132201832337"><ele>313.25</ele><time>2026-04-06T13:51:48.994Z</time></trkpt><trkpt lat="45.71020839518704" lon="9.819335458228776"><ele>313.5</ele><time>2026-04-06T13:51:49.994Z</time></trkpt><trkpt lat="45.7102134393914" lon="9.819511854205484"><ele>313.75</ele><time>2026-04-06T13:51:50.994Z</time></trkpt><trkpt lat="45.71021612579441" lon="9.819720114663957"><ele>314.0</ele><time>2026-04-06T13:51:51.994Z</time></trkpt><trkpt lat="45.71022456807224" lon="9.819949840869857"><ele>314.6666666666667</ele><time>2026-04-06T13:51:52.994Z</time></trkpt><trkpt lat="45.710234281277785" lon="9.820205740598231"><ele>315.3333333333333</ele><time>2026-04-06T13:51:53.994Z</time></trkpt><trkpt lat="45.71024327662365" lon="9.820482884680333"><ele>316.0</ele><time>2026-04-06T13:51:54.994Z</time></trkpt><trkpt lat="45.71025480572916" lon="9.820756273031945"><ele>317.3333333333333</ele><time>2026-04-06T13:51:55.994Z</time></trkpt><trkpt lat="45.710260624374214" lon="9.821020186694318"><ele>318.6666666666667</ele><time>2026-04-06T13:51:56.994Z</time></trkpt><trkpt lat="45.71025598137407" lon="9.82128627473529"><ele>320.0</ele><time>2026-04-06T13:51:57.994Z</time></trkpt><trkpt lat="45.710239471819655" lon="9.821562929163445"><ele>320.6666666666667</ele><time>2026-04-06T13:51:58.994Z</time></trkpt><trkpt lat="45.71021184637082" lon="9.82184127624491"><ele>321.3333333333333</ele><time>2026-04-06T13:51:59.994Z</time></trkpt><trkpt lat="45.71017489468093" lon="9.822113220819318"><ele>322.0</ele><time>2026-04-06T13:52:00.994Z</time></trkpt><trkpt lat="45.7101392528696" lon="9.822360914951002"><ele>322.0</ele><time>2026-04-06T13:52:01.994Z</time></trkpt><trkpt lat="45.71010146499916" lon="9.82258812119513"><ele>322.0</ele><time>2026-04-06T13:52:02.994Z</time></trkpt><trkpt lat="45.71006704649215" lon="9.822799380026584"><ele>322.0</ele><time>2026-04-06T13:52:03.994Z</time></trkpt><trkpt lat="45.710041661202496" lon="9.822998908910652"><ele>322.0</ele><time>2026-04-06T13:52:04.994Z</time></trkpt><trkpt lat="45.710013553366764" lon="9.823177507187253"><ele>322.0</ele><time>2026-04-06T13:52:05.994Z</time></trkpt><trkpt lat="45.70998045487334" lon="9.82333250669579"><ele>322.0</ele><time>2026-04-06T13:52:06.994Z</time></trkpt><trkpt lat="45.70994470615249" lon="9.823477790201261"><ele>322.0</ele><time>2026-04-06T13:52:07.994Z</time></trkpt><trkpt lat="45.70991640167344" lon="9.82362191307179"><ele>321.75</ele><time>2026-04-06T13:52:08.994Z</time></trkpt><trkpt lat="45.709898403526715" lon="9.823788556684974"><ele>321.5</ele><time>2026-04-06T13:52:09.994Z</time></trkpt><trkpt lat="45.709878045368015" lon="9.823967502927125"><ele>321.25</ele><time>2026-04-06T13:52:10.994Z</time></trkpt><trkpt lat="45.70985039524634" lon="9.824149160879571"><ele>321.0</ele><time>2026-04-06T13:52:11.994Z</time></trkpt><trkpt lat="45.70980897473125" lon="9.824333406240909"><ele>320.75</ele><time>2026-04-06T13:52:12.994Z</time></trkpt><trkpt lat="45.70975352922354" lon="9.82449586718318"><ele>320.5</ele><time>2026-04-06T13:52:13.994Z</time></trkpt><trkpt lat="45.70969421223304" lon="9.824633787589283"><ele>320.25</ele><time>2026-04-06T13:52:14.994Z</time></trkpt><trkpt lat="45.70964038287528" lon="9.824776414712309"><ele>320.0</ele><time>2026-04-06T13:52:15.994Z</time></trkpt><trkpt lat="45.709585687181544" lon="9.824909073337869"><ele>320.0</ele><time>2026-04-06T13:52:16.994Z</time></trkpt><trkpt lat="45.70953332268966" lon="9.825040420496356"><ele>320.0</ele><time>2026-04-06T13:52:17.994Z</time></trkpt><trkpt lat="45.70947435458773" lon="9.825174269312148"><ele>320.0</ele><time>2026-04-06T13:52:18.994Z</time></trkpt><trkpt lat="45.70941830117101" lon="9.825314357198838"><ele>320.0</ele><time>2026-04-06T13:52:19.994Z</time></trkpt><trkpt lat="45.70936171638846" lon="9.82549455272165"><ele>318.33333333333337</ele><time>2026-04-06T13:52:20.994Z</time></trkpt><trkpt lat="45.70928635879713" lon="9.825734503563357"><ele>316.6666666666667</ele><time>2026-04-06T13:52:21.994Z</time></trkpt><trkpt lat="45.70917532140098" lon="9.825976800110002"><ele>315.0</ele><time>2026-04-06T13:52:22.994Z</time></trkpt><trkpt lat="45.70904267544204" lon="9.826233227559573"><ele>313.5</ele><time>2026-04-06T13:52:23.994Z</time></trkpt><trkpt lat="45.70887126141799" lon="9.826502886446352"><ele>312.0</ele><time>2026-04-06T13:52:24.994Z</time></trkpt><trkpt lat="45.70870560638878" lon="9.826777696965364"><ele>309.5</ele><time>2026-04-06T13:52:25.994Z</time></trkpt><trkpt lat="45.70854489909475" lon="9.827053410790201"><ele>307.0</ele><time>2026-04-06T13:52:26.994Z</time></trkpt><trkpt lat="45.70840230932164" lon="9.827311983416694"><ele>307.0</ele><time>2026-04-06T13:52:27.994Z</time></trkpt><trkpt lat="45.70826648037512" lon="9.827551763318041"><ele>307.0</ele><time>2026-04-06T13:52:28.994Z</time></trkpt><trkpt lat="45.708122515682696" lon="9.827757329372874"><ele>307.0</ele><time>2026-04-06T13:52:29.994Z</time></trkpt><trkpt lat="45.70795882796985" lon="9.827946041138793"><ele>305.5</ele><time>2026-04-06T13:52:30.994Z</time></trkpt><trkpt lat="45.70777359793194" lon="9.8281268905088"><ele>304.0</ele><time>2026-04-06T13:52:31.994Z</time></trkpt><trkpt lat="45.70756354060733" lon="9.828317556554818"><ele>303.0</ele><time>2026-04-06T13:52:32.994Z</time></trkpt><trkpt lat="45.707329629125944" lon="9.828534503266887"><ele>302.0</ele><time>2026-04-06T13:52:33.994Z</time></trkpt><trkpt lat="45.70710295565454" lon="9.828753195589508"><ele>300.5</ele><time>2026-04-06T13:52:34.994Z</time></trkpt><trkpt lat="45.706909859416704" lon="9.828947539551534"><ele>299.0</ele><time>2026-04-06T13:52:35.994Z</time></trkpt><trkpt lat="45.70672344390398" lon="9.82913713119389"><ele>298.33333333333337</ele><time>2026-04-06T13:52:36.994Z</time></trkpt><trkpt lat="45.706552893767416" lon="9.829311259130224"><ele>297.6666666666667</ele><time>2026-04-06T13:52:37.994Z</time></trkpt><trkpt lat="45.70639281266566" lon="9.82947363418908"><ele>297.0</ele><time>2026-04-06T13:52:38.994Z</time></trkpt><trkpt lat="45.70623215671155" lon="9.829627734162727"><ele>297.0</ele><time>2026-04-06T13:52:39.994Z</time></trkpt><trkpt lat="45.70608607124216" lon="9.829770459917555"><ele>297.0</ele><time>2026-04-06T13:52:40.994Z</time></trkpt><trkpt lat="45.70595010786088" lon="9.829905337209501"><ele>297.0</ele><time>2026-04-06T13:52:41.994Z</time></trkpt><trkpt lat="45.70581550913955" lon="9.830037746182851"><ele>296.0</ele><time>2026-04-06T13:52:42.994Z</time></trkpt><trkpt lat="45.70567675510776" lon="9.830182922197421"><ele>295.0</ele><time>2026-04-06T13:52:43.994Z</time></trkpt><trkpt lat="45.70555195054749" lon="9.830354591136732"><ele>294.0</ele><time>2026-04-06T13:52:44.994Z</time></trkpt><trkpt lat="45.70545564221525" lon="9.830545678882562"><ele>294.0</ele><time>2026-04-06T13:52:45.994Z</time></trkpt><trkpt lat="45.70537855196217" lon="9.8307912745929"><ele>294.0</ele><time>2026-04-06T13:52:46.994Z</time></trkpt><trkpt lat="45.70530833462142" lon="9.831077474064632"><ele>294.0</ele><time>2026-04-06T13:52:47.994Z</time></trkpt><trkpt lat="45.70524264556829" lon="9.83137840931284"><ele>294.0</ele><time>2026-04-06T13:52:48.994Z</time></trkpt><trkpt lat="45.70517072430743" lon="9.831667799346306"><ele>294.0</ele><time>2026-04-06T13:52:49.994Z</time></trkpt><trkpt lat="45.70508634768906" lon="9.83196260825744"><ele>294.0</ele><time>2026-04-06T13:52:50.994Z</time></trkpt><trkpt lat="45.70498801407969" lon="9.832257488034394"><ele>294.0</ele><time>2026-04-06T13:52:51.994Z</time></trkpt><trkpt lat="45.7048806903566" lon="9.83254594920067"><ele>294.0</ele><time>2026-04-06T13:52:52.994Z</time></trkpt><trkpt lat="45.70476368682635" lon="9.832834398621529"><ele>293.5</ele><time>2026-04-06T13:52:53.994Z</time></trkpt><trkpt lat="45.70465069859865" lon="9.833111964486271"><ele>293.0</ele><time>2026-04-06T13:52:54.994Z</time></trkpt><trkpt lat="45.70453751638286" lon="9.833396968639656"><ele>292.5</ele><time>2026-04-06T13:52:55.994Z</time></trkpt><trkpt lat="45.7044232039838" lon="9.833681835169877"><ele>292.0</ele><time>2026-04-06T13:52:56.994Z</time></trkpt><trkpt lat="45.70431620262662" lon="9.833965966107801"><ele>291.3333333333333</ele><time>2026-04-06T13:52:57.994Z</time></trkpt><trkpt lat="45.704209283938305" lon="9.834239168185388"><ele>290.6666666666667</ele><time>2026-04-06T13:52:58.994Z</time></trkpt><trkpt lat="45.704100335107945" lon="9.834519786480172"><ele>290.0</ele><time>2026-04-06T13:52:59.994Z</time></trkpt><trkpt lat="45.70397427567608" lon="9.834792835930278"><ele>289.0</ele><time>2026-04-06T13:53:00.994Z</time></trkpt><trkpt lat="45.70387771630122" lon="9.83508652430881"><ele>288.0</ele><time>2026-04-06T13:53:01.994Z</time></trkpt><trkpt lat="45.70375555289113" lon="9.83535691970106"><ele>288.0</ele><time>2026-04-06T13:53:02.994Z</time></trkpt><trkpt lat="45.703648148687336" lon="9.83563426479628"><ele>288.0</ele><time>2026-04-06T13:53:03.994Z</time></trkpt><trkpt lat="45.70354035078628" lon="9.83591153087283"><ele>288.0</ele><time>2026-04-06T13:53:04.994Z</time></trkpt><trkpt lat="45.70343391716053" lon="9.836185287917706"><ele>287.6666666666667</ele><time>2026-04-06T13:53:05.994Z</time></trkpt><trkpt lat="45.703328531863974" lon="9.836456348550755"><ele>287.33333333333337</ele><time>2026-04-06T13:53:06.994Z</time></trkpt><trkpt lat="45.70322294314115" lon="9.836731829238358"><ele>287.0</ele><time>2026-04-06T13:53:07.994Z</time></trkpt><trkpt lat="45.70311490595374" lon="9.837008234047781"><ele>286.6666666666667</ele><time>2026-04-06T13:53:08.994Z</time></trkpt><trkpt lat="45.703007369355056" lon="9.83728201998444"><ele>286.3333333333333</ele><time>2026-04-06T13:53:09.994Z</time></trkpt><trkpt lat="45.702909547543015" lon="9.83754787887686"><ele>286.0</ele><time>2026-04-06T13:53:10.994Z</time></trkpt><trkpt lat="45.70282125052872" lon="9.837797120537022"><ele>285.0</ele><time>2026-04-06T13:53:11.994Z</time></trkpt><trkpt lat="45.70273728758222" lon="9.838024767111492"><ele>284.0</ele><time>2026-04-06T13:53:12.995Z</time></trkpt><trkpt lat="45.702652554043325" lon="9.838246547924582"><ele>283.0</ele><time>2026-04-06T13:53:13.995Z</time></trkpt><trkpt lat="45.70257792398547" lon="9.838444353670951"><ele>282.75</ele><time>2026-04-06T13:53:14.995Z</time></trkpt><trkpt lat="45.70249277731432" lon="9.838636125422072"><ele>282.5</ele><time>2026-04-06T13:53:15.995Z</time></trkpt><trkpt lat="45.702425518928386" lon="9.83881835851064"><ele>282.25</ele><time>2026-04-06T13:53:16.995Z</time></trkpt><trkpt lat="45.7023501147709" lon="9.838971642110629"><ele>282.0</ele><time>2026-04-06T13:53:17.995Z</time></trkpt><trkpt lat="45.70226299130219" lon="9.839126265198953"><ele>282.0</ele><time>2026-04-06T13:53:18.995Z</time></trkpt><trkpt lat="45.70215079015552" lon="9.839298063611201"><ele>282.0</ele><time>2026-04-06T13:53:19.995Z</time></trkpt><trkpt lat="45.70203617157307" lon="9.839454218989163"><ele>282.0</ele><time>2026-04-06T13:53:20.995Z</time></trkpt><trkpt lat="45.70192081477088" lon="9.839569111331341"><ele>282.5</ele><time>2026-04-06T13:53:21.995Z</time></trkpt><trkpt lat="45.70180089553875" lon="9.839614940743896"><ele>283.0</ele><time>2026-04-06T13:53:22.995Z</time></trkpt><trkpt lat="45.701675034079244" lon="9.839601844987293"><ele>283.5</ele><time>2026-04-06T13:53:23.995Z</time></trkpt><trkpt lat="45.70153839716532" lon="9.839595285832752"><ele>284.0</ele><time>2026-04-06T13:53:24.995Z</time></trkpt><trkpt lat="45.70144052633512" lon="9.839590519584327"><ele>284.0</ele><time>2026-04-06T13:53:25.995Z</time></trkpt><trkpt lat="45.701349873257406" lon="9.839586104840972"><ele>284.0</ele><time>2026-04-06T13:53:26.995Z</time></trkpt><trkpt lat="45.7012468251477" lon="9.839581893002606"><ele>284.0</ele><time>2026-04-06T13:53:27.995Z</time></trkpt><trkpt lat="45.70110180267143" lon="9.839576050244116"><ele>284.0</ele><time>2026-04-06T13:53:28.995Z</time></trkpt><trkpt lat="45.70091464386968" lon="9.839567682602011"><ele>284.0</ele><time>2026-04-06T13:53:29.995Z</time></trkpt><trkpt lat="45.700683778923576" lon="9.839556381015244"><ele>284.0</ele><time>2026-04-06T13:53:30.995Z</time></trkpt><trkpt lat="45.70045781844423" lon="9.839545319516523"><ele>284.0</ele><time>2026-04-06T13:53:31.995Z</time></trkpt><trkpt lat="45.700271039696936" lon="9.83953895731336"><ele>284.0</ele><time>2026-04-06T13:53:32.995Z</time></trkpt><trkpt lat="45.70009646220967" lon="9.839527982938812"><ele>284.0</ele><time>2026-04-06T13:53:33.995Z</time></trkpt><trkpt lat="45.699937518140686" lon="9.839539319807605"><ele>283.75</ele><time>2026-04-06T13:53:34.995Z</time></trkpt><trkpt lat="45.69981517348961" lon="9.839580301589072"><ele>283.5</ele><time>2026-04-06T13:53:35.994Z</time></trkpt><trkpt lat="45.69973722443193" lon="9.839672796872884"><ele>283.25</ele><time>2026-04-06T13:53:36.994Z</time></trkpt><trkpt lat="45.699677470589705" lon="9.839829545128945"><ele>283.0</ele><time>2026-04-06T13:53:37.995Z</time></trkpt><trkpt lat="45.69961115972163" lon="9.84005588811517"><ele>282.0</ele><time>2026-04-06T13:53:38.994Z</time></trkpt><trkpt lat="45.699484268218676" lon="9.840314745990002"><ele>281.0</ele><time>2026-04-06T13:53:39.994Z</time></trkpt><trkpt lat="45.69935780538002" lon="9.840632673942826"><ele>281.0</ele><time>2026-04-06T13:53:40.994Z</time></trkpt><trkpt lat="45.69923946078754" lon="9.840906019712886"><ele>281.0</ele><time>2026-04-06T13:53:41.994Z</time></trkpt><trkpt lat="45.69913805479845" lon="9.841142744882333"><ele>281.0</ele><time>2026-04-06T13:53:42.994Z</time></trkpt><trkpt lat="45.699074701282875" lon="9.841352451668044"><ele>281.75</ele><time>2026-04-06T13:53:43.995Z</time></trkpt><trkpt lat="45.69904850351866" lon="9.841538285214394"><ele>282.5</ele><time>2026-04-06T13:53:44.994Z</time></trkpt><trkpt lat="45.699036475473584" lon="9.841750506955792"><ele>283.25</ele><time>2026-04-06T13:53:45.994Z</time></trkpt><trkpt lat="45.69902228168609" lon="9.841989195841302"><ele>284.0</ele><time>2026-04-06T13:53:46.994Z</time></trkpt><trkpt lat="45.69895108824215" lon="9.842226552012459"><ele>285.33333333333337</ele><time>2026-04-06T13:53:47.994Z</time></trkpt><trkpt lat="45.69879390025631" lon="9.842442288131972"><ele>286.6666666666667</ele><time>2026-04-06T13:53:48.994Z</time></trkpt><trkpt lat="45.69869316792783" lon="9.842707819653375"><ele>288.0</ele><time>2026-04-06T13:53:49.994Z</time></trkpt><trkpt lat="45.698609965427984" lon="9.843007767889366"><ele>285.0</ele><time>2026-04-06T13:53:50.994Z</time></trkpt><trkpt lat="45.698554473751734" lon="9.843326243383073"><ele>282.0</ele><time>2026-04-06T13:53:51.994Z</time></trkpt><trkpt lat="45.69850361278143" lon="9.84366311727906"><ele>282.0</ele><time>2026-04-06T13:53:52.994Z</time></trkpt><trkpt lat="45.69844226858952" lon="9.844016776043677"><ele>282.0</ele><time>2026-04-06T13:53:53.994Z</time></trkpt><trkpt lat="45.698373521320846" lon="9.84436251682819"><ele>282.6666666666667</ele><time>2026-04-06T13:53:54.994Z</time></trkpt><trkpt lat="45.69831353912729" lon="9.844683964085258"><ele>283.33333333333337</ele><time>2026-04-06T13:53:55.994Z</time></trkpt><trkpt lat="45.698260162576744" lon="9.844979657617266"><ele>284.0</ele><time>2026-04-06T13:53:56.994Z</time></trkpt><trkpt lat="45.698188973355684" lon="9.84525609754143"><ele>284.0</ele><time>2026-04-06T13:53:57.994Z</time></trkpt><trkpt lat="45.69813611822752" lon="9.845510491544697"><ele>284.0</ele><time>2026-04-06T13:53:58.994Z</time></trkpt><trkpt lat="45.69808614961909" lon="9.845747021474486"><ele>284.0</ele><time>2026-04-06T13:53:59.994Z</time></trkpt><trkpt lat="45.698027820884626" lon="9.845960533993786"><ele>283.8</ele><time>2026-04-06T13:54:00.994Z</time></trkpt><trkpt lat="45.697992962613505" lon="9.846152058705123"><ele>283.59999999999997</ele><time>2026-04-06T13:54:01.994Z</time></trkpt><trkpt lat="45.697960635525966" lon="9.846297270280935"><ele>283.4</ele><time>2026-04-06T13:54:02.994Z</time></trkpt><trkpt lat="45.697902234878654" lon="9.846399849468947"><ele>283.2</ele><time>2026-04-06T13:54:03.994Z</time></trkpt><trkpt lat="45.69782787769737" lon="9.846462451864607"><ele>283.0</ele><time>2026-04-06T13:54:04.994Z</time></trkpt><trkpt lat="45.697743428933464" lon="9.846481247211111"><ele>281.8</ele><time>2026-04-06T13:54:05.994Z</time></trkpt><trkpt lat="45.69767333193324" lon="9.846437583480807"><ele>280.6</ele><time>2026-04-06T13:54:06.994Z</time></trkpt><trkpt lat="45.69754818559108" lon="9.846355816028838"><ele>279.4</ele><time>2026-04-06T13:54:08.994Z</time></trkpt><trkpt lat="45.697458813053366" lon="9.846302061405034"><ele>278.2</ele><time>2026-04-06T13:54:09.994Z</time></trkpt><trkpt lat="45.69736568357379" lon="9.846262749981205"><ele>277.0</ele><time>2026-04-06T13:54:10.994Z</time></trkpt><trkpt lat="45.697303012169264" lon="9.846220676072026"><ele>277.0</ele><time>2026-04-06T13:54:11.994Z</time></trkpt><trkpt lat="45.69721421264696" lon="9.846446233556646"><ele>277.0</ele><time>2026-04-06T13:54:13.994Z</time></trkpt><trkpt lat="45.697213285140236" lon="9.846608938387622"><ele>277.0</ele><time>2026-04-06T13:54:14.994Z</time></trkpt><trkpt lat="45.697227355707795" lon="9.846842656429668"><ele>277.0</ele><time>2026-04-06T13:54:15.994Z</time></trkpt><trkpt lat="45.69726440302455" lon="9.84713425800117"><ele>277.0</ele><time>2026-04-06T13:54:16.994Z</time></trkpt><trkpt lat="45.69725710068152" lon="9.847429343345697"><ele>277.0</ele><time>2026-04-06T13:54:17.994Z</time></trkpt><trkpt lat="45.697287636513046" lon="9.847745563093275"><ele>277.0</ele><time>2026-04-06T13:54:18.994Z</time></trkpt><trkpt lat="45.697317595192914" lon="9.848085371424174"><ele>277.0</ele><time>2026-04-06T13:54:19.994Z</time></trkpt><trkpt lat="45.69733288198545" lon="9.848425033271747"><ele>275.0</ele><time>2026-04-06T13:54:20.994Z</time></trkpt><trkpt lat="45.697366818827064" lon="9.848768696705184"><ele>273.0</ele><time>2026-04-06T13:54:21.994Z</time></trkpt><trkpt lat="45.697422060433546" lon="9.849106669030007"><ele>271.5</ele><time>2026-04-06T13:54:22.994Z</time></trkpt><trkpt lat="45.69751085785538" lon="9.849445877229146"><ele>270.0</ele><time>2026-04-06T13:54:23.994Z</time></trkpt><trkpt lat="45.69764476426471" lon="9.849815012633702"><ele>279.0</ele><time>2026-04-06T13:54:24.994Z</time></trkpt><trkpt lat="45.69778691615697" lon="9.850193659142125"><ele>288.0</ele><time>2026-04-06T13:54:25.994Z</time></trkpt><trkpt lat="45.697935410570445" lon="9.850560232908292"><ele>288.0</ele><time>2026-04-06T13:54:26.994Z</time></trkpt><trkpt lat="45.6981009480278" lon="9.85089027842702"><ele>288.0</ele><time>2026-04-06T13:54:27.994Z</time></trkpt><trkpt lat="45.69828925397895" lon="9.851216569643412"><ele>284.5</ele><time>2026-04-06T13:54:28.994Z</time></trkpt><trkpt lat="45.69849150705124" lon="9.851527813032044"><ele>281.0</ele><time>2026-04-06T13:54:29.994Z</time></trkpt><trkpt lat="45.69868332542154" lon="9.851834053172055"><ele>281.0</ele><time>2026-04-06T13:54:30.994Z</time></trkpt><trkpt lat="45.69886169350405" lon="9.85213692227232"><ele>281.0</ele><time>2026-04-06T13:54:31.994Z</time></trkpt><trkpt lat="45.69904237674675" lon="9.852442651843425"><ele>276.0</ele><time>2026-04-06T13:54:32.994Z</time></trkpt><trkpt lat="45.6992144892479" lon="9.852742144130376"><ele>271.0</ele><time>2026-04-06T13:54:33.994Z</time></trkpt><trkpt lat="45.699345972104965" lon="9.853075858177197"><ele>279.5</ele><time>2026-04-06T13:54:34.994Z</time></trkpt><trkpt lat="45.699489484780095" lon="9.853404187946081"><ele>288.0</ele><time>2026-04-06T13:54:35.994Z</time></trkpt><trkpt lat="45.69963184100733" lon="9.853729707645993"><ele>288.0</ele><time>2026-04-06T13:54:36.994Z</time></trkpt><trkpt lat="45.699774735343674" lon="9.854056355772162"><ele>288.0</ele><time>2026-04-06T13:54:37.994Z</time></trkpt><trkpt lat="45.69991607834861" lon="9.854379229553077"><ele>279.5</ele><time>2026-04-06T13:54:38.994Z</time></trkpt><trkpt lat="45.70005609058922" lon="9.854701630126627"><ele>271.0</ele><time>2026-04-06T13:54:39.994Z</time></trkpt><trkpt lat="45.70019736256488" lon="9.855028833354854"><ele>279.0</ele><time>2026-04-06T13:54:40.994Z</time></trkpt><trkpt lat="45.70033854483212" lon="9.855352550962147"><ele>287.0</ele><time>2026-04-06T13:54:41.994Z</time></trkpt><trkpt lat="45.70047632231912" lon="9.855679600577856"><ele>278.0</ele><time>2026-04-06T13:54:42.994Z</time></trkpt><trkpt lat="45.70060701964197" lon="9.855988817167802"><ele>269.0</ele><time>2026-04-06T13:54:43.994Z</time></trkpt><trkpt lat="45.700738510027705" lon="9.856271911827442"><ele>269.0</ele><time>2026-04-06T13:54:44.994Z</time></trkpt><trkpt lat="45.70086713862202" lon="9.856553955568529"><ele>269.0</ele><time>2026-04-06T13:54:45.994Z</time></trkpt><trkpt lat="45.7009988396528" lon="9.856824023795658"><ele>268.0</ele><time>2026-04-06T13:54:46.994Z</time></trkpt><trkpt lat="45.70113768971304" lon="9.857084992570396"><ele>267.0</ele><time>2026-04-06T13:54:47.994Z</time></trkpt><trkpt lat="45.7012924845277" lon="9.857293353148705"><ele>266.0</ele><time>2026-04-06T13:54:48.994Z</time></trkpt><trkpt lat="45.70145150293921" lon="9.85747906941096"><ele>265.33333333333337</ele><time>2026-04-06T13:54:49.994Z</time></trkpt><trkpt lat="45.7016092255887" lon="9.857643450014796"><ele>264.6666666666667</ele><time>2026-04-06T13:54:50.994Z</time></trkpt><trkpt lat="45.701764307956445" lon="9.857786751649035"><ele>264.0</ele><time>2026-04-06T13:54:51.994Z</time></trkpt><trkpt lat="45.70191692237646" lon="9.857900967899933"><ele>264.0</ele><time>2026-04-06T13:54:52.994Z</time></trkpt><trkpt lat="45.70207403212359" lon="9.8579920606089"><ele>264.0</ele><time>2026-04-06T13:54:53.994Z</time></trkpt><trkpt lat="45.70221788502553" lon="9.858070800343699"><ele>264.0</ele><time>2026-04-06T13:54:54.994Z</time></trkpt><trkpt lat="45.702346347065394" lon="9.85815719822347"><ele>264.0</ele><time>2026-04-06T13:54:55.994Z</time></trkpt><trkpt lat="45.70244597032767" lon="9.858247449846388"><ele>264.0</ele><time>2026-04-06T13:54:56.994Z</time></trkpt><trkpt lat="45.702522140535464" lon="9.858303394744626"><ele>264.0</ele><time>2026-04-06T13:54:57.994Z</time></trkpt><trkpt lat="45.702598153037464" lon="9.858364674606914"><ele>264.0</ele><time>2026-04-06T13:54:59.994Z</time></trkpt><trkpt lat="45.70268360189351" lon="9.858530186366684"><ele>264.0</ele><time>2026-04-06T13:55:01.994Z</time></trkpt><trkpt lat="45.70271368027247" lon="9.85865838998703"><ele>264.4</ele><time>2026-04-06T13:55:02.994Z</time></trkpt><trkpt lat="45.702769414650774" lon="9.858739781260423"><ele>264.79999999999995</ele><time>2026-04-06T13:55:03.994Z</time></trkpt><trkpt lat="45.70287194837453" lon="9.8587377285409"><ele>265.20000000000005</ele><time>2026-04-06T13:55:04.994Z</time></trkpt><trkpt lat="45.70297746401995" lon="9.858676016388273"><ele>265.6</ele><time>2026-04-06T13:55:05.994Z</time></trkpt><trkpt lat="45.703089562676766" lon="9.85853785432221"><ele>266.0</ele><time>2026-04-06T13:55:06.994Z</time></trkpt><trkpt lat="45.703209619584534" lon="9.858394072963158"><ele>266.0</ele><time>2026-04-06T13:55:07.994Z</time></trkpt><trkpt lat="45.7033078831014" lon="9.85828386773195"><ele>266.0</ele><time>2026-04-06T13:55:08.994Z</time></trkpt><trkpt lat="45.70347867964566" lon="9.85838070957913"><ele>266.0</ele><time>2026-04-06T13:55:09.994Z</time></trkpt><trkpt lat="45.703584372085835" lon="9.858387944279068"><ele>266.0</ele><time>2026-04-06T13:55:10.994Z</time></trkpt><trkpt lat="45.70362457958906" lon="9.858498669132889"><ele>265.0</ele><time>2026-04-06T13:55:12.994Z</time></trkpt><trkpt lat="45.703591329605096" lon="9.858586172701463"><ele>264.0</ele><time>2026-04-06T13:55:13.994Z</time></trkpt><trkpt lat="45.703556409180216" lon="9.858705659515186"><ele>263.0</ele><time>2026-04-06T13:55:14.994Z</time></trkpt><trkpt lat="45.70352522001328" lon="9.85885846802009"><ele>262.0</ele><time>2026-04-06T13:55:15.994Z</time></trkpt><trkpt lat="45.703493788638795" lon="9.859020188675832"><ele>261.0</ele><time>2026-04-06T13:55:16.994Z</time></trkpt><trkpt lat="45.70346837971235" lon="9.85914624153817"><ele>260.8</ele><time>2026-04-06T13:55:17.994Z</time></trkpt><trkpt lat="45.70346156839173" lon="9.859254408407782"><ele>260.6</ele><time>2026-04-06T13:55:18.994Z</time></trkpt><trkpt lat="45.70346766462348" lon="9.859361768494074"><ele>260.4</ele><time>2026-04-06T13:55:21.994Z</time></trkpt><trkpt lat="45.70359472164537" lon="9.859432807901708"><ele>260.2</ele><time>2026-04-06T13:55:22.994Z</time></trkpt><trkpt lat="45.70369640708365" lon="9.85952422283965"><ele>260.0</ele><time>2026-04-06T13:55:23.994Z</time></trkpt><trkpt lat="45.703780665026315" lon="9.859706924634041"><ele>261.0</ele><time>2026-04-06T13:55:24.994Z</time></trkpt><trkpt lat="45.7039142174054" lon="9.859871193715362"><ele>262.0</ele><time>2026-04-06T13:55:25.994Z</time></trkpt><trkpt lat="45.70401510397929" lon="9.86007368883361"><ele>263.0</ele><time>2026-04-06T13:55:26.994Z</time></trkpt><trkpt lat="45.704120639841804" lon="9.860269898411914"><ele>263.0</ele><time>2026-04-06T13:55:27.994Z</time></trkpt><trkpt lat="45.70422750093619" lon="9.860460458946653"><ele>263.0</ele><time>2026-04-06T13:55:28.994Z</time></trkpt><trkpt lat="45.704332672435704" lon="9.860640997595702"><ele>263.0</ele><time>2026-04-06T13:55:29.994Z</time></trkpt><trkpt lat="45.70442922906053" lon="9.860807274278782"><ele>263.2</ele><time>2026-04-06T13:55:30.994Z</time></trkpt><trkpt lat="45.70451369962069" lon="9.860958981764346"><ele>263.4</ele><time>2026-04-06T13:55:31.994Z</time></trkpt><trkpt lat="45.70457472581786" lon="9.861087140651744"><ele>263.59999999999997</ele><time>2026-04-06T13:55:32.994Z</time></trkpt><trkpt lat="45.70459705929465" lon="9.861217526617734"><ele>263.8</ele><time>2026-04-06T13:55:33.994Z</time></trkpt><trkpt lat="45.70457507530887" lon="9.861368948280141"><ele>264.0</ele><time>2026-04-06T13:55:34.994Z</time></trkpt><trkpt lat="45.70449560167733" lon="9.861487360726949"><ele>264.25</ele><time>2026-04-06T13:55:35.994Z</time></trkpt><trkpt lat="45.704398850172154" lon="9.861612948610713"><ele>264.5</ele><time>2026-04-06T13:55:36.994Z</time></trkpt><trkpt lat="45.70429654635996" lon="9.861741724313278"><ele>264.75</ele><time>2026-04-06T13:55:37.994Z</time></trkpt><trkpt lat="45.70417932486593" lon="9.861880529814483"><ele>265.0</ele><time>2026-04-06T13:55:38.994Z</time></trkpt><trkpt lat="45.70409892584519" lon="9.862042794942505"><ele>265.0</ele><time>2026-04-06T13:55:39.993Z</time></trkpt><trkpt lat="45.70408202709688" lon="9.862198596828845"><ele>265.0</ele><time>2026-04-06T13:55:40.993Z</time></trkpt><trkpt lat="45.70411302117223" lon="9.862348168610982"><ele>265.0</ele><time>2026-04-06T13:55:41.992Z</time></trkpt><trkpt lat="45.704178768235664" lon="9.862529755601352"><ele>265.0</ele><time>2026-04-06T13:55:42.992Z</time></trkpt><trkpt lat="45.70423910506728" lon="9.862768067510688"><ele>265.3333333333333</ele><time>2026-04-06T13:55:43.991Z</time></trkpt><trkpt lat="45.70429800564773" lon="9.863005481136076"><ele>265.6666666666667</ele><time>2026-04-06T13:55:44.991Z</time></trkpt><trkpt lat="45.70436160780172" lon="9.86325001327228"><ele>266.0</ele><time>2026-04-06T13:55:45.991Z</time></trkpt><trkpt lat="45.7044291987764" lon="9.86350171054984"><ele>266.0</ele><time>2026-04-06T13:55:46.99Z</time></trkpt><trkpt lat="45.704498661813226" lon="9.863760675461187"><ele>266.0</ele><time>2026-04-06T13:55:47.989Z</time></trkpt><trkpt lat="45.70456824635388" lon="9.864023520873083"><ele>266.0</ele><time>2026-04-06T13:55:48.989Z</time></trkpt><trkpt lat="45.70462295469206" lon="9.864244575337908"><ele>266.0</ele><time>2026-04-06T13:55:49.989Z</time></trkpt><trkpt lat="45.70466004277796" lon="9.864409254100796"><ele>266.0</ele><time>2026-04-06T13:55:50.988Z</time></trkpt><trkpt lat="45.704694530353244" lon="9.864572739072349"><ele>266.0</ele><time>2026-04-06T13:55:51.988Z</time></trkpt><trkpt lat="45.7047354671989" lon="9.864785219366466"><ele>266.0</ele><time>2026-04-06T13:55:52.988Z</time></trkpt><trkpt lat="45.70477821962928" lon="9.86504704090351"><ele>265.6666666666667</ele><time>2026-04-06T13:55:53.988Z</time></trkpt><trkpt lat="45.704863723476514" lon="9.865327331293207"><ele>265.3333333333333</ele><time>2026-04-06T13:55:54.988Z</time></trkpt><trkpt lat="45.70490511452456" lon="9.865636217544823"><ele>265.0</ele><time>2026-04-06T13:55:55.988Z</time></trkpt><trkpt lat="45.7049299609216" lon="9.865960701530861"><ele>266.5</ele><time>2026-04-06T13:55:56.987Z</time></trkpt><trkpt lat="45.70495497127518" lon="9.866302910135142"><ele>268.0</ele><time>2026-04-06T13:55:57.987Z</time></trkpt><trkpt lat="45.704978955140355" lon="9.866657969507175"><ele>270.0</ele><time>2026-04-06T13:55:58.987Z</time></trkpt><trkpt lat="45.7050063988229" lon="9.866994410410049"><ele>272.0</ele><time>2026-04-06T13:55:59.987Z</time></trkpt><trkpt lat="45.704988032252494" lon="9.867315837174274"><ele>272.0</ele><time>2026-04-06T13:56:00.987Z</time></trkpt><trkpt lat="45.70500922377414" lon="9.867578346427623"><ele>272.0</ele><time>2026-04-06T13:56:01.987Z</time></trkpt><trkpt lat="45.70506522248394" lon="9.86782696943789"><ele>272.0</ele><time>2026-04-06T13:56:02.987Z</time></trkpt><trkpt lat="45.70508630457495" lon="9.868068763006356"><ele>271.8</ele><time>2026-04-06T13:56:03.986Z</time></trkpt><trkpt lat="45.705122751148316" lon="9.868281801767424"><ele>271.6</ele><time>2026-04-06T13:56:04.986Z</time></trkpt><trkpt lat="45.70513854493846" lon="9.868448848214213"><ele>271.40000000000003</ele><time>2026-04-06T13:56:05.986Z</time></trkpt><trkpt lat="45.70508954786748" lon="9.868569169673755"><ele>271.2</ele><time>2026-04-06T13:56:06.986Z</time></trkpt><trkpt lat="45.705064595781515" lon="9.868673956687903"><ele>271.0</ele><time>2026-04-06T13:56:07.986Z</time></trkpt><trkpt lat="45.70496055264898" lon="9.868712685514796"><ele>271.0</ele><time>2026-04-06T13:56:08.986Z</time></trkpt><trkpt lat="45.70484511601591" lon="9.868815284736637"><ele>271.0</ele><time>2026-04-06T13:56:09.986Z</time></trkpt><trkpt lat="45.70475359800739" lon="9.868915887788255"><ele>271.0</ele><time>2026-04-06T13:56:10.986Z</time></trkpt><trkpt lat="45.70470996405777" lon="9.869082865503628"><ele>271.0</ele><time>2026-04-06T13:56:11.986Z</time></trkpt><trkpt lat="45.70471658616991" lon="9.86929247623032"><ele>271.3333333333333</ele><time>2026-04-06T13:56:12.986Z</time></trkpt><trkpt lat="45.704752954414325" lon="9.869545302510172"><ele>271.6666666666667</ele><time>2026-04-06T13:56:13.985Z</time></trkpt><trkpt lat="45.70476623177193" lon="9.869821985096797"><ele>272.0</ele><time>2026-04-06T13:56:14.985Z</time></trkpt><trkpt lat="45.70478282607697" lon="9.870054313087905"><ele>271.75</ele><time>2026-04-06T13:56:15.985Z</time></trkpt><trkpt lat="45.704783613995616" lon="9.870260262370104"><ele>271.5</ele><time>2026-04-06T13:56:16.985Z</time></trkpt><trkpt lat="45.70475924498715" lon="9.87046387888123"><ele>271.25</ele><time>2026-04-06T13:56:17.985Z</time></trkpt><trkpt lat="45.70470916089969" lon="9.870628776606424"><ele>271.0</ele><time>2026-04-06T13:56:18.985Z</time></trkpt><trkpt lat="45.704672283027364" lon="9.870733800056005"><ele>271.0</ele><time>2026-04-06T13:56:19.985Z</time></trkpt><trkpt lat="45.70460396540547" lon="9.87065673560034"><ele>271.0</ele><time>2026-04-06T13:56:22.985Z</time></trkpt><trkpt lat="45.70457038330963" lon="9.87056537156221"><ele>271.0</ele><time>2026-04-06T13:56:23.985Z</time></trkpt><trkpt lat="45.70455605525956" lon="9.870411812261125"><ele>271.0</ele><time>2026-04-06T13:56:24.985Z</time></trkpt><trkpt lat="45.70454797451963" lon="9.870223903686197"><ele>271.0</ele><time>2026-04-06T13:56:25.985Z</time></trkpt><trkpt lat="45.704517913408225" lon="9.870059953031332"><ele>271.2</ele><time>2026-04-06T13:56:26.985Z</time></trkpt><trkpt lat="45.70450102742347" lon="9.869936160346786"><ele>271.40000000000003</ele><time>2026-04-06T13:56:27.985Z</time></trkpt><trkpt lat="45.70445199262382" lon="9.869840811951955"><ele>271.6</ele><time>2026-04-06T13:56:28.985Z</time></trkpt><trkpt lat="45.70438115404035" lon="9.869781504475318"><ele>271.8</ele><time>2026-04-06T13:56:29.985Z</time></trkpt><trkpt lat="45.704286611817544" lon="9.869769914244161"><ele>272.0</ele><time>2026-04-06T13:56:30.985Z</time></trkpt><trkpt lat="45.70418084949773" lon="9.86976576188803"><ele>274.2</ele><time>2026-04-06T13:56:31.985Z</time></trkpt><trkpt lat="45.704117942438934" lon="9.869738012878502"><ele>276.4</ele><time>2026-04-06T13:56:32.985Z</time></trkpt><trkpt lat="45.70407590744591" lon="9.869639100681104"><ele>278.6</ele><time>2026-04-06T13:56:33.985Z</time></trkpt><trkpt lat="45.704087609767704" lon="9.869495540032965"><ele>280.8</ele><time>2026-04-06T13:56:34.985Z</time></trkpt><trkpt lat="45.70406716878805" lon="9.869316603695689"><ele>283.0</ele><time>2026-04-06T13:56:35.985Z</time></trkpt><trkpt lat="45.70406828528802" lon="9.869132833537916"><ele>284.66666666666663</ele><time>2026-04-06T13:56:36.985Z</time></trkpt><trkpt lat="45.704052992570716" lon="9.868924135052238"><ele>286.3333333333333</ele><time>2026-04-06T13:56:37.985Z</time></trkpt><trkpt lat="45.70402876076573" lon="9.868698468143688"><ele>288.0</ele><time>2026-04-06T13:56:38.985Z</time></trkpt><trkpt lat="45.70401006278815" lon="9.868463340822098"><ele>289.3333333333333</ele><time>2026-04-06T13:56:39.985Z</time></trkpt><trkpt lat="45.70399476851003" lon="9.86822142127567"><ele>290.66666666666663</ele><time>2026-04-06T13:56:40.985Z</time></trkpt><trkpt lat="45.70397605515374" lon="9.867982584250516"><ele>292.0</ele><time>2026-04-06T13:56:41.985Z</time></trkpt><trkpt lat="45.70395682060305" lon="9.867743266536928"><ele>292.3333333333333</ele><time>2026-04-06T13:56:42.985Z</time></trkpt><trkpt lat="45.70394580685835" lon="9.867488806541324"><ele>292.6666666666667</ele><time>2026-04-06T13:56:43.985Z</time></trkpt><trkpt lat="45.703926948841556" lon="9.86723409737733"><ele>293.0</ele><time>2026-04-06T13:56:44.985Z</time></trkpt><trkpt lat="45.7039105341477" lon="9.866994091596094"><ele>293.0</ele><time>2026-04-06T13:56:45.985Z</time></trkpt><trkpt lat="45.70386602077352" lon="9.866790587808255"><ele>293.0</ele><time>2026-04-06T13:56:46.985Z</time></trkpt><trkpt lat="45.70381281452828" lon="9.866634755805702"><ele>293.0</ele><time>2026-04-06T13:56:47.985Z</time></trkpt><trkpt lat="45.70378267433971" lon="9.866507635799307"><ele>293.0</ele><time>2026-04-06T13:56:48.985Z</time></trkpt><trkpt lat="45.703738514466615" lon="9.866429481943399"><ele>293.0</ele><time>2026-04-06T13:56:49.985Z</time></trkpt><trkpt lat="45.703646234210595" lon="9.866407884032906"><ele>293.0</ele><time>2026-04-06T13:56:51.985Z</time></trkpt><trkpt lat="45.7035912425895" lon="9.866511742661826"><ele>293.0</ele><time>2026-04-06T13:56:52.985Z</time></trkpt><trkpt lat="45.70360902690831" lon="9.866655916275617"><ele>293.0</ele><time>2026-04-06T13:56:53.985Z</time></trkpt><trkpt lat="45.703626549591405" lon="9.866805666672235"><ele>293.0</ele><time>2026-04-06T13:56:54.985Z</time></trkpt><trkpt lat="45.70363945813337" lon="9.866975041848105"><ele>293.0</ele><time>2026-04-06T13:56:55.985Z</time></trkpt><trkpt lat="45.70360469683737" lon="9.86713889378994"><ele>298.33333333333337</ele><time>2026-04-06T13:56:56.985Z</time></trkpt><trkpt lat="45.70357965174397" lon="9.867256679662706"><ele>303.6666666666667</ele><time>2026-04-06T13:56:57.985Z</time></trkpt><trkpt lat="45.703516371938505" lon="9.867265589173739"><ele>309.0</ele><time>2026-04-06T13:57:00.985Z</time></trkpt><trkpt lat="45.70350460145847" lon="9.867105278282773"><ele>314.3333333333333</ele><time>2026-04-06T13:57:02.985Z</time></trkpt><trkpt lat="45.7034398974526" lon="9.867033826512849"><ele>319.66666666666663</ele><time>2026-04-06T13:57:04.985Z</time></trkpt><trkpt lat="45.70339082936536" lon="9.867117047564413"><ele>325.0</ele><time>2026-04-06T13:57:05.985Z</time></trkpt><trkpt lat="45.703390512600315" lon="9.867280625028314"><ele>325.0</ele><time>2026-04-06T13:57:06.985Z</time></trkpt><trkpt lat="45.70335877735701" lon="9.867446269248408"><ele>325.0</ele><time>2026-04-06T13:57:07.985Z</time></trkpt><trkpt lat="45.70330629818989" lon="9.867630312324861"><ele>325.0</ele><time>2026-04-06T13:57:08.985Z</time></trkpt><trkpt lat="45.70322979851492" lon="9.867843162085954"><ele>325.0</ele><time>2026-04-06T13:57:09.985Z</time></trkpt><trkpt lat="45.70313364607382" lon="9.86810159123886"><ele>327.0</ele><time>2026-04-06T13:57:10.985Z</time></trkpt><trkpt lat="45.70302432619846" lon="9.868344782456937"><ele>329.0</ele><time>2026-04-06T13:57:11.985Z</time></trkpt><trkpt lat="45.70295080600019" lon="9.86856851567423"><ele>331.0</ele><time>2026-04-06T13:57:12.985Z</time></trkpt><trkpt lat="45.70289905282432" lon="9.868748598964379"><ele>331.0</ele><time>2026-04-06T13:57:13.985Z</time></trkpt><trkpt lat="45.70283888549893" lon="9.868904728046681"><ele>331.0</ele><time>2026-04-06T13:57:14.985Z</time></trkpt><trkpt lat="45.70272361236501" lon="9.86902485032"><ele>331.0</ele><time>2026-04-06T13:57:15.985Z</time></trkpt><trkpt lat="45.70257101821452" lon="9.86914158064083"><ele>331.0</ele><time>2026-04-06T13:57:16.985Z</time></trkpt><trkpt lat="45.70240162809507" lon="9.869253241614242"><ele>339.0</ele><time>2026-04-06T13:57:17.985Z</time></trkpt><trkpt lat="45.702248600378006" lon="9.869419069000843"><ele>347.0</ele><time>2026-04-06T13:57:18.985Z</time></trkpt><trkpt lat="45.70211209265896" lon="9.869592229351586"><ele>355.0</ele><time>2026-04-06T13:57:19.985Z</time></trkpt><trkpt lat="45.701957788334134" lon="9.869802728840712"><ele>361.66666666666663</ele><time>2026-04-06T13:57:20.985Z</time></trkpt><trkpt lat="45.701796958843374" lon="9.870005304755669"><ele>368.3333333333333</ele><time>2026-04-06T13:57:21.985Z</time></trkpt><trkpt lat="45.701625268866145" lon="9.870218181299085"><ele>375.0</ele><time>2026-04-06T13:57:22.985Z</time></trkpt><trkpt lat="45.70146089809475" lon="9.870421982839767"><ele>376.3333333333333</ele><time>2026-04-06T13:57:23.985Z</time></trkpt><trkpt lat="45.70131319227504" lon="9.8706065530699"><ele>377.66666666666663</ele><time>2026-04-06T13:57:24.985Z</time></trkpt><trkpt lat="45.701169397195365" lon="9.870793383841283"><ele>379.0</ele><time>2026-04-06T13:57:25.985Z</time></trkpt><trkpt lat="45.701032519774635" lon="9.87097712855082"><ele>386.0</ele><time>2026-04-06T13:57:26.985Z</time></trkpt><trkpt lat="45.70089198722043" lon="9.871163789860706"><ele>393.0</ele><time>2026-04-06T13:57:27.985Z</time></trkpt><trkpt lat="45.700751103337275" lon="9.871336102651897"><ele>400.0</ele><time>2026-04-06T13:57:28.985Z</time></trkpt><trkpt lat="45.70062103562805" lon="9.871468619153255"><ele>400.0</ele><time>2026-04-06T13:57:29.985Z</time></trkpt><trkpt lat="45.70049831115206" lon="9.871568483852856"><ele>400.0</ele><time>2026-04-06T13:57:30.985Z</time></trkpt><trkpt lat="45.70037882425614" lon="9.871647361998612"><ele>400.0</ele><time>2026-04-06T13:57:31.985Z</time></trkpt><trkpt lat="45.700259008317914" lon="9.871712774453608"><ele>400.0</ele><time>2026-04-06T13:57:32.985Z</time></trkpt><trkpt lat="45.700135652287784" lon="9.871774927029081"><ele>402.0</ele><time>2026-04-06T13:57:33.985Z</time></trkpt><trkpt lat="45.70001000163665" lon="9.871825056488431"><ele>404.0</ele><time>2026-04-06T13:57:34.985Z</time></trkpt><trkpt lat="45.69988155914768" lon="9.871854236740953"><ele>406.0</ele><time>2026-04-06T13:57:35.985Z</time></trkpt><trkpt lat="45.699756411673704" lon="9.871888149202404"><ele>408.0</ele><time>2026-04-06T13:57:36.985Z</time></trkpt><trkpt lat="45.69962858565083" lon="9.87192564638948"><ele>408.0</ele><time>2026-04-06T13:57:37.985Z</time></trkpt><trkpt lat="45.69950327337481" lon="9.87198656526947"><ele>408.0</ele><time>2026-04-06T13:57:38.985Z</time></trkpt><trkpt lat="45.69939003887277" lon="9.872073764307865"><ele>408.0</ele><time>2026-04-06T13:57:39.985Z</time></trkpt><trkpt lat="45.69927495572542" lon="9.872132687506374"><ele>408.0</ele><time>2026-04-06T13:57:40.985Z</time></trkpt><trkpt lat="45.69916399298089" lon="9.872154940552733"><ele>411.0</ele><time>2026-04-06T13:57:41.985Z</time></trkpt><trkpt lat="45.699057601150166" lon="9.872146256728827"><ele>414.0</ele><time>2026-04-06T13:57:42.985Z</time></trkpt><trkpt lat="45.69894728886774" lon="9.8721312533611"><ele>417.0</ele><time>2026-04-06T13:57:43.985Z</time></trkpt><trkpt lat="45.698826683790266" lon="9.872125646575988"><ele>420.0</ele><time>2026-04-06T13:57:44.985Z</time></trkpt><trkpt lat="45.69871516196514" lon="9.872127589466373"><ele>420.0</ele><time>2026-04-06T13:57:45.985Z</time></trkpt><trkpt lat="45.69858783597751" lon="9.872156842898956"><ele>420.0</ele><time>2026-04-06T13:57:46.984Z</time></trkpt><trkpt lat="45.698487613245156" lon="9.872267144255689"><ele>420.0</ele><time>2026-04-06T13:57:47.983Z</time></trkpt><trkpt lat="45.698392652116794" lon="9.872363920957946"><ele>420.0</ele><time>2026-04-06T13:57:48.983Z</time></trkpt><trkpt lat="45.69830541814172" lon="9.872480583824919"><ele>424.25</ele><time>2026-04-06T13:57:49.983Z</time></trkpt><trkpt lat="45.69822717551993" lon="9.872613805663548"><ele>428.5</ele><time>2026-04-06T13:57:50.984Z</time></trkpt><trkpt lat="45.69816037841168" lon="9.872744379037123"><ele>432.75</ele><time>2026-04-06T13:57:51.984Z</time></trkpt><trkpt lat="45.69810374903734" lon="9.87287808378192"><ele>437.0</ele><time>2026-04-06T13:57:52.984Z</time></trkpt><trkpt lat="45.6980215742172" lon="9.872994508251086"><ele>437.0</ele><time>2026-04-06T13:57:53.983Z</time></trkpt><trkpt lat="45.697944218323734" lon="9.87312853121321"><ele>437.0</ele><time>2026-04-06T13:57:54.983Z</time></trkpt><trkpt lat="45.69784635757569" lon="9.873236968440368"><ele>437.0</ele><time>2026-04-06T13:57:55.984Z</time></trkpt><trkpt lat="45.69774699217802" lon="9.8733442776154"><ele>437.0</ele><time>2026-04-06T13:57:56.983Z</time></trkpt><trkpt lat="45.697651781889924" lon="9.87347295982863"><ele>438.75</ele><time>2026-04-06T13:57:57.983Z</time></trkpt><trkpt lat="45.69756664859436" lon="9.87361071756344"><ele>440.5</ele><time>2026-04-06T13:57:58.984Z</time></trkpt><trkpt lat="45.697467098692" lon="9.873725333138406"><ele>442.25</ele><time>2026-04-06T13:57:59.984Z</time></trkpt><trkpt lat="45.69736424844608" lon="9.873824148911744"><ele>444.0</ele><time>2026-04-06T13:58:00.984Z</time></trkpt><trkpt lat="45.69726314321685" lon="9.873921651330706"><ele>444.0</ele><time>2026-04-06T13:58:01.984Z</time></trkpt><trkpt lat="45.69716532677153" lon="9.87400448689882"><ele>444.0</ele><time>2026-04-06T13:58:02.984Z</time></trkpt><trkpt lat="45.69706681069059" lon="9.874093280915073"><ele>444.0</ele><time>2026-04-06T13:58:03.984Z</time></trkpt><trkpt lat="45.69696728777452" lon="9.874188238038808"><ele>444.0</ele><time>2026-04-06T13:58:04.984Z</time></trkpt><trkpt lat="45.69687222902462" lon="9.874287996742293"><ele>447.5</ele><time>2026-04-06T13:58:05.984Z</time></trkpt><trkpt lat="45.69677399834578" lon="9.874385550098268"><ele>451.0</ele><time>2026-04-06T13:58:06.984Z</time></trkpt><trkpt lat="45.696671701270496" lon="9.874471833717621"><ele>454.5</ele><time>2026-04-06T13:58:07.984Z</time></trkpt><trkpt lat="45.69656452797173" lon="9.874546579245445"><ele>458.0</ele><time>2026-04-06T13:58:08.984Z</time></trkpt><trkpt lat="45.69645501827484" lon="9.874595331733062"><ele>458.0</ele><time>2026-04-06T13:58:09.984Z</time></trkpt><trkpt lat="45.69635447515004" lon="9.87464110750539"><ele>457.99999999999994</ele><time>2026-04-06T13:58:10.984Z</time></trkpt><trkpt lat="45.696271995448406" lon="9.874686479780067"><ele>457.99999999999994</ele><time>2026-04-06T13:58:11.984Z</time></trkpt><trkpt lat="45.696193874368255" lon="9.874733105960086"><ele>458.0</ele><time>2026-04-06T13:58:12.984Z</time></trkpt><trkpt lat="45.6961114403912" lon="9.874775998239958"><ele>458.0</ele><time>2026-04-06T13:58:13.984Z</time></trkpt><trkpt lat="45.6960145498718" lon="9.874764523009166"><ele>461.2</ele><time>2026-04-06T13:58:14.984Z</time></trkpt><trkpt lat="45.695910748790254" lon="9.874749743607696"><ele>464.4</ele><time>2026-04-06T13:58:15.984Z</time></trkpt><trkpt lat="45.695825684509096" lon="9.87463887160478"><ele>467.59999999999997</ele><time>2026-04-06T13:58:16.984Z</time></trkpt><trkpt lat="45.69574663658054" lon="9.874520440714825"><ele>470.79999999999995</ele><time>2026-04-06T13:58:17.984Z</time></trkpt><trkpt lat="45.695722155022914" lon="9.874366336654473"><ele>474.0</ele><time>2026-04-06T13:58:18.984Z</time></trkpt><trkpt lat="45.69568369225891" lon="9.874199549405228"><ele>474.0</ele><time>2026-04-06T13:58:19.984Z</time></trkpt><trkpt lat="45.69564794196277" lon="9.874029457088266"><ele>474.0</ele><time>2026-04-06T13:58:20.984Z</time></trkpt><trkpt lat="45.69561175478916" lon="9.873861883021014"><ele>474.0</ele><time>2026-04-06T13:58:21.984Z</time></trkpt><trkpt lat="45.695570869102035" lon="9.873699210394808"><ele>474.0</ele><time>2026-04-06T13:58:22.984Z</time></trkpt><trkpt lat="45.69553680458468" lon="9.873541419596807"><ele>474.0</ele><time>2026-04-06T13:58:23.984Z</time></trkpt><trkpt lat="45.695507499589034" lon="9.873403313481747"><ele>474.0</ele><time>2026-04-06T13:58:24.984Z</time></trkpt><trkpt lat="45.69546857352057" lon="9.873282226734194"><ele>474.0</ele><time>2026-04-06T13:58:25.984Z</time></trkpt><trkpt lat="45.695410190026905" lon="9.873206941487744"><ele>474.0</ele><time>2026-04-06T13:58:26.984Z</time></trkpt><trkpt lat="45.695335981236944" lon="9.873180210769956"><ele>474.0</ele><time>2026-04-06T13:58:27.984Z</time></trkpt><trkpt lat="45.695249615508615" lon="9.873211452004677"><ele>474.0</ele><time>2026-04-06T13:58:28.984Z</time></trkpt><trkpt lat="45.69514399218671" lon="9.873265301751157"><ele>476.5</ele><time>2026-04-06T13:58:29.984Z</time></trkpt><trkpt lat="45.695036196335096" lon="9.873324136445364"><ele>479.0</ele><time>2026-04-06T13:58:30.984Z</time></trkpt><trkpt lat="45.6949250131458" lon="9.873380038811973"><ele>481.5</ele><time>2026-04-06T13:58:31.984Z</time></trkpt><trkpt lat="45.69480953900872" lon="9.873436741192666"><ele>484.0</ele><time>2026-04-06T13:58:32.984Z</time></trkpt><trkpt lat="45.69468990138679" lon="9.873493746600897"><ele>485.0</ele><time>2026-04-06T13:58:33.984Z</time></trkpt><trkpt lat="45.69457165940556" lon="9.873559382728672"><ele>486.0</ele><time>2026-04-06T13:58:34.984Z</time></trkpt><trkpt lat="45.694458826895655" lon="9.873645771962659"><ele>487.0</ele><time>2026-04-06T13:58:35.984Z</time></trkpt><trkpt lat="45.6943615150156" lon="9.873757854607897"><ele>488.0</ele><time>2026-04-06T13:58:36.984Z</time></trkpt><trkpt lat="45.69428313670615" lon="9.873903399497356"><ele>493.5</ele><time>2026-04-06T13:58:37.984Z</time></trkpt><trkpt lat="45.69422336306741" lon="9.87407874167969"><ele>499.0</ele><time>2026-04-06T13:58:38.984Z</time></trkpt><trkpt lat="45.69417119388517" lon="9.874242077778014"><ele>504.5</ele><time>2026-04-06T13:58:39.984Z</time></trkpt><trkpt lat="45.69413664665417" lon="9.874422421512492"><ele>510.0</ele><time>2026-04-06T13:58:40.984Z</time></trkpt><trkpt lat="45.69410145828618" lon="9.874603961564315"><ele>510.0</ele><time>2026-04-06T13:58:41.984Z</time></trkpt><trkpt lat="45.69404421500788" lon="9.874752575892227"><ele>510.0</ele><time>2026-04-06T13:58:42.984Z</time></trkpt><trkpt lat="45.6939763714158" lon="9.87490259128602"><ele>510.0</ele><time>2026-04-06T13:58:43.984Z</time></trkpt><trkpt lat="45.69390075415622" lon="9.87503404473072"><ele>510.0</ele><time>2026-04-06T13:58:44.984Z</time></trkpt><trkpt lat="45.69381722592959" lon="9.875158083383425"><ele>509.25</ele><time>2026-04-06T13:58:45.984Z</time></trkpt><trkpt lat="45.69372303129183" lon="9.875264872081221"><ele>508.5</ele><time>2026-04-06T13:58:46.984Z</time></trkpt><trkpt lat="45.69361604146523" lon="9.875358319097765"><ele>507.75</ele><time>2026-04-06T13:58:47.984Z</time></trkpt><trkpt lat="45.69350743466739" lon="9.87547531525729"><ele>507.0</ele><time>2026-04-06T13:58:48.984Z</time></trkpt><trkpt lat="45.693398073461864" lon="9.875583404118538"><ele>511.33333333333337</ele><time>2026-04-06T13:58:49.984Z</time></trkpt><trkpt lat="45.693287660026925" lon="9.875723978081652"><ele>515.6666666666667</ele><time>2026-04-06T13:58:50.984Z</time></trkpt><trkpt lat="45.69318094117092" lon="9.875890910803966"><ele>520.0</ele><time>2026-04-06T13:58:51.984Z</time></trkpt><trkpt lat="45.693084685338775" lon="9.87607924875725"><ele>521.0</ele><time>2026-04-06T13:58:52.984Z</time></trkpt><trkpt lat="45.69299326367064" lon="9.876277220198428"><ele>522.0</ele><time>2026-04-06T13:58:53.984Z</time></trkpt><trkpt lat="45.69290825060295" lon="9.87647381977926"><ele>523.0</ele><time>2026-04-06T13:58:54.984Z</time></trkpt><trkpt lat="45.69283413933486" lon="9.876684870371271"><ele>522.75</ele><time>2026-04-06T13:58:55.984Z</time></trkpt><trkpt lat="45.69277095382132" lon="9.87688907312594"><ele>522.5</ele><time>2026-04-06T13:58:56.984Z</time></trkpt><trkpt lat="45.692721817149845" lon="9.877075578453207"><ele>522.25</ele><time>2026-04-06T13:58:57.984Z</time></trkpt><trkpt lat="45.69268783083309" lon="9.877249318538823"><ele>522.0</ele><time>2026-04-06T13:58:58.984Z</time></trkpt><trkpt lat="45.69265802491204" lon="9.877424571871664"><ele>521.75</ele><time>2026-04-06T13:58:59.984Z</time></trkpt><trkpt lat="45.69262766335318" lon="9.877604051374915"><ele>521.5</ele><time>2026-04-06T13:59:00.984Z</time></trkpt><trkpt lat="45.69260304974105" lon="9.877804135171175"><ele>521.25</ele><time>2026-04-06T13:59:01.984Z</time></trkpt><trkpt lat="45.69260208551345" lon="9.877998310583848"><ele>521.0</ele><time>2026-04-06T13:59:02.984Z</time></trkpt><trkpt lat="45.69263021454143" lon="9.878204270127807"><ele>521.0</ele><time>2026-04-06T13:59:03.984Z</time></trkpt><trkpt lat="45.692650421817355" lon="9.87840959681455"><ele>521.0</ele><time>2026-04-06T13:59:04.984Z</time></trkpt><trkpt lat="45.69259986640848" lon="9.87858052800538"><ele>521.0</ele><time>2026-04-06T13:59:05.984Z</time></trkpt><trkpt lat="45.69253372799652" lon="9.878734624491916"><ele>521.0</ele><time>2026-04-06T13:59:06.984Z</time></trkpt><trkpt lat="45.69246332592779" lon="9.87888222668655"><ele>520.75</ele><time>2026-04-06T13:59:07.984Z</time></trkpt><trkpt lat="45.6923913750724" lon="9.879032773728047"><ele>520.5</ele><time>2026-04-06T13:59:08.984Z</time></trkpt><trkpt lat="45.69230792187907" lon="9.879198758560914"><ele>520.25</ele><time>2026-04-06T13:59:09.984Z</time></trkpt><trkpt lat="45.69221471063659" lon="9.879373457659218"><ele>520.0</ele><time>2026-04-06T13:59:10.984Z</time></trkpt><trkpt lat="45.692122269779325" lon="9.879532784304995"><ele>520.0</ele><time>2026-04-06T13:59:11.984Z</time></trkpt><trkpt lat="45.69205349252465" lon="9.87963788526893"><ele>520.0</ele><time>2026-04-06T13:59:12.984Z</time></trkpt><trkpt lat="45.69198458459256" lon="9.87966872522963"><ele>520.0</ele><time>2026-04-06T13:59:13.984Z</time></trkpt><trkpt lat="45.69187595896496" lon="9.879637737502513"><ele>520.0</ele><time>2026-04-06T13:59:14.984Z</time></trkpt><trkpt lat="45.691743814543734" lon="9.879651068988009"><ele>520.0</ele><time>2026-04-06T13:59:15.984Z</time></trkpt><trkpt lat="45.69159145074525" lon="9.879656892172667"><ele>522.0</ele><time>2026-04-06T13:59:16.984Z</time></trkpt><trkpt lat="45.691444893997115" lon="9.879647332925206"><ele>524.0</ele><time>2026-04-06T13:59:17.984Z</time></trkpt><trkpt lat="45.69131415017862" lon="9.879648579218138"><ele>526.0</ele><time>2026-04-06T13:59:18.984Z</time></trkpt><trkpt lat="45.69120353473727" lon="9.879568525791031"><ele>528.0</ele><time>2026-04-06T13:59:19.984Z</time></trkpt><trkpt lat="45.691088274009275" lon="9.879474742771759"><ele>531.0</ele><time>2026-04-06T13:59:20.984Z</time></trkpt><trkpt lat="45.69097047375578" lon="9.87935161461287"><ele>534.0</ele><time>2026-04-06T13:59:21.984Z</time></trkpt><trkpt lat="45.69086020652626" lon="9.87921607084297"><ele>537.0</ele><time>2026-04-06T13:59:22.984Z</time></trkpt><trkpt lat="45.69078741406224" lon="9.879059107076895"><ele>540.0</ele><time>2026-04-06T13:59:23.984Z</time></trkpt><trkpt lat="45.69069135194166" lon="9.87893908983954"><ele>540.0</ele><time>2026-04-06T13:59:24.984Z</time></trkpt><trkpt lat="45.69059144104268" lon="9.878873549006583"><ele>540.0</ele><time>2026-04-06T13:59:25.984Z</time></trkpt><trkpt lat="45.690503708892884" lon="9.878823764516545"><ele>540.0</ele><time>2026-04-06T13:59:26.984Z</time></trkpt><trkpt lat="45.690425675279975" lon="9.87874179968469"><ele>540.0</ele><time>2026-04-06T13:59:27.984Z</time></trkpt><trkpt lat="45.69034603217138" lon="9.878680384716608"><ele>540.0</ele><time>2026-04-06T13:59:28.984Z</time></trkpt><trkpt lat="45.69025350626374" lon="9.878628817977999"><ele>541.0</ele><time>2026-04-06T13:59:30.984Z</time></trkpt><trkpt lat="45.69015162186949" lon="9.878650402690495"><ele>542.0</ele><time>2026-04-06T13:59:32.984Z</time></trkpt><trkpt lat="45.69011143100516" lon="9.878814721724016"><ele>543.0</ele><time>2026-04-06T13:59:34.984Z</time></trkpt><trkpt lat="45.69014872448426" lon="9.878912246562207"><ele>544.0</ele><time>2026-04-06T13:59:35.984Z</time></trkpt><trkpt lat="45.6901569080313" lon="9.879042246326081"><ele>545.0</ele><time>2026-04-06T13:59:36.984Z</time></trkpt><trkpt lat="45.690172371447964" lon="9.879167287311043"><ele>547.0</ele><time>2026-04-06T13:59:37.984Z</time></trkpt><trkpt lat="45.69016389463402" lon="9.879282016757523"><ele>549.0</ele><time>2026-04-06T13:59:38.984Z</time></trkpt><trkpt lat="45.69014421012238" lon="9.879394182326468"><ele>551.0</ele><time>2026-04-06T13:59:39.984Z</time></trkpt><trkpt lat="45.69010921353244" lon="9.87950444868663"><ele>553.0</ele><time>2026-04-06T13:59:40.984Z</time></trkpt><trkpt lat="45.69007550099382" lon="9.879614149204432"><ele>555.0</ele><time>2026-04-06T13:59:41.984Z</time></trkpt><trkpt lat="45.690033149711915" lon="9.87972645533285"><ele>557.0</ele><time>2026-04-06T13:59:42.984Z</time></trkpt><trkpt lat="45.68997545788321" lon="9.879841008798511"><ele>557.0</ele><time>2026-04-06T13:59:43.984Z</time></trkpt><trkpt lat="45.689909451242265" lon="9.879939337193537"><ele>557.0</ele><time>2026-04-06T13:59:44.984Z</time></trkpt><trkpt lat="45.68983275447758" lon="9.880045533050522"><ele>557.0</ele><time>2026-04-06T13:59:45.984Z</time></trkpt><trkpt lat="45.68975579971985" lon="9.880146906648346"><ele>557.0</ele><time>2026-04-06T13:59:46.984Z</time></trkpt><trkpt lat="45.68969764979956" lon="9.880237721284542"><ele>557.0</ele><time>2026-04-06T13:59:47.984Z</time></trkpt><trkpt lat="45.68966451303538" lon="9.880348856885497"><ele>557.2</ele><time>2026-04-06T13:59:48.984Z</time></trkpt><trkpt lat="45.68966793868978" lon="9.880472416104014"><ele>557.4000000000001</ele><time>2026-04-06T13:59:49.984Z</time></trkpt><trkpt lat="45.689690136564536" lon="9.88062312726364"><ele>557.5999999999999</ele><time>2026-04-06T13:59:50.984Z</time></trkpt><trkpt lat="45.68971568271135" lon="9.880778760915904"><ele>557.8</ele><time>2026-04-06T13:59:51.984Z</time></trkpt><trkpt lat="45.6897554925748" lon="9.880910122649158"><ele>558.0</ele><time>2026-04-06T13:59:52.983Z</time></trkpt><trkpt lat="45.68980376397946" lon="9.88102087397211"><ele>558.0</ele><time>2026-04-06T13:59:53.983Z</time></trkpt><trkpt lat="45.68982129365964" lon="9.88113771096387"><ele>558.0</ele><time>2026-04-06T13:59:54.983Z</time></trkpt><trkpt lat="45.68985957141744" lon="9.881237582925696"><ele>558.0</ele><time>2026-04-06T13:59:55.983Z</time></trkpt><trkpt lat="45.689896804112" lon="9.881335032196775"><ele>558.0</ele><time>2026-04-06T13:59:56.984Z</time></trkpt><trkpt lat="45.68990133971017" lon="9.881425334637724"><ele>558.0</ele><time>2026-04-06T13:59:57.984Z</time></trkpt><trkpt lat="45.68983786001019" lon="9.881518540949717"><ele>558.0</ele><time>2026-04-06T13:59:58.983Z</time></trkpt><trkpt lat="45.68975422762144" lon="9.881600382821954"><ele>558.0</ele><time>2026-04-06T13:59:59.983Z</time></trkpt><trkpt lat="45.68964813633795" lon="9.881589013330993"><ele>558.0</ele><time>2026-04-06T14:00:00.983Z</time></trkpt><trkpt lat="45.68951520818609" lon="9.881567864115242"><ele>558.0</ele><time>2026-04-06T14:00:01.984Z</time></trkpt><trkpt lat="45.689380732292264" lon="9.881557190532588"><ele>558.0</ele><time>2026-04-06T14:00:02.983Z</time></trkpt><trkpt lat="45.68925616893151" lon="9.881534445407013"><ele>555.8</ele><time>2026-04-06T14:00:03.983Z</time></trkpt><trkpt lat="45.689156987575196" lon="9.881518818803503"><ele>553.5999999999999</ele><time>2026-04-06T14:00:04.983Z</time></trkpt><trkpt lat="45.68909132112854" lon="9.88154039908128"><ele>551.4000000000001</ele><time>2026-04-06T14:00:05.984Z</time></trkpt><trkpt lat="45.68902027666317" lon="9.881558671259757"><ele>549.2</ele><time>2026-04-06T14:00:06.984Z</time></trkpt><trkpt lat="45.6889528403007" lon="9.881723388371007"><ele>547.0</ele><time>2026-04-06T14:00:07.984Z</time></trkpt><trkpt lat="45.68896665653032" lon="9.881933244727996"><ele>545.25</ele><time>2026-04-06T14:00:08.984Z</time></trkpt><trkpt lat="45.688965196145375" lon="9.882129610851388"><ele>543.5</ele><time>2026-04-06T14:00:09.984Z</time></trkpt><trkpt lat="45.68895537589636" lon="9.882311030872556"><ele>541.75</ele><time>2026-04-06T14:00:10.984Z</time></trkpt><trkpt lat="45.68893067021077" lon="9.88246620838349"><ele>540.0</ele><time>2026-04-06T14:00:11.984Z</time></trkpt><trkpt lat="45.688879227682" lon="9.882602586410185"><ele>539.75</ele><time>2026-04-06T14:00:12.984Z</time></trkpt><trkpt lat="45.68880802064259" lon="9.882727306252582"><ele>539.5</ele><time>2026-04-06T14:00:13.984Z</time></trkpt><trkpt lat="45.68870861847557" lon="9.882815781945274"><ele>539.25</ele><time>2026-04-06T14:00:14.984Z</time></trkpt><trkpt lat="45.68858739031259" lon="9.882879491399294"><ele>539.0</ele><time>2026-04-06T14:00:15.984Z</time></trkpt><trkpt lat="45.688461236332444" lon="9.882917429796128"><ele>535.8</ele><time>2026-04-06T14:00:16.984Z</time></trkpt><trkpt lat="45.68833783077656" lon="9.882928496843704"><ele>532.5999999999999</ele><time>2026-04-06T14:00:17.984Z</time></trkpt><trkpt lat="45.688213597238146" lon="9.88292546414961"><ele>529.4</ele><time>2026-04-06T14:00:18.984Z</time></trkpt><trkpt lat="45.688108544135915" lon="9.882914500545528"><ele>526.1999999999999</ele><time>2026-04-06T14:00:19.984Z</time></trkpt><trkpt lat="45.68803929857774" lon="9.882914978201045"><ele>523.0</ele><time>2026-04-06T14:00:20.984Z</time></trkpt><trkpt lat="45.68796801420683" lon="9.883064278097422"><ele>523.0</ele><time>2026-04-06T14:00:22.984Z</time></trkpt><trkpt lat="45.68802919592846" lon="9.883233451549382"><ele>523.0</ele><time>2026-04-06T14:00:23.984Z</time></trkpt><trkpt lat="45.68804565647096" lon="9.883385266695289"><ele>523.0</ele><time>2026-04-06T14:00:24.984Z</time></trkpt><trkpt lat="45.68803003226492" lon="9.883494991866707"><ele>523.0</ele><time>2026-04-06T14:00:25.984Z</time></trkpt><trkpt lat="45.687975961040586" lon="9.883585296585888"><ele>523.0</ele><time>2026-04-06T14:00:26.984Z</time></trkpt><trkpt lat="45.68786379194856" lon="9.883578514166494"><ele>522.75</ele><time>2026-04-06T14:00:27.984Z</time></trkpt><trkpt lat="45.68776702227898" lon="9.883541957403185"><ele>522.5</ele><time>2026-04-06T14:00:28.984Z</time></trkpt><trkpt lat="45.687630503297406" lon="9.883457959439056"><ele>522.25</ele><time>2026-04-06T14:00:29.984Z</time></trkpt><trkpt lat="45.687494741971854" lon="9.883392256632007"><ele>522.0</ele><time>2026-04-06T14:00:30.984Z</time></trkpt><trkpt lat="45.6873680478161" lon="9.883347934616035"><ele>522.0</ele><time>2026-04-06T14:00:31.984Z</time></trkpt><trkpt lat="45.687233230518416" lon="9.88335334391837"><ele>522.0</ele><time>2026-04-06T14:00:32.984Z</time></trkpt><trkpt lat="45.68710748111998" lon="9.883361813747273"><ele>522.0</ele><time>2026-04-06T14:00:33.984Z</time></trkpt><trkpt lat="45.68703166123961" lon="9.883419128055001"><ele>522.0</ele><time>2026-04-06T14:00:34.984Z</time></trkpt><trkpt lat="45.686956833041364" lon="9.883438563220322"><ele>522.0</ele><time>2026-04-06T14:00:35.984Z</time></trkpt><trkpt lat="45.686844536954034" lon="9.883495012207693"><ele>519.75</ele><time>2026-04-06T14:00:37.984Z</time></trkpt><trkpt lat="45.686765653501126" lon="9.883534665335963"><ele>517.5</ele><time>2026-04-06T14:00:38.984Z</time></trkpt><trkpt lat="45.686672170636655" lon="9.88363858840559"><ele>515.25</ele><time>2026-04-06T14:00:39.984Z</time></trkpt><trkpt lat="45.686549076252895" lon="9.883684224434406"><ele>513.0</ele><time>2026-04-06T14:00:40.984Z</time></trkpt><trkpt lat="45.686415341215145" lon="9.883722479651661"><ele>513.0</ele><time>2026-04-06T14:00:41.984Z</time></trkpt><trkpt lat="45.686292848258596" lon="9.883761911560695"><ele>513.0</ele><time>2026-04-06T14:00:42.984Z</time></trkpt><trkpt lat="45.68617324530523" lon="9.883819422930157"><ele>513.0</ele><time>2026-04-06T14:00:43.984Z</time></trkpt><trkpt lat="45.68605514797689" lon="9.883869273605958"><ele>513.0</ele><time>2026-04-06T14:00:44.984Z</time></trkpt><trkpt lat="45.68595633487823" lon="9.883888637114246"><ele>513.0</ele><time>2026-04-06T14:00:45.984Z</time></trkpt><trkpt lat="45.685888479642486" lon="9.8839323671412"><ele>513.0</ele><time>2026-04-06T14:00:46.984Z</time></trkpt><trkpt lat="45.68583322334715" lon="9.884035295591802"><ele>513.0</ele><time>2026-04-06T14:00:47.984Z</time></trkpt><trkpt lat="45.685800493070765" lon="9.88419660475702"><ele>513.0</ele><time>2026-04-06T14:00:48.984Z</time></trkpt><trkpt lat="45.68578574733561" lon="9.88438797403521"><ele>513.0</ele><time>2026-04-06T14:00:49.984Z</time></trkpt><trkpt lat="45.68574061546667" lon="9.884595147682933"><ele>513.0</ele><time>2026-04-06T14:00:50.984Z</time></trkpt><trkpt lat="45.68568427873597" lon="9.884772657192546"><ele>513.0</ele><time>2026-04-06T14:00:51.984Z</time></trkpt><trkpt lat="45.685607132797635" lon="9.88492968766969"><ele>513.0</ele><time>2026-04-06T14:00:52.984Z</time></trkpt><trkpt lat="45.68548249759144" lon="9.885083460101082"><ele>513.0</ele><time>2026-04-06T14:00:53.984Z</time></trkpt><trkpt lat="45.68528290848986" lon="9.885267343302175"><ele>510.66666666666663</ele><time>2026-04-06T14:00:54.984Z</time></trkpt><trkpt lat="45.68511883795728" lon="9.885439738005404"><ele>508.3333333333333</ele><time>2026-04-06T14:00:55.984Z</time></trkpt><trkpt lat="45.68500332842312" lon="9.88555828133735"><ele>506.0</ele><time>2026-04-06T14:00:56.984Z</time></trkpt><trkpt lat="45.68492192322542" lon="9.88565754513628"><ele>506.0</ele><time>2026-04-06T14:00:57.984Z</time></trkpt><trkpt lat="45.68484726600571" lon="9.88577600975725"><ele>506.0</ele><time>2026-04-06T14:00:58.984Z</time></trkpt><trkpt lat="45.68479395056743" lon="9.885919507216007"><ele>506.0</ele><time>2026-04-06T14:00:59.984Z</time></trkpt><trkpt lat="45.684759359001376" lon="9.886095852532298"><ele>506.0</ele><time>2026-04-06T14:01:00.984Z</time></trkpt><trkpt lat="45.68476008509968" lon="9.886303741559056"><ele>504.66666666666663</ele><time>2026-04-06T14:01:01.984Z</time></trkpt><trkpt lat="45.68482259821988" lon="9.88655448705807"><ele>503.33333333333337</ele><time>2026-04-06T14:01:02.984Z</time></trkpt><trkpt lat="45.684875516901556" lon="9.886771073095776"><ele>502.0</ele><time>2026-04-06T14:01:03.984Z</time></trkpt><trkpt lat="45.684937112583825" lon="9.886946226228778"><ele>502.6666666666667</ele><time>2026-04-06T14:01:04.984Z</time></trkpt><trkpt lat="45.6850242055185" lon="9.88711177621344"><ele>503.33333333333337</ele><time>2026-04-06T14:01:05.984Z</time></trkpt><trkpt lat="45.68513967887442" lon="9.887284870253685"><ele>504.0</ele><time>2026-04-06T14:01:06.984Z</time></trkpt><trkpt lat="45.68526777978851" lon="9.887478791138347"><ele>501.66666666666663</ele><time>2026-04-06T14:01:07.984Z</time></trkpt><trkpt lat="45.68538369855522" lon="9.887653735067872"><ele>499.3333333333333</ele><time>2026-04-06T14:01:08.984Z</time></trkpt><trkpt lat="45.685485138119724" lon="9.887852331011663"><ele>497.0</ele><time>2026-04-06T14:01:09.984Z</time></trkpt><trkpt lat="45.68557018610435" lon="9.888069309805733"><ele>497.0</ele><time>2026-04-06T14:01:10.984Z</time></trkpt><trkpt lat="45.68561813168736" lon="9.888347203088168"><ele>497.0</ele><time>2026-04-06T14:01:11.984Z</time></trkpt><trkpt lat="45.68564455733743" lon="9.888634317959058"><ele>497.0</ele><time>2026-04-06T14:01:12.984Z</time></trkpt><trkpt lat="45.685645848206015" lon="9.888932406561139"><ele>495.3333333333333</ele><time>2026-04-06T14:01:13.984Z</time></trkpt><trkpt lat="45.685669120985374" lon="9.889225021550077"><ele>493.66666666666663</ele><time>2026-04-06T14:01:14.984Z</time></trkpt><trkpt lat="45.68570214873097" lon="9.889509781153256"><ele>492.0</ele><time>2026-04-06T14:01:15.984Z</time></trkpt><trkpt lat="45.68573460810574" lon="9.889777549508292"><ele>491.33333333333337</ele><time>2026-04-06T14:01:16.984Z</time></trkpt><trkpt lat="45.68573965543009" lon="9.890036717848341"><ele>490.6666666666667</ele><time>2026-04-06T14:01:17.984Z</time></trkpt><trkpt lat="45.68571504550152" lon="9.890323737925836"><ele>490.0</ele><time>2026-04-06T14:01:18.984Z</time></trkpt><trkpt lat="45.68564052255398" lon="9.890624137442604"><ele>489.0</ele><time>2026-04-06T14:01:19.984Z</time></trkpt><trkpt lat="45.68558973902185" lon="9.89094360804439"><ele>488.0</ele><time>2026-04-06T14:01:20.984Z</time></trkpt><trkpt lat="45.685559124368616" lon="9.891324001057425"><ele>489.0</ele><time>2026-04-06T14:01:21.984Z</time></trkpt><trkpt lat="45.6855474890489" lon="9.89177055494884"><ele>490.0</ele><time>2026-04-06T14:01:22.984Z</time></trkpt><trkpt lat="45.68555547792462" lon="9.892241659758191"><ele>494.0</ele><time>2026-04-06T14:01:23.984Z</time></trkpt><trkpt lat="45.68556003023528" lon="9.89265222420157"><ele>498.0</ele><time>2026-04-06T14:01:24.984Z</time></trkpt><trkpt lat="45.6855375301436" lon="9.892992915330518"><ele>498.0</ele><time>2026-04-06T14:01:25.984Z</time></trkpt><trkpt lat="45.68548525017061" lon="9.893279203952998"><ele>498.0</ele><time>2026-04-06T14:01:26.984Z</time></trkpt><trkpt lat="45.68543462038653" lon="9.893534110162392"><ele>498.0</ele><time>2026-04-06T14:01:27.984Z</time></trkpt><trkpt lat="45.68540079237424" lon="9.893741921882414"><ele>497.75</ele><time>2026-04-06T14:01:28.984Z</time></trkpt><trkpt lat="45.685408539137256" lon="9.893908123316377"><ele>497.5</ele><time>2026-04-06T14:01:29.984Z</time></trkpt><trkpt lat="45.68547174398374" lon="9.894069458614906"><ele>497.25</ele><time>2026-04-06T14:01:30.984Z</time></trkpt><trkpt lat="45.68555802572856" lon="9.894272534067097"><ele>497.0</ele><time>2026-04-06T14:01:31.984Z</time></trkpt><trkpt lat="45.68562762089107" lon="9.8945144718028"><ele>497.0</ele><time>2026-04-06T14:01:32.984Z</time></trkpt><trkpt lat="45.685665585055006" lon="9.894765001912976"><ele>497.0</ele><time>2026-04-06T14:01:33.984Z</time></trkpt><trkpt lat="45.68568578445619" lon="9.895032783320506"><ele>497.0</ele><time>2026-04-06T14:01:34.984Z</time></trkpt><trkpt lat="45.685702026653935" lon="9.89530826955713"><ele>497.3333333333333</ele><time>2026-04-06T14:01:35.984Z</time></trkpt><trkpt lat="45.6857097569689" lon="9.895567063389718"><ele>497.66666666666663</ele><time>2026-04-06T14:01:36.984Z</time></trkpt><trkpt lat="45.68571118463818" lon="9.89579287636998"><ele>498.0</ele><time>2026-04-06T14:01:37.984Z</time></trkpt><trkpt lat="45.68570337749736" lon="9.895963677869421"><ele>501.4</ele><time>2026-04-06T14:01:38.984Z</time></trkpt><trkpt lat="45.68567047718936" lon="9.8960818042332"><ele>504.79999999999995</ele><time>2026-04-06T14:01:39.984Z</time></trkpt><trkpt lat="45.68559380910066" lon="9.896175946969683"><ele>508.2</ele><time>2026-04-06T14:01:40.984Z</time></trkpt><trkpt lat="45.6855021084997" lon="9.896251771916354"><ele>511.6</ele><time>2026-04-06T14:01:41.984Z</time></trkpt><trkpt lat="45.68542400093145" lon="9.896342840380052"><ele>515.0</ele><time>2026-04-06T14:01:42.984Z</time></trkpt><trkpt lat="45.68535583470791" lon="9.896477269908589"><ele>515.0</ele><time>2026-04-06T14:01:43.984Z</time></trkpt><trkpt lat="45.68530110899817" lon="9.896657939618711"><ele>515.0</ele><time>2026-04-06T14:01:44.984Z</time></trkpt><trkpt lat="45.685262854120694" lon="9.896851688537966"><ele>515.0</ele><time>2026-04-06T14:01:45.984Z</time></trkpt><trkpt lat="45.68521676300453" lon="9.897020436021057"><ele>515.0</ele><time>2026-04-06T14:01:46.984Z</time></trkpt><trkpt lat="45.6851348328702" lon="9.897150941324888"><ele>510.4</ele><time>2026-04-06T14:01:47.984Z</time></trkpt><trkpt lat="45.68504782133075" lon="9.897250726691684"><ele>505.8</ele><time>2026-04-06T14:01:48.984Z</time></trkpt><trkpt lat="45.68498538948071" lon="9.897361057908517"><ele>501.20000000000005</ele><time>2026-04-06T14:01:49.984Z</time></trkpt><trkpt lat="45.684975482070136" lon="9.897500005392338"><ele>496.6</ele><time>2026-04-06T14:01:50.984Z</time></trkpt><trkpt lat="45.685020963509125" lon="9.897660840438515"><ele>492.0</ele><time>2026-04-06T14:01:51.984Z</time></trkpt><trkpt lat="45.68506414161193" lon="9.897827324734637"><ele>492.0</ele><time>2026-04-06T14:01:52.984Z</time></trkpt><trkpt lat="45.68508769640013" lon="9.897994770474853"><ele>492.0</ele><time>2026-04-06T14:01:53.984Z</time></trkpt><trkpt lat="45.685060456847324" lon="9.898171424012663"><ele>492.0</ele><time>2026-04-06T14:01:54.984Z</time></trkpt><trkpt lat="45.6849810203293" lon="9.898331841959367"><ele>492.0</ele><time>2026-04-06T14:01:55.984Z</time></trkpt><trkpt lat="45.68491331095463" lon="9.89846149885291"><ele>494.8</ele><time>2026-04-06T14:01:56.984Z</time></trkpt><trkpt lat="45.68484537845267" lon="9.898555606682397"><ele>497.6</ele><time>2026-04-06T14:01:57.984Z</time></trkpt><trkpt lat="45.684766440777025" lon="9.898613132354635"><ele>500.40000000000003</ele><time>2026-04-06T14:01:58.983Z</time></trkpt><trkpt lat="45.68467455435468" lon="9.898635860950176"><ele>503.20000000000005</ele><time>2026-04-06T14:01:59.983Z</time></trkpt><trkpt lat="45.68459382229265" lon="9.898680109396892"><ele>506.0</ele><time>2026-04-06T14:02:00.983Z</time></trkpt><trkpt lat="45.68451684004267" lon="9.898757812649155"><ele>497.5</ele><time>2026-04-06T14:02:01.983Z</time></trkpt><trkpt lat="45.684429278875136" lon="9.89886207422026"><ele>489.0</ele><time>2026-04-06T14:02:02.983Z</time></trkpt><trkpt lat="45.68433183369268" lon="9.898980520967006"><ele>480.5</ele><time>2026-04-06T14:02:03.983Z</time></trkpt><trkpt lat="45.68420537974772" lon="9.899109978670738"><ele>472.0</ele><time>2026-04-06T14:02:04.984Z</time></trkpt><trkpt lat="45.68408917314074" lon="9.899241337658527"><ele>476.5</ele><time>2026-04-06T14:02:05.983Z</time></trkpt><trkpt lat="45.683975114893805" lon="9.899367879991592"><ele>481.0</ele><time>2026-04-06T14:02:06.983Z</time></trkpt><trkpt lat="45.6838554988057" lon="9.899503597264419"><ele>485.5</ele><time>2026-04-06T14:02:07.984Z</time></trkpt><trkpt lat="45.68373407028261" lon="9.899634734466497"><ele>490.0</ele><time>2026-04-06T14:02:08.983Z</time></trkpt><trkpt lat="45.683610202383576" lon="9.899766623524302"><ele>484.0</ele><time>2026-04-06T14:02:09.983Z</time></trkpt><trkpt lat="45.683489169597365" lon="9.899906132544377"><ele>478.0</ele><time>2026-04-06T14:02:10.984Z</time></trkpt><trkpt lat="45.683359925101804" lon="9.90004195970629"><ele>472.0</ele><time>2026-04-06T14:02:11.983Z</time></trkpt><trkpt lat="45.68323977852655" lon="9.900175766229909"><ele>472.0</ele><time>2026-04-06T14:02:12.983Z</time></trkpt><trkpt lat="45.683113975844755" lon="9.900302210451228"><ele>472.0</ele><time>2026-04-06T14:02:13.983Z</time></trkpt><trkpt lat="45.682984168367575" lon="9.900412167992382"><ele>472.0</ele><time>2026-04-06T14:02:14.983Z</time></trkpt><trkpt lat="45.68284420184231" lon="9.90048889391037"><ele>465.5</ele><time>2026-04-06T14:02:15.983Z</time></trkpt><trkpt lat="45.68270391712975" lon="9.900550388471764"><ele>459.0</ele><time>2026-04-06T14:02:16.983Z</time></trkpt><trkpt lat="45.682566489736296" lon="9.900632739058011"><ele>452.5</ele><time>2026-04-06T14:02:17.983Z</time></trkpt><trkpt lat="45.682437090025076" lon="9.900735740930523"><ele>446.0</ele><time>2026-04-06T14:02:18.983Z</time></trkpt><trkpt lat="45.68231065421858" lon="9.900851933534833"><ele>444.66666666666663</ele><time>2026-04-06T14:02:19.983Z</time></trkpt><trkpt lat="45.682178816347744" lon="9.900962172346363"><ele>443.33333333333337</ele><time>2026-04-06T14:02:20.983Z</time></trkpt><trkpt lat="45.68204353621705" lon="9.901067851381324"><ele>442.0</ele><time>2026-04-06T14:02:21.983Z</time></trkpt><trkpt lat="45.68190653098676" lon="9.901166073420606"><ele>442.0</ele><time>2026-04-06T14:02:22.983Z</time></trkpt><trkpt lat="45.68177045341301" lon="9.901260956296355"><ele>442.0</ele><time>2026-04-06T14:02:23.983Z</time></trkpt><trkpt lat="45.68163067911792" lon="9.901350620704566"><ele>442.0</ele><time>2026-04-06T14:02:24.983Z</time></trkpt><trkpt lat="45.68149571294981" lon="9.901449065095026"><ele>442.0</ele><time>2026-04-06T14:02:25.983Z</time></trkpt><trkpt lat="45.681362187178436" lon="9.901550633768581"><ele>442.0</ele><time>2026-04-06T14:02:26.983Z</time></trkpt><trkpt lat="45.681229328143246" lon="9.901647524046405"><ele>442.0</ele><time>2026-04-06T14:02:27.983Z</time></trkpt><trkpt lat="45.681098115709084" lon="9.901738781471481"><ele>442.0</ele><time>2026-04-06T14:02:28.983Z</time></trkpt><trkpt lat="45.68096383952244" lon="9.901822650163846"><ele>442.25</ele><time>2026-04-06T14:02:29.983Z</time></trkpt><trkpt lat="45.68083385546651" lon="9.901905479102533"><ele>442.5</ele><time>2026-04-06T14:02:30.983Z</time></trkpt><trkpt lat="45.68070938301738" lon="9.901991687387492"><ele>442.75</ele><time>2026-04-06T14:02:31.983Z</time></trkpt><trkpt lat="45.680589092351106" lon="9.902055122080979"><ele>443.0</ele><time>2026-04-06T14:02:32.983Z</time></trkpt><trkpt lat="45.68051450452603" lon="9.902084339209237"><ele>443.0</ele><time>2026-04-06T14:02:33.983Z</time></trkpt><trkpt lat="45.68045962724543" lon="9.901978563392612"><ele>442.99999999999994</ele><time>2026-04-06T14:02:35.983Z</time></trkpt><trkpt lat="45.68049767805848" lon="9.901864379670561"><ele>442.99999999999994</ele><time>2026-04-06T14:02:36.983Z</time></trkpt><trkpt lat="45.68058715032766" lon="9.901773800789927"><ele>443.0</ele><time>2026-04-06T14:02:37.983Z</time></trkpt><trkpt lat="45.680683972431325" lon="9.901674789611336"><ele>443.0</ele><time>2026-04-06T14:02:38.983Z</time></trkpt><trkpt lat="45.68076269276999" lon="9.901565055105419"><ele>436.25</ele><time>2026-04-06T14:02:39.983Z</time></trkpt><trkpt lat="45.68082856339911" lon="9.901423971969232"><ele>429.5</ele><time>2026-04-06T14:02:40.983Z</time></trkpt><trkpt lat="45.680878569002765" lon="9.9012630919053"><ele>422.75</ele><time>2026-04-06T14:02:41.983Z</time></trkpt><trkpt lat="45.68089417245233" lon="9.901072364672276"><ele>416.0</ele><time>2026-04-06T14:02:42.983Z</time></trkpt><trkpt lat="45.680900566715714" lon="9.90089028825828"><ele>413.5</ele><time>2026-04-06T14:02:43.983Z</time></trkpt><trkpt lat="45.68088733674487" lon="9.9007123557041"><ele>411.0</ele><time>2026-04-06T14:02:44.983Z</time></trkpt><trkpt lat="45.680846951957456" lon="9.900548414926234"><ele>408.5</ele><time>2026-04-06T14:02:45.983Z</time></trkpt><trkpt lat="45.68076527479555" lon="9.900389034772031"><ele>406.0</ele><time>2026-04-06T14:02:46.983Z</time></trkpt><trkpt lat="45.68070899697279" lon="9.900291249451344"><ele>406.0</ele><time>2026-04-06T14:02:47.983Z</time></trkpt><trkpt lat="45.68062983174845" lon="9.900240819178437"><ele>406.0</ele><time>2026-04-06T14:02:48.983Z</time></trkpt><trkpt lat="45.68054311047492" lon="9.900168364796128"><ele>406.0</ele><time>2026-04-06T14:02:49.983Z</time></trkpt><trkpt lat="45.68044788528471" lon="9.90008243630259"><ele>406.0</ele><time>2026-04-06T14:02:50.983Z</time></trkpt><trkpt lat="45.680372749595726" lon="9.899968787139567"><ele>406.0</ele><time>2026-04-06T14:02:51.983Z</time></trkpt><trkpt lat="45.68033501937753" lon="9.899784115342586"><ele>405.75</ele><time>2026-04-06T14:02:52.983Z</time></trkpt><trkpt lat="45.68032471988724" lon="9.899546995957728"><ele>405.5</ele><time>2026-04-06T14:02:53.983Z</time></trkpt><trkpt lat="45.68031389170633" lon="9.899346672718899"><ele>405.25</ele><time>2026-04-06T14:02:54.983Z</time></trkpt><trkpt lat="45.68032084035245" lon="9.899169370597807"><ele>405.0</ele><time>2026-04-06T14:02:55.983Z</time></trkpt><trkpt lat="45.68034707965098" lon="9.899034477336738"><ele>402.8</ele><time>2026-04-06T14:02:56.983Z</time></trkpt><trkpt lat="45.68035481050444" lon="9.898932742446451"><ele>400.6</ele><time>2026-04-06T14:02:57.983Z</time></trkpt><trkpt lat="45.68023934703146" lon="9.89889137829543"><ele>398.4</ele><time>2026-04-06T14:02:59.983Z</time></trkpt><trkpt lat="45.68017510502849" lon="9.899001482622992"><ele>396.2</ele><time>2026-04-06T14:03:00.983Z</time></trkpt><trkpt lat="45.68014514920901" lon="9.899180204577274"><ele>394.0</ele><time>2026-04-06T14:03:01.983Z</time></trkpt><trkpt lat="45.680114389052086" lon="9.899366799898557"><ele>391.6</ele><time>2026-04-06T14:03:02.983Z</time></trkpt><trkpt lat="45.68008485533098" lon="9.899540479433078"><ele>389.2</ele><time>2026-04-06T14:03:03.983Z</time></trkpt><trkpt lat="45.680076335390275" lon="9.899671591692455"><ele>386.8</ele><time>2026-04-06T14:03:04.983Z</time></trkpt><trkpt lat="45.68003210329284" lon="9.899781833376508"><ele>384.40000000000003</ele><time>2026-04-06T14:03:06.983Z</time></trkpt><trkpt lat="45.67995675888194" lon="9.899693467255657"><ele>382.0</ele><time>2026-04-06T14:03:07.983Z</time></trkpt><trkpt lat="45.67991862409033" lon="9.899523517076233"><ele>382.0</ele><time>2026-04-06T14:03:08.983Z</time></trkpt><trkpt lat="45.679897974254445" lon="9.899303420699898"><ele>382.0</ele><time>2026-04-06T14:03:09.983Z</time></trkpt><trkpt lat="45.67991161052107" lon="9.899086911191688"><ele>382.0</ele><time>2026-04-06T14:03:10.983Z</time></trkpt><trkpt lat="45.67989374504064" lon="9.898864927793989"><ele>377.3333333333333</ele><time>2026-04-06T14:03:11.983Z</time></trkpt><trkpt lat="45.6798976053993" lon="9.898625323878413"><ele>372.6666666666667</ele><time>2026-04-06T14:03:12.983Z</time></trkpt><trkpt lat="45.679934270140194" lon="9.898399768027163"><ele>368.0</ele><time>2026-04-06T14:03:13.983Z</time></trkpt><trkpt lat="45.679981565358204" lon="9.898173283992513"><ele>369.25</ele><time>2026-04-06T14:03:14.983Z</time></trkpt><trkpt lat="45.68003896911058" lon="9.897982014283114"><ele>370.5</ele><time>2026-04-06T14:03:15.983Z</time></trkpt><trkpt lat="45.68009719526461" lon="9.897810138654918"><ele>371.75</ele><time>2026-04-06T14:03:16.983Z</time></trkpt><trkpt lat="45.68017178191215" lon="9.897648602591227"><ele>373.0</ele><time>2026-04-06T14:03:17.983Z</time></trkpt><trkpt lat="45.680274439047096" lon="9.897524222716703"><ele>373.0</ele><time>2026-04-06T14:03:18.983Z</time></trkpt><trkpt lat="45.680331542648986" lon="9.897390994428978"><ele>373.0</ele><time>2026-04-06T14:03:19.983Z</time></trkpt><trkpt lat="45.680332907020876" lon="9.897239301275448"><ele>373.0</ele><time>2026-04-06T14:03:20.983Z</time></trkpt><trkpt lat="45.68028664049797" lon="9.897042027286085"><ele>373.0</ele><time>2026-04-06T14:03:21.983Z</time></trkpt><trkpt lat="45.68022719060057" lon="9.896825450791924"><ele>359.66666666666663</ele><time>2026-04-06T14:03:22.983Z</time></trkpt><trkpt lat="45.68016575824844" lon="9.89657226378617"><ele>346.3333333333333</ele><time>2026-04-06T14:03:23.983Z</time></trkpt><trkpt lat="45.68009718871491" lon="9.89628878295475"><ele>333.0</ele><time>2026-04-06T14:03:24.983Z</time></trkpt><trkpt lat="45.68003151421069" lon="9.895994542173089"><ele>331.3333333333333</ele><time>2026-04-06T14:03:25.983Z</time></trkpt><trkpt lat="45.67997973337163" lon="9.89571684304639"><ele>329.66666666666663</ele><time>2026-04-06T14:03:26.983Z</time></trkpt><trkpt lat="45.679936348275845" lon="9.8954536062568"><ele>328.0</ele><time>2026-04-06T14:03:27.983Z</time></trkpt><trkpt lat="45.67991138506218" lon="9.895203403005109"><ele>327.66666666666663</ele><time>2026-04-06T14:03:28.983Z</time></trkpt><trkpt lat="45.67990238585774" lon="9.89495779098748"><ele>327.3333333333333</ele><time>2026-04-06T14:03:29.983Z</time></trkpt><trkpt lat="45.6799266705807" lon="9.894720162223567"><ele>327.0</ele><time>2026-04-06T14:03:30.983Z</time></trkpt><trkpt lat="45.679935541136885" lon="9.894489082440563"><ele>326.3333333333333</ele><time>2026-04-06T14:03:31.983Z</time></trkpt><trkpt lat="45.679908562133335" lon="9.894245899528267"><ele>325.66666666666663</ele><time>2026-04-06T14:03:32.983Z</time></trkpt><trkpt lat="45.679871177065394" lon="9.893990576975597"><ele>325.0</ele><time>2026-04-06T14:03:33.983Z</time></trkpt><trkpt lat="45.67985611181501" lon="9.893755194663528"><ele>325.0</ele><time>2026-04-06T14:03:34.983Z</time></trkpt><trkpt lat="45.679826816527125" lon="9.893529958733177"><ele>325.0</ele><time>2026-04-06T14:03:35.983Z</time></trkpt><trkpt lat="45.67978453090277" lon="9.893299498524494"><ele>325.0</ele><time>2026-04-06T14:03:36.983Z</time></trkpt><trkpt lat="45.679741147063915" lon="9.893080392895996"><ele>325.0</ele><time>2026-04-06T14:03:37.983Z</time></trkpt><trkpt lat="45.67973839678448" lon="9.892866107050832"><ele>325.0</ele><time>2026-04-06T14:03:38.983Z</time></trkpt><trkpt lat="45.679774761279184" lon="9.89262668412417"><ele>325.0</ele><time>2026-04-06T14:03:39.983Z</time></trkpt><trkpt lat="45.67983598465891" lon="9.892357579454472"><ele>323.0</ele><time>2026-04-06T14:03:40.983Z</time></trkpt><trkpt lat="45.679870994465574" lon="9.892086238507758"><ele>321.0</ele><time>2026-04-06T14:03:41.983Z</time></trkpt><trkpt lat="45.67987494009515" lon="9.891779916089947"><ele>319.0</ele><time>2026-04-06T14:03:42.983Z</time></trkpt><trkpt lat="45.6798825543256" lon="9.891464600353617"><ele>316.3333333333333</ele><time>2026-04-06T14:03:43.983Z</time></trkpt><trkpt lat="45.679907120018555" lon="9.891187454662049"><ele>313.6666666666667</ele><time>2026-04-06T14:03:44.983Z</time></trkpt><trkpt lat="45.679946969656335" lon="9.89094556479973"><ele>311.0</ele><time>2026-04-06T14:03:45.983Z</time></trkpt><trkpt lat="45.67999124976018" lon="9.890732468406481"><ele>309.0</ele><time>2026-04-06T14:03:46.983Z</time></trkpt><trkpt lat="45.680005069097135" lon="9.89052492350908"><ele>307.0</ele><time>2026-04-06T14:03:47.983Z</time></trkpt><trkpt lat="45.679994309112324" lon="9.890306056991792"><ele>305.0</ele><time>2026-04-06T14:03:48.983Z</time></trkpt><trkpt lat="45.679977657204354" lon="9.890071648632349"><ele>304.0</ele><time>2026-04-06T14:03:49.983Z</time></trkpt><trkpt lat="45.6799645921025" lon="9.889797868940088"><ele>303.0</ele><time>2026-04-06T14:03:50.983Z</time></trkpt><trkpt lat="45.67992971499418" lon="9.889509691583932"><ele>302.0</ele><time>2026-04-06T14:03:51.983Z</time></trkpt><trkpt lat="45.67989652630441" lon="9.88922928567083"><ele>300.6666666666667</ele><time>2026-04-06T14:03:52.983Z</time></trkpt><trkpt lat="45.679868023492105" lon="9.88896703117793"><ele>299.3333333333333</ele><time>2026-04-06T14:03:53.983Z</time></trkpt><trkpt lat="45.67984261192728" lon="9.88872904426853"><ele>298.0</ele><time>2026-04-06T14:03:54.983Z</time></trkpt><trkpt lat="45.67981971347688" lon="9.88850849936075"><ele>298.5</ele><time>2026-04-06T14:03:55.983Z</time></trkpt><trkpt lat="45.679799129186236" lon="9.888306726949894"><ele>299.0</ele><time>2026-04-06T14:03:56.983Z</time></trkpt><trkpt lat="45.679784928124285" lon="9.8881136908212"><ele>299.5</ele><time>2026-04-06T14:03:57.983Z</time></trkpt><trkpt lat="45.67976936423588" lon="9.88790414833206"><ele>300.0</ele><time>2026-04-06T14:03:58.983Z</time></trkpt><trkpt lat="45.67976964650059" lon="9.887663357348957"><ele>299.0</ele><time>2026-04-06T14:03:59.983Z</time></trkpt><trkpt lat="45.679774500749055" lon="9.887425989033085"><ele>298.0</ele><time>2026-04-06T14:04:00.983Z</time></trkpt><trkpt lat="45.679785345922376" lon="9.887191840860595"><ele>297.0</ele><time>2026-04-06T14:04:01.983Z</time></trkpt><trkpt lat="45.67979470469962" lon="9.886944154480362"><ele>296.6666666666667</ele><time>2026-04-06T14:04:02.983Z</time></trkpt><trkpt lat="45.67980819810768" lon="9.886704488818488"><ele>296.33333333333337</ele><time>2026-04-06T14:04:03.983Z</time></trkpt><trkpt lat="45.67981200096173" lon="9.886438372265822"><ele>296.0</ele><time>2026-04-06T14:04:04.983Z</time></trkpt><trkpt lat="45.679817903443286" lon="9.88617120172192"><ele>294.33333333333337</ele><time>2026-04-06T14:04:05.982Z</time></trkpt><trkpt lat="45.67981726154463" lon="9.885891486645694"><ele>292.6666666666667</ele><time>2026-04-06T14:04:06.982Z</time></trkpt><trkpt lat="45.67981975442327" lon="9.885627303657671"><ele>291.0</ele><time>2026-04-06T14:04:07.983Z</time></trkpt><trkpt lat="45.6798344746856" lon="9.88536404301698"><ele>291.0</ele><time>2026-04-06T14:04:08.982Z</time></trkpt><trkpt lat="45.679879845195664" lon="9.885108924900136"><ele>291.0</ele><time>2026-04-06T14:04:09.982Z</time></trkpt><trkpt lat="45.67995498507063" lon="9.884864934117925"><ele>291.0</ele><time>2026-04-06T14:04:10.983Z</time></trkpt><trkpt lat="45.68004856639355" lon="9.884623187237905"><ele>289.0</ele><time>2026-04-06T14:04:11.983Z</time></trkpt><trkpt lat="45.680133203313986" lon="9.884401355278625"><ele>287.0</ele><time>2026-04-06T14:04:12.983Z</time></trkpt><trkpt lat="45.68019327786855" lon="9.884160918148075"><ele>285.0</ele><time>2026-04-06T14:04:13.983Z</time></trkpt><trkpt lat="45.68022231248776" lon="9.883897098304182"><ele>285.0</ele><time>2026-04-06T14:04:14.982Z</time></trkpt><trkpt lat="45.680236363298214" lon="9.883617628044526"><ele>285.0</ele><time>2026-04-06T14:04:15.982Z</time></trkpt><trkpt lat="45.68025142296066" lon="9.88332374851206"><ele>285.0</ele><time>2026-04-06T14:04:16.983Z</time></trkpt><trkpt lat="45.68026350398235" lon="9.88301817610852"><ele>290.0</ele><time>2026-04-06T14:04:17.982Z</time></trkpt><trkpt lat="45.680285193087656" lon="9.88270975846641"><ele>295.0</ele><time>2026-04-06T14:04:18.982Z</time></trkpt><trkpt lat="45.68031093147383" lon="9.882404166501372"><ele>300.0</ele><time>2026-04-06T14:04:19.982Z</time></trkpt><trkpt lat="45.6803428265018" lon="9.882081520386128"><ele>297.5</ele><time>2026-04-06T14:04:20.982Z</time></trkpt><trkpt lat="45.68037669024338" lon="9.881761017013375"><ele>295.0</ele><time>2026-04-06T14:04:21.982Z</time></trkpt><trkpt lat="45.68041214342093" lon="9.881442039623554"><ele>295.0</ele><time>2026-04-06T14:04:22.982Z</time></trkpt><trkpt lat="45.68044195175067" lon="9.881119103182975"><ele>295.0</ele><time>2026-04-06T14:04:23.982Z</time></trkpt><trkpt lat="45.68046528896968" lon="9.880801353199622"><ele>294.0</ele><time>2026-04-06T14:04:24.982Z</time></trkpt><trkpt lat="45.68049014095977" lon="9.880504201942761"><ele>293.0</ele><time>2026-04-06T14:04:25.982Z</time></trkpt><trkpt lat="45.6805094416425" lon="9.880239382868835"><ele>292.0</ele><time>2026-04-06T14:04:26.982Z</time></trkpt><trkpt lat="45.68052738150979" lon="9.879991456726508"><ele>290.66666666666663</ele><time>2026-04-06T14:04:27.982Z</time></trkpt><trkpt lat="45.680533374045034" lon="9.879738417924022"><ele>289.3333333333333</ele><time>2026-04-06T14:04:28.982Z</time></trkpt><trkpt lat="45.68056455487619" lon="9.879488655111412"><ele>288.0</ele><time>2026-04-06T14:04:29.982Z</time></trkpt><trkpt lat="45.68061432675697" lon="9.87923342950999"><ele>287.6666666666667</ele><time>2026-04-06T14:04:30.982Z</time></trkpt><trkpt lat="45.68067377453116" lon="9.878987989933988"><ele>287.33333333333337</ele><time>2026-04-06T14:04:31.982Z</time></trkpt><trkpt lat="45.680715834052776" lon="9.878743974103584"><ele>287.0</ele><time>2026-04-06T14:04:32.982Z</time></trkpt><trkpt lat="45.680742504207345" lon="9.878495071458172"><ele>287.6666666666667</ele><time>2026-04-06T14:04:33.982Z</time></trkpt><trkpt lat="45.68076893263614" lon="9.878265305247243"><ele>288.3333333333333</ele><time>2026-04-06T14:04:34.982Z</time></trkpt><trkpt lat="45.68079570278089" lon="9.878063431009343"><ele>289.0</ele><time>2026-04-06T14:04:35.982Z</time></trkpt><trkpt lat="45.68081449823931" lon="9.877853161010911"><ele>289.0</ele><time>2026-04-06T14:04:36.982Z</time></trkpt><trkpt lat="45.680847207029316" lon="9.877641917627214"><ele>289.0</ele><time>2026-04-06T14:04:37.982Z</time></trkpt><trkpt lat="45.68087749379011" lon="9.87743786711695"><ele>289.0</ele><time>2026-04-06T14:04:38.982Z</time></trkpt><trkpt lat="45.680909136125706" lon="9.877245806307382"><ele>289.0</ele><time>2026-04-06T14:04:39.982Z</time></trkpt><trkpt lat="45.680938268145496" lon="9.87707492669992"><ele>288.75</ele><time>2026-04-06T14:04:40.982Z</time></trkpt><trkpt lat="45.68095250534989" lon="9.876961930900109"><ele>288.5</ele><time>2026-04-06T14:04:41.982Z</time></trkpt><trkpt lat="45.680849907367254" lon="9.876833656814535"><ele>288.25</ele><time>2026-04-06T14:04:43.982Z</time></trkpt><trkpt lat="45.68071238724489" lon="9.87678184578177"><ele>288.0</ele><time>2026-04-06T14:04:44.982Z</time></trkpt><trkpt lat="45.68054842779933" lon="9.876692685194485"><ele>287.5</ele><time>2026-04-06T14:04:45.982Z</time></trkpt><trkpt lat="45.68031971845152" lon="9.87657406627802"><ele>287.0</ele><time>2026-04-06T14:04:46.982Z</time></trkpt><trkpt lat="45.68004594066561" lon="9.876425197525636"><ele>283.5</ele><time>2026-04-06T14:04:47.982Z</time></trkpt><trkpt lat="45.67976593866326" lon="9.87625992187342"><ele>280.0</ele><time>2026-04-06T14:04:48.983Z</time></trkpt><trkpt lat="45.679528298990896" lon="9.87610824200328"><ele>278.3333333333333</ele><time>2026-04-06T14:04:49.983Z</time></trkpt><trkpt lat="45.679352998522134" lon="9.875970937682306"><ele>276.6666666666667</ele><time>2026-04-06T14:04:50.983Z</time></trkpt><trkpt lat="45.6792389633601" lon="9.875838496955376"><ele>275.0</ele><time>2026-04-06T14:04:51.983Z</time></trkpt><trkpt lat="45.6791683209933" lon="9.87570093226355"><ele>274.33333333333337</ele><time>2026-04-06T14:04:52.983Z</time></trkpt><trkpt lat="45.67915905710413" lon="9.875528999751811"><ele>273.6666666666667</ele><time>2026-04-06T14:04:53.983Z</time></trkpt><trkpt lat="45.67918220186379" lon="9.87531143326908"><ele>273.0</ele><time>2026-04-06T14:04:54.983Z</time></trkpt><trkpt lat="45.67923145681145" lon="9.875014144112898"><ele>273.0</ele><time>2026-04-06T14:04:55.983Z</time></trkpt><trkpt lat="45.67931046507045" lon="9.874645250664095"><ele>273.0</ele><time>2026-04-06T14:04:56.983Z</time></trkpt><trkpt lat="45.67936595258131" lon="9.874242871200616"><ele>272.5</ele><time>2026-04-06T14:04:57.983Z</time></trkpt><trkpt lat="45.67941805500484" lon="9.873837086368376"><ele>272.0</ele><time>2026-04-06T14:04:58.983Z</time></trkpt><trkpt lat="45.679472495214064" lon="9.873415582931028"><ele>272.0</ele><time>2026-04-06T14:04:59.983Z</time></trkpt><trkpt lat="45.679544937910386" lon="9.872928980412704"><ele>272.0</ele><time>2026-04-06T14:05:00.983Z</time></trkpt><trkpt lat="45.67961855359152" lon="9.872447659104708"><ele>272.0</ele><time>2026-04-06T14:05:01.983Z</time></trkpt><trkpt lat="45.6796866238562" lon="9.87202357248606"><ele>272.0</ele><time>2026-04-06T14:05:02.983Z</time></trkpt><trkpt lat="45.67975019566242" lon="9.871639380044762"><ele>271.0</ele><time>2026-04-06T14:05:03.983Z</time></trkpt><trkpt lat="45.679820136836014" lon="9.871274166214839"><ele>270.0</ele><time>2026-04-06T14:05:04.983Z</time></trkpt><trkpt lat="45.67990522096019" lon="9.870914459852994"><ele>269.0</ele><time>2026-04-06T14:05:05.983Z</time></trkpt><trkpt lat="45.6800084074293" lon="9.870564197493875"><ele>268.0</ele><time>2026-04-06T14:05:06.983Z</time></trkpt><trkpt lat="45.680133296026476" lon="9.870215439178512"><ele>267.0</ele><time>2026-04-06T14:05:07.983Z</time></trkpt><trkpt lat="45.68027277441012" lon="9.86989342099546"><ele>266.0</ele><time>2026-04-06T14:05:08.983Z</time></trkpt><trkpt lat="45.68042732469751" lon="9.869592544466178"><ele>266.0</ele><time>2026-04-06T14:05:09.983Z</time></trkpt><trkpt lat="45.68060459271921" lon="9.869306752085135"><ele>266.0</ele><time>2026-04-06T14:05:10.983Z</time></trkpt><trkpt lat="45.68080273462211" lon="9.869030220114759"><ele>265.5</ele><time>2026-04-06T14:05:11.983Z</time></trkpt><trkpt lat="45.681020614923725" lon="9.868766871551465"><ele>265.0</ele><time>2026-04-06T14:05:12.983Z</time></trkpt><trkpt lat="45.6812424169162" lon="9.868541657530665"><ele>263.0</ele><time>2026-04-06T14:05:13.983Z</time></trkpt><trkpt lat="45.681478548949165" lon="9.868354524738042"><ele>261.0</ele><time>2026-04-06T14:05:14.983Z</time></trkpt><trkpt lat="45.68172171578003" lon="9.868180183090642"><ele>262.5</ele><time>2026-04-06T14:05:15.983Z</time></trkpt><trkpt lat="45.681968646906284" lon="9.868008184485841"><ele>264.0</ele><time>2026-04-06T14:05:16.983Z</time></trkpt><trkpt lat="45.6822178763978" lon="9.86783001533594"><ele>264.0</ele><time>2026-04-06T14:05:17.983Z</time></trkpt><trkpt lat="45.682472458771926" lon="9.867626063756937"><ele>264.0</ele><time>2026-04-06T14:05:18.983Z</time></trkpt><trkpt lat="45.68271396712" lon="9.867400614589577"><ele>264.0</ele><time>2026-04-06T14:05:19.983Z</time></trkpt><trkpt lat="45.68294220693568" lon="9.867153635950723"><ele>264.0</ele><time>2026-04-06T14:05:20.983Z</time></trkpt><trkpt lat="45.683156494520404" lon="9.866883440997844"><ele>263.0</ele><time>2026-04-06T14:05:21.983Z</time></trkpt><trkpt lat="45.68334593692817" lon="9.866592212452312"><ele>262.0</ele><time>2026-04-06T14:05:22.983Z</time></trkpt><trkpt lat="45.68352343630212" lon="9.866281424081379"><ele>264.0</ele><time>2026-04-06T14:05:23.983Z</time></trkpt><trkpt lat="45.6836950420536" lon="9.86595138899409"><ele>266.0</ele><time>2026-04-06T14:05:24.983Z</time></trkpt><trkpt lat="45.6838474563926" lon="9.865610361711797"><ele>266.0</ele><time>2026-04-06T14:05:25.983Z</time></trkpt><trkpt lat="45.683972329245584" lon="9.865249818465204"><ele>266.0</ele><time>2026-04-06T14:05:26.983Z</time></trkpt><trkpt lat="45.68407324506205" lon="9.864868354392524"><ele>266.0</ele><time>2026-04-06T14:05:27.983Z</time></trkpt><trkpt lat="45.684171251418284" lon="9.864480220720674"><ele>266.0</ele><time>2026-04-06T14:05:28.983Z</time></trkpt><trkpt lat="45.68427651102077" lon="9.864096848474146"><ele>266.0</ele><time>2026-04-06T14:05:29.983Z</time></trkpt><trkpt lat="45.6843753465815" lon="9.863745525902"><ele>266.0</ele><time>2026-04-06T14:05:30.983Z</time></trkpt><trkpt lat="45.68446636416095" lon="9.863432092363858"><ele>267.0</ele><time>2026-04-06T14:05:31.983Z</time></trkpt><trkpt lat="45.68455039538407" lon="9.863155245735157"><ele>268.0</ele><time>2026-04-06T14:05:32.983Z</time></trkpt><trkpt lat="45.68461357651634" lon="9.86287692952247"><ele>269.0</ele><time>2026-04-06T14:05:33.983Z</time></trkpt><trkpt lat="45.684658780153626" lon="9.862570807564186"><ele>269.0</ele><time>2026-04-06T14:05:34.983Z</time></trkpt><trkpt lat="45.68470250899696" lon="9.862243748187039"><ele>269.0</ele><time>2026-04-06T14:05:35.983Z</time></trkpt><trkpt lat="45.68475886594292" lon="9.861920386873788"><ele>268.33333333333337</ele><time>2026-04-06T14:05:36.983Z</time></trkpt><trkpt lat="45.68481381885126" lon="9.861620697210169"><ele>267.6666666666667</ele><time>2026-04-06T14:05:37.983Z</time></trkpt><trkpt lat="45.68490648848231" lon="9.861330725369815"><ele>267.0</ele><time>2026-04-06T14:05:38.983Z</time></trkpt><trkpt lat="45.6850142382572" lon="9.86104342641594"><ele>267.0</ele><time>2026-04-06T14:05:39.983Z</time></trkpt><trkpt lat="45.68514372319254" lon="9.860750495061243"><ele>267.0</ele><time>2026-04-06T14:05:40.983Z</time></trkpt><trkpt lat="45.685273951657834" lon="9.86044786040857"><ele>267.0</ele><time>2026-04-06T14:05:41.983Z</time></trkpt><trkpt lat="45.68541831022921" lon="9.860134578971936"><ele>267.0</ele><time>2026-04-06T14:05:42.983Z</time></trkpt><trkpt lat="45.68555993160053" lon="9.85982068076083"><ele>267.5</ele><time>2026-04-06T14:05:43.983Z</time></trkpt><trkpt lat="45.68571836044449" lon="9.859512174907575"><ele>268.0</ele><time>2026-04-06T14:05:44.983Z</time></trkpt><trkpt lat="45.68586262575719" lon="9.859195312931982"><ele>268.0</ele><time>2026-04-06T14:05:45.983Z</time></trkpt><trkpt lat="45.68597188561889" lon="9.8588746818634"><ele>268.0</ele><time>2026-04-06T14:05:46.983Z</time></trkpt><trkpt lat="45.68608629296519" lon="9.85859874763314"><ele>268.66666666666663</ele><time>2026-04-06T14:05:47.983Z</time></trkpt><trkpt lat="45.686189539558164" lon="9.85833345924335"><ele>269.3333333333333</ele><time>2026-04-06T14:05:48.983Z</time></trkpt><trkpt lat="45.6862842254612" lon="9.85808456170153"><ele>270.0</ele><time>2026-04-06T14:05:49.983Z</time></trkpt><trkpt lat="45.6863677753129" lon="9.85784553444417"><ele>270.0</ele><time>2026-04-06T14:05:50.983Z</time></trkpt><trkpt lat="45.68643276985664" lon="9.857620334181695"><ele>270.0</ele><time>2026-04-06T14:05:51.983Z</time></trkpt><trkpt lat="45.68652436381439" lon="9.857420344539333"><ele>270.0</ele><time>2026-04-06T14:05:52.983Z</time></trkpt><trkpt lat="45.686621839351666" lon="9.857210248618726"><ele>269.6666666666667</ele><time>2026-04-06T14:05:53.983Z</time></trkpt><trkpt lat="45.686742618141565" lon="9.857008310729183"><ele>269.33333333333337</ele><time>2026-04-06T14:05:54.983Z</time></trkpt><trkpt lat="45.68685674759504" lon="9.856791091516598"><ele>269.0</ele><time>2026-04-06T14:05:55.983Z</time></trkpt><trkpt lat="45.68699571991003" lon="9.856588390649636"><ele>269.6666666666667</ele><time>2026-04-06T14:05:56.983Z</time></trkpt><trkpt lat="45.68713511081885" lon="9.856379514807863"><ele>270.3333333333333</ele><time>2026-04-06T14:05:57.983Z</time></trkpt><trkpt lat="45.68726630769599" lon="9.856158290309068"><ele>271.0</ele><time>2026-04-06T14:05:58.983Z</time></trkpt><trkpt lat="45.68739734612746" lon="9.855927959790275"><ele>271.0</ele><time>2026-04-06T14:05:59.983Z</time></trkpt><trkpt lat="45.68754980652893" lon="9.85572062643083"><ele>271.0</ele><time>2026-04-06T14:06:00.983Z</time></trkpt><trkpt lat="45.687648425356656" lon="9.855507549248358"><ele>271.0</ele><time>2026-04-06T14:06:01.983Z</time></trkpt><trkpt lat="45.68771872938879" lon="9.855280130809351"><ele>270.66666666666663</ele><time>2026-04-06T14:06:02.983Z</time></trkpt><trkpt lat="45.68776929408213" lon="9.855048172255138"><ele>270.3333333333333</ele><time>2026-04-06T14:06:03.983Z</time></trkpt><trkpt lat="45.687813078414536" lon="9.854793024617456"><ele>270.0</ele><time>2026-04-06T14:06:04.983Z</time></trkpt><trkpt lat="45.68784983454729" lon="9.854534969390235"><ele>270.0</ele><time>2026-04-06T14:06:05.983Z</time></trkpt><trkpt lat="45.687890622198886" lon="9.854290939516654"><ele>270.0</ele><time>2026-04-06T14:06:06.983Z</time></trkpt><trkpt lat="45.68794210033698" lon="9.854060817347866"><ele>270.0</ele><time>2026-04-06T14:06:07.983Z</time></trkpt><trkpt lat="45.68799698377422" lon="9.853831116639375"><ele>270.3333333333333</ele><time>2026-04-06T14:06:08.983Z</time></trkpt><trkpt lat="45.68805947126935" lon="9.853611785225349"><ele>270.66666666666663</ele><time>2026-04-06T14:06:09.983Z</time></trkpt><trkpt lat="45.6881209832787" lon="9.853395694418461"><ele>271.0</ele><time>2026-04-06T14:06:10.982Z</time></trkpt><trkpt lat="45.68818794261757" lon="9.853206281079162"><ele>270.5</ele><time>2026-04-06T14:06:11.982Z</time></trkpt><trkpt lat="45.68825018399178" lon="9.85301187912589"><ele>270.0</ele><time>2026-04-06T14:06:12.982Z</time></trkpt><trkpt lat="45.68830819045758" lon="9.8528417194274"><ele>269.5</ele><time>2026-04-06T14:06:13.982Z</time></trkpt><trkpt lat="45.68835986977968" lon="9.852675633791314"><ele>269.0</ele><time>2026-04-06T14:06:14.982Z</time></trkpt><trkpt lat="45.68842719632725" lon="9.852540374255668"><ele>269.0</ele><time>2026-04-06T14:06:15.982Z</time></trkpt><trkpt lat="45.688494583515954" lon="9.852434289993708"><ele>269.0</ele><time>2026-04-06T14:06:16.983Z</time></trkpt><trkpt lat="45.6885699876832" lon="9.8523197704365"><ele>269.0</ele><time>2026-04-06T14:06:17.982Z</time></trkpt><trkpt lat="45.68867580859034" lon="9.85223045489145"><ele>269.0</ele><time>2026-04-06T14:06:18.982Z</time></trkpt><trkpt lat="45.68878368504844" lon="9.852129357369055"><ele>268.75</ele><time>2026-04-06T14:06:19.982Z</time></trkpt><trkpt lat="45.688893422901444" lon="9.852026412621209"><ele>268.5</ele><time>2026-04-06T14:06:20.982Z</time></trkpt><trkpt lat="45.68901403016156" lon="9.851911813013581"><ele>268.25</ele><time>2026-04-06T14:06:21.982Z</time></trkpt><trkpt lat="45.68914818903782" lon="9.851810794668827"><ele>268.0</ele><time>2026-04-06T14:06:22.983Z</time></trkpt><trkpt lat="45.68927609914613" lon="9.85172707267868"><ele>266.25</ele><time>2026-04-06T14:06:23.982Z</time></trkpt><trkpt lat="45.689398412753576" lon="9.851649803325015"><ele>264.5</ele><time>2026-04-06T14:06:24.982Z</time></trkpt><trkpt lat="45.68950659109108" lon="9.851524537832864"><ele>262.75</ele><time>2026-04-06T14:06:25.982Z</time></trkpt><trkpt lat="45.68961698172162" lon="9.851399389620703"><ele>261.0</ele><time>2026-04-06T14:06:26.982Z</time></trkpt><trkpt lat="45.689701109476424" lon="9.851219619002324"><ele>260.5</ele><time>2026-04-06T14:06:27.982Z</time></trkpt><trkpt lat="45.689777083349924" lon="9.851016743299414"><ele>260.0</ele><time>2026-04-06T14:06:28.982Z</time></trkpt><trkpt lat="45.68986124935438" lon="9.850842809927208"><ele>259.5</ele><time>2026-04-06T14:06:29.982Z</time></trkpt><trkpt lat="45.68993570394001" lon="9.850676907061038"><ele>259.0</ele><time>2026-04-06T14:06:30.982Z</time></trkpt><trkpt lat="45.69000922448951" lon="9.850511203669727"><ele>258.0</ele><time>2026-04-06T14:06:31.982Z</time></trkpt><trkpt lat="45.69008354611279" lon="9.850358692101997"><ele>257.0</ele><time>2026-04-06T14:06:32.982Z</time></trkpt><trkpt lat="45.69015502051028" lon="9.850205694869194"><ele>256.0</ele><time>2026-04-06T14:06:33.982Z</time></trkpt><trkpt lat="45.690218841157865" lon="9.850055168212947"><ele>255.0</ele><time>2026-04-06T14:06:34.982Z</time></trkpt><trkpt lat="45.69026496716317" lon="9.849908195638418"><ele>254.0</ele><time>2026-04-06T14:06:35.982Z</time></trkpt><trkpt lat="45.69029356783375" lon="9.849763163513707"><ele>253.0</ele><time>2026-04-06T14:06:36.982Z</time></trkpt><trkpt lat="45.69031430984979" lon="9.849617029462822"><ele>252.0</ele><time>2026-04-06T14:06:37.982Z</time></trkpt><trkpt lat="45.69033538340296" lon="9.849487558395285"><ele>251.0</ele><time>2026-04-06T14:06:38.982Z</time></trkpt><trkpt lat="45.69035674144751" lon="9.849365734379186"><ele>250.0</ele><time>2026-04-06T14:06:39.982Z</time></trkpt><trkpt lat="45.690394038013515" lon="9.84925588758085"><ele>249.99999999999997</ele><time>2026-04-06T14:06:40.982Z</time></trkpt><trkpt lat="45.69041564537188" lon="9.849150627719355"><ele>250.0</ele><time>2026-04-06T14:06:41.982Z</time></trkpt><trkpt lat="45.69043066661278" lon="9.849016688349536"><ele>250.0</ele><time>2026-04-06T14:06:43.982Z</time></trkpt><trkpt lat="45.69046161390516" lon="9.848905445910226"><ele>250.0</ele><time>2026-04-06T14:06:54.982Z</time></trkpt><trkpt lat="45.690479684148826" lon="9.848805956158575"><ele>249.99999999999997</ele><time>2026-04-06T14:06:55.982Z</time></trkpt><trkpt lat="45.690482119289555" lon="9.848709850234759"><ele>250.0</ele><time>2026-04-06T14:06:56.982Z</time></trkpt><trkpt lat="45.69024434677567" lon="9.848553638413108"><ele>249.33333333333331</ele><time>2026-04-06T14:06:57.982Z</time></trkpt><trkpt lat="45.69010805155619" lon="9.84844744023826"><ele>248.66666666666669</ele><time>2026-04-06T14:06:58.982Z</time></trkpt><trkpt lat="45.68995882151909" lon="9.848323998475834"><ele>248.0</ele><time>2026-04-06T14:06:59.982Z</time></trkpt><trkpt lat="45.6898147423784" lon="9.848167742647437"><ele>248.0</ele><time>2026-04-06T14:07:00.982Z</time></trkpt><trkpt lat="45.689679089347024" lon="9.847948565164154"><ele>248.0</ele><time>2026-04-06T14:07:01.982Z</time></trkpt><trkpt lat="45.68955326947555" lon="9.847652296560751"><ele>248.0</ele><time>2026-04-06T14:07:02.982Z</time></trkpt><trkpt lat="45.68940595645781" lon="9.847357679726528"><ele>248.0</ele><time>2026-04-06T14:07:03.982Z</time></trkpt><trkpt lat="45.689279270342986" lon="9.847040361591059"><ele>248.0</ele><time>2026-04-06T14:07:04.982Z</time></trkpt><trkpt lat="45.68914489780359" lon="9.846724211358604"><ele>248.5</ele><time>2026-04-06T14:07:05.982Z</time></trkpt><trkpt lat="45.68901248832915" lon="9.84643646370247"><ele>249.0</ele><time>2026-04-06T14:07:06.982Z</time></trkpt><trkpt lat="45.68888713215792" lon="9.846159360783169"><ele>249.66666666666669</ele><time>2026-04-06T14:07:07.982Z</time></trkpt><trkpt lat="45.68876572953348" lon="9.845893701182096"><ele>250.33333333333334</ele><time>2026-04-06T14:07:08.982Z</time></trkpt><trkpt lat="45.68865284178138" lon="9.84563935946379"><ele>251.0</ele><time>2026-04-06T14:07:09.982Z</time></trkpt><trkpt lat="45.68855577797453" lon="9.845415693963268"><ele>250.0</ele><time>2026-04-06T14:07:10.982Z</time></trkpt><trkpt lat="45.68846743294595" lon="9.84520863849123"><ele>249.0</ele><time>2026-04-06T14:07:11.982Z</time></trkpt><trkpt lat="45.688391901867526" lon="9.84501477631632"><ele>248.0</ele><time>2026-04-06T14:07:12.982Z</time></trkpt><trkpt lat="45.68832022237854" lon="9.844829785812427"><ele>248.0</ele><time>2026-04-06T14:07:13.982Z</time></trkpt><trkpt lat="45.68824428971639" lon="9.844658489912002"><ele>248.0</ele><time>2026-04-06T14:07:14.982Z</time></trkpt><trkpt lat="45.688161852046036" lon="9.844494530739121"><ele>248.0</ele><time>2026-04-06T14:07:15.982Z</time></trkpt><trkpt lat="45.68806189203128" lon="9.844332710197035"><ele>248.0</ele><time>2026-04-06T14:07:16.982Z</time></trkpt><trkpt lat="45.687960990853185" lon="9.844175588733338"><ele>248.0</ele><time>2026-04-06T14:07:17.982Z</time></trkpt><trkpt lat="45.687850985760285" lon="9.844022446685534"><ele>248.0</ele><time>2026-04-06T14:07:18.982Z</time></trkpt><trkpt lat="45.6877462453423" lon="9.843876095435215"><ele>248.0</ele><time>2026-04-06T14:07:19.982Z</time></trkpt><trkpt lat="45.68764601918185" lon="9.843725721149381"><ele>248.0</ele><time>2026-04-06T14:07:20.982Z</time></trkpt><trkpt lat="45.68756598336402" lon="9.843538605178809"><ele>248.66666666666669</ele><time>2026-04-06T14:07:21.982Z</time></trkpt><trkpt lat="45.68746454706036" lon="9.843367089239354"><ele>249.33333333333331</ele><time>2026-04-06T14:07:22.982Z</time></trkpt><trkpt lat="45.68736361947537" lon="9.843198236303984"><ele>250.0</ele><time>2026-04-06T14:07:23.982Z</time></trkpt><trkpt lat="45.68725712821223" lon="9.84303093706997"><ele>250.0</ele><time>2026-04-06T14:07:24.982Z</time></trkpt><trkpt lat="45.68715291081834" lon="9.842857093711098"><ele>250.0</ele><time>2026-04-06T14:07:25.982Z</time></trkpt><trkpt lat="45.687051410335464" lon="9.842677218023077"><ele>250.0</ele><time>2026-04-06T14:07:26.982Z</time></trkpt><trkpt lat="45.68694718429946" lon="9.842500971186356"><ele>249.66666666666666</ele><time>2026-04-06T14:07:27.982Z</time></trkpt><trkpt lat="45.68684270665644" lon="9.842333504084301"><ele>249.33333333333331</ele><time>2026-04-06T14:07:28.982Z</time></trkpt><trkpt lat="45.686741136999885" lon="9.842165997004036"><ele>249.0</ele><time>2026-04-06T14:07:29.982Z</time></trkpt><trkpt lat="45.686643378956795" lon="9.841992112655667"><ele>249.0</ele><time>2026-04-06T14:07:30.982Z</time></trkpt><trkpt lat="45.686549311639936" lon="9.841821310358862"><ele>249.0</ele><time>2026-04-06T14:07:31.982Z</time></trkpt><trkpt lat="45.68646943139084" lon="9.841649891326737"><ele>249.0</ele><time>2026-04-06T14:07:32.982Z</time></trkpt><trkpt lat="45.686396065243464" lon="9.841471691961543"><ele>249.0</ele><time>2026-04-06T14:07:33.982Z</time></trkpt><trkpt lat="45.68632475017693" lon="9.841296626324459"><ele>249.79999999999998</ele><time>2026-04-06T14:07:34.982Z</time></trkpt><trkpt lat="45.68626139000131" lon="9.84115403066338"><ele>250.59999999999997</ele><time>2026-04-06T14:07:35.982Z</time></trkpt><trkpt lat="45.68621289136014" lon="9.841043170991478"><ele>251.4</ele><time>2026-04-06T14:07:36.982Z</time></trkpt><trkpt lat="45.68618630006196" lon="9.840927772294581"><ele>252.2</ele><time>2026-04-06T14:07:37.982Z</time></trkpt><trkpt lat="45.68614097127785" lon="9.840827005485812"><ele>253.0</ele><time>2026-04-06T14:07:38.982Z</time></trkpt><trkpt lat="45.68610130983508" lon="9.84072657675549"><ele>252.2</ele><time>2026-04-06T14:07:39.982Z</time></trkpt><trkpt lat="45.686063366811254" lon="9.840634386411013"><ele>251.4</ele><time>2026-04-06T14:07:40.982Z</time></trkpt><trkpt lat="45.68602356886184" lon="9.84054118544672"><ele>250.59999999999997</ele><time>2026-04-06T14:07:41.982Z</time></trkpt><trkpt lat="45.68596378803849" lon="9.840419027455315"><ele>249.79999999999998</ele><time>2026-04-06T14:07:42.982Z</time></trkpt><trkpt lat="45.685921305662795" lon="9.840286537599555"><ele>249.0</ele><time>2026-04-06T14:07:43.982Z</time></trkpt><trkpt lat="45.685872563426" lon="9.840159162517674"><ele>249.5</ele><time>2026-04-06T14:07:44.982Z</time></trkpt><trkpt lat="45.68582288430188" lon="9.840042067853597"><ele>250.0</ele><time>2026-04-06T14:07:45.982Z</time></trkpt><trkpt lat="45.68577905899223" lon="9.839948450932898"><ele>250.5</ele><time>2026-04-06T14:07:46.982Z</time></trkpt><trkpt lat="45.6857588739133" lon="9.839852599355101"><ele>251.0</ele><time>2026-04-06T14:07:47.982Z</time></trkpt><trkpt lat="45.68571381433896" lon="9.83974604827647"><ele>251.5</ele><time>2026-04-06T14:07:48.982Z</time></trkpt><trkpt lat="45.68567645142336" lon="9.839650820471443"><ele>252.0</ele><time>2026-04-06T14:07:49.982Z</time></trkpt><trkpt lat="45.68564151160492" lon="9.839569750171421"><ele>252.0</ele><time>2026-04-06T14:07:50.982Z</time></trkpt><trkpt lat="45.685586255684626" lon="9.839437127560954"><ele>252.0</ele><time>2026-04-06T14:07:52.982Z</time></trkpt><trkpt lat="45.68553648046742" lon="9.839319055801766"><ele>252.0</ele><time>2026-04-06T14:07:54.982Z</time></trkpt><trkpt lat="45.68549388297444" lon="9.839222230827495"><ele>252.0</ele><time>2026-04-06T14:07:55.982Z</time></trkpt><trkpt lat="45.68544025377521" lon="9.839076534369271"><ele>252.0</ele><time>2026-04-06T14:07:56.982Z</time></trkpt><trkpt lat="45.68538621539426" lon="9.838929787852885"><ele>252.0</ele><time>2026-04-06T14:07:57.982Z</time></trkpt><trkpt lat="45.68532299036182" lon="9.838791374120358"><ele>252.0</ele><time>2026-04-06T14:07:58.982Z</time></trkpt><trkpt lat="45.685252777214224" lon="9.83862550374358"><ele>252.0</ele><time>2026-04-06T14:07:59.982Z</time></trkpt><trkpt lat="45.68517620853994" lon="9.838442496434531"><ele>252.0</ele><time>2026-04-06T14:08:00.982Z</time></trkpt><trkpt lat="45.68508773346727" lon="9.838246321666004"><ele>250.0</ele><time>2026-04-06T14:08:01.982Z</time></trkpt><trkpt lat="45.684996918155804" lon="9.838039156136942"><ele>248.0</ele><time>2026-04-06T14:08:02.982Z</time></trkpt><trkpt lat="45.68487354751084" lon="9.837843734107242"><ele>246.0</ele><time>2026-04-06T14:08:03.982Z</time></trkpt><trkpt lat="45.68475275238042" lon="9.837665020077166"><ele>246.33333333333331</ele><time>2026-04-06T14:08:04.982Z</time></trkpt><trkpt lat="45.684637463758975" lon="9.83750639836587"><ele>246.66666666666666</ele><time>2026-04-06T14:08:05.982Z</time></trkpt><trkpt lat="45.684515324790006" lon="9.837363877927533"><ele>247.0</ele><time>2026-04-06T14:08:06.982Z</time></trkpt><trkpt lat="45.6843852584761" lon="9.837205902814867"><ele>247.33333333333331</ele><time>2026-04-06T14:08:07.982Z</time></trkpt><trkpt lat="45.68425351648263" lon="9.837032626213084"><ele>247.66666666666669</ele><time>2026-04-06T14:08:08.982Z</time></trkpt><trkpt lat="45.68413249524907" lon="9.836870183265948"><ele>248.0</ele><time>2026-04-06T14:08:09.982Z</time></trkpt><trkpt lat="45.68401536941609" lon="9.836724777544545"><ele>248.25</ele><time>2026-04-06T14:08:10.982Z</time></trkpt><trkpt lat="45.68390306688877" lon="9.836595225826226"><ele>248.5</ele><time>2026-04-06T14:08:11.982Z</time></trkpt><trkpt lat="45.68380755116866" lon="9.836468452603851"><ele>248.75</ele><time>2026-04-06T14:08:12.982Z</time></trkpt><trkpt lat="45.6837269515989" lon="9.836344051094489"><ele>249.0</ele><time>2026-04-06T14:08:13.982Z</time></trkpt><trkpt lat="45.683653460274485" lon="9.836255901490526"><ele>248.6</ele><time>2026-04-06T14:08:14.982Z</time></trkpt><trkpt lat="45.6835666413971" lon="9.83622083180079"><ele>248.2</ele><time>2026-04-06T14:08:15.982Z</time></trkpt><trkpt lat="45.68346642699361" lon="9.836224265736133"><ele>247.79999999999998</ele><time>2026-04-06T14:08:16.982Z</time></trkpt><trkpt lat="45.68336693207253" lon="9.836251478165574"><ele>247.39999999999998</ele><time>2026-04-06T14:08:17.982Z</time></trkpt><trkpt lat="45.68328862738745" lon="9.836287634037456"><ele>247.0</ele><time>2026-04-06T14:08:18.982Z</time></trkpt><trkpt lat="45.68321201697033" lon="9.836318189172415"><ele>247.0</ele><time>2026-04-06T14:08:19.982Z</time></trkpt><trkpt lat="45.683120673374745" lon="9.836258954529342"><ele>247.0</ele><time>2026-04-06T14:08:20.981Z</time></trkpt><trkpt lat="45.6830335771192" lon="9.836183067042432"><ele>247.0</ele><time>2026-04-06T14:08:21.981Z</time></trkpt><trkpt lat="45.68294911665048" lon="9.836103881277701"><ele>247.0</ele><time>2026-04-06T14:08:22.982Z</time></trkpt><trkpt lat="45.682836044485335" lon="9.83606383614896"><ele>247.0</ele><time>2026-04-06T14:08:23.982Z</time></trkpt><trkpt lat="45.682715260970724" lon="9.836077747608496"><ele>246.25</ele><time>2026-04-06T14:08:24.982Z</time></trkpt><trkpt lat="45.68259525673942" lon="9.836164092527474"><ele>245.5</ele><time>2026-04-06T14:08:25.982Z</time></trkpt><trkpt lat="45.6824787047552" lon="9.836272437199813"><ele>244.75</ele><time>2026-04-06T14:08:26.982Z</time></trkpt><trkpt lat="45.68235317872609" lon="9.83633326184053"><ele>244.0</ele><time>2026-04-06T14:08:27.982Z</time></trkpt><trkpt lat="45.68221772867874" lon="9.836314634762115"><ele>244.0</ele><time>2026-04-06T14:08:28.982Z</time></trkpt><trkpt lat="45.6820753252555" lon="9.8362172505474"><ele>244.0</ele><time>2026-04-06T14:08:29.982Z</time></trkpt><trkpt lat="45.68195024261808" lon="9.83607204396597"><ele>244.0</ele><time>2026-04-06T14:08:30.982Z</time></trkpt><trkpt lat="45.68184976988554" lon="9.835878444364559"><ele>244.33333333333331</ele><time>2026-04-06T14:08:31.982Z</time></trkpt><trkpt lat="45.68178823711967" lon="9.835638296414327"><ele>244.66666666666669</ele><time>2026-04-06T14:08:32.982Z</time></trkpt><trkpt lat="45.68176129012741" lon="9.835351009312149"><ele>245.0</ele><time>2026-04-06T14:08:33.982Z</time></trkpt><trkpt lat="45.68176039302723" lon="9.835028349927546"><ele>245.33333333333334</ele><time>2026-04-06T14:08:34.982Z</time></trkpt><trkpt lat="45.68176672109187" lon="9.834717199140307"><ele>245.66666666666669</ele><time>2026-04-06T14:08:35.982Z</time></trkpt><trkpt lat="45.68176842866438" lon="9.834402534092236"><ele>246.0</ele><time>2026-04-06T14:08:36.982Z</time></trkpt><trkpt lat="45.681769033059176" lon="9.834098795518678"><ele>246.33333333333331</ele><time>2026-04-06T14:08:37.982Z</time></trkpt><trkpt lat="45.68176739675706" lon="9.833822476647713"><ele>246.66666666666666</ele><time>2026-04-06T14:08:38.982Z</time></trkpt><trkpt lat="45.68174403506086" lon="9.833589233382343"><ele>247.0</ele><time>2026-04-06T14:08:39.982Z</time></trkpt><trkpt lat="45.68169028868785" lon="9.833385295105703"><ele>247.33333333333331</ele><time>2026-04-06T14:08:40.982Z</time></trkpt><trkpt lat="45.68159862583919" lon="9.833179175221842"><ele>247.66666666666669</ele><time>2026-04-06T14:08:41.982Z</time></trkpt><trkpt lat="45.68147263671437" lon="9.832970425286437"><ele>248.0</ele><time>2026-04-06T14:08:42.982Z</time></trkpt><trkpt lat="45.68135458157081" lon="9.832785131662892"><ele>247.75</ele><time>2026-04-06T14:08:43.982Z</time></trkpt><trkpt lat="45.681266861660134" lon="9.832614534666657"><ele>247.5</ele><time>2026-04-06T14:08:44.982Z</time></trkpt><trkpt lat="45.681192528349996" lon="9.832454782786398"><ele>247.25</ele><time>2026-04-06T14:08:45.982Z</time></trkpt><trkpt lat="45.68111955322525" lon="9.832305708163432"><ele>247.0</ele><time>2026-04-06T14:08:46.982Z</time></trkpt><trkpt lat="45.68105220834308" lon="9.832165508694143"><ele>247.0</ele><time>2026-04-06T14:08:47.982Z</time></trkpt><trkpt lat="45.680979757284796" lon="9.832024612440694"><ele>247.0</ele><time>2026-04-06T14:08:48.982Z</time></trkpt><trkpt lat="45.68089865410687" lon="9.831870561297396"><ele>247.0</ele><time>2026-04-06T14:08:49.982Z</time></trkpt><trkpt lat="45.680806191822334" lon="9.831664433248939"><ele>247.0</ele><time>2026-04-06T14:08:50.982Z</time></trkpt><trkpt lat="45.68071061647059" lon="9.83143326734689"><ele>247.66666666666666</ele><time>2026-04-06T14:08:51.982Z</time></trkpt><trkpt lat="45.68060605286536" lon="9.831216001997456"><ele>248.33333333333331</ele><time>2026-04-06T14:08:52.982Z</time></trkpt><trkpt lat="45.68048940477177" lon="9.830976838236635"><ele>249.0</ele><time>2026-04-06T14:08:53.982Z</time></trkpt><trkpt lat="45.6803606944106" lon="9.830714342796165"><ele>249.0</ele><time>2026-04-06T14:08:54.982Z</time></trkpt><trkpt lat="45.680227880701324" lon="9.83044965326781"><ele>249.0</ele><time>2026-04-06T14:08:55.982Z</time></trkpt><trkpt lat="45.680099992413936" lon="9.830191218342645"><ele>249.0</ele><time>2026-04-06T14:08:56.982Z</time></trkpt><trkpt lat="45.67997124791747" lon="9.829929477157703"><ele>249.0</ele><time>2026-04-06T14:08:57.982Z</time></trkpt><trkpt lat="45.679845942231466" lon="9.829665591821788"><ele>249.0</ele><time>2026-04-06T14:08:58.982Z</time></trkpt><trkpt lat="45.679714953342774" lon="9.829400790127107"><ele>249.33333333333331</ele><time>2026-04-06T14:08:59.982Z</time></trkpt><trkpt lat="45.679587766752896" lon="9.829139036315919"><ele>249.66666666666666</ele><time>2026-04-06T14:09:00.982Z</time></trkpt><trkpt lat="45.679459328469314" lon="9.828875209894118"><ele>250.0</ele><time>2026-04-06T14:09:01.982Z</time></trkpt><trkpt lat="45.679349676846954" lon="9.828605380692807"><ele>248.66666666666666</ele><time>2026-04-06T14:09:02.982Z</time></trkpt><trkpt lat="45.67922690581121" lon="9.828352067421553"><ele>247.33333333333331</ele><time>2026-04-06T14:09:03.982Z</time></trkpt><trkpt lat="45.67910339026502" lon="9.828132025653439"><ele>246.0</ele><time>2026-04-06T14:09:04.982Z</time></trkpt><trkpt lat="45.6790131395677" lon="9.827911003859274"><ele>246.0</ele><time>2026-04-06T14:09:05.982Z</time></trkpt><trkpt lat="45.67891836346399" lon="9.827711654236756"><ele>246.0</ele><time>2026-04-06T14:09:06.982Z</time></trkpt><trkpt lat="45.67882997310328" lon="9.827526585313315"><ele>246.0</ele><time>2026-04-06T14:09:07.982Z</time></trkpt><trkpt lat="45.67875083136478" lon="9.827349551457338"><ele>246.33333333333331</ele><time>2026-04-06T14:09:08.982Z</time></trkpt><trkpt lat="45.67866562980803" lon="9.827163131591723"><ele>246.66666666666666</ele><time>2026-04-06T14:09:09.982Z</time></trkpt><trkpt lat="45.67856039849142" lon="9.826994058662713"><ele>247.0</ele><time>2026-04-06T14:09:10.982Z</time></trkpt><trkpt lat="45.67847345345178" lon="9.826806421280674"><ele>246.33333333333331</ele><time>2026-04-06T14:09:11.982Z</time></trkpt><trkpt lat="45.67838241750437" lon="9.82661370705178"><ele>245.66666666666669</ele><time>2026-04-06T14:09:12.982Z</time></trkpt><trkpt lat="45.678286191992" lon="9.826415970272881"><ele>245.0</ele><time>2026-04-06T14:09:13.982Z</time></trkpt><trkpt lat="45.67818449170302" lon="9.82621435118098"><ele>245.0</ele><time>2026-04-06T14:09:14.982Z</time></trkpt><trkpt lat="45.67809827586434" lon="9.826007257735833"><ele>245.0</ele><time>2026-04-06T14:09:15.982Z</time></trkpt><trkpt lat="45.67799801305873" lon="9.825807057667857"><ele>245.0</ele><time>2026-04-06T14:09:16.982Z</time></trkpt><trkpt lat="45.67790633881432" lon="9.82562416689939"><ele>245.2</ele><time>2026-04-06T14:09:17.982Z</time></trkpt><trkpt lat="45.67782223347012" lon="9.825456376096136"><ele>245.4</ele><time>2026-04-06T14:09:18.982Z</time></trkpt><trkpt lat="45.67775160542072" lon="9.825315472616207"><ele>245.60000000000002</ele><time>2026-04-06T14:09:19.982Z</time></trkpt><trkpt lat="45.67770354112781" lon="9.825223157308086"><ele>245.8</ele><time>2026-04-06T14:09:20.982Z</time></trkpt><trkpt lat="45.67765764947124" lon="9.825151954365365"><ele>246.0</ele><time>2026-04-06T14:09:22.982Z</time></trkpt><trkpt lat="45.67764953729311" lon="9.825059125646082"><ele>245.25</ele><time>2026-04-06T14:09:30.982Z</time></trkpt><trkpt lat="45.67760996323145" lon="9.82496640876738"><ele>244.5</ele><time>2026-04-06T14:09:31.982Z</time></trkpt><trkpt lat="45.67751709258983" lon="9.824824580736392"><ele>243.75</ele><time>2026-04-06T14:09:32.982Z</time></trkpt><trkpt lat="45.67742181527142" lon="9.824650197431987"><ele>243.0</ele><time>2026-04-06T14:09:33.982Z</time></trkpt><trkpt lat="45.67730698348932" lon="9.824427218415755"><ele>243.33333333333331</ele><time>2026-04-06T14:09:34.982Z</time></trkpt><trkpt lat="45.67718969589492" lon="9.82418094880079"><ele>243.66666666666666</ele><time>2026-04-06T14:09:35.982Z</time></trkpt><trkpt lat="45.67706292255351" lon="9.82392482063518"><ele>244.0</ele><time>2026-04-06T14:09:36.982Z</time></trkpt><trkpt lat="45.67693716212255" lon="9.823669467499618"><ele>243.5</ele><time>2026-04-06T14:09:37.982Z</time></trkpt><trkpt lat="45.67680522380486" lon="9.823410054140124"><ele>243.0</ele><time>2026-04-06T14:09:38.982Z</time></trkpt><trkpt lat="45.676677804102646" lon="9.823139424532236"><ele>243.0</ele><time>2026-04-06T14:09:39.982Z</time></trkpt><trkpt lat="45.67655856695079" lon="9.822882573000227"><ele>243.0</ele><time>2026-04-06T14:09:40.982Z</time></trkpt><trkpt lat="45.67644061280164" lon="9.822650606108335"><ele>243.0</ele><time>2026-04-06T14:09:41.982Z</time></trkpt><trkpt lat="45.676331717094094" lon="9.822442559844193"><ele>242.66666666666669</ele><time>2026-04-06T14:09:42.982Z</time></trkpt><trkpt lat="45.67622518210815" lon="9.82224453005651"><ele>242.33333333333334</ele><time>2026-04-06T14:09:43.982Z</time></trkpt><trkpt lat="45.67613189539204" lon="9.822063857722007"><ele>242.0</ele><time>2026-04-06T14:09:44.982Z</time></trkpt><trkpt lat="45.67605162311694" lon="9.821893766801502"><ele>241.6</ele><time>2026-04-06T14:09:45.982Z</time></trkpt><trkpt lat="45.67600299758272" lon="9.821730404008983"><ele>241.2</ele><time>2026-04-06T14:09:46.982Z</time></trkpt><trkpt lat="45.67598009905191" lon="9.821574979879468"><ele>240.8</ele><time>2026-04-06T14:09:47.982Z</time></trkpt><trkpt lat="45.67593972683587" lon="9.821448991715844"><ele>240.4</ele><time>2026-04-06T14:09:48.982Z</time></trkpt><trkpt lat="45.675852056559265" lon="9.821345447080377"><ele>240.0</ele><time>2026-04-06T14:09:49.982Z</time></trkpt><trkpt lat="45.675733245658044" lon="9.821214839878314"><ele>240.0</ele><time>2026-04-06T14:09:50.982Z</time></trkpt><trkpt lat="45.675602389803075" lon="9.821001947426065"><ele>240.0</ele><time>2026-04-06T14:09:51.982Z</time></trkpt><trkpt lat="45.67547795287942" lon="9.820747427467266"><ele>240.0</ele><time>2026-04-06T14:09:52.982Z</time></trkpt><trkpt lat="45.67535068489554" lon="9.820493149798404"><ele>239.0</ele><time>2026-04-06T14:09:53.982Z</time></trkpt><trkpt lat="45.675208365610764" lon="9.820253085882955"><ele>238.0</ele><time>2026-04-06T14:09:54.982Z</time></trkpt><trkpt lat="45.6750732345466" lon="9.819983484025304"><ele>238.0</ele><time>2026-04-06T14:09:55.982Z</time></trkpt><trkpt lat="45.67490580886971" lon="9.819738131024923"><ele>238.0</ele><time>2026-04-06T14:09:56.982Z</time></trkpt><trkpt lat="45.67472671203535" lon="9.819478130312731"><ele>237.5</ele><time>2026-04-06T14:09:57.982Z</time></trkpt><trkpt lat="45.67454464079965" lon="9.819220048374053"><ele>237.0</ele><time>2026-04-06T14:09:58.982Z</time></trkpt><trkpt lat="45.67436021547685" lon="9.818959043585934"><ele>237.0</ele><time>2026-04-06T14:09:59.982Z</time></trkpt><trkpt lat="45.67417000476009" lon="9.81870112903877"><ele>237.0</ele><time>2026-04-06T14:10:00.982Z</time></trkpt><trkpt lat="45.673984577605694" lon="9.818445197842488"><ele>237.0</ele><time>2026-04-06T14:10:01.982Z</time></trkpt><trkpt lat="45.673799195695146" lon="9.818194188406284"><ele>237.0</ele><time>2026-04-06T14:10:02.982Z</time></trkpt><trkpt lat="45.673617370846806" lon="9.817940855039943"><ele>236.0</ele><time>2026-04-06T14:10:03.982Z</time></trkpt><trkpt lat="45.6734298101032" lon="9.817683857011653"><ele>235.0</ele><time>2026-04-06T14:10:04.982Z</time></trkpt><trkpt lat="45.673244027694324" lon="9.817425328060587"><ele>234.0</ele><time>2026-04-06T14:10:05.982Z</time></trkpt><trkpt lat="45.67305717539355" lon="9.817172715339838"><ele>233.0</ele><time>2026-04-06T14:10:06.982Z</time></trkpt><trkpt lat="45.67287372538858" lon="9.816921841076883"><ele>233.5</ele><time>2026-04-06T14:10:07.982Z</time></trkpt><trkpt lat="45.67268844833222" lon="9.81666420567385"><ele>234.0</ele><time>2026-04-06T14:10:08.982Z</time></trkpt><trkpt lat="45.67250779139803" lon="9.81641833701585"><ele>234.0</ele><time>2026-04-06T14:10:09.982Z</time></trkpt><trkpt lat="45.672346292574915" lon="9.816192939068552"><ele>234.0</ele><time>2026-04-06T14:10:10.982Z</time></trkpt><trkpt lat="45.67219672279761" lon="9.815984313759568"><ele>234.0</ele><time>2026-04-06T14:10:11.982Z</time></trkpt><trkpt lat="45.67206193964673" lon="9.815801819272643"><ele>234.0</ele><time>2026-04-06T14:10:12.982Z</time></trkpt><trkpt lat="45.67195303245308" lon="9.815628653544959"><ele>234.0</ele><time>2026-04-06T14:10:13.982Z</time></trkpt><trkpt lat="45.671839745708894" lon="9.815532414847114"><ele>234.0</ele><time>2026-04-06T14:10:14.982Z</time></trkpt><trkpt lat="45.6717638862891" lon="9.815441115141775"><ele>234.0</ele><time>2026-04-06T14:10:15.982Z</time></trkpt><trkpt lat="45.671695674687726" lon="9.815355386494495"><ele>234.0</ele><time>2026-04-06T14:10:16.982Z</time></trkpt><trkpt lat="45.67161597580449" lon="9.815291662909864"><ele>233.99999999999997</ele><time>2026-04-06T14:10:17.982Z</time></trkpt><trkpt lat="45.67151914377618" lon="9.815292443980198"><ele>233.99999999999997</ele><time>2026-04-06T14:10:18.982Z</time></trkpt><trkpt lat="45.671442573788475" lon="9.815406784653991"><ele>234.0</ele><time>2026-04-06T14:10:19.982Z</time></trkpt><trkpt lat="45.671376860936334" lon="9.815550420912304"><ele>234.0</ele><time>2026-04-06T14:10:20.982Z</time></trkpt><trkpt lat="45.671291251460254" lon="9.815731376214549"><ele>234.0</ele><time>2026-04-06T14:10:21.982Z</time></trkpt><trkpt lat="45.67120648690249" lon="9.815960893393926"><ele>234.0</ele><time>2026-04-06T14:10:22.982Z</time></trkpt><trkpt lat="45.67112349578571" lon="9.816236185639442"><ele>234.0</ele><time>2026-04-06T14:10:23.981Z</time></trkpt><trkpt lat="45.67101108693321" lon="9.816590312128202"><ele>231.5</ele><time>2026-04-06T14:10:24.981Z</time></trkpt><trkpt lat="45.67088089211627" lon="9.816982709853214"><ele>229.0</ele><time>2026-04-06T14:10:25.981Z</time></trkpt><trkpt lat="45.67073500303629" lon="9.817405474822522"><ele>229.0</ele><time>2026-04-06T14:10:26.982Z</time></trkpt><trkpt lat="45.67059873010475" lon="9.817794433417744"><ele>229.0</ele><time>2026-04-06T14:10:27.982Z</time></trkpt><trkpt lat="45.67047053180526" lon="9.818152831876727"><ele>229.0</ele><time>2026-04-06T14:10:28.981Z</time></trkpt><trkpt lat="45.67035416800547" lon="9.81848797033715"><ele>229.0</ele><time>2026-04-06T14:10:29.981Z</time></trkpt><trkpt lat="45.6702480520923" lon="9.8187991506639"><ele>229.0</ele><time>2026-04-06T14:10:30.981Z</time></trkpt><trkpt lat="45.67015067774824" lon="9.819089480046056"><ele>229.0</ele><time>2026-04-06T14:10:31.981Z</time></trkpt><trkpt lat="45.67005851136057" lon="9.819368053768562"><ele>229.0</ele><time>2026-04-06T14:10:32.981Z</time></trkpt><trkpt lat="45.66996065740276" lon="9.819610925947792"><ele>228.66666666666666</ele><time>2026-04-06T14:10:33.981Z</time></trkpt><trkpt lat="45.669880292173474" lon="9.819848280499453"><ele>228.33333333333331</ele><time>2026-04-06T14:10:34.981Z</time></trkpt><trkpt lat="45.66979791289946" lon="9.820076110861306"><ele>228.0</ele><time>2026-04-06T14:10:35.981Z</time></trkpt><trkpt lat="45.66972087410016" lon="9.820299747207143"><ele>228.66666666666669</ele><time>2026-04-06T14:10:36.981Z</time></trkpt><trkpt lat="45.66963982833723" lon="9.820528984713217"><ele>229.33333333333334</ele><time>2026-04-06T14:10:37.981Z</time></trkpt><trkpt lat="45.66956554652287" lon="9.82076350669221"><ele>230.0</ele><time>2026-04-06T14:10:38.981Z</time></trkpt><trkpt lat="45.66948168073301" lon="9.820981767940648"><ele>229.25</ele><time>2026-04-06T14:10:39.981Z</time></trkpt><trkpt lat="45.66940498273435" lon="9.821182984747354"><ele>228.5</ele><time>2026-04-06T14:10:40.981Z</time></trkpt><trkpt lat="45.66933697741563" lon="9.821367561815904"><ele>227.75</ele><time>2026-04-06T14:10:41.981Z</time></trkpt><trkpt lat="45.66928325014189" lon="9.821534343586363"><ele>227.0</ele><time>2026-04-06T14:10:42.981Z</time></trkpt><trkpt lat="45.66923460531135" lon="9.821698548164166"><ele>226.66666666666669</ele><time>2026-04-06T14:10:43.981Z</time></trkpt><trkpt lat="45.669178823269384" lon="9.821870893059419"><ele>226.33333333333331</ele><time>2026-04-06T14:10:44.981Z</time></trkpt><trkpt lat="45.66908021993737" lon="9.822059614117952"><ele>226.0</ele><time>2026-04-06T14:10:45.981Z</time></trkpt><trkpt lat="45.66899670584618" lon="9.822282917229753"><ele>226.0</ele><time>2026-04-06T14:10:46.981Z</time></trkpt><trkpt lat="45.66890244948737" lon="9.822522438937952"><ele>226.0</ele><time>2026-04-06T14:10:47.981Z</time></trkpt><trkpt lat="45.668833304050246" lon="9.82276754970087"><ele>226.0</ele><time>2026-04-06T14:10:48.981Z</time></trkpt><trkpt lat="45.668781783573166" lon="9.823029131137615"><ele>226.0</ele><time>2026-04-06T14:10:49.981Z</time></trkpt><trkpt lat="45.668726516232006" lon="9.823312268336366"><ele>226.0</ele><time>2026-04-06T14:10:50.981Z</time></trkpt><trkpt lat="45.66863720031653" lon="9.823597686224092"><ele>226.0</ele><time>2026-04-06T14:10:51.981Z</time></trkpt><trkpt lat="45.66852958379282" lon="9.823874195395081"><ele>226.0</ele><time>2026-04-06T14:10:52.981Z</time></trkpt><trkpt lat="45.66841933169113" lon="9.824158736228602"><ele>226.0</ele><time>2026-04-06T14:10:53.981Z</time></trkpt><trkpt lat="45.668310735255446" lon="9.824463074298885"><ele>226.0</ele><time>2026-04-06T14:10:54.981Z</time></trkpt><trkpt lat="45.66820926213757" lon="9.824759793816876"><ele>226.0</ele><time>2026-04-06T14:10:55.981Z</time></trkpt><trkpt lat="45.668105195271686" lon="9.825055075919249"><ele>226.66666666666666</ele><time>2026-04-06T14:10:56.981Z</time></trkpt><trkpt lat="45.66800567001289" lon="9.825334717772018"><ele>227.33333333333331</ele><time>2026-04-06T14:10:57.981Z</time></trkpt><trkpt lat="45.66791466801359" lon="9.825609889633508"><ele>228.0</ele><time>2026-04-06T14:10:58.981Z</time></trkpt><trkpt lat="45.66782432020745" lon="9.82586243161436"><ele>228.0</ele><time>2026-04-06T14:10:59.981Z</time></trkpt><trkpt lat="45.66773870703078" lon="9.826102899759489"><ele>228.0</ele><time>2026-04-06T14:11:00.981Z</time></trkpt><trkpt lat="45.66765566928322" lon="9.826333123635045"><ele>228.0</ele><time>2026-04-06T14:11:01.981Z</time></trkpt><trkpt lat="45.6675691889568" lon="9.82656463168278"><ele>228.0</ele><time>2026-04-06T14:11:02.981Z</time></trkpt><trkpt lat="45.667476972902136" lon="9.826787180225251"><ele>228.0</ele><time>2026-04-06T14:11:03.981Z</time></trkpt><trkpt lat="45.66736655418422" lon="9.826993026754835"><ele>228.0</ele><time>2026-04-06T14:11:04.981Z</time></trkpt><trkpt lat="45.667244132391296" lon="9.827186583336214"><ele>228.75</ele><time>2026-04-06T14:11:05.981Z</time></trkpt><trkpt lat="45.66712418419659" lon="9.82735556125847"><ele>229.5</ele><time>2026-04-06T14:11:06.981Z</time></trkpt><trkpt lat="45.667020800298864" lon="9.827492925535127"><ele>230.25</ele><time>2026-04-06T14:11:07.981Z</time></trkpt><trkpt lat="45.666933583633174" lon="9.827609484095651"><ele>231.0</ele><time>2026-04-06T14:11:08.981Z</time></trkpt><trkpt lat="45.6668771781781" lon="9.82769017738847"><ele>231.8</ele><time>2026-04-06T14:11:09.981Z</time></trkpt><trkpt lat="45.66681954189369" lon="9.827769341203151"><ele>232.60000000000002</ele><time>2026-04-06T14:11:10.981Z</time></trkpt><trkpt lat="45.666755747466134" lon="9.827840658248903"><ele>233.4</ele><time>2026-04-06T14:11:11.981Z</time></trkpt><trkpt lat="45.666678664917306" lon="9.827918205796154"><ele>234.2</ele><time>2026-04-06T14:11:12.981Z</time></trkpt><trkpt lat="45.66657119215798" lon="9.82800759757894"><ele>235.0</ele><time>2026-04-06T14:11:13.981Z</time></trkpt><trkpt lat="45.666422248182805" lon="9.828117649596567"><ele>235.0</ele><time>2026-04-06T14:11:14.981Z</time></trkpt><trkpt lat="45.66623736915869" lon="9.828217131920477"><ele>235.0</ele><time>2026-04-06T14:11:15.981Z</time></trkpt><trkpt lat="45.66603708936947" lon="9.828302133745298"><ele>235.0</ele><time>2026-04-06T14:11:16.981Z</time></trkpt><trkpt lat="45.66581822807074" lon="9.82839441230219"><ele>235.5</ele><time>2026-04-06T14:11:17.981Z</time></trkpt><trkpt lat="45.665574063662454" lon="9.828524794399499"><ele>236.0</ele><time>2026-04-06T14:11:18.981Z</time></trkpt><trkpt lat="45.66533981329177" lon="9.828640336091683"><ele>236.0</ele><time>2026-04-06T14:11:19.981Z</time></trkpt><trkpt lat="45.66511585461921" lon="9.828750361304913"><ele>236.0</ele><time>2026-04-06T14:11:20.981Z</time></trkpt><trkpt lat="45.664882425867205" lon="9.828853727906262"><ele>236.0</ele><time>2026-04-06T14:11:21.981Z</time></trkpt><trkpt lat="45.66464869650352" lon="9.828963166074177"><ele>236.0</ele><time>2026-04-06T14:11:22.981Z</time></trkpt><trkpt lat="45.66442116121727" lon="9.829063423722769"><ele>235.33333333333334</ele><time>2026-04-06T14:11:23.981Z</time></trkpt><trkpt lat="45.66421869489503" lon="9.82915203295531"><ele>234.66666666666669</ele><time>2026-04-06T14:11:24.981Z</time></trkpt><trkpt lat="45.66402082784617" lon="9.829219794531111"><ele>234.0</ele><time>2026-04-06T14:11:25.981Z</time></trkpt><trkpt lat="45.66384514112124" lon="9.82929374990148"><ele>234.0</ele><time>2026-04-06T14:11:26.981Z</time></trkpt><trkpt lat="45.66368392464587" lon="9.829355745955333"><ele>234.0</ele><time>2026-04-06T14:11:27.981Z</time></trkpt><trkpt lat="45.66354028567108" lon="9.829413716119904"><ele>234.0</ele><time>2026-04-06T14:11:28.981Z</time></trkpt><trkpt lat="45.66340525562078" lon="9.829466625125775"><ele>233.75</ele><time>2026-04-06T14:11:29.981Z</time></trkpt><trkpt lat="45.66327596565644" lon="9.82951569555289"><ele>233.5</ele><time>2026-04-06T14:11:30.981Z</time></trkpt><trkpt lat="45.66315346187134" lon="9.829564689557515"><ele>233.25</ele><time>2026-04-06T14:11:31.981Z</time></trkpt><trkpt lat="45.66304224449586" lon="9.829609029031028"><ele>233.0</ele><time>2026-04-06T14:11:32.981Z</time></trkpt><trkpt lat="45.66294057816938" lon="9.82965476961536"><ele>233.0</ele><time>2026-04-06T14:11:33.981Z</time></trkpt><trkpt lat="45.66286550819516" lon="9.82968523219075"><ele>233.0</ele><time>2026-04-06T14:11:34.981Z</time></trkpt><trkpt lat="45.662758029178455" lon="9.829718540334897"><ele>233.0</ele><time>2026-04-06T14:11:36.981Z</time></trkpt><trkpt lat="45.66269619387782" lon="9.829744218953445"><ele>233.0</ele><time>2026-04-06T14:11:37.981Z</time></trkpt><trkpt lat="45.66260736533388" lon="9.829788485969244"><ele>233.0</ele><time>2026-04-06T14:11:38.981Z</time></trkpt><trkpt lat="45.66247552092196" lon="9.829836754133632"><ele>232.33333333333334</ele><time>2026-04-06T14:11:39.981Z</time></trkpt><trkpt lat="45.662282845784574" lon="9.829843407510145"><ele>231.66666666666669</ele><time>2026-04-06T14:11:40.981Z</time></trkpt><trkpt lat="45.66206044097942" lon="9.8299210016351"><ele>231.0</ele><time>2026-04-06T14:11:41.981Z</time></trkpt><trkpt lat="45.66182094787882" lon="9.830002709064416"><ele>231.0</ele><time>2026-04-06T14:11:42.981Z</time></trkpt><trkpt lat="45.661584893931824" lon="9.830097602967244"><ele>231.0</ele><time>2026-04-06T14:11:43.981Z</time></trkpt><trkpt lat="45.66135722063822" lon="9.830193504870882"><ele>230.66666666666669</ele><time>2026-04-06T14:11:44.981Z</time></trkpt><trkpt lat="45.661137716914325" lon="9.830300606997827"><ele>230.33333333333334</ele><time>2026-04-06T14:11:45.981Z</time></trkpt><trkpt lat="45.66093125359127" lon="9.830378654224011"><ele>230.0</ele><time>2026-04-06T14:11:46.981Z</time></trkpt><trkpt lat="45.66074440338845" lon="9.830518521738407"><ele>229.0</ele><time>2026-04-06T14:11:47.981Z</time></trkpt><trkpt lat="45.66055220545797" lon="9.830726304622837"><ele>228.0</ele><time>2026-04-06T14:11:48.981Z</time></trkpt><trkpt lat="45.6603653832433" lon="9.830970685042281"><ele>227.0</ele><time>2026-04-06T14:11:49.981Z</time></trkpt><trkpt lat="45.66017606926521" lon="9.83120186713365"><ele>226.0</ele><time>2026-04-06T14:11:50.981Z</time></trkpt><trkpt lat="45.65997858289915" lon="9.831425272048298"><ele>226.0</ele><time>2026-04-06T14:11:51.981Z</time></trkpt><trkpt lat="45.65979430970502" lon="9.831637575456881"><ele>226.0</ele><time>2026-04-06T14:11:52.981Z</time></trkpt><trkpt lat="45.65962697729193" lon="9.831829667253638"><ele>226.0</ele><time>2026-04-06T14:11:53.981Z</time></trkpt><trkpt lat="45.65946335528524" lon="9.83200968353774"><ele>226.0</ele><time>2026-04-06T14:11:54.981Z</time></trkpt><trkpt lat="45.65930219300303" lon="9.832192449246556"><ele>226.0</ele><time>2026-04-06T14:11:55.981Z</time></trkpt><trkpt lat="45.65913515801601" lon="9.832384888621048"><ele>226.0</ele><time>2026-04-06T14:11:56.981Z</time></trkpt><trkpt lat="45.65896064437792" lon="9.832576323814001"><ele>226.0</ele><time>2026-04-06T14:11:57.981Z</time></trkpt><trkpt lat="45.658780359647004" lon="9.832764569907944"><ele>226.0</ele><time>2026-04-06T14:11:58.981Z</time></trkpt><trkpt lat="45.658600619923455" lon="9.832946972654188"><ele>226.33333333333331</ele><time>2026-04-06T14:11:59.981Z</time></trkpt><trkpt lat="45.65843555016804" lon="9.833111838380143"><ele>226.66666666666669</ele><time>2026-04-06T14:12:00.981Z</time></trkpt><trkpt lat="45.65826703812837" lon="9.833268802361962"><ele>227.0</ele><time>2026-04-06T14:12:01.981Z</time></trkpt><trkpt lat="45.65810755507846" lon="9.833416116703626"><ele>227.33333333333334</ele><time>2026-04-06T14:12:02.981Z</time></trkpt><trkpt lat="45.65796876481052" lon="9.833523516689556"><ele>227.66666666666669</ele><time>2026-04-06T14:12:03.981Z</time></trkpt><trkpt lat="45.65783882058728" lon="9.833646528449277"><ele>228.0</ele><time>2026-04-06T14:12:04.981Z</time></trkpt><trkpt lat="45.657694655991754" lon="9.833785801346835"><ele>228.33333333333331</ele><time>2026-04-06T14:12:05.981Z</time></trkpt><trkpt lat="45.65754902963081" lon="9.833924211588283"><ele>228.66666666666666</ele><time>2026-04-06T14:12:06.981Z</time></trkpt><trkpt lat="45.6573950416869" lon="9.834068880402922"><ele>229.0</ele><time>2026-04-06T14:12:07.981Z</time></trkpt><trkpt lat="45.65724431859551" lon="9.834205592047352"><ele>231.0</ele><time>2026-04-06T14:12:08.981Z</time></trkpt><trkpt lat="45.65710771766149" lon="9.83436846225078"><ele>233.0</ele><time>2026-04-06T14:12:09.981Z</time></trkpt><trkpt lat="45.6569510255185" lon="9.834503268675757"><ele>235.0</ele><time>2026-04-06T14:12:10.981Z</time></trkpt><trkpt lat="45.65681846938104" lon="9.83465292985707"><ele>235.0</ele><time>2026-04-06T14:12:11.981Z</time></trkpt><trkpt lat="45.65667992878032" lon="9.834794275434001"><ele>235.0</ele><time>2026-04-06T14:12:12.981Z</time></trkpt><trkpt lat="45.65656968576675" lon="9.834920437894816"><ele>235.0</ele><time>2026-04-06T14:12:13.981Z</time></trkpt><trkpt lat="45.656472589913555" lon="9.835031138655657"><ele>235.0</ele><time>2026-04-06T14:12:14.981Z</time></trkpt><trkpt lat="45.65640041921354" lon="9.835154745791048"><ele>236.33333333333331</ele><time>2026-04-06T14:12:15.981Z</time></trkpt><trkpt lat="45.656300703574566" lon="9.835279612812341"><ele>237.66666666666669</ele><time>2026-04-06T14:12:16.981Z</time></trkpt><trkpt lat="45.656195765581124" lon="9.835454393392032"><ele>239.0</ele><time>2026-04-06T14:12:17.981Z</time></trkpt><trkpt lat="45.65607466422283" lon="9.835642715575112"><ele>235.33333333333334</ele><time>2026-04-06T14:12:18.981Z</time></trkpt><trkpt lat="45.655948466385034" lon="9.835834639175573"><ele>231.66666666666669</ele><time>2026-04-06T14:12:19.981Z</time></trkpt><trkpt lat="45.65581327543588" lon="9.83605063011689"><ele>228.0</ele><time>2026-04-06T14:12:20.981Z</time></trkpt><trkpt lat="45.65568524013089" lon="9.836283973896478"><ele>227.66666666666669</ele><time>2026-04-06T14:12:21.981Z</time></trkpt><trkpt lat="45.65556040914925" lon="9.836526635692934"><ele>227.33333333333334</ele><time>2026-04-06T14:12:22.981Z</time></trkpt><trkpt lat="45.655459682152696" lon="9.83679552357164"><ele>227.0</ele><time>2026-04-06T14:12:23.981Z</time></trkpt><trkpt lat="45.65537603929148" lon="9.837091221719215"><ele>227.0</ele><time>2026-04-06T14:12:24.981Z</time></trkpt><trkpt lat="45.655295965369106" lon="9.837367077299575"><ele>227.0</ele><time>2026-04-06T14:12:25.981Z</time></trkpt><trkpt lat="45.65524508659064" lon="9.837631393435876"><ele>227.0</ele><time>2026-04-06T14:12:26.981Z</time></trkpt><trkpt lat="45.65518797636963" lon="9.837871228622232"><ele>226.0</ele><time>2026-04-06T14:12:27.981Z</time></trkpt><trkpt lat="45.655114467871364" lon="9.838113051219235"><ele>225.0</ele><time>2026-04-06T14:12:28.981Z</time></trkpt><trkpt lat="45.65501257990272" lon="9.838406714144366"><ele>224.0</ele><time>2026-04-06T14:12:29.981Z</time></trkpt><trkpt lat="45.654911641391585" lon="9.838696856408044"><ele>224.0</ele><time>2026-04-06T14:12:30.981Z</time></trkpt><trkpt lat="45.65482043871728" lon="9.838950348103566"><ele>224.0</ele><time>2026-04-06T14:12:31.981Z</time></trkpt><trkpt lat="45.654737448786676" lon="9.839185655009585"><ele>224.0</ele><time>2026-04-06T14:12:32.98Z</time></trkpt><trkpt lat="45.65463586325637" lon="9.839399581794222"><ele>224.0</ele><time>2026-04-06T14:12:33.98Z</time></trkpt><trkpt lat="45.65453692751857" lon="9.839599376488911"><ele>224.0</ele><time>2026-04-06T14:12:34.981Z</time></trkpt><trkpt lat="45.65444288129813" lon="9.839807238488834"><ele>224.0</ele><time>2026-04-06T14:12:35.981Z</time></trkpt><trkpt lat="45.65433241162642" lon="9.840039959489358"><ele>224.33333333333334</ele><time>2026-04-06T14:12:36.981Z</time></trkpt><trkpt lat="45.654215687269605" lon="9.840277579760768"><ele>224.66666666666669</ele><time>2026-04-06T14:12:37.981Z</time></trkpt><trkpt lat="45.65410440835885" lon="9.840531051243733"><ele>225.0</ele><time>2026-04-06T14:12:38.981Z</time></trkpt><trkpt lat="45.65400208533667" lon="9.84079300328414"><ele>225.33333333333331</ele><time>2026-04-06T14:12:39.981Z</time></trkpt><trkpt lat="45.653882665024426" lon="9.84105790905042"><ele>225.66666666666666</ele><time>2026-04-06T14:12:40.98Z</time></trkpt><trkpt lat="45.65378635040376" lon="9.841324696464651"><ele>226.0</ele><time>2026-04-06T14:12:41.98Z</time></trkpt><trkpt lat="45.653695161615666" lon="9.841559152402924"><ele>225.33333333333331</ele><time>2026-04-06T14:12:42.98Z</time></trkpt><trkpt lat="45.65360032280859" lon="9.841772179807181"><ele>224.66666666666669</ele><time>2026-04-06T14:12:43.98Z</time></trkpt><trkpt lat="45.65350046896919" lon="9.841981772821448"><ele>224.0</ele><time>2026-04-06T14:12:44.98Z</time></trkpt><trkpt lat="45.653395173326174" lon="9.842199847007336"><ele>224.0</ele><time>2026-04-06T14:12:45.98Z</time></trkpt><trkpt lat="45.6532858102147" lon="9.8424257599972"><ele>224.0</ele><time>2026-04-06T14:12:46.98Z</time></trkpt><trkpt lat="45.653181087950884" lon="9.842659785041432"><ele>224.0</ele><time>2026-04-06T14:12:47.98Z</time></trkpt><trkpt lat="45.65307382282536" lon="9.842893294994514"><ele>224.33333333333334</ele><time>2026-04-06T14:12:48.98Z</time></trkpt><trkpt lat="45.652966926612926" lon="9.843120699661888"><ele>224.66666666666669</ele><time>2026-04-06T14:12:49.98Z</time></trkpt><trkpt lat="45.652861399982136" lon="9.843338434010915"><ele>225.0</ele><time>2026-04-06T14:12:50.98Z</time></trkpt><trkpt lat="45.652762285177644" lon="9.843536164079728"><ele>224.0</ele><time>2026-04-06T14:12:51.98Z</time></trkpt><trkpt lat="45.65268325396408" lon="9.843698623390466"><ele>223.0</ele><time>2026-04-06T14:12:52.98Z</time></trkpt><trkpt lat="45.652608114158454" lon="9.843821169155058"><ele>222.0</ele><time>2026-04-06T14:12:53.98Z</time></trkpt><trkpt lat="45.65253082038018" lon="9.843898177794355"><ele>221.0</ele><time>2026-04-06T14:12:54.98Z</time></trkpt><trkpt lat="45.65244134376455" lon="9.84390079864752"><ele>220.0</ele><time>2026-04-06T14:12:55.98Z</time></trkpt><trkpt lat="45.652369504266545" lon="9.843854940560664"><ele>220.0</ele><time>2026-04-06T14:12:56.98Z</time></trkpt><trkpt lat="45.65230388382098" lon="9.84381165740364"><ele>220.0</ele><time>2026-04-06T14:13:02.98Z</time></trkpt><trkpt lat="45.65223818414537" lon="9.843942078047965"><ele>220.0</ele><time>2026-04-06T14:13:03.98Z</time></trkpt><trkpt lat="45.65219898396819" lon="9.84413007045259"><ele>220.0</ele><time>2026-04-06T14:13:04.98Z</time></trkpt><trkpt lat="45.65215644228159" lon="9.844348763924943"><ele>220.66666666666666</ele><time>2026-04-06T14:13:05.98Z</time></trkpt><trkpt lat="45.65211626809865" lon="9.844567670440698"><ele>221.33333333333331</ele><time>2026-04-06T14:13:06.98Z</time></trkpt><trkpt lat="45.6520750701402" lon="9.84478739716394"><ele>222.0</ele><time>2026-04-06T14:13:07.98Z</time></trkpt><trkpt lat="45.65203706059174" lon="9.844995130554105"><ele>223.0</ele><time>2026-04-06T14:13:08.98Z</time></trkpt><trkpt lat="45.651999674260125" lon="9.845199325107528"><ele>224.0</ele><time>2026-04-06T14:13:09.98Z</time></trkpt><trkpt lat="45.6519640872296" lon="9.845393527353009"><ele>225.0</ele><time>2026-04-06T14:13:10.98Z</time></trkpt><trkpt lat="45.65193174038817" lon="9.84557004769146"><ele>226.0</ele><time>2026-04-06T14:13:11.98Z</time></trkpt><trkpt lat="45.65190055122536" lon="9.84574140443003"><ele>224.8</ele><time>2026-04-06T14:13:12.98Z</time></trkpt><trkpt lat="45.65187194104323" lon="9.845899766371014"><ele>223.60000000000002</ele><time>2026-04-06T14:13:13.98Z</time></trkpt><trkpt lat="45.6518439837987" lon="9.84605125408264"><ele>222.4</ele><time>2026-04-06T14:13:14.98Z</time></trkpt><trkpt lat="45.651840445800325" lon="9.846205877785764"><ele>221.2</ele><time>2026-04-06T14:13:15.98Z</time></trkpt><trkpt lat="45.651812658153545" lon="9.846340542970703"><ele>220.0</ele><time>2026-04-06T14:13:16.98Z</time></trkpt><trkpt lat="45.65177967986264" lon="9.846466420885031"><ele>219.99999999999997</ele><time>2026-04-06T14:13:17.98Z</time></trkpt><trkpt lat="45.6517502338356" lon="9.846587453832049"><ele>220.0</ele><time>2026-04-06T14:13:18.98Z</time></trkpt><trkpt lat="45.65172163636758" lon="9.846699043907948"><ele>220.0</ele><time>2026-04-06T14:13:19.98Z</time></trkpt><trkpt lat="45.651674108292184" lon="9.846793632847772"><ele>220.0</ele><time>2026-04-06T14:13:20.98Z</time></trkpt><trkpt lat="45.65164611557659" lon="9.846892287693725"><ele>219.99999999999997</ele><time>2026-04-06T14:13:21.98Z</time></trkpt><trkpt lat="45.65161929467427" lon="9.84699038367447"><ele>220.0</ele><time>2026-04-06T14:13:22.98Z</time></trkpt><trkpt lat="45.65158469952626" lon="9.84711118256149"><ele>220.33333333333331</ele><time>2026-04-06T14:13:23.98Z</time></trkpt><trkpt lat="45.65153656924158" lon="9.847277913307426"><ele>220.66666666666669</ele><time>2026-04-06T14:13:24.98Z</time></trkpt><trkpt lat="45.651473485470206" lon="9.847492868921222"><ele>221.0</ele><time>2026-04-06T14:13:25.98Z</time></trkpt><trkpt lat="45.651401210893795" lon="9.84773407819953"><ele>220.33333333333334</ele><time>2026-04-06T14:13:26.98Z</time></trkpt><trkpt lat="45.65133618866142" lon="9.847987803705726"><ele>219.66666666666669</ele><time>2026-04-06T14:13:27.98Z</time></trkpt><trkpt lat="45.65122637345715" lon="9.848226972608582"><ele>219.0</ele><time>2026-04-06T14:13:28.98Z</time></trkpt><trkpt lat="45.65114735026259" lon="9.848491650616577"><ele>218.0</ele><time>2026-04-06T14:13:29.98Z</time></trkpt><trkpt lat="45.65107355844721" lon="9.848746297538886"><ele>217.0</ele><time>2026-04-06T14:13:30.98Z</time></trkpt><trkpt lat="45.65100454376205" lon="9.848991466987743"><ele>216.0</ele><time>2026-04-06T14:13:31.98Z</time></trkpt><trkpt lat="45.65093510065993" lon="9.849240176341278"><ele>216.0</ele><time>2026-04-06T14:13:32.98Z</time></trkpt><trkpt lat="45.650864660534346" lon="9.84951112010666"><ele>216.0</ele><time>2026-04-06T14:13:33.98Z</time></trkpt><trkpt lat="45.650804914468594" lon="9.849799054715275"><ele>216.0</ele><time>2026-04-06T14:13:34.98Z</time></trkpt><trkpt lat="45.65076708126611" lon="9.850109361298983"><ele>216.5</ele><time>2026-04-06T14:13:35.98Z</time></trkpt><trkpt lat="45.65072376583143" lon="9.850436932083072"><ele>217.0</ele><time>2026-04-06T14:13:36.98Z</time></trkpt><trkpt lat="45.650682539762975" lon="9.850765815061015"><ele>217.0</ele><time>2026-04-06T14:13:37.98Z</time></trkpt><trkpt lat="45.65063930353968" lon="9.851084190401169"><ele>217.0</ele><time>2026-04-06T14:13:38.98Z</time></trkpt><trkpt lat="45.65058711413512" lon="9.851410207569863"><ele>217.0</ele><time>2026-04-06T14:13:39.98Z</time></trkpt><trkpt lat="45.65052412790164" lon="9.851733384790531"><ele>217.0</ele><time>2026-04-06T14:13:40.98Z</time></trkpt><trkpt lat="45.65043978149955" lon="9.852046054000619"><ele>216.0</ele><time>2026-04-06T14:13:41.98Z</time></trkpt><trkpt lat="45.650328939190835" lon="9.852321487761781"><ele>215.0</ele><time>2026-04-06T14:13:42.98Z</time></trkpt><trkpt lat="45.65019329900351" lon="9.852583444570687"><ele>214.0</ele><time>2026-04-06T14:13:43.98Z</time></trkpt><trkpt lat="45.65004583908988" lon="9.85284083429951"><ele>213.0</ele><time>2026-04-06T14:13:44.98Z</time></trkpt><trkpt lat="45.64986753063935" lon="9.853015142934554"><ele>212.0</ele><time>2026-04-06T14:13:45.98Z</time></trkpt><trkpt lat="45.649705092339616" lon="9.853186934311031"><ele>212.0</ele><time>2026-04-06T14:13:46.98Z</time></trkpt><trkpt lat="45.64954931254103" lon="9.853361790725248"><ele>212.0</ele><time>2026-04-06T14:13:47.98Z</time></trkpt><trkpt lat="45.64939185319166" lon="9.853467418877115"><ele>212.0</ele><time>2026-04-06T14:13:48.98Z</time></trkpt><trkpt lat="45.649254342191234" lon="9.853563524588242"><ele>211.66666666666669</ele><time>2026-04-06T14:13:49.98Z</time></trkpt><trkpt lat="45.649111482405466" lon="9.85365482495107"><ele>211.33333333333331</ele><time>2026-04-06T14:13:50.98Z</time></trkpt><trkpt lat="45.64893601301852" lon="9.853716052875548"><ele>211.0</ele><time>2026-04-06T14:13:51.98Z</time></trkpt><trkpt lat="45.64874778519086" lon="9.853821947696787"><ele>209.5</ele><time>2026-04-06T14:13:52.98Z</time></trkpt><trkpt lat="45.648541985251796" lon="9.853945598387982"><ele>208.0</ele><time>2026-04-06T14:13:53.98Z</time></trkpt><trkpt lat="45.64832871541383" lon="9.85407373702101"><ele>208.0</ele><time>2026-04-06T14:13:54.98Z</time></trkpt><trkpt lat="45.64810841205988" lon="9.85418789770923"><ele>208.0</ele><time>2026-04-06T14:13:55.98Z</time></trkpt><trkpt lat="45.64789340146558" lon="9.854314259247676"><ele>206.5</ele><time>2026-04-06T14:13:56.98Z</time></trkpt><trkpt lat="45.6476802575215" lon="9.854442191169722"><ele>205.0</ele><time>2026-04-06T14:13:57.98Z</time></trkpt><trkpt lat="45.64747015710991" lon="9.854567012303797"><ele>205.0</ele><time>2026-04-06T14:13:58.98Z</time></trkpt><trkpt lat="45.64725874012393" lon="9.854693374575545"><ele>205.0</ele><time>2026-04-06T14:13:59.98Z</time></trkpt><trkpt lat="45.64705093264353" lon="9.854824871592736"><ele>205.0</ele><time>2026-04-06T14:14:00.98Z</time></trkpt><trkpt lat="45.6468522716892" lon="9.854944188267517"><ele>205.0</ele><time>2026-04-06T14:14:01.98Z</time></trkpt><trkpt lat="45.646665794653636" lon="9.85506466969075"><ele>205.0</ele><time>2026-04-06T14:14:02.98Z</time></trkpt><trkpt lat="45.64648136913934" lon="9.855184654019324"><ele>205.0</ele><time>2026-04-06T14:14:03.98Z</time></trkpt><trkpt lat="45.6462952697581" lon="9.85533051660696"><ele>205.0</ele><time>2026-04-06T14:14:04.98Z</time></trkpt><trkpt lat="45.646089451924794" lon="9.855468131637107"><ele>205.0</ele><time>2026-04-06T14:14:05.98Z</time></trkpt><trkpt lat="45.64590637495799" lon="9.855651058174454"><ele>205.0</ele><time>2026-04-06T14:14:06.98Z</time></trkpt><trkpt lat="45.645731786995455" lon="9.855834022736925"><ele>205.0</ele><time>2026-04-06T14:14:07.98Z</time></trkpt><trkpt lat="45.64556742039419" lon="9.855983896017133"><ele>205.0</ele><time>2026-04-06T14:14:08.98Z</time></trkpt><trkpt lat="45.64543973376793" lon="9.85614729983724"><ele>204.5</ele><time>2026-04-06T14:14:09.98Z</time></trkpt><trkpt lat="45.645303756948266" lon="9.856256783529943"><ele>204.0</ele><time>2026-04-06T14:14:10.98Z</time></trkpt><trkpt lat="45.64518948829718" lon="9.856370780084362"><ele>203.5</ele><time>2026-04-06T14:14:11.98Z</time></trkpt><trkpt lat="45.645066269237425" lon="9.85644175043659"><ele>203.0</ele><time>2026-04-06T14:14:12.98Z</time></trkpt><trkpt lat="45.64496379293319" lon="9.856526507397454"><ele>203.0</ele><time>2026-04-06T14:14:13.98Z</time></trkpt><trkpt lat="45.6449036112723" lon="9.85666093669623"><ele>203.0</ele><time>2026-04-06T14:14:14.98Z</time></trkpt><trkpt lat="45.64487457999918" lon="9.856853116733049"><ele>203.0</ele><time>2026-04-06T14:14:15.98Z</time></trkpt><trkpt lat="45.644868554211484" lon="9.857100190847907"><ele>203.0</ele><time>2026-04-06T14:14:16.98Z</time></trkpt><trkpt lat="45.64484248658513" lon="9.857374724050015"><ele>203.5</ele><time>2026-04-06T14:14:17.98Z</time></trkpt><trkpt lat="45.644766354035625" lon="9.857670383365878"><ele>204.0</ele><time>2026-04-06T14:14:18.98Z</time></trkpt><trkpt lat="45.64465947057575" lon="9.85796521421342"><ele>204.0</ele><time>2026-04-06T14:14:19.98Z</time></trkpt><trkpt lat="45.64455815486161" lon="9.858264511204773"><ele>204.0</ele><time>2026-04-06T14:14:20.98Z</time></trkpt><trkpt lat="45.64444584374978" lon="9.858580591423689"><ele>204.0</ele><time>2026-04-06T14:14:21.98Z</time></trkpt><trkpt lat="45.64431964193185" lon="9.85888238421181"><ele>204.0</ele><time>2026-04-06T14:14:22.98Z</time></trkpt><trkpt lat="45.64416842486289" lon="9.859170924422576"><ele>204.5</ele><time>2026-04-06T14:14:23.98Z</time></trkpt><trkpt lat="45.64399893656407" lon="9.859457839283758"><ele>205.0</ele><time>2026-04-06T14:14:24.98Z</time></trkpt><trkpt lat="45.643834091348324" lon="9.859734242086898"><ele>205.0</ele><time>2026-04-06T14:14:25.98Z</time></trkpt><trkpt lat="45.64368769828924" lon="9.85999405590129"><ele>205.0</ele><time>2026-04-06T14:14:26.98Z</time></trkpt><trkpt lat="45.643558249017865" lon="9.860233707922388"><ele>205.0</ele><time>2026-04-06T14:14:27.98Z</time></trkpt><trkpt lat="45.64344533590968" lon="9.860457123722911"><ele>206.0</ele><time>2026-04-06T14:14:28.98Z</time></trkpt><trkpt lat="45.64334041366642" lon="9.860663873317167"><ele>207.0</ele><time>2026-04-06T14:14:29.98Z</time></trkpt><trkpt lat="45.64323452011174" lon="9.86085180180333"><ele>208.0</ele><time>2026-04-06T14:14:30.98Z</time></trkpt><trkpt lat="45.64313557906399" lon="9.861018537656046"><ele>209.5</ele><time>2026-04-06T14:14:31.98Z</time></trkpt><trkpt lat="45.64304360905305" lon="9.861170675772547"><ele>211.0</ele><time>2026-04-06T14:14:32.98Z</time></trkpt><trkpt lat="45.64296851021265" lon="9.861299458903524"><ele>212.5</ele><time>2026-04-06T14:14:33.98Z</time></trkpt><trkpt lat="45.642912958909" lon="9.861423071062196"><ele>214.0</ele><time>2026-04-06T14:14:34.981Z</time></trkpt><trkpt lat="45.642854986609755" lon="9.861551498513975"><ele>212.0</ele><time>2026-04-06T14:14:35.98Z</time></trkpt><trkpt lat="45.64276031341411" lon="9.861696988482178"><ele>210.0</ele><time>2026-04-06T14:14:36.98Z</time></trkpt><trkpt lat="45.6426301141338" lon="9.861846844666086"><ele>208.0</ele><time>2026-04-06T14:14:37.981Z</time></trkpt><trkpt lat="45.642474415523154" lon="9.861966109231396"><ele>210.33333333333331</ele><time>2026-04-06T14:14:38.981Z</time></trkpt><trkpt lat="45.64230752730426" lon="9.862042958923599"><ele>212.66666666666669</ele><time>2026-04-06T14:14:39.981Z</time></trkpt><trkpt lat="45.64210635629346" lon="9.862091508885946"><ele>215.0</ele><time>2026-04-06T14:14:40.981Z</time></trkpt><trkpt lat="45.64187528604258" lon="9.862108845832784"><ele>215.0</ele><time>2026-04-06T14:14:41.98Z</time></trkpt><trkpt lat="45.64164254171722" lon="9.862149176171423"><ele>215.0</ele><time>2026-04-06T14:14:42.98Z</time></trkpt><trkpt lat="45.641401603656035" lon="9.862207233709475"><ele>215.0</ele><time>2026-04-06T14:14:43.981Z</time></trkpt><trkpt lat="45.64114353117502" lon="9.86228358465396"><ele>215.0</ele><time>2026-04-06T14:14:44.981Z</time></trkpt><trkpt lat="45.640860356062106" lon="9.862366402918905"><ele>214.0</ele><time>2026-04-06T14:14:45.981Z</time></trkpt><trkpt lat="45.640557005780366" lon="9.862466934882379"><ele>213.0</ele><time>2026-04-06T14:14:46.98Z</time></trkpt><trkpt lat="45.64028056573247" lon="9.862567278105391"><ele>217.0</ele><time>2026-04-06T14:14:47.98Z</time></trkpt><trkpt lat="45.640044027403434" lon="9.862666338119158"><ele>221.0</ele><time>2026-04-06T14:14:48.98Z</time></trkpt><trkpt lat="45.639835551648545" lon="9.86276095412295"><ele>221.0</ele><time>2026-04-06T14:14:49.98Z</time></trkpt><trkpt lat="45.639636118602674" lon="9.862868633624302"><ele>221.0</ele><time>2026-04-06T14:14:50.98Z</time></trkpt><trkpt lat="45.63945383344491" lon="9.863006091603307"><ele>221.0</ele><time>2026-04-06T14:14:51.98Z</time></trkpt><trkpt lat="45.63930042478433" lon="9.863166989616136"><ele>219.33333333333334</ele><time>2026-04-06T14:14:52.98Z</time></trkpt><trkpt lat="45.63917263025871" lon="9.863338931823723"><ele>217.66666666666669</ele><time>2026-04-06T14:14:53.98Z</time></trkpt><trkpt lat="45.63907135820759" lon="9.863551966793247"><ele>216.0</ele><time>2026-04-06T14:14:54.98Z</time></trkpt><trkpt lat="45.638978310665365" lon="9.863806116220184"><ele>216.0</ele><time>2026-04-06T14:14:55.98Z</time></trkpt><trkpt lat="45.63887117484491" lon="9.86408902355597"><ele>216.0</ele><time>2026-04-06T14:14:56.98Z</time></trkpt><trkpt lat="45.63873986654462" lon="9.864368037377334"><ele>214.0</ele><time>2026-04-06T14:14:57.98Z</time></trkpt><trkpt lat="45.63858080688918" lon="9.864631606512544"><ele>212.0</ele><time>2026-04-06T14:14:58.98Z</time></trkpt><trkpt lat="45.6384044363147" lon="9.864884950906632"><ele>212.0</ele><time>2026-04-06T14:14:59.98Z</time></trkpt><trkpt lat="45.63821694594306" lon="9.865091140135322"><ele>212.0</ele><time>2026-04-06T14:15:00.98Z</time></trkpt><trkpt lat="45.638041457763094" lon="9.86524214345213"><ele>212.0</ele><time>2026-04-06T14:15:01.98Z</time></trkpt><trkpt lat="45.637892034486796" lon="9.865393818582652"><ele>211.66666666666669</ele><time>2026-04-06T14:15:02.98Z</time></trkpt><trkpt lat="45.637754454918756" lon="9.86557314815564"><ele>211.33333333333331</ele><time>2026-04-06T14:15:03.98Z</time></trkpt><trkpt lat="45.63764443603274" lon="9.865774925657234"><ele>211.0</ele><time>2026-04-06T14:15:04.98Z</time></trkpt><trkpt lat="45.637560719269146" lon="9.865980982795485"><ele>211.0</ele><time>2026-04-06T14:15:05.98Z</time></trkpt><trkpt lat="45.63747029377368" lon="9.866159270578613"><ele>211.0</ele><time>2026-04-06T14:15:06.98Z</time></trkpt><trkpt lat="45.63733177934855" lon="9.866319012044611"><ele>211.0</ele><time>2026-04-06T14:15:07.98Z</time></trkpt><trkpt lat="45.63715966035232" lon="9.866476714226916"><ele>211.0</ele><time>2026-04-06T14:15:08.98Z</time></trkpt><trkpt lat="45.636983876535396" lon="9.866653234041245"><ele>211.0</ele><time>2026-04-06T14:15:09.98Z</time></trkpt><trkpt lat="45.63681339535537" lon="9.866860335851397"><ele>211.0</ele><time>2026-04-06T14:15:10.98Z</time></trkpt><trkpt lat="45.636670297207395" lon="9.867085133711187"><ele>210.33333333333331</ele><time>2026-04-06T14:15:11.98Z</time></trkpt><trkpt lat="45.63655079023529" lon="9.867302738599694"><ele>209.66666666666669</ele><time>2026-04-06T14:15:12.98Z</time></trkpt><trkpt lat="45.636448160123074" lon="9.867519313541347"><ele>209.0</ele><time>2026-04-06T14:15:13.98Z</time></trkpt><trkpt lat="45.63636588697633" lon="9.867736057694714"><ele>210.33333333333334</ele><time>2026-04-06T14:15:14.98Z</time></trkpt><trkpt lat="45.636311248972774" lon="9.867956287406201"><ele>211.66666666666669</ele><time>2026-04-06T14:15:15.98Z</time></trkpt><trkpt lat="45.63627624515272" lon="9.868192392259362"><ele>213.0</ele><time>2026-04-06T14:15:16.98Z</time></trkpt><trkpt lat="45.63625398181238" lon="9.86842957109468"><ele>213.60000000000002</ele><time>2026-04-06T14:15:17.98Z</time></trkpt><trkpt lat="45.636223926787245" lon="9.86863581190285"><ele>214.20000000000002</ele><time>2026-04-06T14:15:18.98Z</time></trkpt><trkpt lat="45.63619518822621" lon="9.868786697655057"><ele>214.8</ele><time>2026-04-06T14:15:19.98Z</time></trkpt><trkpt lat="45.63615779214791" lon="9.868908459190957"><ele>215.4</ele><time>2026-04-06T14:15:20.98Z</time></trkpt><trkpt lat="45.636112267665816" lon="9.868982822933937"><ele>216.0</ele><time>2026-04-06T14:15:21.98Z</time></trkpt><trkpt lat="45.63604545418445" lon="9.868997478692433"><ele>214.4</ele><time>2026-04-06T14:15:22.98Z</time></trkpt><trkpt lat="45.635953570266494" lon="9.868928882773819"><ele>212.8</ele><time>2026-04-06T14:15:23.98Z</time></trkpt><trkpt lat="45.63587360260228" lon="9.868801545126002"><ele>211.20000000000002</ele><time>2026-04-06T14:15:24.98Z</time></trkpt><trkpt lat="45.635805480131665" lon="9.868703701398646"><ele>209.60000000000002</ele><time>2026-04-06T14:15:25.98Z</time></trkpt><trkpt lat="45.63576647937355" lon="9.868599034569053"><ele>208.0</ele><time>2026-04-06T14:15:26.98Z</time></trkpt><trkpt lat="45.635713672031855" lon="9.868485667021655"><ele>207.8</ele><time>2026-04-06T14:15:27.98Z</time></trkpt><trkpt lat="45.63566675704536" lon="9.868381279176939"><ele>207.60000000000002</ele><time>2026-04-06T14:15:28.98Z</time></trkpt><trkpt lat="45.635627038307135" lon="9.868290699917571"><ele>207.39999999999998</ele><time>2026-04-06T14:15:29.98Z</time></trkpt><trkpt lat="45.63550178014415" lon="9.868300880245249"><ele>207.2</ele><time>2026-04-06T14:15:30.98Z</time></trkpt><trkpt lat="45.63539533566785" lon="9.868276134678672"><ele>207.0</ele><time>2026-04-06T14:15:31.98Z</time></trkpt><trkpt lat="45.63526740758838" lon="9.868208429311785"><ele>206.75</ele><time>2026-04-06T14:15:32.98Z</time></trkpt><trkpt lat="45.63513004789036" lon="9.868097056768894"><ele>206.5</ele><time>2026-04-06T14:15:33.98Z</time></trkpt><trkpt lat="45.634995463184254" lon="9.868003879660444"><ele>206.25</ele><time>2026-04-06T14:15:34.98Z</time></trkpt><trkpt lat="45.63487543900776" lon="9.86792801471302"><ele>206.0</ele><time>2026-04-06T14:15:35.98Z</time></trkpt><trkpt lat="45.63474325138027" lon="9.867849052072662"><ele>206.0</ele><time>2026-04-06T14:15:36.98Z</time></trkpt><trkpt lat="45.63459578384599" lon="9.867751159543078"><ele>206.0</ele><time>2026-04-06T14:15:37.98Z</time></trkpt><trkpt lat="45.63444193383563" lon="9.867643843950832"><ele>206.0</ele><time>2026-04-06T14:15:38.98Z</time></trkpt><trkpt lat="45.63428655738977" lon="9.867539518223337"><ele>205.33333333333334</ele><time>2026-04-06T14:15:39.98Z</time></trkpt><trkpt lat="45.63415044921583" lon="9.867411143275904"><ele>204.66666666666669</ele><time>2026-04-06T14:15:40.98Z</time></trkpt><trkpt lat="45.63401270568916" lon="9.867320219570557"><ele>204.0</ele><time>2026-04-06T14:15:41.98Z</time></trkpt><trkpt lat="45.6338788239083" lon="9.867221239018939"><ele>204.0</ele><time>2026-04-06T14:15:42.98Z</time></trkpt><trkpt lat="45.63373878683391" lon="9.867137466635905"><ele>204.0</ele><time>2026-04-06T14:15:43.98Z</time></trkpt><trkpt lat="45.63360570356384" lon="9.867044427389045"><ele>204.0</ele><time>2026-04-06T14:15:44.98Z</time></trkpt><trkpt lat="45.63348922470164" lon="9.866958978874678"><ele>204.0</ele><time>2026-04-06T14:15:45.98Z</time></trkpt><trkpt lat="45.63339582197849" lon="9.866888972365953"><ele>204.0</ele><time>2026-04-06T14:15:46.98Z</time></trkpt><trkpt lat="45.63332861350378" lon="9.866835362641865"><ele>204.0</ele><time>2026-04-06T14:15:47.98Z</time></trkpt><trkpt lat="45.633266119909315" lon="9.866795401017605"><ele>204.0</ele><time>2026-04-06T14:15:48.98Z</time></trkpt><trkpt lat="45.633170178355215" lon="9.86675085478301"><ele>204.0</ele><time>2026-04-06T14:15:49.98Z</time></trkpt><trkpt lat="45.63303939735656" lon="9.866698325794754"><ele>204.0</ele><time>2026-04-06T14:15:50.98Z</time></trkpt><trkpt lat="45.63289202470988" lon="9.866617894863424"><ele>203.66666666666669</ele><time>2026-04-06T14:15:51.98Z</time></trkpt><trkpt lat="45.63272867207666" lon="9.866534623287432"><ele>203.33333333333334</ele><time>2026-04-06T14:15:52.98Z</time></trkpt><trkpt lat="45.63257677726069" lon="9.866459187312357"><ele>203.0</ele><time>2026-04-06T14:15:53.98Z</time></trkpt><trkpt lat="45.632436648876514" lon="9.86640503194818"><ele>203.0</ele><time>2026-04-06T14:15:54.98Z</time></trkpt><trkpt lat="45.63232100360584" lon="9.866335871109355"><ele>203.0</ele><time>2026-04-06T14:15:55.98Z</time></trkpt><trkpt lat="45.63223633507632" lon="9.866302305449835"><ele>203.0</ele><time>2026-04-06T14:15:56.98Z</time></trkpt><trkpt lat="45.63212280662266" lon="9.866355048401154"><ele>203.0</ele><time>2026-04-06T14:15:58.98Z</time></trkpt><trkpt lat="45.63209370034629" lon="9.86650097299693"><ele>203.0</ele><time>2026-04-06T14:15:59.98Z</time></trkpt><trkpt lat="45.63208623539629" lon="9.866681536773042"><ele>203.33333333333334</ele><time>2026-04-06T14:16:00.98Z</time></trkpt><trkpt lat="45.63208756068857" lon="9.866892638802224"><ele>203.66666666666669</ele><time>2026-04-06T14:16:01.98Z</time></trkpt><trkpt lat="45.63207962814696" lon="9.86714169807065"><ele>204.0</ele><time>2026-04-06T14:16:02.98Z</time></trkpt><trkpt lat="45.63204575451356" lon="9.867364034935479"><ele>204.0</ele><time>2026-04-06T14:16:03.98Z</time></trkpt><trkpt lat="45.63197947233854" lon="9.867528070565122"><ele>204.0</ele><time>2026-04-06T14:16:04.98Z</time></trkpt><trkpt lat="45.63189420273957" lon="9.867643418273328"><ele>204.0</ele><time>2026-04-06T14:16:05.98Z</time></trkpt><trkpt lat="45.631781542006195" lon="9.867697181826236"><ele>204.0</ele><time>2026-04-06T14:16:06.98Z</time></trkpt><trkpt lat="45.63166231580112" lon="9.867695124433554"><ele>203.75</ele><time>2026-04-06T14:16:07.98Z</time></trkpt><trkpt lat="45.63152225184598" lon="9.867648066096347"><ele>203.5</ele><time>2026-04-06T14:16:08.98Z</time></trkpt><trkpt lat="45.63138355419819" lon="9.867514642641174"><ele>203.25</ele><time>2026-04-06T14:16:09.98Z</time></trkpt><trkpt lat="45.631273742630945" lon="9.867454964483624"><ele>203.0</ele><time>2026-04-06T14:16:10.98Z</time></trkpt><trkpt lat="45.63118692221626" lon="9.867408404822806"><ele>203.0</ele><time>2026-04-06T14:16:11.98Z</time></trkpt><trkpt lat="45.631113315855494" lon="9.86737571974755"><ele>203.0</ele><time>2026-04-06T14:16:12.98Z</time></trkpt><trkpt lat="45.63104861203181" lon="9.867374969733017"><ele>203.0</ele><time>2026-04-06T14:16:13.98Z</time></trkpt><trkpt lat="45.63097671202794" lon="9.867316977131038"><ele>203.0</ele><time>2026-04-06T14:16:15.98Z</time></trkpt><trkpt lat="45.63097929619845" lon="9.867498027932461"><ele>203.0</ele><time>2026-04-06T14:16:21.979Z</time></trkpt><trkpt lat="45.631157850378706" lon="9.867492656520215"><ele>203.0</ele><time>2026-04-06T14:16:22.979Z</time></trkpt><trkpt lat="45.63127031426825" lon="9.86754501940746"><ele>203.0</ele><time>2026-04-06T14:16:23.979Z</time></trkpt><trkpt lat="45.63140028803077" lon="9.867617758106265"><ele>203.0</ele><time>2026-04-06T14:16:24.979Z</time></trkpt><trkpt lat="45.63154022953561" lon="9.867689543720212"><ele>203.0</ele><time>2026-04-06T14:16:25.979Z</time></trkpt><trkpt lat="45.63166961738458" lon="9.867724144003773"><ele>203.00000000000003</ele><time>2026-04-06T14:16:26.979Z</time></trkpt><trkpt lat="45.631785653259705" lon="9.867721763404743"><ele>203.0</ele><time>2026-04-06T14:16:27.979Z</time></trkpt><trkpt lat="45.631875657717785" lon="9.86769124679079"><ele>203.0</ele><time>2026-04-06T14:16:28.978Z</time></trkpt><trkpt lat="45.631953742297306" lon="9.867634509619867"><ele>203.0</ele><time>2026-04-06T14:16:29.978Z</time></trkpt><trkpt lat="45.63201592901485" lon="9.867595719785502"><ele>203.00000000000003</ele><time>2026-04-06T14:16:30.978Z</time></trkpt><trkpt lat="45.632090993631756" lon="9.867544017159801"><ele>203.0</ele><time>2026-04-06T14:16:32.978Z</time></trkpt><trkpt lat="45.63210374606275" lon="9.867372158985365"><ele>203.0</ele><time>2026-04-06T14:17:09.977Z</time></trkpt><trkpt lat="45.632115396325545" lon="9.867231762103174"><ele>203.0</ele><time>2026-04-06T14:17:10.977Z</time></trkpt><trkpt lat="45.63212101949005" lon="9.86706865280648"><ele>203.0</ele><time>2026-04-06T14:17:11.977Z</time></trkpt><trkpt lat="45.63212783958337" lon="9.866900363890977"><ele>203.0</ele><time>2026-04-06T14:17:12.977Z</time></trkpt><trkpt lat="45.63213800307449" lon="9.866720772892307"><ele>203.0</ele><time>2026-04-06T14:17:13.977Z</time></trkpt><trkpt lat="45.63215730824091" lon="9.866561294181212"><ele>203.0</ele><time>2026-04-06T14:17:14.977Z</time></trkpt><trkpt lat="45.63217935246278" lon="9.866433940296837"><ele>203.0</ele><time>2026-04-06T14:17:15.977Z</time></trkpt><trkpt lat="45.632187143489354" lon="9.86633979671719"><ele>203.0</ele><time>2026-04-06T14:17:16.977Z</time></trkpt><trkpt lat="45.63234007044003" lon="9.8663785110151"><ele>203.0</ele><time>2026-04-06T14:17:18.977Z</time></trkpt><trkpt lat="45.63244415222198" lon="9.866451568550223"><ele>203.0</ele><time>2026-04-06T14:17:19.977Z</time></trkpt><trkpt lat="45.6325462668585" lon="9.866497925904117"><ele>203.0</ele><time>2026-04-06T14:17:20.977Z</time></trkpt><trkpt lat="45.63261888149283" lon="9.866530346574125"><ele>203.0</ele><time>2026-04-06T14:17:22.977Z</time></trkpt><trkpt lat="45.63254307901418" lon="9.866506508503994"><ele>203.0</ele><time>2026-04-06T14:17:25.977Z</time></trkpt><trkpt lat="45.632455971211705" lon="9.86649685986939"><ele>203.0</ele><time>2026-04-06T14:17:26.977Z</time></trkpt><trkpt lat="45.63234835752119" lon="9.866421118885096"><ele>203.0</ele><time>2026-04-06T14:17:27.977Z</time></trkpt><trkpt lat="45.63224158518297" lon="9.86639349703043"><ele>203.0</ele><time>2026-04-06T14:17:28.977Z</time></trkpt><trkpt lat="45.632175270903176" lon="9.866329131791366"><ele>203.0</ele><time>2026-04-06T14:17:29.977Z</time></trkpt><trkpt lat="45.63218488034733" lon="9.866161657211176"><ele>203.0</ele><time>2026-04-06T14:17:31.977Z</time></trkpt><trkpt lat="45.63219984707296" lon="9.865977394681186"><ele>203.0</ele><time>2026-04-06T14:17:32.977Z</time></trkpt><trkpt lat="45.63221943992539" lon="9.865764663266402"><ele>202.75</ele><time>2026-04-06T14:17:33.977Z</time></trkpt><trkpt lat="45.63226113745744" lon="9.865559067921827"><ele>202.5</ele><time>2026-04-06T14:17:34.977Z</time></trkpt><trkpt lat="45.632313397055334" lon="9.865356725582581"><ele>202.25</ele><time>2026-04-06T14:17:35.977Z</time></trkpt><trkpt lat="45.63236151545086" lon="9.865172858032205"><ele>202.0</ele><time>2026-04-06T14:17:36.977Z</time></trkpt><trkpt lat="45.632405225904726" lon="9.865006311992556"><ele>202.0</ele><time>2026-04-06T14:17:37.977Z</time></trkpt><trkpt lat="45.632427165354564" lon="9.864860839223175"><ele>202.0</ele><time>2026-04-06T14:17:38.977Z</time></trkpt><trkpt lat="45.63245230492724" lon="9.864763925737954"><ele>202.0</ele><time>2026-04-06T14:17:39.977Z</time></trkpt><trkpt lat="45.632379149353305" lon="9.864692123325637"><ele>202.0</ele><time>2026-04-06T14:17:43.977Z</time></trkpt><trkpt lat="45.63226090407207" lon="9.864660526721929"><ele>202.0</ele><time>2026-04-06T14:17:44.977Z</time></trkpt><trkpt lat="45.63249331571055" lon="9.865167515328514"><ele>202.0</ele><time>2026-04-06T14:17:45.977Z</time></trkpt><trkpt lat="45.632454641754165" lon="9.865349605363168"><ele>202.0</ele><time>2026-04-06T14:17:46.977Z</time></trkpt><trkpt lat="45.632416218701884" lon="9.865533995476355"><ele>202.0</ele><time>2026-04-06T14:17:47.977Z</time></trkpt><trkpt lat="45.632381517401996" lon="9.865707733249922"><ele>202.0</ele><time>2026-04-06T14:17:48.977Z</time></trkpt><trkpt lat="45.6323494177824" lon="9.865872186978926"><ele>202.25</ele><time>2026-04-06T14:17:49.977Z</time></trkpt><trkpt lat="45.63228172330136" lon="9.86603807374237"><ele>202.5</ele><time>2026-04-06T14:17:50.977Z</time></trkpt><trkpt lat="45.632117924462165" lon="9.866124992762476"><ele>202.75</ele><time>2026-04-06T14:17:51.977Z</time></trkpt><trkpt lat="45.632115061923905" lon="9.86625134974098"><ele>203.0</ele><time>2026-04-06T14:17:52.977Z</time></trkpt><trkpt lat="45.632198414836985" lon="9.8663639289452"><ele>203.0</ele><time>2026-04-06T14:17:54.977Z</time></trkpt><trkpt lat="45.63229601480971" lon="9.86641042957988"><ele>203.0</ele><time>2026-04-06T14:17:55.977Z</time></trkpt><trkpt lat="45.63243649038875" lon="9.866475756704235"><ele>203.0</ele><time>2026-04-06T14:17:56.977Z</time></trkpt><trkpt lat="45.63260893132649" lon="9.866551265995168"><ele>203.0</ele><time>2026-04-06T14:17:57.977Z</time></trkpt><trkpt lat="45.63277792528745" lon="9.86662477668452"><ele>203.0</ele><time>2026-04-06T14:17:58.977Z</time></trkpt><trkpt lat="45.63295834929997" lon="9.86670321658164"><ele>203.0</ele><time>2026-04-06T14:17:59.977Z</time></trkpt><trkpt lat="45.63310861633736" lon="9.86677034599875"><ele>203.0</ele><time>2026-04-06T14:18:00.977Z</time></trkpt><trkpt lat="45.63324083025978" lon="9.86682928491923"><ele>203.25</ele><time>2026-04-06T14:18:01.977Z</time></trkpt><trkpt lat="45.633359411042804" lon="9.866883176470036"><ele>203.5</ele><time>2026-04-06T14:18:02.977Z</time></trkpt><trkpt lat="45.63347928783087" lon="9.86699457001805"><ele>203.75</ele><time>2026-04-06T14:18:03.977Z</time></trkpt><trkpt lat="45.63362123035591" lon="9.867097524968544"><ele>204.0</ele><time>2026-04-06T14:18:04.977Z</time></trkpt><trkpt lat="45.63375476445028" lon="9.867192050059796"><ele>204.0</ele><time>2026-04-06T14:18:05.977Z</time></trkpt><trkpt lat="45.63387723125573" lon="9.867276694278832"><ele>204.0</ele><time>2026-04-06T14:18:06.977Z</time></trkpt><trkpt lat="45.63400339246742" lon="9.867366869901632"><ele>204.0</ele><time>2026-04-06T14:18:07.977Z</time></trkpt><trkpt lat="45.6341360869136" lon="9.867460249854865"><ele>204.0</ele><time>2026-04-06T14:18:08.977Z</time></trkpt><trkpt lat="45.634271973599894" lon="9.867555460293897"><ele>204.25</ele><time>2026-04-06T14:18:09.977Z</time></trkpt><trkpt lat="45.63440943375854" lon="9.867640658876917"><ele>204.5</ele><time>2026-04-06T14:18:10.977Z</time></trkpt><trkpt lat="45.63453801530188" lon="9.867754504750922"><ele>204.75</ele><time>2026-04-06T14:18:11.977Z</time></trkpt><trkpt lat="45.634667389241685" lon="9.867853810047762"><ele>205.0</ele><time>2026-04-06T14:18:12.977Z</time></trkpt><trkpt lat="45.634809523674384" lon="9.867969716467622"><ele>205.25</ele><time>2026-04-06T14:18:13.977Z</time></trkpt><trkpt lat="45.63493477408951" lon="9.86806394844268"><ele>205.5</ele><time>2026-04-06T14:18:14.977Z</time></trkpt><trkpt lat="45.63505832881985" lon="9.86814865085092"><ele>205.75</ele><time>2026-04-06T14:18:15.977Z</time></trkpt><trkpt lat="45.63517820110307" lon="9.868225029510487"><ele>206.0</ele><time>2026-04-06T14:18:16.977Z</time></trkpt><trkpt lat="45.63529402448515" lon="9.868292495472271"><ele>206.20000000000002</ele><time>2026-04-06T14:18:17.977Z</time></trkpt><trkpt lat="45.63540440396372" lon="9.868360286329956"><ele>206.4</ele><time>2026-04-06T14:18:18.977Z</time></trkpt><trkpt lat="45.63550398856321" lon="9.868422407011233"><ele>206.6</ele><time>2026-04-06T14:18:19.977Z</time></trkpt><trkpt lat="45.635587577941145" lon="9.868462145530136"><ele>206.8</ele><time>2026-04-06T14:18:20.977Z</time></trkpt><trkpt lat="45.63564626931036" lon="9.868418527752144"><ele>207.0</ele><time>2026-04-06T14:18:24.977Z</time></trkpt><trkpt lat="45.63558621468146" lon="9.868186842684272"><ele>207.0</ele><time>2026-04-06T14:18:26.977Z</time></trkpt><trkpt lat="45.63550931054678" lon="9.86804728686073"><ele>207.0</ele><time>2026-04-06T14:18:27.977Z</time></trkpt><trkpt lat="45.63543188041498" lon="9.867881778999454"><ele>207.0</ele><time>2026-04-06T14:18:28.977Z</time></trkpt><trkpt lat="45.635355484493324" lon="9.867708919728875"><ele>207.0</ele><time>2026-04-06T14:18:29.977Z</time></trkpt><trkpt lat="45.63528178952873" lon="9.867539439290024"><ele>206.8</ele><time>2026-04-06T14:18:30.977Z</time></trkpt><trkpt lat="45.635215366497526" lon="9.867384323969457"><ele>206.6</ele><time>2026-04-06T14:18:31.977Z</time></trkpt><trkpt lat="45.63515502345782" lon="9.867250698518628"><ele>206.4</ele><time>2026-04-06T14:18:32.977Z</time></trkpt><trkpt lat="45.63511284107597" lon="9.867124382647082"><ele>206.20000000000002</ele><time>2026-04-06T14:18:33.977Z</time></trkpt><trkpt lat="45.63507172393837" lon="9.867031610138135"><ele>206.0</ele><time>2026-04-06T14:18:34.977Z</time></trkpt><trkpt lat="45.63502650072579" lon="9.866929742395001"><ele>206.0</ele><time>2026-04-06T14:18:35.977Z</time></trkpt><trkpt lat="45.63496624756645" lon="9.866794148316181"><ele>206.0</ele><time>2026-04-06T14:18:36.977Z</time></trkpt><trkpt lat="45.63488332717129" lon="9.866631965341734"><ele>206.0</ele><time>2026-04-06T14:18:37.977Z</time></trkpt><trkpt lat="45.63480318464672" lon="9.866436622765411"><ele>206.0</ele><time>2026-04-06T14:18:38.977Z</time></trkpt><trkpt lat="45.634707767808756" lon="9.86622995308038"><ele>206.0</ele><time>2026-04-06T14:18:39.977Z</time></trkpt><trkpt lat="45.63461422016558" lon="9.866026537118943"><ele>206.0</ele><time>2026-04-06T14:18:40.977Z</time></trkpt><trkpt lat="45.63452074887407" lon="9.86582026931305"><ele>206.0</ele><time>2026-04-06T14:18:41.977Z</time></trkpt><trkpt lat="45.634438188975444" lon="9.865602908426121"><ele>205.66666666666669</ele><time>2026-04-06T14:18:42.977Z</time></trkpt><trkpt lat="45.63434867983136" lon="9.865396192754499"><ele>205.33333333333331</ele><time>2026-04-06T14:18:43.977Z</time></trkpt><trkpt lat="45.634259144388245" lon="9.865193104588858"><ele>205.0</ele><time>2026-04-06T14:18:44.977Z</time></trkpt><trkpt lat="45.6341719058321" lon="9.86499679993698"><ele>205.0</ele><time>2026-04-06T14:18:45.977Z</time></trkpt><trkpt lat="45.63410023580471" lon="9.86482245462756"><ele>205.0</ele><time>2026-04-06T14:18:46.976Z</time></trkpt><trkpt lat="45.63402522922407" lon="9.86465774520985"><ele>205.0</ele><time>2026-04-06T14:18:47.975Z</time></trkpt><trkpt lat="45.633947957851206" lon="9.864476532336507"><ele>205.0</ele><time>2026-04-06T14:18:48.975Z</time></trkpt><trkpt lat="45.63386503123604" lon="9.86428311616571"><ele>204.75</ele><time>2026-04-06T14:18:49.975Z</time></trkpt><trkpt lat="45.63378758288723" lon="9.864102543961037"><ele>204.5</ele><time>2026-04-06T14:18:50.975Z</time></trkpt><trkpt lat="45.633725802777974" lon="9.863934945979423"><ele>204.25</ele><time>2026-04-06T14:18:51.975Z</time></trkpt><trkpt lat="45.633698127180814" lon="9.86376066243461"><ele>204.0</ele><time>2026-04-06T14:18:52.975Z</time></trkpt><trkpt lat="45.633732565255194" lon="9.863569265838882"><ele>203.75</ele><time>2026-04-06T14:18:53.975Z</time></trkpt><trkpt lat="45.63372665067412" lon="9.863389664397832"><ele>203.5</ele><time>2026-04-06T14:18:54.975Z</time></trkpt><trkpt lat="45.63374441611893" lon="9.863232297506649"><ele>203.25</ele><time>2026-04-06T14:18:55.975Z</time></trkpt><trkpt lat="45.633745431471034" lon="9.863076960195114"><ele>203.0</ele><time>2026-04-06T14:18:56.974Z</time></trkpt><trkpt lat="45.63373743700342" lon="9.862928798202153"><ele>203.0</ele><time>2026-04-06T14:18:57.974Z</time></trkpt><trkpt lat="45.633729756000676" lon="9.862786074836077"><ele>203.0</ele><time>2026-04-06T14:18:58.975Z</time></trkpt><trkpt lat="45.6337222524359" lon="9.862628968970881"><ele>203.0</ele><time>2026-04-06T14:18:59.975Z</time></trkpt><trkpt lat="45.63371757387618" lon="9.862486378008793"><ele>203.0</ele><time>2026-04-06T14:19:00.975Z</time></trkpt><trkpt lat="45.63372736542186" lon="9.862354445365886"><ele>203.0</ele><time>2026-04-06T14:19:01.975Z</time></trkpt><trkpt lat="45.63372708509547" lon="9.862240792425602"><ele>202.8</ele><time>2026-04-06T14:19:02.975Z</time></trkpt><trkpt lat="45.63368255814303" lon="9.862168286775278"><ele>202.60000000000002</ele><time>2026-04-06T14:19:03.975Z</time></trkpt><trkpt lat="45.633626399474345" lon="9.862118519564339"><ele>202.39999999999998</ele><time>2026-04-06T14:19:04.975Z</time></trkpt><trkpt lat="45.633525146852556" lon="9.862195981317951"><ele>202.2</ele><time>2026-04-06T14:19:05.975Z</time></trkpt><trkpt lat="45.63344510027003" lon="9.8623185836234"><ele>202.0</ele><time>2026-04-06T14:19:06.975Z</time></trkpt><trkpt lat="45.63332542249377" lon="9.862279104206289"><ele>201.0</ele><time>2026-04-06T14:19:07.975Z</time></trkpt><trkpt lat="45.633190022979825" lon="9.862229575869376"><ele>200.0</ele><time>2026-04-06T14:19:08.975Z</time></trkpt><trkpt lat="45.63303559820983" lon="9.862196658042075"><ele>199.0</ele><time>2026-04-06T14:19:09.975Z</time></trkpt><trkpt lat="45.632919968617394" lon="9.86214730412396"><ele>198.0</ele><time>2026-04-06T14:19:10.975Z</time></trkpt><trkpt lat="45.63281534733649" lon="9.862087444790413"><ele>198.0</ele><time>2026-04-06T14:19:11.975Z</time></trkpt><trkpt lat="45.63274699684636" lon="9.862000132010603"><ele>198.0</ele><time>2026-04-06T14:19:12.975Z</time></trkpt><trkpt lat="45.63271214782724" lon="9.861868089162252"><ele>198.0</ele><time>2026-04-06T14:19:13.975Z</time></trkpt><trkpt lat="45.632640753094584" lon="9.86171234248092"><ele>198.0</ele><time>2026-04-06T14:19:14.975Z</time></trkpt><trkpt lat="45.632554062819764" lon="9.861621446449199"><ele>198.0</ele><time>2026-04-06T14:19:15.975Z</time></trkpt><trkpt lat="45.63246546949726" lon="9.861584764753385"><ele>198.0</ele><time>2026-04-06T14:19:16.975Z</time></trkpt><trkpt lat="45.63235334780984" lon="9.86167934893101"><ele>198.0</ele><time>2026-04-06T14:19:17.975Z</time></trkpt><trkpt lat="45.632269487147745" lon="9.861808808046131"><ele>198.0</ele><time>2026-04-06T14:19:18.975Z</time></trkpt><trkpt lat="45.632222012732825" lon="9.861982108735262"><ele>198.0</ele><time>2026-04-06T14:19:19.975Z</time></trkpt><trkpt lat="45.632215488018936" lon="9.862181496666917"><ele>198.0</ele><time>2026-04-06T14:19:20.975Z</time></trkpt><trkpt lat="45.63226958524337" lon="9.862376026129088"><ele>198.0</ele><time>2026-04-06T14:19:21.975Z</time></trkpt><trkpt lat="45.63218827531297" lon="9.862584280050267"><ele>198.0</ele><time>2026-04-06T14:19:22.975Z</time></trkpt><trkpt lat="45.63208307686798" lon="9.862698302933818"><ele>198.0</ele><time>2026-04-06T14:19:23.975Z</time></trkpt><trkpt lat="45.63198299466674" lon="9.862856479571967"><ele>198.66666666666669</ele><time>2026-04-06T14:19:24.975Z</time></trkpt><trkpt lat="45.631846194701616" lon="9.86301056149658"><ele>199.33333333333334</ele><time>2026-04-06T14:19:25.975Z</time></trkpt><trkpt lat="45.63172766251255" lon="9.863210767871552"><ele>200.0</ele><time>2026-04-06T14:19:26.975Z</time></trkpt><trkpt lat="45.6316207803147" lon="9.863430465633236"><ele>200.0</ele><time>2026-04-06T14:19:27.975Z</time></trkpt><trkpt lat="45.63152533401426" lon="9.863663681299792"><ele>200.0</ele><time>2026-04-06T14:19:28.975Z</time></trkpt><trkpt lat="45.63142878763728" lon="9.863909850458898"><ele>200.0</ele><time>2026-04-06T14:19:29.975Z</time></trkpt><trkpt lat="45.631348394338694" lon="9.864168860721314"><ele>200.0</ele><time>2026-04-06T14:19:30.975Z</time></trkpt><trkpt lat="45.63128407617973" lon="9.864429142461985"><ele>200.0</ele><time>2026-04-06T14:19:31.975Z</time></trkpt><trkpt lat="45.63123059833673" lon="9.86469717943738"><ele>200.0</ele><time>2026-04-06T14:19:32.975Z</time></trkpt><trkpt lat="45.63118026223369" lon="9.864963438564695"><ele>200.66666666666669</ele><time>2026-04-06T14:19:33.975Z</time></trkpt><trkpt lat="45.63112274711505" lon="9.865218329345561"><ele>201.33333333333331</ele><time>2026-04-06T14:19:34.975Z</time></trkpt><trkpt lat="45.631069497659574" lon="9.865463959040481"><ele>202.0</ele><time>2026-04-06T14:19:35.975Z</time></trkpt><trkpt lat="45.631013662376006" lon="9.865714288432562"><ele>202.0</ele><time>2026-04-06T14:19:36.975Z</time></trkpt><trkpt lat="45.630956166012325" lon="9.865971939259534"><ele>202.0</ele><time>2026-04-06T14:19:37.975Z</time></trkpt><trkpt lat="45.630899400221274" lon="9.866232253906679"><ele>202.0</ele><time>2026-04-06T14:19:38.975Z</time></trkpt><trkpt lat="45.630844968154015" lon="9.86648851314257"><ele>202.0</ele><time>2026-04-06T14:19:39.975Z</time></trkpt><trkpt lat="45.63078873187707" lon="9.86675330754748"><ele>202.0</ele><time>2026-04-06T14:19:40.975Z</time></trkpt><trkpt lat="45.63073190990612" lon="9.867023002087175"><ele>202.0</ele><time>2026-04-06T14:19:41.975Z</time></trkpt><trkpt lat="45.630671842445075" lon="9.867299036793346"><ele>202.33333333333331</ele><time>2026-04-06T14:19:42.975Z</time></trkpt><trkpt lat="45.63061063543494" lon="9.867578010509558"><ele>202.66666666666669</ele><time>2026-04-06T14:19:43.975Z</time></trkpt><trkpt lat="45.6305514861965" lon="9.867859031510019"><ele>203.0</ele><time>2026-04-06T14:19:44.975Z</time></trkpt><trkpt lat="45.63049272825096" lon="9.86813971787113"><ele>203.0</ele><time>2026-04-06T14:19:45.975Z</time></trkpt><trkpt lat="45.630434071784556" lon="9.868417200392933"><ele>203.0</ele><time>2026-04-06T14:19:46.975Z</time></trkpt><trkpt lat="45.63037622456173" lon="9.868692428265732"><ele>203.0</ele><time>2026-04-06T14:19:47.975Z</time></trkpt><trkpt lat="45.630323826695985" lon="9.868970158468423"><ele>202.66666666666669</ele><time>2026-04-06T14:19:48.975Z</time></trkpt><trkpt lat="45.63028231721811" lon="9.86925238562325"><ele>202.33333333333331</ele><time>2026-04-06T14:19:49.975Z</time></trkpt><trkpt lat="45.63024822511139" lon="9.869538718593542"><ele>202.0</ele><time>2026-04-06T14:19:50.975Z</time></trkpt><trkpt lat="45.63021518524606" lon="9.869823899910601"><ele>202.0</ele><time>2026-04-06T14:19:51.975Z</time></trkpt><trkpt lat="45.630176182391374" lon="9.870107659037208"><ele>202.0</ele><time>2026-04-06T14:19:52.975Z</time></trkpt><trkpt lat="45.63013586247834" lon="9.87039459962082"><ele>202.0</ele><time>2026-04-06T14:19:53.975Z</time></trkpt><trkpt lat="45.6300973696638" lon="9.870681017372231"><ele>201.66666666666666</ele><time>2026-04-06T14:19:54.975Z</time></trkpt><trkpt lat="45.630054883962345" lon="9.870966592914995"><ele>201.33333333333331</ele><time>2026-04-06T14:19:55.975Z</time></trkpt><trkpt lat="45.63000984941283" lon="9.871249845648103"><ele>201.0</ele><time>2026-04-06T14:19:56.975Z</time></trkpt><trkpt lat="45.62996840708701" lon="9.871526322450643"><ele>201.0</ele><time>2026-04-06T14:19:57.975Z</time></trkpt><trkpt lat="45.62992707297014" lon="9.871811679019226"><ele>201.0</ele><time>2026-04-06T14:19:58.975Z</time></trkpt><trkpt lat="45.62988565216706" lon="9.872100286218844"><ele>201.0</ele><time>2026-04-06T14:19:59.975Z</time></trkpt><trkpt lat="45.629846549509146" lon="9.872385794676031"><ele>201.66666666666669</ele><time>2026-04-06T14:20:00.975Z</time></trkpt><trkpt lat="45.62980519426149" lon="9.872669028602838"><ele>202.33333333333334</ele><time>2026-04-06T14:20:01.975Z</time></trkpt><trkpt lat="45.62976574378037" lon="9.872949855673467"><ele>203.0</ele><time>2026-04-06T14:20:02.975Z</time></trkpt><trkpt lat="45.629726451333134" lon="9.87322645605321"><ele>203.33333333333334</ele><time>2026-04-06T14:20:03.975Z</time></trkpt><trkpt lat="45.62968984343069" lon="9.873504618877362"><ele>203.66666666666669</ele><time>2026-04-06T14:20:04.975Z</time></trkpt><trkpt lat="45.62965541625028" lon="9.873795825371136"><ele>204.0</ele><time>2026-04-06T14:20:05.975Z</time></trkpt><trkpt lat="45.629621935668325" lon="9.87409199514876"><ele>204.0</ele><time>2026-04-06T14:20:06.975Z</time></trkpt><trkpt lat="45.62958624432363" lon="9.874389040696679"><ele>204.0</ele><time>2026-04-06T14:20:07.975Z</time></trkpt><trkpt lat="45.62955749809417" lon="9.874682919796944"><ele>204.0</ele><time>2026-04-06T14:20:08.975Z</time></trkpt><trkpt lat="45.6295376955962" lon="9.874981569986696"><ele>204.33333333333331</ele><time>2026-04-06T14:20:09.975Z</time></trkpt><trkpt lat="45.62952534391811" lon="9.875281605464279"><ele>204.66666666666666</ele><time>2026-04-06T14:20:10.975Z</time></trkpt><trkpt lat="45.62951130870036" lon="9.875577057773123"><ele>205.0</ele><time>2026-04-06T14:20:11.975Z</time></trkpt><trkpt lat="45.62949830993716" lon="9.875864057743383"><ele>205.0</ele><time>2026-04-06T14:20:12.975Z</time></trkpt><trkpt lat="45.62948934771811" lon="9.876151329651073"><ele>205.0</ele><time>2026-04-06T14:20:13.975Z</time></trkpt><trkpt lat="45.629487694956325" lon="9.876440191554494"><ele>205.0</ele><time>2026-04-06T14:20:14.975Z</time></trkpt><trkpt lat="45.629494442948875" lon="9.87671858257639"><ele>205.0</ele><time>2026-04-06T14:20:15.975Z</time></trkpt><trkpt lat="45.62950143422801" lon="9.877002910551631"><ele>205.0</ele><time>2026-04-06T14:20:16.975Z</time></trkpt><trkpt lat="45.62951603239329" lon="9.877277298080305"><ele>205.0</ele><time>2026-04-06T14:20:17.975Z</time></trkpt><trkpt lat="45.629539613345976" lon="9.877541326114752"><ele>205.33333333333331</ele><time>2026-04-06T14:20:18.975Z</time></trkpt><trkpt lat="45.62955671614058" lon="9.877782462514697"><ele>205.66666666666669</ele><time>2026-04-06T14:20:19.975Z</time></trkpt><trkpt lat="45.62956724978899" lon="9.878006081666996"><ele>206.0</ele><time>2026-04-06T14:20:20.975Z</time></trkpt><trkpt lat="45.62957818859095" lon="9.878215648031759"><ele>206.0</ele><time>2026-04-06T14:20:21.975Z</time></trkpt><trkpt lat="45.62959319424093" lon="9.878413504228133"><ele>206.0</ele><time>2026-04-06T14:20:22.975Z</time></trkpt><trkpt lat="45.6296108442003" lon="9.878604528928225"><ele>206.0</ele><time>2026-04-06T14:20:23.975Z</time></trkpt><trkpt lat="45.62962603646452" lon="9.878781989727111"><ele>206.0</ele><time>2026-04-06T14:20:24.975Z</time></trkpt><trkpt lat="45.62964949528666" lon="9.878957249979473"><ele>206.20000000000002</ele><time>2026-04-06T14:20:25.975Z</time></trkpt><trkpt lat="45.62965984077207" lon="9.879128329997"><ele>206.4</ele><time>2026-04-06T14:20:26.975Z</time></trkpt><trkpt lat="45.629669055899264" lon="9.87928805644084"><ele>206.6</ele><time>2026-04-06T14:20:27.975Z</time></trkpt><trkpt lat="45.62965765861185" lon="9.879425781624338"><ele>206.8</ele><time>2026-04-06T14:20:28.975Z</time></trkpt><trkpt lat="45.62962156630586" lon="9.879556058107127"><ele>207.0</ele><time>2026-04-06T14:20:29.975Z</time></trkpt><trkpt lat="45.629573413612114" lon="9.879661172116487"><ele>207.16666666666666</ele><time>2026-04-06T14:20:30.975Z</time></trkpt><trkpt lat="45.629523621162946" lon="9.879757423416665"><ele>207.33333333333331</ele><time>2026-04-06T14:20:31.975Z</time></trkpt><trkpt lat="45.62948443150193" lon="9.879865993766362"><ele>207.5</ele><time>2026-04-06T14:20:32.975Z</time></trkpt><trkpt lat="45.629472801597785" lon="9.879984816000032"><ele>207.66666666666666</ele><time>2026-04-06T14:20:33.975Z</time></trkpt><trkpt lat="45.6294802331817" lon="9.88010291434204"><ele>207.83333333333331</ele><time>2026-04-06T14:20:34.975Z</time></trkpt><trkpt lat="45.62951829111349" lon="9.880217655669972"><ele>208.0</ele><time>2026-04-06T14:20:35.975Z</time></trkpt><trkpt lat="45.62959129650097" lon="9.88031810036562"><ele>208.0</ele><time>2026-04-06T14:20:36.975Z</time></trkpt><trkpt lat="45.62967455722853" lon="9.880419649497865"><ele>208.0</ele><time>2026-04-06T14:20:37.975Z</time></trkpt><trkpt lat="45.62977317893773" lon="9.880475945611602"><ele>208.0</ele><time>2026-04-06T14:20:38.975Z</time></trkpt><trkpt lat="45.62976547341208" lon="9.880718428630207"><ele>208.0</ele><time>2026-04-06T14:20:39.975Z</time></trkpt><trkpt lat="45.62979221415656" lon="9.88087914114217"><ele>207.5</ele><time>2026-04-06T14:20:40.975Z</time></trkpt><trkpt lat="45.62980716329977" lon="9.881040753630899"><ele>207.0</ele><time>2026-04-06T14:20:41.975Z</time></trkpt><trkpt lat="45.6298529322423" lon="9.881208642511595"><ele>206.5</ele><time>2026-04-06T14:20:42.975Z</time></trkpt><trkpt lat="45.62991614120208" lon="9.881370072476853"><ele>206.0</ele><time>2026-04-06T14:20:43.975Z</time></trkpt><trkpt lat="45.62999698621784" lon="9.881523065412631"><ele>206.0</ele><time>2026-04-06T14:20:44.975Z</time></trkpt><trkpt lat="45.630097846701226" lon="9.881664447966651"><ele>206.0</ele><time>2026-04-06T14:20:45.975Z</time></trkpt><trkpt lat="45.63021173149983" lon="9.881801665338878"><ele>206.0</ele><time>2026-04-06T14:20:46.975Z</time></trkpt><trkpt lat="45.63033741311986" lon="9.881937473587003"><ele>206.0</ele><time>2026-04-06T14:20:47.975Z</time></trkpt><trkpt lat="45.63046018973629" lon="9.882069272613201"><ele>206.33333333333334</ele><time>2026-04-06T14:20:48.975Z</time></trkpt><trkpt lat="45.630587226970924" lon="9.882206056837125"><ele>206.66666666666669</ele><time>2026-04-06T14:20:49.975Z</time></trkpt><trkpt lat="45.63071843121425" lon="9.882346901884025"><ele>207.0</ele><time>2026-04-06T14:20:50.975Z</time></trkpt><trkpt lat="45.630855221426984" lon="9.882490079402846"><ele>207.66666666666669</ele><time>2026-04-06T14:20:51.975Z</time></trkpt><trkpt lat="45.63098968374613" lon="9.882625159273974"><ele>208.33333333333334</ele><time>2026-04-06T14:20:52.974Z</time></trkpt><trkpt lat="45.631128314160016" lon="9.882758498004911"><ele>209.0</ele><time>2026-04-06T14:20:53.974Z</time></trkpt><trkpt lat="45.631265693775376" lon="9.88288818462427"><ele>209.0</ele><time>2026-04-06T14:20:54.974Z</time></trkpt><trkpt lat="45.631410535930904" lon="9.883016454221893"><ele>209.0</ele><time>2026-04-06T14:20:55.974Z</time></trkpt><trkpt lat="45.63155596322454" lon="9.883143888015775"><ele>209.0</ele><time>2026-04-06T14:20:56.974Z</time></trkpt><trkpt lat="45.63169865452365" lon="9.883267556912473"><ele>209.0</ele><time>2026-04-06T14:20:57.974Z</time></trkpt><trkpt lat="45.63184096142425" lon="9.88338832179765"><ele>209.0</ele><time>2026-04-06T14:20:58.974Z</time></trkpt><trkpt lat="45.631984044362355" lon="9.883504313627423"><ele>209.0</ele><time>2026-04-06T14:20:59.973Z</time></trkpt><trkpt lat="45.632126378736196" lon="9.883614483323058"><ele>209.0</ele><time>2026-04-06T14:21:00.973Z</time></trkpt><trkpt lat="45.632270212084286" lon="9.883721314353243"><ele>209.0</ele><time>2026-04-06T14:21:01.974Z</time></trkpt><trkpt lat="45.632408423886844" lon="9.883820463214061"><ele>209.0</ele><time>2026-04-06T14:21:02.974Z</time></trkpt><trkpt lat="45.632549775669574" lon="9.883916700647992"><ele>209.0</ele><time>2026-04-06T14:21:03.974Z</time></trkpt><trkpt lat="45.6326935847478" lon="9.884008890714323"><ele>209.0</ele><time>2026-04-06T14:21:04.974Z</time></trkpt><trkpt lat="45.632837791061455" lon="9.884101373224592"><ele>209.0</ele><time>2026-04-06T14:21:05.974Z</time></trkpt><trkpt lat="45.63297991431246" lon="9.884191090760423"><ele>210.0</ele><time>2026-04-06T14:21:06.973Z</time></trkpt><trkpt lat="45.63311680004006" lon="9.884279613785116"><ele>211.0</ele><time>2026-04-06T14:21:07.973Z</time></trkpt><trkpt lat="45.63325552349844" lon="9.884366137981157"><ele>212.0</ele><time>2026-04-06T14:21:08.973Z</time></trkpt><trkpt lat="45.633393578885574" lon="9.884450267149692"><ele>212.0</ele><time>2026-04-06T14:21:09.973Z</time></trkpt><trkpt lat="45.63353171089808" lon="9.884527924842343"><ele>212.0</ele><time>2026-04-06T14:21:10.973Z</time></trkpt><trkpt lat="45.63367437419368" lon="9.884599402337221"><ele>212.0</ele><time>2026-04-06T14:21:11.973Z</time></trkpt><trkpt lat="45.633818531845044" lon="9.884668635643209"><ele>212.0</ele><time>2026-04-06T14:21:12.973Z</time></trkpt><trkpt lat="45.633963659691865" lon="9.884737057732295"><ele>212.0</ele><time>2026-04-06T14:21:13.973Z</time></trkpt><trkpt lat="45.634108937531" lon="9.88480630851357"><ele>212.0</ele><time>2026-04-06T14:21:14.973Z</time></trkpt><trkpt lat="45.63426033132689" lon="9.884872399750993"><ele>212.0</ele><time>2026-04-06T14:21:15.973Z</time></trkpt><trkpt lat="45.63441120709013" lon="9.884937788226773"><ele>212.0</ele><time>2026-04-06T14:21:16.973Z</time></trkpt><trkpt lat="45.63456414857074" lon="9.885005963531347"><ele>212.0</ele><time>2026-04-06T14:21:17.973Z</time></trkpt><trkpt lat="45.63471621355723" lon="9.885061568674612"><ele>212.0</ele><time>2026-04-06T14:21:18.973Z</time></trkpt><trkpt lat="45.63486867663349" lon="9.885117869493309"><ele>212.0</ele><time>2026-04-06T14:21:19.973Z</time></trkpt><trkpt lat="45.63501655550971" lon="9.885189447613959"><ele>212.0</ele><time>2026-04-06T14:21:20.973Z</time></trkpt><trkpt lat="45.63517024984936" lon="9.885239385942468"><ele>212.33333333333334</ele><time>2026-04-06T14:21:21.973Z</time></trkpt><trkpt lat="45.63532447100445" lon="9.885286754302536"><ele>212.66666666666669</ele><time>2026-04-06T14:21:22.973Z</time></trkpt><trkpt lat="45.635482490729814" lon="9.885312850325784"><ele>213.0</ele><time>2026-04-06T14:21:23.973Z</time></trkpt><trkpt lat="45.63562274420188" lon="9.885350844193258"><ele>213.0</ele><time>2026-04-06T14:21:24.973Z</time></trkpt><trkpt lat="45.635752168268326" lon="9.88538423222074"><ele>213.0</ele><time>2026-04-06T14:21:25.973Z</time></trkpt><trkpt lat="45.635883322174955" lon="9.885417602194835"><ele>213.0</ele><time>2026-04-06T14:21:26.973Z</time></trkpt><trkpt lat="45.63601654970165" lon="9.885454049500906"><ele>213.0</ele><time>2026-04-06T14:21:27.973Z</time></trkpt><trkpt lat="45.63615258086208" lon="9.88549032319144"><ele>213.0</ele><time>2026-04-06T14:21:28.973Z</time></trkpt><trkpt lat="45.636289824237544" lon="9.885521352793628"><ele>213.0</ele><time>2026-04-06T14:21:29.973Z</time></trkpt><trkpt lat="45.6364267217221" lon="9.885548899532218"><ele>213.0</ele><time>2026-04-06T14:21:30.973Z</time></trkpt><trkpt lat="45.63655364081461" lon="9.885568503612383"><ele>213.0</ele><time>2026-04-06T14:21:31.973Z</time></trkpt><trkpt lat="45.63667201828587" lon="9.88558523544743"><ele>213.0</ele><time>2026-04-06T14:21:32.973Z</time></trkpt><trkpt lat="45.636780577475214" lon="9.885596229908344"><ele>213.0</ele><time>2026-04-06T14:21:33.973Z</time></trkpt><trkpt lat="45.63688815989404" lon="9.885609117650445"><ele>213.0</ele><time>2026-04-06T14:21:34.973Z</time></trkpt><trkpt lat="45.63698941283545" lon="9.885617072384383"><ele>213.0</ele><time>2026-04-06T14:21:35.973Z</time></trkpt><trkpt lat="45.63708200634444" lon="9.885623771537997"><ele>213.0</ele><time>2026-04-06T14:21:36.973Z</time></trkpt><trkpt lat="45.63716185649319" lon="9.885627937364234"><ele>213.16666666666666</ele><time>2026-04-06T14:21:37.973Z</time></trkpt><trkpt lat="45.637238253879055" lon="9.885633295918355"><ele>213.33333333333331</ele><time>2026-04-06T14:21:38.973Z</time></trkpt><trkpt lat="45.637335382431566" lon="9.885652935602895"><ele>213.5</ele><time>2026-04-06T14:21:40.973Z</time></trkpt><trkpt lat="45.637400013825356" lon="9.885679932054328"><ele>213.66666666666666</ele><time>2026-04-06T14:21:42.973Z</time></trkpt><trkpt lat="45.63747757116784" lon="9.885783276389796"><ele>213.83333333333331</ele><time>2026-04-06T14:21:44.973Z</time></trkpt><trkpt lat="45.63752825884847" lon="9.885867452034462"><ele>214.0</ele><time>2026-04-06T14:21:45.973Z</time></trkpt><trkpt lat="45.63759699518387" lon="9.88595638522095"><ele>214.25</ele><time>2026-04-06T14:21:46.973Z</time></trkpt><trkpt lat="45.63768217089185" lon="9.886035413116975"><ele>214.5</ele><time>2026-04-06T14:21:47.973Z</time></trkpt><trkpt lat="45.63777205176635" lon="9.886074944606314"><ele>214.75</ele><time>2026-04-06T14:21:48.973Z</time></trkpt><trkpt lat="45.637845335359856" lon="9.886073572503271"><ele>215.0</ele><time>2026-04-06T14:21:49.973Z</time></trkpt><trkpt lat="45.63786073275214" lon="9.886353596601777"><ele>215.5</ele><time>2026-04-06T14:21:50.973Z</time></trkpt><trkpt lat="45.637882017642134" lon="9.886524310504607"><ele>216.0</ele><time>2026-04-06T14:21:51.973Z</time></trkpt><trkpt lat="45.63790500127899" lon="9.886705255304587"><ele>216.5</ele><time>2026-04-06T14:21:52.973Z</time></trkpt><trkpt lat="45.637932479486004" lon="9.886883288591989"><ele>217.0</ele><time>2026-04-06T14:21:53.973Z</time></trkpt><trkpt lat="45.63796359456378" lon="9.887061342842339"><ele>217.0</ele><time>2026-04-06T14:21:54.973Z</time></trkpt><trkpt lat="45.637990227997214" lon="9.887236837267766"><ele>217.0</ele><time>2026-04-06T14:21:55.973Z</time></trkpt><trkpt lat="45.63801125926209" lon="9.887398206393533"><ele>217.0</ele><time>2026-04-06T14:21:56.973Z</time></trkpt><trkpt lat="45.63803129908012" lon="9.88754521921143"><ele>217.0</ele><time>2026-04-06T14:21:57.973Z</time></trkpt><trkpt lat="45.63805241330937" lon="9.887680581370354"><ele>217.0</ele><time>2026-04-06T14:21:58.973Z</time></trkpt><trkpt lat="45.638070179405176" lon="9.887806048201842"><ele>216.99999999999997</ele><time>2026-04-06T14:21:59.973Z</time></trkpt><trkpt lat="45.638090992513504" lon="9.887929572549933"><ele>217.0</ele><time>2026-04-06T14:22:00.973Z</time></trkpt><trkpt lat="45.63810884680651" lon="9.888053954841215"><ele>217.0</ele><time>2026-04-06T14:22:01.973Z</time></trkpt><trkpt lat="45.63811039747992" lon="9.888185765140468"><ele>217.0</ele><time>2026-04-06T14:22:02.973Z</time></trkpt><trkpt lat="45.63812803938524" lon="9.888311176817862"><ele>216.99999999999997</ele><time>2026-04-06T14:22:03.973Z</time></trkpt><trkpt lat="45.63814555428519" lon="9.888435685617518"><ele>217.0</ele><time>2026-04-06T14:22:04.973Z</time></trkpt><trkpt lat="45.63816274834469" lon="9.888553932663351"><ele>217.0</ele><time>2026-04-06T14:22:05.973Z</time></trkpt><trkpt lat="45.63817677055726" lon="9.888652802996665"><ele>217.0</ele><time>2026-04-06T14:22:06.973Z</time></trkpt><trkpt lat="45.63821685972081" lon="9.888802046737117"><ele>217.0</ele><time>2026-04-06T14:22:08.973Z</time></trkpt><trkpt lat="45.63819087940036" lon="9.888944215836151"><ele>217.0</ele><time>2026-04-06T14:22:10.973Z</time></trkpt><trkpt lat="45.63814434560378" lon="9.88910517276172"><ele>217.0</ele><time>2026-04-06T14:22:12.973Z</time></trkpt><trkpt lat="45.63816796332008" lon="9.889281091471936"><ele>217.16666666666666</ele><time>2026-04-06T14:22:14.973Z</time></trkpt><trkpt lat="45.63821187234652" lon="9.889356266034063"><ele>217.33333333333331</ele><time>2026-04-06T14:22:15.973Z</time></trkpt><trkpt lat="45.63826545503643" lon="9.889444639521313"><ele>217.5</ele><time>2026-04-06T14:22:16.973Z</time></trkpt><trkpt lat="45.63830692428987" lon="9.88956060236709"><ele>217.66666666666669</ele><time>2026-04-06T14:22:17.973Z</time></trkpt><trkpt lat="45.63833556468552" lon="9.889693884249462"><ele>217.83333333333334</ele><time>2026-04-06T14:22:18.973Z</time></trkpt><trkpt lat="45.63835610381732" lon="9.889830416517766"><ele>218.0</ele><time>2026-04-06T14:22:19.973Z</time></trkpt><trkpt lat="45.63837484655504" lon="9.88996834053504"><ele>218.2</ele><time>2026-04-06T14:22:20.973Z</time></trkpt><trkpt lat="45.638395935325505" lon="9.890114511443237"><ele>218.4</ele><time>2026-04-06T14:22:21.973Z</time></trkpt><trkpt lat="45.63841644157547" lon="9.890259698463643"><ele>218.59999999999997</ele><time>2026-04-06T14:22:22.973Z</time></trkpt><trkpt lat="45.63844091837529" lon="9.89041277479801"><ele>218.79999999999998</ele><time>2026-04-06T14:22:23.973Z</time></trkpt><trkpt lat="45.63844888769003" lon="9.890578161308305"><ele>219.0</ele><time>2026-04-06T14:22:24.973Z</time></trkpt><trkpt lat="45.63847247890461" lon="9.890743030682241"><ele>219.25</ele><time>2026-04-06T14:22:25.973Z</time></trkpt><trkpt lat="45.638499208185436" lon="9.89092508570026"><ele>219.5</ele><time>2026-04-06T14:22:26.974Z</time></trkpt><trkpt lat="45.63852646482228" lon="9.891108579427689"><ele>219.75</ele><time>2026-04-06T14:22:27.974Z</time></trkpt><trkpt lat="45.638553549889494" lon="9.891290918142492"><ele>220.0</ele><time>2026-04-06T14:22:28.974Z</time></trkpt><trkpt lat="45.63859587429655" lon="9.891462810201777"><ele>220.0</ele><time>2026-04-06T14:22:29.974Z</time></trkpt><trkpt lat="45.638616425533975" lon="9.891639143187591"><ele>220.0</ele><time>2026-04-06T14:22:30.974Z</time></trkpt><trkpt lat="45.6386405574587" lon="9.891813541087982"><ele>220.0</ele><time>2026-04-06T14:22:31.974Z</time></trkpt><trkpt lat="45.638665202441516" lon="9.891985958710372"><ele>220.0</ele><time>2026-04-06T14:22:32.974Z</time></trkpt><trkpt lat="45.63869459297163" lon="9.89215211476218"><ele>220.5</ele><time>2026-04-06T14:22:33.974Z</time></trkpt><trkpt lat="45.638722930735" lon="9.89232010226366"><ele>221.0</ele><time>2026-04-06T14:22:34.974Z</time></trkpt><trkpt lat="45.63872623835319" lon="9.892494519002542"><ele>221.5</ele><time>2026-04-06T14:22:35.974Z</time></trkpt><trkpt lat="45.63875383977583" lon="9.892652989357613"><ele>222.0</ele><time>2026-04-06T14:22:36.974Z</time></trkpt><trkpt lat="45.638776637304844" lon="9.892810513048772"><ele>222.2</ele><time>2026-04-06T14:22:37.974Z</time></trkpt><trkpt lat="45.63880159264256" lon="9.8929669432595"><ele>222.39999999999998</ele><time>2026-04-06T14:22:38.974Z</time></trkpt><trkpt lat="45.638826298804965" lon="9.893128252078702"><ele>222.60000000000002</ele><time>2026-04-06T14:22:39.974Z</time></trkpt><trkpt lat="45.63885283548692" lon="9.89328750962216"><ele>222.8</ele><time>2026-04-06T14:22:40.974Z</time></trkpt><trkpt lat="45.63888112871984" lon="9.893430514205697"><ele>223.0</ele><time>2026-04-06T14:22:41.974Z</time></trkpt><trkpt lat="45.63890684091397" lon="9.893558261066659"><ele>222.8</ele><time>2026-04-06T14:22:42.974Z</time></trkpt><trkpt lat="45.63891949416012" lon="9.893685143064088"><ele>222.60000000000002</ele><time>2026-04-06T14:22:43.974Z</time></trkpt><trkpt lat="45.6389340552987" lon="9.89382370081646"><ele>222.39999999999998</ele><time>2026-04-06T14:22:44.974Z</time></trkpt><trkpt lat="45.638959053894546" lon="9.89397680247174"><ele>222.2</ele><time>2026-04-06T14:22:45.974Z</time></trkpt><trkpt lat="45.63899120724474" lon="9.894142418110283"><ele>222.0</ele><time>2026-04-06T14:22:46.974Z</time></trkpt><trkpt lat="45.63902814182685" lon="9.894313983629893"><ele>222.0</ele><time>2026-04-06T14:22:47.974Z</time></trkpt><trkpt lat="45.63905673016527" lon="9.894486738004657"><ele>222.0</ele><time>2026-04-06T14:22:48.974Z</time></trkpt><trkpt lat="45.639087265808826" lon="9.894660322152177"><ele>222.0</ele><time>2026-04-06T14:22:49.974Z</time></trkpt><trkpt lat="45.639115557946056" lon="9.894832429189401"><ele>222.0</ele><time>2026-04-06T14:22:50.974Z</time></trkpt><trkpt lat="45.63914282114375" lon="9.894994264662987"><ele>222.39999999999998</ele><time>2026-04-06T14:22:51.974Z</time></trkpt><trkpt lat="45.63916082218908" lon="9.895138263889203"><ele>222.79999999999998</ele><time>2026-04-06T14:22:52.974Z</time></trkpt><trkpt lat="45.63917994020468" lon="9.89528105158348"><ele>223.2</ele><time>2026-04-06T14:22:53.974Z</time></trkpt><trkpt lat="45.63920196504458" lon="9.895430617951309"><ele>223.6</ele><time>2026-04-06T14:22:54.974Z</time></trkpt><trkpt lat="45.639224569774385" lon="9.895581148485482"><ele>224.0</ele><time>2026-04-06T14:22:55.974Z</time></trkpt><trkpt lat="45.63924546413325" lon="9.895732484823242"><ele>224.0</ele><time>2026-04-06T14:22:56.974Z</time></trkpt><trkpt lat="45.63927264336638" lon="9.895883462429477"><ele>223.99999999999997</ele><time>2026-04-06T14:22:57.974Z</time></trkpt><trkpt lat="45.63929773432566" lon="9.896042759877073"><ele>223.99999999999997</ele><time>2026-04-06T14:22:58.972Z</time></trkpt><trkpt lat="45.63932680898036" lon="9.896182178024304"><ele>224.0</ele><time>2026-04-06T14:22:59.973Z</time></trkpt><trkpt lat="45.639354531472435" lon="9.896300855758104"><ele>224.0</ele><time>2026-04-06T14:23:00.973Z</time></trkpt><trkpt lat="45.6393742080024" lon="9.896409016532496"><ele>224.00000000000003</ele><time>2026-04-06T14:23:01.972Z</time></trkpt><trkpt lat="45.639393564962354" lon="9.89651648997478"><ele>224.0</ele><time>2026-04-06T14:23:02.972Z</time></trkpt><trkpt lat="45.63938444110454" lon="9.896638128175734"><ele>224.0</ele><time>2026-04-06T14:23:03.972Z</time></trkpt><trkpt lat="45.63943512689138" lon="9.896757672719023"><ele>224.0</ele><time>2026-04-06T14:23:04.973Z</time></trkpt><trkpt lat="45.63944240669938" lon="9.896883771545294"><ele>224.00000000000003</ele><time>2026-04-06T14:23:05.972Z</time></trkpt><trkpt lat="45.63946406913824" lon="9.897011583599221"><ele>224.0</ele><time>2026-04-06T14:23:06.972Z</time></trkpt><trkpt lat="45.639497285953496" lon="9.897142052041632"><ele>224.0</ele><time>2026-04-06T14:23:07.972Z</time></trkpt><trkpt lat="45.639520826604" lon="9.897276289084223"><ele>223.99999999999997</ele><time>2026-04-06T14:23:08.972Z</time></trkpt><trkpt lat="45.6395464806566" lon="9.897412621277256"><ele>223.99999999999997</ele><time>2026-04-06T14:23:09.972Z</time></trkpt><trkpt lat="45.63956940069212" lon="9.897564332854216"><ele>224.0</ele><time>2026-04-06T14:23:10.972Z</time></trkpt><trkpt lat="45.639597724635394" lon="9.897759768975375"><ele>224.0</ele><time>2026-04-06T14:23:11.972Z</time></trkpt><trkpt lat="45.6396436157111" lon="9.897993801886017"><ele>224.33333333333334</ele><time>2026-04-06T14:23:12.972Z</time></trkpt><trkpt lat="45.63968246947579" lon="9.89822854775183"><ele>224.66666666666669</ele><time>2026-04-06T14:23:13.972Z</time></trkpt><trkpt lat="45.63971127741305" lon="9.898447264510807"><ele>225.0</ele><time>2026-04-06T14:23:14.972Z</time></trkpt><trkpt lat="45.63974646719487" lon="9.898653154968253"><ele>225.5</ele><time>2026-04-06T14:23:15.972Z</time></trkpt><trkpt lat="45.6397806154487" lon="9.898839046886815"><ele>226.0</ele><time>2026-04-06T14:23:16.972Z</time></trkpt><trkpt lat="45.639812754683156" lon="9.899016347102222"><ele>226.5</ele><time>2026-04-06T14:23:17.972Z</time></trkpt><trkpt lat="45.63985278134338" lon="9.8992107624147"><ele>227.0</ele><time>2026-04-06T14:23:18.972Z</time></trkpt><trkpt lat="45.639898073576774" lon="9.899450288090748"><ele>227.0</ele><time>2026-04-06T14:23:19.972Z</time></trkpt><trkpt lat="45.63994208933723" lon="9.89972276915438"><ele>227.0</ele><time>2026-04-06T14:23:20.972Z</time></trkpt><trkpt lat="45.63997621547688" lon="9.899951472592353"><ele>227.0</ele><time>2026-04-06T14:23:21.972Z</time></trkpt><trkpt lat="45.64000000145826" lon="9.900141116684006"><ele>227.0</ele><time>2026-04-06T14:23:22.972Z</time></trkpt><trkpt lat="45.6400303679472" lon="9.90031663058833"><ele>227.0</ele><time>2026-04-06T14:23:23.972Z</time></trkpt><trkpt lat="45.640058889180864" lon="9.900486012066331"><ele>227.0</ele><time>2026-04-06T14:23:24.972Z</time></trkpt><trkpt lat="45.64008142332591" lon="9.90065123058744"><ele>227.0</ele><time>2026-04-06T14:23:25.972Z</time></trkpt><trkpt lat="45.640117222024756" lon="9.900827558955202"><ele>227.2</ele><time>2026-04-06T14:23:26.972Z</time></trkpt><trkpt lat="45.640148035381216" lon="9.90099336318829"><ele>227.39999999999998</ele><time>2026-04-06T14:23:27.972Z</time></trkpt><trkpt lat="45.64017627321816" lon="9.901144040795185"><ele>227.60000000000002</ele><time>2026-04-06T14:23:28.972Z</time></trkpt><trkpt lat="45.64020251918586" lon="9.90128444736952"><ele>227.8</ele><time>2026-04-06T14:23:29.972Z</time></trkpt><trkpt lat="45.6401884958669" lon="9.901410199691307"><ele>228.0</ele><time>2026-04-06T14:23:30.972Z</time></trkpt><trkpt lat="45.64020930667049" lon="9.901535770826305"><ele>228.0</ele><time>2026-04-06T14:23:31.972Z</time></trkpt><trkpt lat="45.64023101044743" lon="9.901665223288068"><ele>228.0</ele><time>2026-04-06T14:23:32.972Z</time></trkpt><trkpt lat="45.640257665261664" lon="9.901792068638636"><ele>228.0</ele><time>2026-04-06T14:23:33.972Z</time></trkpt><trkpt lat="45.64028498726207" lon="9.901934567636863"><ele>228.0</ele><time>2026-04-06T14:23:34.972Z</time></trkpt><trkpt lat="45.64030439867418" lon="9.90206314504034"><ele>228.0</ele><time>2026-04-06T14:23:35.972Z</time></trkpt><trkpt lat="45.64033174561266" lon="9.902171216970284"><ele>228.0</ele><time>2026-04-06T14:23:36.972Z</time></trkpt><trkpt lat="45.64034990386565" lon="9.902268267655675"><ele>228.0</ele><time>2026-04-06T14:23:37.972Z</time></trkpt><trkpt lat="45.64036884242179" lon="9.902366130919264"><ele>228.0</ele><time>2026-04-06T14:23:38.972Z</time></trkpt><trkpt lat="45.64038243526637" lon="9.902497264405673"><ele>228.0</ele><time>2026-04-06T14:23:39.972Z</time></trkpt><trkpt lat="45.640402616876116" lon="9.902671136725319"><ele>228.0</ele><time>2026-04-06T14:23:40.972Z</time></trkpt><trkpt lat="45.64043390684494" lon="9.902855125245434"><ele>228.0</ele><time>2026-04-06T14:23:41.972Z</time></trkpt><trkpt lat="45.64047377005071" lon="9.903072002992547"><ele>228.0</ele><time>2026-04-06T14:23:42.972Z</time></trkpt><trkpt lat="45.640520790136165" lon="9.903290482756494"><ele>228.0</ele><time>2026-04-06T14:23:43.972Z</time></trkpt><trkpt lat="45.640562124218825" lon="9.903511615371412"><ele>228.66666666666669</ele><time>2026-04-06T14:23:44.972Z</time></trkpt><trkpt lat="45.64061876366274" lon="9.90373903853209"><ele>229.33333333333334</ele><time>2026-04-06T14:23:45.972Z</time></trkpt><trkpt lat="45.64066372848562" lon="9.903947990274824"><ele>230.0</ele><time>2026-04-06T14:23:46.972Z</time></trkpt><trkpt lat="45.64070617704185" lon="9.904139073834534"><ele>229.5</ele><time>2026-04-06T14:23:47.972Z</time></trkpt><trkpt lat="45.64075948814238" lon="9.9043211787915"><ele>229.0</ele><time>2026-04-06T14:23:48.972Z</time></trkpt><trkpt lat="45.640803821740526" lon="9.904493452414162"><ele>228.5</ele><time>2026-04-06T14:23:49.972Z</time></trkpt><trkpt lat="45.64084528675347" lon="9.904651968697655"><ele>228.0</ele><time>2026-04-06T14:23:50.972Z</time></trkpt><trkpt lat="45.64088595524655" lon="9.904793294597638"><ele>228.0</ele><time>2026-04-06T14:23:51.972Z</time></trkpt><trkpt lat="45.64091141477415" lon="9.904931606049724"><ele>228.0</ele><time>2026-04-06T14:23:52.972Z</time></trkpt><trkpt lat="45.640948316649855" lon="9.905080990153499"><ele>228.0</ele><time>2026-04-06T14:23:53.972Z</time></trkpt><trkpt lat="45.640977289323196" lon="9.905226282822898"><ele>228.0</ele><time>2026-04-06T14:23:54.972Z</time></trkpt><trkpt lat="45.64100699635133" lon="9.905377112246216"><ele>228.0</ele><time>2026-04-06T14:23:55.972Z</time></trkpt><trkpt lat="45.64103466297743" lon="9.905524947970058"><ele>228.0</ele><time>2026-04-06T14:23:56.972Z</time></trkpt><trkpt lat="45.64106053060884" lon="9.905677399889884"><ele>228.0</ele><time>2026-04-06T14:23:57.972Z</time></trkpt><trkpt lat="45.641091724811965" lon="9.90584130552901"><ele>228.0</ele><time>2026-04-06T14:23:58.972Z</time></trkpt><trkpt lat="45.641128810604535" lon="9.906006403147156"><ele>228.0</ele><time>2026-04-06T14:23:59.972Z</time></trkpt><trkpt lat="45.64116469714142" lon="9.90617179091972"><ele>228.0</ele><time>2026-04-06T14:24:00.972Z</time></trkpt><trkpt lat="45.641201807854614" lon="9.906339237258953"><ele>228.0</ele><time>2026-04-06T14:24:01.972Z</time></trkpt><trkpt lat="45.64120148948597" lon="9.906497436375789"><ele>228.0</ele><time>2026-04-06T14:24:02.972Z</time></trkpt><trkpt lat="45.64123401540008" lon="9.906636640052703"><ele>228.0</ele><time>2026-04-06T14:24:03.972Z</time></trkpt><trkpt lat="45.64127067554666" lon="9.9067636402118"><ele>228.0</ele><time>2026-04-06T14:24:04.972Z</time></trkpt><trkpt lat="45.64129651619525" lon="9.906882844275442"><ele>227.83333333333334</ele><time>2026-04-06T14:24:05.972Z</time></trkpt><trkpt lat="45.64132423291776" lon="9.906991761144843"><ele>227.66666666666669</ele><time>2026-04-06T14:24:06.972Z</time></trkpt><trkpt lat="45.641349249530485" lon="9.907098964275022"><ele>227.5</ele><time>2026-04-06T14:24:07.972Z</time></trkpt><trkpt lat="45.64138022040382" lon="9.90721168997737"><ele>227.33333333333334</ele><time>2026-04-06T14:24:08.972Z</time></trkpt><trkpt lat="45.641409434385345" lon="9.907332443130315"><ele>227.16666666666669</ele><time>2026-04-06T14:24:09.972Z</time></trkpt><trkpt lat="45.641440860454175" lon="9.907465865071764"><ele>227.0</ele><time>2026-04-06T14:24:10.972Z</time></trkpt><trkpt lat="45.64147716767528" lon="9.907598608183008"><ele>227.33333333333334</ele><time>2026-04-06T14:24:11.972Z</time></trkpt><trkpt lat="45.64150462469658" lon="9.90772896857037"><ele>227.66666666666669</ele><time>2026-04-06T14:24:12.972Z</time></trkpt><trkpt lat="45.6415347893861" lon="9.907848286297398"><ele>228.0</ele><time>2026-04-06T14:24:13.972Z</time></trkpt><trkpt lat="45.64153523651651" lon="9.907960454979765"><ele>228.33333333333331</ele><time>2026-04-06T14:24:14.972Z</time></trkpt><trkpt lat="45.641565160561115" lon="9.908045674295382"><ele>228.66666666666666</ele><time>2026-04-06T14:24:15.972Z</time></trkpt><trkpt lat="45.64162807706312" lon="9.908160697518035"><ele>229.0</ele><time>2026-04-06T14:24:17.972Z</time></trkpt><trkpt lat="45.64168525824347" lon="9.908242914246696"><ele>228.99999999999997</ele><time>2026-04-06T14:24:21.972Z</time></trkpt><trkpt lat="45.64177211866107" lon="9.908325780210832"><ele>229.0</ele><time>2026-04-06T14:24:23.972Z</time></trkpt><trkpt lat="45.64183402309895" lon="9.90839082093638"><ele>229.0</ele><time>2026-04-06T14:24:24.972Z</time></trkpt><trkpt lat="45.641903184388575" lon="9.908419965201354"><ele>229.0</ele><time>2026-04-06T14:24:25.972Z</time></trkpt><trkpt lat="45.641965930200186" lon="9.908406687313363"><ele>228.99999999999997</ele><time>2026-04-06T14:24:26.972Z</time></trkpt><trkpt lat="45.64203720015723" lon="9.908373413318882"><ele>229.0</ele><time>2026-04-06T14:24:27.972Z</time></trkpt><trkpt lat="45.64211018487564" lon="9.908353765109457"><ele>229.0</ele><time>2026-04-06T14:24:28.972Z</time></trkpt><trkpt lat="45.64218383676466" lon="9.908370451455346"><ele>229.0</ele><time>2026-04-06T14:24:29.972Z</time></trkpt><trkpt lat="45.64228563854149" lon="9.90840551887112"><ele>229.0</ele><time>2026-04-06T14:24:30.972Z</time></trkpt><trkpt lat="45.64243451471438" lon="9.908458974296353"><ele>229.0</ele><time>2026-04-06T14:24:31.972Z</time></trkpt><trkpt lat="45.64258337190298" lon="9.90851446084608"><ele>229.0</ele><time>2026-04-06T14:24:32.972Z</time></trkpt><trkpt lat="45.64273812115731" lon="9.908579582434887"><ele>229.0</ele><time>2026-04-06T14:24:33.972Z</time></trkpt><trkpt lat="45.6428801363701" lon="9.908625292104228"><ele>229.0</ele><time>2026-04-06T14:24:34.972Z</time></trkpt><trkpt lat="45.64301340343121" lon="9.908667650426574"><ele>229.0</ele><time>2026-04-06T14:24:35.972Z</time></trkpt><trkpt lat="45.64314314356242" lon="9.90870796114952"><ele>229.25</ele><time>2026-04-06T14:24:36.972Z</time></trkpt><trkpt lat="45.643274709113186" lon="9.908744385007475"><ele>229.5</ele><time>2026-04-06T14:24:37.972Z</time></trkpt><trkpt lat="45.643403741153904" lon="9.908779305560515"><ele>229.75</ele><time>2026-04-06T14:24:38.972Z</time></trkpt><trkpt lat="45.64353899830861" lon="9.908809927895815"><ele>230.0</ele><time>2026-04-06T14:24:39.972Z</time></trkpt><trkpt lat="45.64368910456759" lon="9.908871890619002"><ele>230.66666666666669</ele><time>2026-04-06T14:24:40.972Z</time></trkpt><trkpt lat="45.64389575309945" lon="9.908928241692614"><ele>231.33333333333331</ele><time>2026-04-06T14:24:41.972Z</time></trkpt><trkpt lat="45.644117998511966" lon="9.909001097510785"><ele>232.0</ele><time>2026-04-06T14:24:42.972Z</time></trkpt><trkpt lat="45.644340477873946" lon="9.909081334039163"><ele>232.0</ele><time>2026-04-06T14:24:43.972Z</time></trkpt><trkpt lat="45.64456774079865" lon="9.90915211246941"><ele>232.0</ele><time>2026-04-06T14:24:44.972Z</time></trkpt><trkpt lat="45.64479175268967" lon="9.909212563705264"><ele>231.33333333333331</ele><time>2026-04-06T14:24:45.972Z</time></trkpt><trkpt lat="45.645004805635004" lon="9.909274818458504"><ele>230.66666666666669</ele><time>2026-04-06T14:24:46.972Z</time></trkpt><trkpt lat="45.64521628783659" lon="9.909344719524807"><ele>230.0</ele><time>2026-04-06T14:24:47.972Z</time></trkpt><trkpt lat="45.64542786952248" lon="9.909407051353096"><ele>231.33333333333334</ele><time>2026-04-06T14:24:48.972Z</time></trkpt><trkpt lat="45.645636557928675" lon="9.90946684215489"><ele>232.66666666666669</ele><time>2026-04-06T14:24:49.972Z</time></trkpt><trkpt lat="45.645840386545565" lon="9.909525132941665"><ele>234.0</ele><time>2026-04-06T14:24:50.972Z</time></trkpt><trkpt lat="45.64604016580223" lon="9.909580852823659"><ele>234.66666666666669</ele><time>2026-04-06T14:24:51.972Z</time></trkpt><trkpt lat="45.646238988190504" lon="9.909634798414245"><ele>235.33333333333334</ele><time>2026-04-06T14:24:52.972Z</time></trkpt><trkpt lat="45.64642796155843" lon="9.909684489325747"><ele>236.0</ele><time>2026-04-06T14:24:53.972Z</time></trkpt><trkpt lat="45.64660823748885" lon="9.909733782630827"><ele>236.0</ele><time>2026-04-06T14:24:54.972Z</time></trkpt><trkpt lat="45.64677438040653" lon="9.909760246908267"><ele>236.0</ele><time>2026-04-06T14:24:55.972Z</time></trkpt><trkpt lat="45.6469324086171" lon="9.909759659157487"><ele>236.0</ele><time>2026-04-06T14:24:56.972Z</time></trkpt><trkpt lat="45.64709684479496" lon="9.909738023629167"><ele>236.0</ele><time>2026-04-06T14:24:57.972Z</time></trkpt><trkpt lat="45.64724692242021" lon="9.909695532563344"><ele>236.0</ele><time>2026-04-06T14:24:58.972Z</time></trkpt><trkpt lat="45.6473837573716" lon="9.909656482782284"><ele>236.0</ele><time>2026-04-06T14:24:59.972Z</time></trkpt><trkpt lat="45.647508550486535" lon="9.909626680761976"><ele>236.0</ele><time>2026-04-06T14:25:00.972Z</time></trkpt><trkpt lat="45.64761413671269" lon="9.909606462622026"><ele>236.0</ele><time>2026-04-06T14:25:01.972Z</time></trkpt><trkpt lat="45.64768630912509" lon="9.909580325545829"><ele>236.00000000000003</ele><time>2026-04-06T14:25:02.972Z</time></trkpt><trkpt lat="45.647755981979934" lon="9.909544914156735"><ele>236.00000000000003</ele><time>2026-04-06T14:25:04.97Z</time></trkpt><trkpt lat="45.647843964952614" lon="9.909524240025831"><ele>236.0</ele><time>2026-04-06T14:25:05.97Z</time></trkpt><trkpt lat="45.64796363753795" lon="9.909489498384962"><ele>236.0</ele><time>2026-04-06T14:25:06.97Z</time></trkpt><trkpt lat="45.648106390284205" lon="9.909454792918376"><ele>237.0</ele><time>2026-04-06T14:25:07.971Z</time></trkpt><trkpt lat="45.648283089209684" lon="9.909413500561627"><ele>238.0</ele><time>2026-04-06T14:25:08.97Z</time></trkpt><trkpt lat="45.64846786218065" lon="9.909370267889264"><ele>239.0</ele><time>2026-04-06T14:25:09.97Z</time></trkpt><trkpt lat="45.64865266097863" lon="9.909333946953158"><ele>239.66666666666669</ele><time>2026-04-06T14:25:10.97Z</time></trkpt><trkpt lat="45.64884504576077" lon="9.909276863880624"><ele>240.33333333333331</ele><time>2026-04-06T14:25:11.97Z</time></trkpt><trkpt lat="45.64903977292336" lon="9.909228493288147"><ele>241.0</ele><time>2026-04-06T14:25:12.97Z</time></trkpt><trkpt lat="45.64921500608253" lon="9.909192351467011"><ele>241.25</ele><time>2026-04-06T14:25:13.971Z</time></trkpt><trkpt lat="45.64937512964355" lon="9.909177406284188"><ele>241.5</ele><time>2026-04-06T14:25:14.97Z</time></trkpt><trkpt lat="45.64951660609863" lon="9.909241202633293"><ele>241.75</ele><time>2026-04-06T14:25:15.97Z</time></trkpt><trkpt lat="45.649630879912806" lon="9.909334700689207"><ele>242.0</ele><time>2026-04-06T14:25:16.97Z</time></trkpt><trkpt lat="45.64972229657125" lon="9.909458469263676"><ele>242.75</ele><time>2026-04-06T14:25:17.97Z</time></trkpt><trkpt lat="45.64978047547417" lon="9.909617367309442"><ele>243.5</ele><time>2026-04-06T14:25:18.97Z</time></trkpt><trkpt lat="45.649809093672836" lon="9.909810321618885"><ele>244.25</ele><time>2026-04-06T14:25:19.97Z</time></trkpt><trkpt lat="45.649783517725155" lon="9.910005221884239"><ele>245.0</ele><time>2026-04-06T14:25:20.97Z</time></trkpt><trkpt lat="45.64976864960116" lon="9.910195475500295"><ele>245.0</ele><time>2026-04-06T14:25:21.97Z</time></trkpt><trkpt lat="45.64976924377151" lon="9.910351910645673"><ele>245.0</ele><time>2026-04-06T14:25:22.97Z</time></trkpt><trkpt lat="45.649808948170985" lon="9.910491263057297"><ele>245.0</ele><time>2026-04-06T14:25:23.97Z</time></trkpt><trkpt lat="45.64984813152389" lon="9.910633015288276"><ele>245.0</ele><time>2026-04-06T14:25:24.97Z</time></trkpt><trkpt lat="45.64992759152425" lon="9.910767816409692"><ele>245.0</ele><time>2026-04-06T14:25:25.97Z</time></trkpt><trkpt lat="45.650015466797484" lon="9.91088501043578"><ele>246.0</ele><time>2026-04-06T14:25:26.97Z</time></trkpt><trkpt lat="45.65010396018808" lon="9.910971823913954"><ele>247.0</ele><time>2026-04-06T14:25:27.97Z</time></trkpt><trkpt lat="45.65020588666356" lon="9.911055682850774"><ele>248.0</ele><time>2026-04-06T14:25:28.97Z</time></trkpt><trkpt lat="45.65032669926837" lon="9.911159305139284"><ele>249.0</ele><time>2026-04-06T14:25:29.97Z</time></trkpt><trkpt lat="45.65047858718801" lon="9.911280321658372"><ele>249.0</ele><time>2026-04-06T14:25:30.97Z</time></trkpt><trkpt lat="45.6506626276769" lon="9.911428969884211"><ele>249.0</ele><time>2026-04-06T14:25:31.97Z</time></trkpt><trkpt lat="45.650854028624" lon="9.911595704198067"><ele>249.0</ele><time>2026-04-06T14:25:32.97Z</time></trkpt><trkpt lat="45.65102830869918" lon="9.911797900164096"><ele>249.33333333333331</ele><time>2026-04-06T14:25:33.97Z</time></trkpt><trkpt lat="45.65120649306169" lon="9.911989288626721"><ele>249.66666666666666</ele><time>2026-04-06T14:25:34.97Z</time></trkpt><trkpt lat="45.6513552872871" lon="9.912180197266986"><ele>250.0</ele><time>2026-04-06T14:25:35.97Z</time></trkpt><trkpt lat="45.65149853538979" lon="9.91236148054914"><ele>250.0</ele><time>2026-04-06T14:25:36.97Z</time></trkpt><trkpt lat="45.651625209587905" lon="9.912520403097606"><ele>250.0</ele><time>2026-04-06T14:25:37.97Z</time></trkpt><trkpt lat="45.651737580751316" lon="9.912661279975989"><ele>250.0</ele><time>2026-04-06T14:25:38.97Z</time></trkpt><trkpt lat="45.65185531135219" lon="9.912804643735356"><ele>251.0</ele><time>2026-04-06T14:25:39.97Z</time></trkpt><trkpt lat="45.65196059302175" lon="9.912944684840868"><ele>252.0</ele><time>2026-04-06T14:25:40.97Z</time></trkpt><trkpt lat="45.652032736690835" lon="9.913099965698422"><ele>253.0</ele><time>2026-04-06T14:25:41.97Z</time></trkpt><trkpt lat="45.65206847916558" lon="9.913286009675268"><ele>254.0</ele><time>2026-04-06T14:25:42.97Z</time></trkpt><trkpt lat="45.65211672106093" lon="9.913485137229706"><ele>254.0</ele><time>2026-04-06T14:25:43.97Z</time></trkpt><trkpt lat="45.65218645452907" lon="9.913644657479649"><ele>254.0</ele><time>2026-04-06T14:25:44.97Z</time></trkpt><trkpt lat="45.65223195396116" lon="9.913831374618102"><ele>254.0</ele><time>2026-04-06T14:25:45.97Z</time></trkpt><trkpt lat="45.65230333539431" lon="9.914002493030944"><ele>254.0</ele><time>2026-04-06T14:25:46.97Z</time></trkpt><trkpt lat="45.6523763374593" lon="9.914173746460131"><ele>252.25</ele><time>2026-04-06T14:25:47.97Z</time></trkpt><trkpt lat="45.65244378491648" lon="9.914353003796784"><ele>250.5</ele><time>2026-04-06T14:25:48.97Z</time></trkpt><trkpt lat="45.65251697286384" lon="9.914527808398997"><ele>248.75</ele><time>2026-04-06T14:25:49.97Z</time></trkpt><trkpt lat="45.652593700908014" lon="9.914700571113565"><ele>247.0</ele><time>2026-04-06T14:25:50.97Z</time></trkpt><trkpt lat="45.65268064723828" lon="9.914875144546983"><ele>247.0</ele><time>2026-04-06T14:25:51.97Z</time></trkpt><trkpt lat="45.65276167807589" lon="9.915058187320154"><ele>247.0</ele><time>2026-04-06T14:25:52.97Z</time></trkpt><trkpt lat="45.65283902799226" lon="9.915242233897644"><ele>247.0</ele><time>2026-04-06T14:25:53.97Z</time></trkpt><trkpt lat="45.652918357027836" lon="9.915427987100772"><ele>247.5</ele><time>2026-04-06T14:25:54.97Z</time></trkpt><trkpt lat="45.65300554904844" lon="9.915611596347274"><ele>248.0</ele><time>2026-04-06T14:25:55.97Z</time></trkpt><trkpt lat="45.65309598714209" lon="9.915781231814659"><ele>248.5</ele><time>2026-04-06T14:25:56.97Z</time></trkpt><trkpt lat="45.653191182061235" lon="9.915932993173369"><ele>249.0</ele><time>2026-04-06T14:25:57.97Z</time></trkpt><trkpt lat="45.65329549611142" lon="9.916055755428758"><ele>247.25</ele><time>2026-04-06T14:25:58.97Z</time></trkpt><trkpt lat="45.65340887264929" lon="9.91616959790658"><ele>245.5</ele><time>2026-04-06T14:25:59.97Z</time></trkpt><trkpt lat="45.65351158240496" lon="9.916313944509884"><ele>243.75</ele><time>2026-04-06T14:26:00.97Z</time></trkpt><trkpt lat="45.653602938195185" lon="9.916438254474981"><ele>242.0</ele><time>2026-04-06T14:26:01.97Z</time></trkpt><trkpt lat="45.653675753285796" lon="9.916578768180234"><ele>247.25</ele><time>2026-04-06T14:26:02.97Z</time></trkpt><trkpt lat="45.65375816920046" lon="9.916738926177597"><ele>252.5</ele><time>2026-04-06T14:26:03.97Z</time></trkpt><trkpt lat="45.65378014974643" lon="9.916943801993744"><ele>257.75</ele><time>2026-04-06T14:26:04.97Z</time></trkpt><trkpt lat="45.65377966272935" lon="9.917156282873453"><ele>263.0</ele><time>2026-04-06T14:26:05.97Z</time></trkpt><trkpt lat="45.653771900683665" lon="9.91737985826684"><ele>260.75</ele><time>2026-04-06T14:26:06.97Z</time></trkpt><trkpt lat="45.65375633987443" lon="9.917582591907669"><ele>258.5</ele><time>2026-04-06T14:26:07.97Z</time></trkpt><trkpt lat="45.653757884144774" lon="9.917779632318986"><ele>256.25</ele><time>2026-04-06T14:26:08.97Z</time></trkpt><trkpt lat="45.6537602179479" lon="9.917974966038175"><ele>254.0</ele><time>2026-04-06T14:26:09.97Z</time></trkpt><trkpt lat="45.653762678729954" lon="9.91816036246129"><ele>254.0</ele><time>2026-04-06T14:26:10.97Z</time></trkpt><trkpt lat="45.65376405056201" lon="9.91833337474791"><ele>254.0</ele><time>2026-04-06T14:26:11.97Z</time></trkpt><trkpt lat="45.653766485664725" lon="9.91850094856976"><ele>254.0</ele><time>2026-04-06T14:26:12.97Z</time></trkpt><trkpt lat="45.65377627557298" lon="9.918662450075205"><ele>254.0</ele><time>2026-04-06T14:26:13.97Z</time></trkpt><trkpt lat="45.65380124394408" lon="9.918825069844408"><ele>252.0</ele><time>2026-04-06T14:26:14.97Z</time></trkpt><trkpt lat="45.653868765506324" lon="9.918980700507747"><ele>250.0</ele><time>2026-04-06T14:26:15.97Z</time></trkpt><trkpt lat="45.65392781050976" lon="9.91913677661615"><ele>248.0</ele><time>2026-04-06T14:26:16.97Z</time></trkpt><trkpt lat="45.65400234384839" lon="9.919293474062245"><ele>246.0</ele><time>2026-04-06T14:26:17.97Z</time></trkpt><trkpt lat="45.65408744264542" lon="9.919439453339079"><ele>243.25</ele><time>2026-04-06T14:26:18.97Z</time></trkpt><trkpt lat="45.6541734639027" lon="9.919578820463443"><ele>240.5</ele><time>2026-04-06T14:26:19.97Z</time></trkpt><trkpt lat="45.654248959889365" lon="9.919728219045439"><ele>237.75</ele><time>2026-04-06T14:26:20.97Z</time></trkpt><trkpt lat="45.65433989884298" lon="9.919851219789038"><ele>235.0</ele><time>2026-04-06T14:26:21.97Z</time></trkpt><trkpt lat="45.65443608821707" lon="9.919959126726507"><ele>233.5</ele><time>2026-04-06T14:26:22.97Z</time></trkpt><trkpt lat="45.65453661143162" lon="9.920053892586335"><ele>232.0</ele><time>2026-04-06T14:26:23.97Z</time></trkpt><trkpt lat="45.65463764396621" lon="9.92014586417296"><ele>230.5</ele><time>2026-04-06T14:26:24.97Z</time></trkpt><trkpt lat="45.65473501306113" lon="9.920245066249528"><ele>229.0</ele><time>2026-04-06T14:26:25.97Z</time></trkpt><trkpt lat="45.65482964027164" lon="9.920363658188998"><ele>229.0</ele><time>2026-04-06T14:26:26.97Z</time></trkpt><trkpt lat="45.654924990887764" lon="9.920498168324663"><ele>229.0</ele><time>2026-04-06T14:26:27.97Z</time></trkpt><trkpt lat="45.65501562126573" lon="9.920654506875467"><ele>229.0</ele><time>2026-04-06T14:26:28.97Z</time></trkpt><trkpt lat="45.655104675539775" lon="9.920819370763468"><ele>229.0</ele><time>2026-04-06T14:26:29.97Z</time></trkpt><trkpt lat="45.65520025747546" lon="9.92097999992793"><ele>231.75</ele><time>2026-04-06T14:26:30.97Z</time></trkpt><trkpt lat="45.655293555464404" lon="9.921131028937157"><ele>234.5</ele><time>2026-04-06T14:26:31.97Z</time></trkpt><trkpt lat="45.65538255482655" lon="9.921274922354018"><ele>237.25</ele><time>2026-04-06T14:26:32.97Z</time></trkpt><trkpt lat="45.65547133238692" lon="9.921419549703126"><ele>240.0</ele><time>2026-04-06T14:26:33.97Z</time></trkpt><trkpt lat="45.65555790289647" lon="9.921571097925996"><ele>240.0</ele><time>2026-04-06T14:26:34.97Z</time></trkpt><trkpt lat="45.65564127566436" lon="9.921723844054986"><ele>240.0</ele><time>2026-04-06T14:26:35.97Z</time></trkpt><trkpt lat="45.65571488320226" lon="9.921882114187142"><ele>240.0</ele><time>2026-04-06T14:26:36.97Z</time></trkpt><trkpt lat="45.65576614093822" lon="9.92204742495936"><ele>240.0</ele><time>2026-04-06T14:26:37.97Z</time></trkpt><trkpt lat="45.655840493443485" lon="9.922184832959138"><ele>238.0</ele><time>2026-04-06T14:26:38.97Z</time></trkpt><trkpt lat="45.65591522475144" lon="9.922317412699968"><ele>236.0</ele><time>2026-04-06T14:26:39.97Z</time></trkpt><trkpt lat="45.655985209241784" lon="9.922443011769003"><ele>234.0</ele><time>2026-04-06T14:26:40.97Z</time></trkpt><trkpt lat="45.65605663208251" lon="9.92256119816691"><ele>232.0</ele><time>2026-04-06T14:26:41.97Z</time></trkpt><trkpt lat="45.65611960687628" lon="9.922658505886815"><ele>230.0</ele><time>2026-04-06T14:26:42.97Z</time></trkpt><trkpt lat="45.6561703368515" lon="9.922731124435963"><ele>230.00000000000003</ele><time>2026-04-06T14:26:43.97Z</time></trkpt><trkpt lat="45.65623258099704" lon="9.922830504952636"><ele>230.0</ele><time>2026-04-06T14:26:45.97Z</time></trkpt><trkpt lat="45.65628428673329" lon="9.922928506513921"><ele>230.0</ele><time>2026-04-06T14:26:47.97Z</time></trkpt><trkpt lat="45.656308533627545" lon="9.923016388486054"><ele>230.0</ele><time>2026-04-06T14:26:48.97Z</time></trkpt><trkpt lat="45.65634619826336" lon="9.92309889719081"><ele>230.00000000000003</ele><time>2026-04-06T14:26:49.97Z</time></trkpt><trkpt lat="45.65640283515104" lon="9.92319815956236"><ele>230.0</ele><time>2026-04-06T14:26:50.97Z</time></trkpt><trkpt lat="45.65647739332897" lon="9.92328375657199"><ele>230.0</ele><time>2026-04-06T14:26:51.97Z</time></trkpt><trkpt lat="45.65657507754307" lon="9.923344250846911"><ele>230.0</ele><time>2026-04-06T14:26:52.97Z</time></trkpt><trkpt lat="45.65663980265692" lon="9.923437839249576"><ele>230.0</ele><time>2026-04-06T14:26:53.97Z</time></trkpt><trkpt lat="45.65671433555941" lon="9.923549492342534"><ele>230.0</ele><time>2026-04-06T14:26:54.97Z</time></trkpt><trkpt lat="45.656797907878094" lon="9.92367468684349"><ele>230.0</ele><time>2026-04-06T14:26:55.97Z</time></trkpt><trkpt lat="45.656881853904395" lon="9.923798984112047"><ele>231.0</ele><time>2026-04-06T14:26:56.97Z</time></trkpt><trkpt lat="45.6569630548762" lon="9.923918940072047"><ele>232.0</ele><time>2026-04-06T14:26:57.97Z</time></trkpt><trkpt lat="45.657053075362406" lon="9.92401937975722"><ele>233.0</ele><time>2026-04-06T14:26:58.97Z</time></trkpt><trkpt lat="45.657119489608895" lon="9.924144363713484"><ele>234.0</ele><time>2026-04-06T14:26:59.97Z</time></trkpt><trkpt lat="45.65720123885629" lon="9.924248813742649"><ele>231.0</ele><time>2026-04-06T14:27:00.97Z</time></trkpt><trkpt lat="45.65727777004517" lon="9.924358097456548"><ele>228.0</ele><time>2026-04-06T14:27:01.97Z</time></trkpt><trkpt lat="45.65735674998606" lon="9.924469765310532"><ele>225.0</ele><time>2026-04-06T14:27:02.97Z</time></trkpt><trkpt lat="45.65744527274689" lon="9.924592105057851"><ele>222.0</ele><time>2026-04-06T14:27:03.97Z</time></trkpt><trkpt lat="45.657547161405255" lon="9.924710922009238"><ele>222.0</ele><time>2026-04-06T14:27:04.97Z</time></trkpt><trkpt lat="45.65766129374964" lon="9.92483001432336"><ele>222.0</ele><time>2026-04-06T14:27:05.97Z</time></trkpt><trkpt lat="45.65777670571756" lon="9.924926106042467"><ele>222.0</ele><time>2026-04-06T14:27:06.97Z</time></trkpt><trkpt lat="45.65788152061951" lon="9.925007178730839"><ele>222.0</ele><time>2026-04-06T14:27:07.97Z</time></trkpt><trkpt lat="45.65798432224162" lon="9.925101663312441"><ele>221.0</ele><time>2026-04-06T14:27:08.97Z</time></trkpt><trkpt lat="45.65808144947523" lon="9.92518511426269"><ele>220.0</ele><time>2026-04-06T14:27:09.97Z</time></trkpt><trkpt lat="45.65818267355109" lon="9.92530847640583"><ele>219.0</ele><time>2026-04-06T14:27:10.97Z</time></trkpt><trkpt lat="45.6583312272618" lon="9.925425917224064"><ele>218.0</ele><time>2026-04-06T14:27:11.969Z</time></trkpt><trkpt lat="45.65848171652166" lon="9.92556109413537"><ele>218.0</ele><time>2026-04-06T14:27:12.969Z</time></trkpt><trkpt lat="45.65861432055217" lon="9.925678732246128"><ele>218.0</ele><time>2026-04-06T14:27:13.969Z</time></trkpt><trkpt lat="45.65876447028792" lon="9.925809235971657"><ele>218.0</ele><time>2026-04-06T14:27:14.969Z</time></trkpt><trkpt lat="45.658917019519265" lon="9.925947120060318"><ele>217.66666666666669</ele><time>2026-04-06T14:27:15.969Z</time></trkpt><trkpt lat="45.65906812182141" lon="9.926087531967514"><ele>217.33333333333331</ele><time>2026-04-06T14:27:16.97Z</time></trkpt><trkpt lat="45.65921072581542" lon="9.926212569836073"><ele>217.0</ele><time>2026-04-06T14:27:17.969Z</time></trkpt><trkpt lat="45.65932695120008" lon="9.926314069743984"><ele>217.0</ele><time>2026-04-06T14:27:18.969Z</time></trkpt><trkpt lat="45.65942610271533" lon="9.926400789064921"><ele>217.0</ele><time>2026-04-06T14:27:19.969Z</time></trkpt><trkpt lat="45.65951604555589" lon="9.92649060472909"><ele>217.0</ele><time>2026-04-06T14:27:20.969Z</time></trkpt><trkpt lat="45.65960678849686" lon="9.926588222744943"><ele>217.0</ele><time>2026-04-06T14:27:21.969Z</time></trkpt><trkpt lat="45.659701025973085" lon="9.926701929831896"><ele>217.39999999999998</ele><time>2026-04-06T14:27:22.969Z</time></trkpt><trkpt lat="45.65975946184479" lon="9.926857787522692"><ele>217.79999999999998</ele><time>2026-04-06T14:27:23.969Z</time></trkpt><trkpt lat="45.659808172112015" lon="9.926992581627617"><ele>218.2</ele><time>2026-04-06T14:27:24.969Z</time></trkpt><trkpt lat="45.659862521466295" lon="9.927118666053186"><ele>218.6</ele><time>2026-04-06T14:27:25.969Z</time></trkpt><trkpt lat="45.65991360157544" lon="9.927242864566425"><ele>219.0</ele><time>2026-04-06T14:27:26.969Z</time></trkpt><trkpt lat="45.65997620008042" lon="9.927353562421455"><ele>219.0</ele><time>2026-04-06T14:27:27.969Z</time></trkpt><trkpt lat="45.660054615013564" lon="9.92744887492174"><ele>218.99999999999997</ele><time>2026-04-06T14:27:28.969Z</time></trkpt><trkpt lat="45.66013706409813" lon="9.927534288792973"><ele>218.99999999999997</ele><time>2026-04-06T14:27:29.969Z</time></trkpt><trkpt lat="45.66022472916985" lon="9.927619416888222"><ele>219.0</ele><time>2026-04-06T14:27:30.969Z</time></trkpt><trkpt lat="45.6603118496778" lon="9.927706850483704"><ele>219.0</ele><time>2026-04-06T14:27:31.969Z</time></trkpt><trkpt lat="45.66039417929153" lon="9.927791579947334"><ele>220.0</ele><time>2026-04-06T14:27:32.969Z</time></trkpt><trkpt lat="45.66047217884082" lon="9.927862807332465"><ele>220.99999999999997</ele><time>2026-04-06T14:27:33.969Z</time></trkpt><trkpt lat="45.660557547106755" lon="9.927934101003185"><ele>221.99999999999997</ele><time>2026-04-06T14:27:34.969Z</time></trkpt><trkpt lat="45.66064659005966" lon="9.928000675082748"><ele>223.0</ele><time>2026-04-06T14:27:35.969Z</time></trkpt><trkpt lat="45.66074426203894" lon="9.928061552016652"><ele>224.0</ele><time>2026-04-06T14:27:36.969Z</time></trkpt><trkpt lat="45.66083446441271" lon="9.928123923109315"><ele>224.0</ele><time>2026-04-06T14:27:37.969Z</time></trkpt><trkpt lat="45.66092270647142" lon="9.928179830691628"><ele>223.99999999999997</ele><time>2026-04-06T14:27:38.969Z</time></trkpt><trkpt lat="45.661011016267906" lon="9.928231506075582"><ele>223.99999999999997</ele><time>2026-04-06T14:27:39.969Z</time></trkpt><trkpt lat="45.66109421029518" lon="9.92828340247565"><ele>224.0</ele><time>2026-04-06T14:27:40.969Z</time></trkpt><trkpt lat="45.66118170862017" lon="9.928328552242688"><ele>224.0</ele><time>2026-04-06T14:27:41.969Z</time></trkpt><trkpt lat="45.661242010567534" lon="9.928419166543227"><ele>224.33333333333334</ele><time>2026-04-06T14:27:42.969Z</time></trkpt><trkpt lat="45.661320858189235" lon="9.928461435619392"><ele>224.66666666666669</ele><time>2026-04-06T14:27:43.969Z</time></trkpt><trkpt lat="45.66140305243544" lon="9.928501163188367"><ele>225.0</ele><time>2026-04-06T14:27:44.969Z</time></trkpt><trkpt lat="45.66148281356815" lon="9.928544066414574"><ele>225.33333333333331</ele><time>2026-04-06T14:27:45.969Z</time></trkpt><trkpt lat="45.661561491242495" lon="9.928592544503804"><ele>225.66666666666666</ele><time>2026-04-06T14:27:46.969Z</time></trkpt><trkpt lat="45.661644761937815" lon="9.928650043300399"><ele>226.0</ele><time>2026-04-06T14:27:47.969Z</time></trkpt><trkpt lat="45.66172437976284" lon="9.92872769403456"><ele>226.0</ele><time>2026-04-06T14:27:48.969Z</time></trkpt><trkpt lat="45.661805029202945" lon="9.928820275036271"><ele>226.00000000000003</ele><time>2026-04-06T14:27:49.969Z</time></trkpt><trkpt lat="45.661876990769656" lon="9.928924752198588"><ele>226.00000000000003</ele><time>2026-04-06T14:27:50.969Z</time></trkpt><trkpt lat="45.66194612505956" lon="9.929031824259372"><ele>226.0</ele><time>2026-04-06T14:27:51.969Z</time></trkpt><trkpt lat="45.662018793491" lon="9.929148562592097"><ele>226.0</ele><time>2026-04-06T14:27:52.969Z</time></trkpt><trkpt lat="45.66209794096484" lon="9.929262677787884"><ele>228.5</ele><time>2026-04-06T14:27:53.969Z</time></trkpt><trkpt lat="45.66218015765883" lon="9.92937203427211"><ele>231.0</ele><time>2026-04-06T14:27:54.969Z</time></trkpt><trkpt lat="45.66226807555149" lon="9.929479041111408"><ele>233.5</ele><time>2026-04-06T14:27:55.969Z</time></trkpt><trkpt lat="45.662357127571276" lon="9.929578448953416"><ele>236.0</ele><time>2026-04-06T14:27:56.969Z</time></trkpt><trkpt lat="45.66245515983394" lon="9.929680286790648"><ele>236.0</ele><time>2026-04-06T14:27:57.969Z</time></trkpt><trkpt lat="45.6625553820928" lon="9.929773065032519"><ele>236.0</ele><time>2026-04-06T14:27:58.969Z</time></trkpt><trkpt lat="45.66265420447305" lon="9.929864620636979"><ele>236.0</ele><time>2026-04-06T14:27:59.969Z</time></trkpt><trkpt lat="45.6627536841516" lon="9.929961512992888"><ele>236.0</ele><time>2026-04-06T14:28:00.969Z</time></trkpt><trkpt lat="45.66284495409201" lon="9.930058530907235"><ele>237.0</ele><time>2026-04-06T14:28:01.969Z</time></trkpt><trkpt lat="45.66293855969082" lon="9.930144100229278"><ele>238.00000000000003</ele><time>2026-04-06T14:28:02.969Z</time></trkpt><trkpt lat="45.66303165749962" lon="9.930224173039052"><ele>239.00000000000003</ele><time>2026-04-06T14:28:03.969Z</time></trkpt><trkpt lat="45.66312347162622" lon="9.930308561524186"><ele>240.0</ele><time>2026-04-06T14:28:04.969Z</time></trkpt><trkpt lat="45.663213369037855" lon="9.930403750757089"><ele>241.0</ele><time>2026-04-06T14:28:05.969Z</time></trkpt><trkpt lat="45.66330995233061" lon="9.930503419524868"><ele>241.0</ele><time>2026-04-06T14:28:06.969Z</time></trkpt><trkpt lat="45.663394253973024" lon="9.930594489365884"><ele>241.00000000000003</ele><time>2026-04-06T14:28:07.969Z</time></trkpt><trkpt lat="45.66348861017982" lon="9.930680477179283"><ele>241.00000000000003</ele><time>2026-04-06T14:28:08.969Z</time></trkpt><trkpt lat="45.66355866371661" lon="9.930791524683672"><ele>241.0</ele><time>2026-04-06T14:28:09.969Z</time></trkpt><trkpt lat="45.6636597941249" lon="9.930855649943588"><ele>241.0</ele><time>2026-04-06T14:28:10.969Z</time></trkpt><trkpt lat="45.663769105216524" lon="9.930901049439173"><ele>240.20000000000002</ele><time>2026-04-06T14:28:11.969Z</time></trkpt><trkpt lat="45.663879687557426" lon="9.930940144950917"><ele>239.40000000000003</ele><time>2026-04-06T14:28:12.969Z</time></trkpt><trkpt lat="45.663988623225144" lon="9.930976078409227"><ele>238.6</ele><time>2026-04-06T14:28:13.969Z</time></trkpt><trkpt lat="45.664090368097845" lon="9.931011443185275"><ele>237.8</ele><time>2026-04-06T14:28:14.969Z</time></trkpt><trkpt lat="45.66419026163133" lon="9.931033420209108"><ele>237.0</ele><time>2026-04-06T14:28:15.969Z</time></trkpt><trkpt lat="45.664286739406336" lon="9.931060416821957"><ele>237.0</ele><time>2026-04-06T14:28:16.969Z</time></trkpt><trkpt lat="45.66437470114636" lon="9.931089720250405"><ele>237.0</ele><time>2026-04-06T14:28:17.969Z</time></trkpt><trkpt lat="45.66445209530674" lon="9.9311197359169"><ele>237.0</ele><time>2026-04-06T14:28:18.969Z</time></trkpt><trkpt lat="45.664523954923034" lon="9.931151982740149"><ele>237.0</ele><time>2026-04-06T14:28:19.969Z</time></trkpt><trkpt lat="45.66459276251854" lon="9.931197344820243"><ele>237.0</ele><time>2026-04-06T14:28:20.969Z</time></trkpt><trkpt lat="45.66466087416328" lon="9.931265210409812"><ele>237.0</ele><time>2026-04-06T14:28:21.969Z</time></trkpt><trkpt lat="45.664732008189304" lon="9.931324643030631"><ele>235.6</ele><time>2026-04-06T14:28:22.969Z</time></trkpt><trkpt lat="45.66479701288969" lon="9.931445150622837"><ele>234.2</ele><time>2026-04-06T14:28:23.969Z</time></trkpt><trkpt lat="45.66488761106208" lon="9.931538159867117"><ele>232.8</ele><time>2026-04-06T14:28:24.969Z</time></trkpt><trkpt lat="45.66497588509545" lon="9.931631767731185"><ele>231.4</ele><time>2026-04-06T14:28:25.969Z</time></trkpt><trkpt lat="45.66506105103415" lon="9.931725468974586"><ele>230.0</ele><time>2026-04-06T14:28:26.969Z</time></trkpt><trkpt lat="45.66513873456077" lon="9.931834020459812"><ele>229.66666666666669</ele><time>2026-04-06T14:28:27.969Z</time></trkpt><trkpt lat="45.665226946299946" lon="9.931960711400755"><ele>229.33333333333331</ele><time>2026-04-06T14:28:28.969Z</time></trkpt><trkpt lat="45.66534562371597" lon="9.93214461848068"><ele>229.0</ele><time>2026-04-06T14:28:29.969Z</time></trkpt><trkpt lat="45.665482796617184" lon="9.932374352434962"><ele>229.0</ele><time>2026-04-06T14:28:30.969Z</time></trkpt><trkpt lat="45.665631871498555" lon="9.932608789177943"><ele>229.0</ele><time>2026-04-06T14:28:31.969Z</time></trkpt><trkpt lat="45.66577604050857" lon="9.932823790521256"><ele>229.0</ele><time>2026-04-06T14:28:32.969Z</time></trkpt><trkpt lat="45.665918933809294" lon="9.933026634624316"><ele>229.0</ele><time>2026-04-06T14:28:33.969Z</time></trkpt><trkpt lat="45.66603490778514" lon="9.93323636940573"><ele>229.0</ele><time>2026-04-06T14:28:34.969Z</time></trkpt><trkpt lat="45.666154166483764" lon="9.933411580696964"><ele>229.0</ele><time>2026-04-06T14:28:35.969Z</time></trkpt><trkpt lat="45.66627685912855" lon="9.933584357750847"><ele>229.66666666666666</ele><time>2026-04-06T14:28:36.969Z</time></trkpt><trkpt lat="45.66638366401002" lon="9.93378676288015"><ele>230.33333333333331</ele><time>2026-04-06T14:28:37.969Z</time></trkpt><trkpt lat="45.666501233584434" lon="9.933973857665128"><ele>231.0</ele><time>2026-04-06T14:28:38.969Z</time></trkpt><trkpt lat="45.66661410215398" lon="9.934123180311106"><ele>231.0</ele><time>2026-04-06T14:28:39.969Z</time></trkpt><trkpt lat="45.66671098901226" lon="9.934289918575272"><ele>231.0</ele><time>2026-04-06T14:28:40.969Z</time></trkpt><trkpt lat="45.666824561486116" lon="9.934464361681828"><ele>231.0</ele><time>2026-04-06T14:28:41.969Z</time></trkpt><trkpt lat="45.666942137335056" lon="9.934646475691457"><ele>231.25</ele><time>2026-04-06T14:28:42.969Z</time></trkpt><trkpt lat="45.66704890436103" lon="9.934814073549084"><ele>231.5</ele><time>2026-04-06T14:28:43.969Z</time></trkpt><trkpt lat="45.667143019816244" lon="9.934965019345361"><ele>231.75</ele><time>2026-04-06T14:28:44.969Z</time></trkpt><trkpt lat="45.667220818638015" lon="9.935087000986247"><ele>232.0</ele><time>2026-04-06T14:28:45.969Z</time></trkpt><trkpt lat="45.66728854050851" lon="9.93520986053435"><ele>231.99999999999997</ele><time>2026-04-06T14:28:46.969Z</time></trkpt><trkpt lat="45.667350827648185" lon="9.935324913624898"><ele>232.0</ele><time>2026-04-06T14:28:47.969Z</time></trkpt><trkpt lat="45.66740367859516" lon="9.93541635330681"><ele>232.0</ele><time>2026-04-06T14:28:48.969Z</time></trkpt><trkpt lat="45.66745087065233" lon="9.935484568627038"><ele>232.0</ele><time>2026-04-06T14:28:49.969Z</time></trkpt><trkpt lat="45.66753411235069" lon="9.935574160725368"><ele>231.99999999999997</ele><time>2026-04-06T14:28:51.969Z</time></trkpt><trkpt lat="45.66757561405411" lon="9.935675181604893"><ele>232.0</ele><time>2026-04-06T14:28:53.969Z</time></trkpt><trkpt lat="45.66762099602923" lon="9.93576581073283"><ele>232.0</ele><time>2026-04-06T14:28:55.969Z</time></trkpt><trkpt lat="45.667661115716854" lon="9.935857538966898"><ele>232.0</ele><time>2026-04-06T14:29:02.969Z</time></trkpt><trkpt lat="45.66770745741754" lon="9.935946077700104"><ele>232.0</ele><time>2026-04-06T14:29:04.969Z</time></trkpt><trkpt lat="45.66772484326952" lon="9.936035034002906"><ele>232.0</ele><time>2026-04-06T14:29:06.969Z</time></trkpt><trkpt lat="45.6677862968483" lon="9.936219292014334"><ele>232.0</ele><time>2026-04-06T14:29:08.969Z</time></trkpt><trkpt lat="45.66782114930505" lon="9.936344838527429"><ele>232.25</ele><time>2026-04-06T14:29:09.969Z</time></trkpt><trkpt lat="45.66785862004826" lon="9.936460292873276"><ele>232.5</ele><time>2026-04-06T14:29:10.969Z</time></trkpt><trkpt lat="45.6679131273968" lon="9.936589278394889"><ele>232.75</ele><time>2026-04-06T14:29:11.969Z</time></trkpt><trkpt lat="45.66795152015871" lon="9.936781904395595"><ele>233.0</ele><time>2026-04-06T14:29:12.969Z</time></trkpt><trkpt lat="45.66801972189685" lon="9.936980543849574"><ele>233.0</ele><time>2026-04-06T14:29:13.969Z</time></trkpt><trkpt lat="45.66809742197244" lon="9.93717211241771"><ele>233.0</ele><time>2026-04-06T14:29:14.969Z</time></trkpt><trkpt lat="45.66816322143008" lon="9.937379648333676"><ele>233.0</ele><time>2026-04-06T14:29:15.969Z</time></trkpt><trkpt lat="45.66822976741137" lon="9.93758056756591"><ele>233.0</ele><time>2026-04-06T14:29:16.968Z</time></trkpt><trkpt lat="45.66829745175534" lon="9.93778713771155"><ele>233.0</ele><time>2026-04-06T14:29:17.968Z</time></trkpt><trkpt lat="45.66834645309568" lon="9.937990205021915"><ele>233.0</ele><time>2026-04-06T14:29:18.968Z</time></trkpt><trkpt lat="45.66841159432021" lon="9.938193093793288"><ele>233.0</ele><time>2026-04-06T14:29:19.967Z</time></trkpt><trkpt lat="45.668492286471945" lon="9.93839121647359"><ele>233.0</ele><time>2026-04-06T14:29:20.967Z</time></trkpt><trkpt lat="45.66854755595783" lon="9.938576638978574"><ele>233.0</ele><time>2026-04-06T14:29:21.967Z</time></trkpt><trkpt lat="45.66858726004381" lon="9.938759841087627"><ele>233.0</ele><time>2026-04-06T14:29:22.968Z</time></trkpt><trkpt lat="45.66864717130965" lon="9.938926304016011"><ele>233.0</ele><time>2026-04-06T14:29:23.968Z</time></trkpt><trkpt lat="45.66869877477129" lon="9.939075432799543"><ele>233.0</ele><time>2026-04-06T14:29:24.967Z</time></trkpt><trkpt lat="45.668742031959695" lon="9.939211069347596"><ele>233.0</ele><time>2026-04-06T14:29:25.968Z</time></trkpt><trkpt lat="45.66878286616027" lon="9.939336171596892"><ele>233.0</ele><time>2026-04-06T14:29:26.967Z</time></trkpt><trkpt lat="45.66881031064445" lon="9.939434021780635"><ele>233.0</ele><time>2026-04-06T14:29:27.967Z</time></trkpt><trkpt lat="45.66885100583946" lon="9.939594726958216"><ele>232.83333333333334</ele><time>2026-04-06T14:29:29.968Z</time></trkpt><trkpt lat="45.66887272814245" lon="9.939686598453525"><ele>232.66666666666669</ele><time>2026-04-06T14:29:30.968Z</time></trkpt><trkpt lat="45.6688931798337" lon="9.939788899111129"><ele>232.5</ele><time>2026-04-06T14:29:31.968Z</time></trkpt><trkpt lat="45.66890857504012" lon="9.939907144914455"><ele>232.33333333333331</ele><time>2026-04-06T14:29:32.968Z</time></trkpt><trkpt lat="45.668917244597075" lon="9.940042975612974"><ele>232.16666666666666</ele><time>2026-04-06T14:29:33.968Z</time></trkpt><trkpt lat="45.66891783098221" lon="9.940189555500538"><ele>232.0</ele><time>2026-04-06T14:29:34.968Z</time></trkpt><trkpt lat="45.668908747086896" lon="9.940333913017193"><ele>231.8</ele><time>2026-04-06T14:29:35.968Z</time></trkpt><trkpt lat="45.66889551080015" lon="9.940487437931786"><ele>231.6</ele><time>2026-04-06T14:29:36.968Z</time></trkpt><trkpt lat="45.66889018860687" lon="9.940645901747475"><ele>231.40000000000003</ele><time>2026-04-06T14:29:37.968Z</time></trkpt><trkpt lat="45.668875930013876" lon="9.940791174977212"><ele>231.20000000000002</ele><time>2026-04-06T14:29:38.968Z</time></trkpt><trkpt lat="45.66886495832439" lon="9.940927747203263"><ele>231.0</ele><time>2026-04-06T14:29:39.968Z</time></trkpt><trkpt lat="45.66885767907619" lon="9.941061667725128"><ele>229.8</ele><time>2026-04-06T14:29:40.968Z</time></trkpt><trkpt lat="45.66885282902478" lon="9.941186356696846"><ele>228.60000000000002</ele><time>2026-04-06T14:29:41.968Z</time></trkpt><trkpt lat="45.668847772281595" lon="9.941307578863281"><ele>227.4</ele><time>2026-04-06T14:29:42.968Z</time></trkpt><trkpt lat="45.668837640296395" lon="9.941438146512219"><ele>226.2</ele><time>2026-04-06T14:29:43.968Z</time></trkpt><trkpt lat="45.66883223953748" lon="9.941588486462123"><ele>225.0</ele><time>2026-04-06T14:29:44.968Z</time></trkpt><trkpt lat="45.66883492428959" lon="9.941748918230136"><ele>221.75</ele><time>2026-04-06T14:29:45.968Z</time></trkpt><trkpt lat="45.66885837745114" lon="9.941910525280589"><ele>218.5</ele><time>2026-04-06T14:29:46.968Z</time></trkpt><trkpt lat="45.66891531003695" lon="9.942060412265706"><ele>215.25</ele><time>2026-04-06T14:29:47.968Z</time></trkpt><trkpt lat="45.668996934203854" lon="9.94220701407047"><ele>212.0</ele><time>2026-04-06T14:29:48.968Z</time></trkpt><trkpt lat="45.66908949545981" lon="9.942341943922518"><ele>212.0</ele><time>2026-04-06T14:29:49.968Z</time></trkpt><trkpt lat="45.669186704314875" lon="9.942482795947827"><ele>212.0</ele><time>2026-04-06T14:29:50.968Z</time></trkpt><trkpt lat="45.66928054158601" lon="9.942629162755438"><ele>212.0</ele><time>2026-04-06T14:29:51.968Z</time></trkpt><trkpt lat="45.66937218218949" lon="9.942780958074026"><ele>212.0</ele><time>2026-04-06T14:29:52.968Z</time></trkpt><trkpt lat="45.66946914710636" lon="9.942924034347723"><ele>213.75</ele><time>2026-04-06T14:29:53.968Z</time></trkpt><trkpt lat="45.66956035408468" lon="9.943059657155322"><ele>215.5</ele><time>2026-04-06T14:29:54.968Z</time></trkpt><trkpt lat="45.669658577934285" lon="9.943178693512111"><ele>217.25</ele><time>2026-04-06T14:29:55.968Z</time></trkpt><trkpt lat="45.66973422053912" lon="9.943306298853576"><ele>219.0</ele><time>2026-04-06T14:29:56.968Z</time></trkpt><trkpt lat="45.66982488466422" lon="9.943390764953449"><ele>215.79999999999998</ele><time>2026-04-06T14:29:57.968Z</time></trkpt><trkpt lat="45.669915438885205" lon="9.94347709078905"><ele>212.59999999999997</ele><time>2026-04-06T14:29:58.968Z</time></trkpt><trkpt lat="45.670006264658966" lon="9.943551648593228"><ele>209.4</ele><time>2026-04-06T14:29:59.968Z</time></trkpt><trkpt lat="45.67008944495736" lon="9.943629190387515"><ele>206.2</ele><time>2026-04-06T14:30:00.968Z</time></trkpt><trkpt lat="45.67017770807401" lon="9.943707686721455"><ele>203.0</ele><time>2026-04-06T14:30:01.968Z</time></trkpt><trkpt lat="45.670264297171215" lon="9.943808465737911"><ele>205.0</ele><time>2026-04-06T14:30:02.968Z</time></trkpt><trkpt lat="45.670343575875016" lon="9.943930961709713"><ele>207.0</ele><time>2026-04-06T14:30:03.968Z</time></trkpt><trkpt lat="45.670420199505884" lon="9.944066642127314"><ele>209.0</ele><time>2026-04-06T14:30:04.968Z</time></trkpt><trkpt lat="45.67049076014195" lon="9.944213476775928"><ele>211.0</ele><time>2026-04-06T14:30:05.968Z</time></trkpt><trkpt lat="45.670554234822404" lon="9.94437798860471"><ele>211.0</ele><time>2026-04-06T14:30:06.968Z</time></trkpt><trkpt lat="45.670621114007325" lon="9.94454042391559"><ele>211.0</ele><time>2026-04-06T14:30:07.968Z</time></trkpt><trkpt lat="45.67068709674663" lon="9.944700046242222"><ele>211.0</ele><time>2026-04-06T14:30:08.968Z</time></trkpt><trkpt lat="45.670758957958725" lon="9.944850552354024"><ele>211.0</ele><time>2026-04-06T14:30:09.968Z</time></trkpt><trkpt lat="45.67083996573961" lon="9.944987544423494"><ele>209.75</ele><time>2026-04-06T14:30:10.968Z</time></trkpt><trkpt lat="45.670935114555036" lon="9.945097964343404"><ele>208.5</ele><time>2026-04-06T14:30:11.968Z</time></trkpt><trkpt lat="45.67104687861171" lon="9.945182900474018"><ele>207.25</ele><time>2026-04-06T14:30:12.968Z</time></trkpt><trkpt lat="45.67116635099303" lon="9.94527365641367"><ele>206.0</ele><time>2026-04-06T14:30:13.968Z</time></trkpt><trkpt lat="45.671285881158525" lon="9.945344978023318"><ele>206.0</ele><time>2026-04-06T14:30:14.968Z</time></trkpt><trkpt lat="45.67137349098603" lon="9.945448605066945"><ele>206.0</ele><time>2026-04-06T14:30:15.968Z</time></trkpt><trkpt lat="45.67147078109724" lon="9.945516602499223"><ele>206.0</ele><time>2026-04-06T14:30:16.968Z</time></trkpt><trkpt lat="45.67156504207791" lon="9.945578999000006"><ele>206.0</ele><time>2026-04-06T14:30:17.968Z</time></trkpt><trkpt lat="45.67164329994353" lon="9.945639038288903"><ele>206.0</ele><time>2026-04-06T14:30:18.968Z</time></trkpt><trkpt lat="45.67172418807318" lon="9.945702976047395"><ele>206.0</ele><time>2026-04-06T14:30:19.968Z</time></trkpt><trkpt lat="45.671801160037646" lon="9.94578342585958"><ele>206.0</ele><time>2026-04-06T14:30:20.968Z</time></trkpt><trkpt lat="45.671872967754545" lon="9.945885788583968"><ele>206.0</ele><time>2026-04-06T14:30:21.968Z</time></trkpt><trkpt lat="45.671926069455296" lon="9.94600861638794"><ele>206.0</ele><time>2026-04-06T14:30:22.968Z</time></trkpt><trkpt lat="45.67195492155123" lon="9.946151091554945"><ele>206.0</ele><time>2026-04-06T14:30:23.968Z</time></trkpt><trkpt lat="45.671951862429324" lon="9.94630323779892"><ele>206.25</ele><time>2026-04-06T14:30:24.968Z</time></trkpt><trkpt lat="45.67191284568706" lon="9.946453416772025"><ele>206.5</ele><time>2026-04-06T14:30:25.968Z</time></trkpt><trkpt lat="45.67185364034295" lon="9.946581405901973"><ele>206.75</ele><time>2026-04-06T14:30:26.968Z</time></trkpt><trkpt lat="45.67178474551403" lon="9.946724643512288"><ele>207.0</ele><time>2026-04-06T14:30:27.968Z</time></trkpt><trkpt lat="45.671695744488474" lon="9.946861305480143"><ele>207.0</ele><time>2026-04-06T14:30:28.968Z</time></trkpt><trkpt lat="45.671625949723506" lon="9.947012862997259"><ele>207.0</ele><time>2026-04-06T14:30:29.968Z</time></trkpt><trkpt lat="45.67156103783635" lon="9.947156804245788"><ele>207.0</ele><time>2026-04-06T14:30:30.968Z</time></trkpt><trkpt lat="45.67149751483894" lon="9.947296451893516"><ele>207.0</ele><time>2026-04-06T14:30:31.968Z</time></trkpt><trkpt lat="45.67143401130476" lon="9.947436013379358"><ele>207.6</ele><time>2026-04-06T14:30:32.968Z</time></trkpt><trkpt lat="45.67137932734598" lon="9.947578012251022"><ele>208.2</ele><time>2026-04-06T14:30:33.968Z</time></trkpt><trkpt lat="45.671333646282626" lon="9.947721567341551"><ele>208.8</ele><time>2026-04-06T14:30:34.968Z</time></trkpt><trkpt lat="45.67130629365136" lon="9.947874431520264"><ele>209.4</ele><time>2026-04-06T14:30:35.968Z</time></trkpt><trkpt lat="45.67128393406533" lon="9.948022696770048"><ele>210.0</ele><time>2026-04-06T14:30:36.968Z</time></trkpt><trkpt lat="45.671261587439815" lon="9.948168528345777"><ele>210.0</ele><time>2026-04-06T14:30:37.968Z</time></trkpt><trkpt lat="45.671242764175595" lon="9.94832013948205"><ele>210.0</ele><time>2026-04-06T14:30:38.968Z</time></trkpt><trkpt lat="45.67120344562567" lon="9.94846963341953"><ele>210.0</ele><time>2026-04-06T14:30:39.968Z</time></trkpt><trkpt lat="45.67116752560083" lon="9.948615824583555"><ele>210.0</ele><time>2026-04-06T14:30:40.968Z</time></trkpt><trkpt lat="45.67114976689886" lon="9.948776471886346"><ele>210.0</ele><time>2026-04-06T14:30:41.968Z</time></trkpt><trkpt lat="45.67113100210738" lon="9.948945903366385"><ele>209.0</ele><time>2026-04-06T14:30:42.968Z</time></trkpt><trkpt lat="45.671112385151666" lon="9.949113966470117"><ele>208.0</ele><time>2026-04-06T14:30:43.968Z</time></trkpt><trkpt lat="45.67109613110783" lon="9.949281738466901"><ele>207.0</ele><time>2026-04-06T14:30:44.968Z</time></trkpt><trkpt lat="45.67108276047548" lon="9.949446869267069"><ele>206.0</ele><time>2026-04-06T14:30:45.968Z</time></trkpt><trkpt lat="45.671079531765024" lon="9.94961616051914"><ele>205.75</ele><time>2026-04-06T14:30:46.968Z</time></trkpt><trkpt lat="45.6710818178308" lon="9.949786315232906"><ele>205.5</ele><time>2026-04-06T14:30:47.968Z</time></trkpt><trkpt lat="45.67108215264531" lon="9.949959615414784"><ele>205.25</ele><time>2026-04-06T14:30:48.968Z</time></trkpt><trkpt lat="45.67108082707362" lon="9.950135901425144"><ele>205.0</ele><time>2026-04-06T14:30:49.968Z</time></trkpt><trkpt lat="45.67108025395455" lon="9.950311684931052"><ele>205.0</ele><time>2026-04-06T14:30:50.968Z</time></trkpt><trkpt lat="45.671081290048875" lon="9.950484102193913"><ele>205.0</ele><time>2026-04-06T14:30:51.968Z</time></trkpt><trkpt lat="45.671082745878714" lon="9.950657890745706"><ele>205.0</ele><time>2026-04-06T14:30:52.968Z</time></trkpt><trkpt lat="45.67108035969913" lon="9.950829768321793"><ele>205.0</ele><time>2026-04-06T14:30:53.968Z</time></trkpt><trkpt lat="45.67107806329842" lon="9.950997544046288"><ele>205.0</ele><time>2026-04-06T14:30:54.968Z</time></trkpt><trkpt lat="45.67107888806134" lon="9.95115736730802"><ele>205.0</ele><time>2026-04-06T14:30:55.968Z</time></trkpt><trkpt lat="45.671079067475475" lon="9.951311387379663"><ele>205.0</ele><time>2026-04-06T14:30:56.968Z</time></trkpt><trkpt lat="45.67108638008947" lon="9.951468556925407"><ele>205.0</ele><time>2026-04-06T14:30:57.968Z</time></trkpt><trkpt lat="45.67108929894714" lon="9.951609325236486"><ele>205.0</ele><time>2026-04-06T14:30:58.968Z</time></trkpt><trkpt lat="45.671091690604335" lon="9.95173793563203"><ele>205.2</ele><time>2026-04-06T14:30:59.968Z</time></trkpt><trkpt lat="45.67108538934202" lon="9.951853674167847"><ele>205.4</ele><time>2026-04-06T14:31:00.968Z</time></trkpt><trkpt lat="45.67106376591916" lon="9.95195174826574"><ele>205.60000000000002</ele><time>2026-04-06T14:31:01.968Z</time></trkpt><trkpt lat="45.67096838062774" lon="9.95207718296126"><ele>205.8</ele><time>2026-04-06T14:31:03.968Z</time></trkpt><trkpt lat="45.670887874707546" lon="9.952140486684506"><ele>206.0</ele><time>2026-04-06T14:31:04.968Z</time></trkpt><trkpt lat="45.67078560166723" lon="9.9522107565445"><ele>206.0</ele><time>2026-04-06T14:31:05.968Z</time></trkpt><trkpt lat="45.67067507678541" lon="9.95224971949484"><ele>206.0</ele><time>2026-04-06T14:31:06.968Z</time></trkpt><trkpt lat="45.67054601973443" lon="9.952237392731396"><ele>206.0</ele><time>2026-04-06T14:31:07.968Z</time></trkpt><trkpt lat="45.67040812479428" lon="9.952255981802958"><ele>206.0</ele><time>2026-04-06T14:31:08.968Z</time></trkpt><trkpt lat="45.67026375040744" lon="9.952349940001373"><ele>205.33333333333334</ele><time>2026-04-06T14:31:09.968Z</time></trkpt><trkpt lat="45.6701198634488" lon="9.952429944523043"><ele>204.66666666666669</ele><time>2026-04-06T14:31:10.968Z</time></trkpt><trkpt lat="45.66997771978193" lon="9.952521733398756"><ele>204.0</ele><time>2026-04-06T14:31:11.968Z</time></trkpt><trkpt lat="45.669842959229804" lon="9.952614947088636"><ele>203.33333333333331</ele><time>2026-04-06T14:31:12.968Z</time></trkpt><trkpt lat="45.66970379551844" lon="9.952722109704416"><ele>202.66666666666666</ele><time>2026-04-06T14:31:13.968Z</time></trkpt><trkpt lat="45.669576952020776" lon="9.952833677892366"><ele>202.0</ele><time>2026-04-06T14:31:14.968Z</time></trkpt><trkpt lat="45.669456577777176" lon="9.952958162814966"><ele>201.6</ele><time>2026-04-06T14:31:15.968Z</time></trkpt><trkpt lat="45.66935671083025" lon="9.953072160556763"><ele>201.2</ele><time>2026-04-06T14:31:16.968Z</time></trkpt><trkpt lat="45.66927205523385" lon="9.953163494816174"><ele>200.8</ele><time>2026-04-06T14:31:17.968Z</time></trkpt><trkpt lat="45.6691865260546" lon="9.953256718584038"><ele>200.4</ele><time>2026-04-06T14:31:18.968Z</time></trkpt><trkpt lat="45.66912107728538" lon="9.953372932658406"><ele>200.0</ele><time>2026-04-06T14:31:19.968Z</time></trkpt><trkpt lat="45.66905647802307" lon="9.953500825888018"><ele>199.6</ele><time>2026-04-06T14:31:20.968Z</time></trkpt><trkpt lat="45.668971610609454" lon="9.953592949383532"><ele>199.2</ele><time>2026-04-06T14:31:21.968Z</time></trkpt><trkpt lat="45.6688697808685" lon="9.953592855378258"><ele>198.8</ele><time>2026-04-06T14:31:22.966Z</time></trkpt><trkpt lat="45.668763862687314" lon="9.953631464541717"><ele>198.4</ele><time>2026-04-06T14:31:23.966Z</time></trkpt><trkpt lat="45.66864325313199" lon="9.953673661159083"><ele>198.0</ele><time>2026-04-06T14:31:24.966Z</time></trkpt><trkpt lat="45.66852824933944" lon="9.953732838973494"><ele>197.8</ele><time>2026-04-06T14:31:25.966Z</time></trkpt><trkpt lat="45.66841733543108" lon="9.953756463581538"><ele>197.60000000000002</ele><time>2026-04-06T14:31:26.966Z</time></trkpt><trkpt lat="45.66830723382545" lon="9.953801093075368"><ele>197.39999999999998</ele><time>2026-04-06T14:31:27.966Z</time></trkpt><trkpt lat="45.66821389091963" lon="9.953799188712551"><ele>197.2</ele><time>2026-04-06T14:31:28.966Z</time></trkpt><trkpt lat="45.66812061461076" lon="9.953790122771524"><ele>197.0</ele><time>2026-04-06T14:31:29.965Z</time></trkpt><trkpt lat="45.66800232876609" lon="9.953774744545655"><ele>197.0</ele><time>2026-04-06T14:31:30.965Z</time></trkpt><trkpt lat="45.66789617801505" lon="9.95376237207396"><ele>197.0</ele><time>2026-04-06T14:31:31.966Z</time></trkpt><trkpt lat="45.667802479500075" lon="9.953751444254985"><ele>197.0</ele><time>2026-04-06T14:31:32.966Z</time></trkpt><trkpt lat="45.66771554277329" lon="9.953741171301006"><ele>197.0</ele><time>2026-04-06T14:31:34.966Z</time></trkpt><trkpt lat="45.66764738893325" lon="9.953980803636677"><ele>196.25</ele><time>2026-04-06T14:31:38.966Z</time></trkpt><trkpt lat="45.66762321952993" lon="9.954126526151109"><ele>195.5</ele><time>2026-04-06T14:31:39.966Z</time></trkpt><trkpt lat="45.667608787744534" lon="9.95428285679389"><ele>194.75</ele><time>2026-04-06T14:31:40.966Z</time></trkpt><trkpt lat="45.66758195724298" lon="9.954454002107473"><ele>194.0</ele><time>2026-04-06T14:31:41.966Z</time></trkpt><trkpt lat="45.66756746350577" lon="9.954628579623645"><ele>194.0</ele><time>2026-04-06T14:31:42.966Z</time></trkpt><trkpt lat="45.66755175498291" lon="9.95481522859812"><ele>194.0</ele><time>2026-04-06T14:31:43.966Z</time></trkpt><trkpt lat="45.667540778962106" lon="9.955013290774614"><ele>194.0</ele><time>2026-04-06T14:31:44.966Z</time></trkpt><trkpt lat="45.667519235627275" lon="9.955197408347743"><ele>194.0</ele><time>2026-04-06T14:31:45.966Z</time></trkpt><trkpt lat="45.667477779029404" lon="9.955379085191213"><ele>194.6</ele><time>2026-04-06T14:31:46.966Z</time></trkpt><trkpt lat="45.667444436197044" lon="9.955545870104897"><ele>195.2</ele><time>2026-04-06T14:31:47.966Z</time></trkpt><trkpt lat="45.66742016454754" lon="9.955689673908955"><ele>195.79999999999998</ele><time>2026-04-06T14:31:48.966Z</time></trkpt><trkpt lat="45.667404024051315" lon="9.955816085609804"><ele>196.39999999999998</ele><time>2026-04-06T14:31:49.966Z</time></trkpt><trkpt lat="45.667367833494936" lon="9.955914672283294"><ele>197.0</ele><time>2026-04-06T14:31:50.966Z</time></trkpt><trkpt lat="45.667338740745826" lon="9.95603016597476"><ele>197.39999999999998</ele><time>2026-04-06T14:31:52.966Z</time></trkpt><trkpt lat="45.667193092602304" lon="9.955978683985254"><ele>197.79999999999998</ele><time>2026-04-06T14:31:56.966Z</time></trkpt><trkpt lat="45.667085739282676" lon="9.955924852503376"><ele>198.2</ele><time>2026-04-06T14:31:58.966Z</time></trkpt><trkpt lat="45.66698950502933" lon="9.955915935634593"><ele>198.6</ele><time>2026-04-06T14:32:00.966Z</time></trkpt><trkpt lat="45.66692651377574" lon="9.955894196014661"><ele>199.0</ele><time>2026-04-06T14:32:02.966Z</time></trkpt><trkpt lat="45.666844236570014" lon="9.955853662918173"><ele>197.83333333333331</ele><time>2026-04-06T14:32:08.966Z</time></trkpt><trkpt lat="45.66674640008848" lon="9.95597607661555"><ele>196.66666666666666</ele><time>2026-04-06T14:32:10.966Z</time></trkpt><trkpt lat="45.66671041581217" lon="9.956050748663941"><ele>195.5</ele><time>2026-04-06T14:32:12.966Z</time></trkpt><trkpt lat="45.666673894692316" lon="9.956126536054528"><ele>194.33333333333331</ele><time>2026-04-06T14:32:21.966Z</time></trkpt><trkpt lat="45.66662453152524" lon="9.95622079917216"><ele>193.16666666666666</ele><time>2026-04-06T14:32:24.966Z</time></trkpt><trkpt lat="45.66664954858228" lon="9.956314215959718"><ele>192.0</ele><time>2026-04-06T14:32:25.966Z</time></trkpt><trkpt lat="45.666602646322126" lon="9.956429461553165"><ele>192.0</ele><time>2026-04-06T14:32:27.966Z</time></trkpt><trkpt lat="45.66654616262362" lon="9.956557844210542"><ele>192.0</ele><time>2026-04-06T14:32:29.966Z</time></trkpt><trkpt lat="45.66649646159915" lon="9.956659735768786"><ele>192.0</ele><time>2026-04-06T14:32:31.966Z</time></trkpt><trkpt lat="45.66639741772064" lon="9.956664215761151"><ele>192.0</ele><time>2026-04-06T14:32:32.966Z</time></trkpt><trkpt lat="45.666354908248536" lon="9.956747653922244"><ele>192.0</ele><time>2026-04-06T14:32:33.966Z</time></trkpt><trkpt lat="45.66631727946977" lon="9.95682125549628"><ele>192.0</ele><time>2026-04-06T14:32:34.966Z</time></trkpt><trkpt lat="45.666277307094305" lon="9.956899441501411"><ele>193.0</ele><time>2026-04-06T14:32:36.966Z</time></trkpt><trkpt lat="45.66623208650652" lon="9.956976106456175"><ele>194.0</ele><time>2026-04-06T14:32:53.966Z</time></trkpt><trkpt lat="45.66619381726916" lon="9.957056016318452"><ele>195.0</ele><time>2026-04-06T14:33:07.966Z</time></trkpt><trkpt lat="45.66582384462154" lon="9.956804011923294"><ele>194.14285714285714</ele><time>2026-04-06T14:33:42.965Z</time></trkpt><trkpt lat="45.66576653599929" lon="9.956754735263424"><ele>193.28571428571428</ele><time>2026-04-06T14:33:44.965Z</time></trkpt><trkpt lat="45.66572705222417" lon="9.956675232676515"><ele>192.42857142857144</ele><time>2026-04-06T14:33:46.965Z</time></trkpt><trkpt lat="45.66565863232431" lon="9.95661596958479"><ele>191.57142857142856</ele><time>2026-04-06T14:33:50.965Z</time></trkpt><trkpt lat="45.66559274457225" lon="9.956558102363665"><ele>190.71428571428572</ele><time>2026-04-06T14:33:53.965Z</time></trkpt><trkpt lat="45.665514449638884" lon="9.956516286942282"><ele>189.85714285714286</ele><time>2026-04-06T14:33:56.965Z</time></trkpt><trkpt lat="45.665459137352116" lon="9.95644990065409"><ele>189.0</ele><time>2026-04-06T14:33:59.965Z</time></trkpt><trkpt lat="45.665398678570256" lon="9.956395893986173"><ele>189.0</ele><time>2026-04-06T14:34:01.965Z</time></trkpt><trkpt lat="45.66530513234237" lon="9.956322504719903"><ele>189.0</ele><time>2026-04-06T14:34:03.965Z</time></trkpt><trkpt lat="45.66521263021596" lon="9.956244965878977"><ele>189.0</ele><time>2026-04-06T14:34:05.965Z</time></trkpt><trkpt lat="45.665153297574754" lon="9.956204027265729"><ele>189.0</ele><time>2026-04-06T14:34:07.965Z</time></trkpt><trkpt lat="45.66508546079433" lon="9.95616976503485"><ele>189.0</ele><time>2026-04-06T14:34:12.965Z</time></trkpt><trkpt lat="45.66502286575436" lon="9.956122945972513"><ele>189.0</ele><time>2026-04-06T14:34:16.965Z</time></trkpt><trkpt lat="45.664965616706766" lon="9.956081999169248"><ele>189.0</ele><time>2026-04-06T14:34:18.965Z</time></trkpt><trkpt lat="45.66485873061384" lon="9.956043419468477"><ele>189.0</ele><time>2026-04-06T14:34:20.965Z</time></trkpt><trkpt lat="45.66476326819982" lon="9.956128356097835"><ele>189.0</ele><time>2026-04-06T14:34:22.965Z</time></trkpt><trkpt lat="45.66471646454339" lon="9.956197775938348"><ele>189.0</ele><time>2026-04-06T14:34:23.965Z</time></trkpt><trkpt lat="45.66465425342769" lon="9.956271979052561"><ele>189.0</ele><time>2026-04-06T14:34:24.965Z</time></trkpt><trkpt lat="45.66459478497756" lon="9.956358790006458"><ele>189.0</ele><time>2026-04-06T14:34:25.965Z</time></trkpt><trkpt lat="45.66455749028206" lon="9.956462854167622"><ele>189.0</ele><time>2026-04-06T14:34:26.965Z</time></trkpt><trkpt lat="45.66453616236774" lon="9.956563406404012"><ele>189.0</ele><time>2026-04-06T14:34:27.965Z</time></trkpt><trkpt lat="45.6645093127006" lon="9.956651887312255"><ele>189.0</ele><time>2026-04-06T14:34:28.965Z</time></trkpt><trkpt lat="45.664452397622945" lon="9.956801595750381"><ele>189.0</ele><time>2026-04-06T14:34:30.965Z</time></trkpt><trkpt lat="45.66438962116258" lon="9.956938193836386"><ele>189.0</ele><time>2026-04-06T14:34:32.965Z</time></trkpt><trkpt lat="45.66429758993115" lon="9.957045207496412"><ele>189.0</ele><time>2026-04-06T14:34:34.965Z</time></trkpt><trkpt lat="45.66421052779819" lon="9.957065975055448"><ele>189.0</ele><time>2026-04-06T14:34:36.965Z</time></trkpt><trkpt lat="45.664128984545236" lon="9.957161642697853"><ele>189.0</ele><time>2026-04-06T14:34:40.965Z</time></trkpt><trkpt lat="45.66410103324866" lon="9.957307820703333"><ele>189.0</ele><time>2026-04-06T14:34:41.965Z</time></trkpt><trkpt lat="45.66403062885402" lon="9.957443653571083"><ele>188.6</ele><time>2026-04-06T14:34:42.965Z</time></trkpt><trkpt lat="45.663983865732455" lon="9.957552669639545"><ele>188.2</ele><time>2026-04-06T14:34:43.965Z</time></trkpt><trkpt lat="45.66396722034413" lon="9.95769584441106"><ele>187.79999999999998</ele><time>2026-04-06T14:34:45.965Z</time></trkpt><trkpt lat="45.6640489558457" lon="9.957800490130925"><ele>187.39999999999998</ele><time>2026-04-06T14:34:47.965Z</time></trkpt><trkpt lat="45.66394069600448" lon="9.957942733839525"><ele>187.0</ele><time>2026-04-06T14:34:49.965Z</time></trkpt><trkpt lat="45.66384848709868" lon="9.958098273006902"><ele>187.0</ele><time>2026-04-06T14:34:50.965Z</time></trkpt><trkpt lat="45.663759397023" lon="9.958262022775832"><ele>187.0</ele><time>2026-04-06T14:34:51.965Z</time></trkpt><trkpt lat="45.663683244215264" lon="9.95841142028175"><ele>187.0</ele><time>2026-04-06T14:34:52.965Z</time></trkpt><trkpt lat="45.66361316075836" lon="9.958578964416828"><ele>187.0</ele><time>2026-04-06T14:34:53.965Z</time></trkpt><trkpt lat="45.66354648537215" lon="9.958754306081028"><ele>186.75</ele><time>2026-04-06T14:34:54.965Z</time></trkpt><trkpt lat="45.66345275482901" lon="9.958903332723311"><ele>186.5</ele><time>2026-04-06T14:34:55.965Z</time></trkpt><trkpt lat="45.66336925514921" lon="9.959046735731315"><ele>186.25</ele><time>2026-04-06T14:34:56.965Z</time></trkpt><trkpt lat="45.66329217369845" lon="9.959178612403415"><ele>186.0</ele><time>2026-04-06T14:34:57.965Z</time></trkpt><trkpt lat="45.663220272621906" lon="9.959301460609959"><ele>186.0</ele><time>2026-04-06T14:34:58.965Z</time></trkpt><trkpt lat="45.66315196396864" lon="9.959417895820563"><ele>186.0</ele><time>2026-04-06T14:34:59.965Z</time></trkpt><trkpt lat="45.663091960086106" lon="9.959520175162345"><ele>186.0</ele><time>2026-04-06T14:35:00.965Z</time></trkpt><trkpt lat="45.66303547240524" lon="9.95961646094645"><ele>186.0</ele><time>2026-04-06T14:35:01.965Z</time></trkpt><trkpt lat="45.6629823443966" lon="9.959706107335823"><ele>186.0</ele><time>2026-04-06T14:35:02.965Z</time></trkpt><trkpt lat="45.66293409946295" lon="9.959787435482397"><ele>186.0</ele><time>2026-04-06T14:35:03.965Z</time></trkpt><trkpt lat="45.662898537315286" lon="9.95987263975954"><ele>186.0</ele><time>2026-04-06T14:35:04.965Z</time></trkpt><trkpt lat="45.66282982517909" lon="9.95994318338742"><ele>186.0</ele><time>2026-04-06T14:35:06.965Z</time></trkpt><trkpt lat="45.66279101195935" lon="9.960019095174513"><ele>186.0</ele><time>2026-04-06T14:35:12.965Z</time></trkpt><trkpt lat="45.66275661666839" lon="9.960097206757334"><ele>185.0</ele><time>2026-04-06T14:35:15.965Z</time></trkpt><trkpt lat="45.66270543430901" lon="9.960168838269116"><ele>185.0</ele><time>2026-04-06T14:35:18.965Z</time></trkpt></trkseg></trk></gpx>